<?xml version="1.0" encoding="UTF-8" standalone="no" ?>
<gpx xmlns="http://www.topografix.com/GPX/1/1" xmlns:xsi="http://www.w3.org/2001/XMLSchema-instance" xsi:schemaLocation="http://www.topografix.com/GPX/1/1 http://www.topografix.com/GPX/1/1/gpx.xsd" version="1.1" creator="VisuGPX - https://www.visugpx.com">
  <metadata>
    <name>Jour 7 : 2016.05.08.Le Sap /St Gervais Des Sablons</name>
    <desc><![CDATA[Emilie nous accueille et là... douches, repas et lit !! Un couple adorable avec deux enfants !
Les chevaux auront peu dormi car une de leurs juments venait sans cesse voir la mienne...^^]]></desc>
  </metadata>
  <trk>
    <name><![CDATA[Le Sap / Falaise]]></name>
    <trkseg>
      <trkpt lat="48.87589" lon="0.34952">
        <ele>258.79998779297</ele>
        <time>2016-05-08T07:15:33.000Z</time>
      </trkpt>
      <trkpt lat="48.87589" lon="0.34938">
        <ele>258.60000610352</ele>
        <time>2016-05-08T07:15:41.000Z</time>
      </trkpt>
      <trkpt lat="48.87589" lon="0.34933">
        <ele>258.60000610352</ele>
        <time>2016-05-08T07:15:44.000Z</time>
      </trkpt>
      <trkpt lat="48.87588" lon="0.34924">
        <ele>258.60000610352</ele>
        <time>2016-05-08T07:15:49.000Z</time>
      </trkpt>
      <trkpt lat="48.87586" lon="0.34913">
        <ele>258.39999389648</ele>
        <time>2016-05-08T07:15:57.000Z</time>
      </trkpt>
      <trkpt lat="48.87584" lon="0.34911">
        <ele>258.39999389648</ele>
        <time>2016-05-08T07:15:59.000Z</time>
      </trkpt>
      <trkpt lat="48.87581" lon="0.34907">
        <ele>258.39999389648</ele>
        <time>2016-05-08T07:16:03.000Z</time>
      </trkpt>
      <trkpt lat="48.8758" lon="0.34904">
        <ele>258.20001220703</ele>
        <time>2016-05-08T07:16:05.000Z</time>
      </trkpt>
      <trkpt lat="48.87576" lon="0.34896">
        <ele>258.20001220703</ele>
        <time>2016-05-08T07:16:12.000Z</time>
      </trkpt>
      <trkpt lat="48.87576" lon="0.34895">
        <ele>258.20001220703</ele>
        <time>2016-05-08T07:16:13.000Z</time>
      </trkpt>
      <trkpt lat="48.87575" lon="0.34893">
        <ele>258.20001220703</ele>
        <time>2016-05-08T07:16:15.000Z</time>
      </trkpt>
      <trkpt lat="48.87574" lon="0.34889">
        <ele>258.20001220703</ele>
        <time>2016-05-08T07:16:20.000Z</time>
      </trkpt>
      <trkpt lat="48.87619" lon="0.34847">
        <ele>258.20001220703</ele>
        <time>2016-05-08T07:17:35.000Z</time>
      </trkpt>
      <trkpt lat="48.87622" lon="0.34843">
        <ele>258.20001220703</ele>
        <time>2016-05-08T07:17:39.000Z</time>
      </trkpt>
      <trkpt lat="48.87628" lon="0.34834">
        <ele>258.39999389648</ele>
        <time>2016-05-08T07:17:47.000Z</time>
      </trkpt>
      <trkpt lat="48.87628" lon="0.34833">
        <ele>258.39999389648</ele>
        <time>2016-05-08T07:17:49.000Z</time>
      </trkpt>
      <trkpt lat="48.87519" lon="0.34795">
        <ele>258</ele>
        <time>2016-05-08T07:20:59.000Z</time>
      </trkpt>
      <trkpt lat="48.87517" lon="0.34795">
        <ele>258</ele>
        <time>2016-05-08T07:21:01.000Z</time>
      </trkpt>
      <trkpt lat="48.87514" lon="0.34795">
        <ele>258</ele>
        <time>2016-05-08T07:21:03.000Z</time>
      </trkpt>
      <trkpt lat="48.87506" lon="0.34793">
        <ele>258.20001220703</ele>
        <time>2016-05-08T07:21:11.000Z</time>
      </trkpt>
      <trkpt lat="48.87498" lon="0.34791">
        <ele>258.20001220703</ele>
        <time>2016-05-08T07:21:19.000Z</time>
      </trkpt>
      <trkpt lat="48.87489" lon="0.3479">
        <ele>258.39999389648</ele>
        <time>2016-05-08T07:21:27.000Z</time>
      </trkpt>
      <trkpt lat="48.87477" lon="0.34789">
        <ele>258.39999389648</ele>
        <time>2016-05-08T07:21:38.000Z</time>
      </trkpt>
      <trkpt lat="48.87462" lon="0.34788">
        <ele>258.60000610352</ele>
        <time>2016-05-08T07:21:50.000Z</time>
      </trkpt>
      <trkpt lat="48.87453" lon="0.34787">
        <ele>258.79998779297</ele>
        <time>2016-05-08T07:21:58.000Z</time>
      </trkpt>
      <trkpt lat="48.87445" lon="0.34786">
        <ele>258.79998779297</ele>
        <time>2016-05-08T07:22:06.000Z</time>
      </trkpt>
      <trkpt lat="48.87441" lon="0.34786">
        <ele>258.79998779297</ele>
        <time>2016-05-08T07:22:09.000Z</time>
      </trkpt>
      <trkpt lat="48.87437" lon="0.34787">
        <ele>259</ele>
        <time>2016-05-08T07:22:11.000Z</time>
      </trkpt>
      <trkpt lat="48.87435" lon="0.34787">
        <ele>259</ele>
        <time>2016-05-08T07:22:13.000Z</time>
      </trkpt>
      <trkpt lat="48.87428" lon="0.34788">
        <ele>259.20001220703</ele>
        <time>2016-05-08T07:22:21.000Z</time>
      </trkpt>
      <trkpt lat="48.87424" lon="0.34788">
        <ele>259.20001220703</ele>
        <time>2016-05-08T07:22:26.000Z</time>
      </trkpt>
      <trkpt lat="48.87419" lon="0.34787">
        <ele>259.20001220703</ele>
        <time>2016-05-08T07:22:33.000Z</time>
      </trkpt>
      <trkpt lat="48.87382" lon="0.34783">
        <ele>259.60000610352</ele>
        <time>2016-05-08T07:23:20.000Z</time>
      </trkpt>
      <trkpt lat="48.87379" lon="0.34783">
        <ele>259.79998779297</ele>
        <time>2016-05-08T07:23:23.000Z</time>
      </trkpt>
      <trkpt lat="48.87362" lon="0.34779">
        <ele>260</ele>
        <time>2016-05-08T07:23:37.000Z</time>
      </trkpt>
      <trkpt lat="48.87351" lon="0.34775">
        <ele>260</ele>
        <time>2016-05-08T07:23:47.000Z</time>
      </trkpt>
      <trkpt lat="48.87351" lon="0.34774">
        <ele>260</ele>
        <time>2016-05-08T07:23:48.000Z</time>
      </trkpt>
      <trkpt lat="48.87351" lon="0.34757">
        <ele>260</ele>
        <time>2016-05-08T07:23:58.000Z</time>
      </trkpt>
      <trkpt lat="48.8735" lon="0.34748">
        <ele>260</ele>
        <time>2016-05-08T07:24:04.000Z</time>
      </trkpt>
      <trkpt lat="48.87349" lon="0.34747">
        <ele>260</ele>
        <time>2016-05-08T07:24:05.000Z</time>
      </trkpt>
      <trkpt lat="48.87348" lon="0.34734">
        <ele>260</ele>
        <time>2016-05-08T07:24:13.000Z</time>
      </trkpt>
      <trkpt lat="48.87347" lon="0.34722">
        <ele>260</ele>
        <time>2016-05-08T07:24:22.000Z</time>
      </trkpt>
      <trkpt lat="48.87345" lon="0.34709">
        <ele>260</ele>
        <time>2016-05-08T07:24:30.000Z</time>
      </trkpt>
      <trkpt lat="48.87344" lon="0.347">
        <ele>260.20001220703</ele>
        <time>2016-05-08T07:24:36.000Z</time>
      </trkpt>
      <trkpt lat="48.87342" lon="0.34687">
        <ele>260.39999389648</ele>
        <time>2016-05-08T07:24:44.000Z</time>
      </trkpt>
      <trkpt lat="48.87339" lon="0.34669">
        <ele>260.60000610352</ele>
        <time>2016-05-08T07:24:54.000Z</time>
      </trkpt>
      <trkpt lat="48.87337" lon="0.34656">
        <ele>260.60000610352</ele>
        <time>2016-05-08T07:25:02.000Z</time>
      </trkpt>
      <trkpt lat="48.87334" lon="0.34639">
        <ele>260.79998779297</ele>
        <time>2016-05-08T07:25:11.000Z</time>
      </trkpt>
      <trkpt lat="48.8733" lon="0.34621">
        <ele>261</ele>
        <time>2016-05-08T07:25:21.000Z</time>
      </trkpt>
      <trkpt lat="48.87328" lon="0.34607">
        <ele>261</ele>
        <time>2016-05-08T07:25:29.000Z</time>
      </trkpt>
      <trkpt lat="48.87326" lon="0.34595">
        <ele>261</ele>
        <time>2016-05-08T07:25:36.000Z</time>
      </trkpt>
      <trkpt lat="48.87322" lon="0.3458">
        <ele>261</ele>
        <time>2016-05-08T07:25:45.000Z</time>
      </trkpt>
      <trkpt lat="48.8732" lon="0.34568">
        <ele>261</ele>
        <time>2016-05-08T07:25:52.000Z</time>
      </trkpt>
      <trkpt lat="48.87318" lon="0.34557">
        <ele>261</ele>
        <time>2016-05-08T07:25:59.000Z</time>
      </trkpt>
      <trkpt lat="48.87318" lon="0.34555">
        <ele>261</ele>
        <time>2016-05-08T07:26:00.000Z</time>
      </trkpt>
      <trkpt lat="48.87316" lon="0.34548">
        <ele>261</ele>
        <time>2016-05-08T07:26:04.000Z</time>
      </trkpt>
      <trkpt lat="48.87313" lon="0.34536">
        <ele>261</ele>
        <time>2016-05-08T07:26:11.000Z</time>
      </trkpt>
      <trkpt lat="48.87312" lon="0.34533">
        <ele>261</ele>
        <time>2016-05-08T07:26:13.000Z</time>
      </trkpt>
      <trkpt lat="48.87311" lon="0.3453">
        <ele>261</ele>
        <time>2016-05-08T07:26:15.000Z</time>
      </trkpt>
      <trkpt lat="48.87307" lon="0.34522">
        <ele>261</ele>
        <time>2016-05-08T07:26:20.000Z</time>
      </trkpt>
      <trkpt lat="48.87306" lon="0.3452">
        <ele>261</ele>
        <time>2016-05-08T07:26:21.000Z</time>
      </trkpt>
      <trkpt lat="48.87305" lon="0.34512">
        <ele>261</ele>
        <time>2016-05-08T07:26:25.000Z</time>
      </trkpt>
      <trkpt lat="48.87303" lon="0.34506">
        <ele>261</ele>
        <time>2016-05-08T07:26:28.000Z</time>
      </trkpt>
      <trkpt lat="48.87304" lon="0.34503">
        <ele>261</ele>
        <time>2016-05-08T07:26:29.000Z</time>
      </trkpt>
      <trkpt lat="48.87306" lon="0.34495">
        <ele>261</ele>
        <time>2016-05-08T07:26:33.000Z</time>
      </trkpt>
      <trkpt lat="48.87306" lon="0.34493">
        <ele>261</ele>
        <time>2016-05-08T07:26:34.000Z</time>
      </trkpt>
      <trkpt lat="48.87313" lon="0.34482">
        <ele>260.79998779297</ele>
        <time>2016-05-08T07:26:42.000Z</time>
      </trkpt>
      <trkpt lat="48.87319" lon="0.34476">
        <ele>260.60000610352</ele>
        <time>2016-05-08T07:26:48.000Z</time>
      </trkpt>
      <trkpt lat="48.87327" lon="0.34469">
        <ele>260.39999389648</ele>
        <time>2016-05-08T07:26:55.000Z</time>
      </trkpt>
      <trkpt lat="48.87334" lon="0.34462">
        <ele>260.20001220703</ele>
        <time>2016-05-08T07:27:03.000Z</time>
      </trkpt>
      <trkpt lat="48.87339" lon="0.34455">
        <ele>260.20001220703</ele>
        <time>2016-05-08T07:27:10.000Z</time>
      </trkpt>
      <trkpt lat="48.8734" lon="0.34454">
        <ele>260.20001220703</ele>
        <time>2016-05-08T07:27:11.000Z</time>
      </trkpt>
      <trkpt lat="48.87343" lon="0.34451">
        <ele>260.20001220703</ele>
        <time>2016-05-08T07:27:14.000Z</time>
      </trkpt>
      <trkpt lat="48.87343" lon="0.3445">
        <ele>260.20001220703</ele>
        <time>2016-05-08T07:27:15.000Z</time>
      </trkpt>
      <trkpt lat="48.87345" lon="0.34449">
        <ele>260.20001220703</ele>
        <time>2016-05-08T07:27:18.000Z</time>
      </trkpt>
      <trkpt lat="48.87358" lon="0.34392">
        <ele>260.79998779297</ele>
        <time>2016-05-08T07:28:51.000Z</time>
      </trkpt>
      <trkpt lat="48.87358" lon="0.3439">
        <ele>260.79998779297</ele>
        <time>2016-05-08T07:28:52.000Z</time>
      </trkpt>
      <trkpt lat="48.87355" lon="0.34379">
        <ele>261</ele>
        <time>2016-05-08T07:28:59.000Z</time>
      </trkpt>
      <trkpt lat="48.87354" lon="0.34373">
        <ele>260.79998779297</ele>
        <time>2016-05-08T07:29:02.000Z</time>
      </trkpt>
      <trkpt lat="48.87353" lon="0.34371">
        <ele>260.79998779297</ele>
        <time>2016-05-08T07:29:04.000Z</time>
      </trkpt>
      <trkpt lat="48.87352" lon="0.34368">
        <ele>260.79998779297</ele>
        <time>2016-05-08T07:29:06.000Z</time>
      </trkpt>
      <trkpt lat="48.87352" lon="0.34367">
        <ele>260.79998779297</ele>
        <time>2016-05-08T07:29:07.000Z</time>
      </trkpt>
      <trkpt lat="48.8735" lon="0.34357">
        <ele>260.60000610352</ele>
        <time>2016-05-08T07:29:12.000Z</time>
      </trkpt>
      <trkpt lat="48.87349" lon="0.34351">
        <ele>260.39999389648</ele>
        <time>2016-05-08T07:29:17.000Z</time>
      </trkpt>
      <trkpt lat="48.87348" lon="0.3434">
        <ele>260.20001220703</ele>
        <time>2016-05-08T07:29:23.000Z</time>
      </trkpt>
      <trkpt lat="48.87347" lon="0.34336">
        <ele>260</ele>
        <time>2016-05-08T07:29:25.000Z</time>
      </trkpt>
      <trkpt lat="48.87346" lon="0.34329">
        <ele>259.79998779297</ele>
        <time>2016-05-08T07:29:29.000Z</time>
      </trkpt>
      <trkpt lat="48.87345" lon="0.34328">
        <ele>259.79998779297</ele>
        <time>2016-05-08T07:29:30.000Z</time>
      </trkpt>
      <trkpt lat="48.87344" lon="0.34318">
        <ele>259.60000610352</ele>
        <time>2016-05-08T07:29:35.000Z</time>
      </trkpt>
      <trkpt lat="48.87344" lon="0.34315">
        <ele>259.60000610352</ele>
        <time>2016-05-08T07:29:37.000Z</time>
      </trkpt>
      <trkpt lat="48.87344" lon="0.34304">
        <ele>259.39999389648</ele>
        <time>2016-05-08T07:29:43.000Z</time>
      </trkpt>
      <trkpt lat="48.87344" lon="0.34289">
        <ele>259</ele>
        <time>2016-05-08T07:29:51.000Z</time>
      </trkpt>
      <trkpt lat="48.87345" lon="0.34279">
        <ele>259</ele>
        <time>2016-05-08T07:29:56.000Z</time>
      </trkpt>
      <trkpt lat="48.87345" lon="0.34277">
        <ele>258.79998779297</ele>
        <time>2016-05-08T07:29:57.000Z</time>
      </trkpt>
      <trkpt lat="48.87345" lon="0.34272">
        <ele>258.79998779297</ele>
        <time>2016-05-08T07:30:00.000Z</time>
      </trkpt>
      <trkpt lat="48.87345" lon="0.34268">
        <ele>258.79998779297</ele>
        <time>2016-05-08T07:30:02.000Z</time>
      </trkpt>
      <trkpt lat="48.87344" lon="0.34262">
        <ele>258.79998779297</ele>
        <time>2016-05-08T07:30:06.000Z</time>
      </trkpt>
      <trkpt lat="48.87344" lon="0.34261">
        <ele>258.79998779297</ele>
        <time>2016-05-08T07:30:07.000Z</time>
      </trkpt>
      <trkpt lat="48.87344" lon="0.3426">
        <ele>258.60000610352</ele>
        <time>2016-05-08T07:30:08.000Z</time>
      </trkpt>
      <trkpt lat="48.87344" lon="0.3425">
        <ele>258.60000610352</ele>
        <time>2016-05-08T07:30:13.000Z</time>
      </trkpt>
      <trkpt lat="48.87344" lon="0.34249">
        <ele>258.60000610352</ele>
        <time>2016-05-08T07:30:14.000Z</time>
      </trkpt>
      <trkpt lat="48.87344" lon="0.34242">
        <ele>258.39999389648</ele>
        <time>2016-05-08T07:30:18.000Z</time>
      </trkpt>
      <trkpt lat="48.87345" lon="0.34228">
        <ele>258.39999389648</ele>
        <time>2016-05-08T07:30:25.000Z</time>
      </trkpt>
      <trkpt lat="48.87346" lon="0.34223">
        <ele>258.20001220703</ele>
        <time>2016-05-08T07:30:29.000Z</time>
      </trkpt>
      <trkpt lat="48.87346" lon="0.34223">
        <ele>258.20001220703</ele>
        <time>2016-05-08T07:30:30.000Z</time>
      </trkpt>
      <trkpt lat="48.87348" lon="0.34182">
        <ele>257.60000610352</ele>
        <time>2016-05-08T07:31:23.000Z</time>
      </trkpt>
      <trkpt lat="48.87349" lon="0.34172">
        <ele>257.39999389648</ele>
        <time>2016-05-08T07:31:29.000Z</time>
      </trkpt>
      <trkpt lat="48.87349" lon="0.3416">
        <ele>257</ele>
        <time>2016-05-08T07:31:36.000Z</time>
      </trkpt>
      <trkpt lat="48.87349" lon="0.34159">
        <ele>257</ele>
        <time>2016-05-08T07:31:37.000Z</time>
      </trkpt>
      <trkpt lat="48.8735" lon="0.34157">
        <ele>257</ele>
        <time>2016-05-08T07:31:39.000Z</time>
      </trkpt>
      <trkpt lat="48.87396" lon="0.34116">
        <ele>255.80000305176</ele>
        <time>2016-05-08T07:33:13.000Z</time>
      </trkpt>
      <trkpt lat="48.87402" lon="0.3412">
        <ele>255.80000305176</ele>
        <time>2016-05-08T07:33:18.000Z</time>
      </trkpt>
      <trkpt lat="48.87403" lon="0.34121">
        <ele>255.80000305176</ele>
        <time>2016-05-08T07:33:20.000Z</time>
      </trkpt>
      <trkpt lat="48.87551" lon="0.34031">
        <ele>253.39999389648</ele>
        <time>2016-05-08T07:37:27.000Z</time>
      </trkpt>
      <trkpt lat="48.87552" lon="0.34024">
        <ele>253.39999389648</ele>
        <time>2016-05-08T07:37:31.000Z</time>
      </trkpt>
      <trkpt lat="48.87554" lon="0.34012">
        <ele>253.19999694824</ele>
        <time>2016-05-08T07:37:39.000Z</time>
      </trkpt>
      <trkpt lat="48.87555" lon="0.34007">
        <ele>253.19999694824</ele>
        <time>2016-05-08T07:37:42.000Z</time>
      </trkpt>
      <trkpt lat="48.87556" lon="0.34002">
        <ele>253.19999694824</ele>
        <time>2016-05-08T07:37:45.000Z</time>
      </trkpt>
      <trkpt lat="48.87556" lon="0.34">
        <ele>253.19999694824</ele>
        <time>2016-05-08T07:37:46.000Z</time>
      </trkpt>
      <trkpt lat="48.87558" lon="0.33993">
        <ele>253.19999694824</ele>
        <time>2016-05-08T07:37:51.000Z</time>
      </trkpt>
      <trkpt lat="48.8756" lon="0.33985">
        <ele>253.19999694824</ele>
        <time>2016-05-08T07:37:56.000Z</time>
      </trkpt>
      <trkpt lat="48.87562" lon="0.33973">
        <ele>253.39999389648</ele>
        <time>2016-05-08T07:38:04.000Z</time>
      </trkpt>
      <trkpt lat="48.87565" lon="0.33965">
        <ele>253.39999389648</ele>
        <time>2016-05-08T07:38:10.000Z</time>
      </trkpt>
      <trkpt lat="48.87567" lon="0.33957">
        <ele>253.60000610352</ele>
        <time>2016-05-08T07:38:16.000Z</time>
      </trkpt>
      <trkpt lat="48.87568" lon="0.33951">
        <ele>253.60000610352</ele>
        <time>2016-05-08T07:38:20.000Z</time>
      </trkpt>
      <trkpt lat="48.87568" lon="0.33946">
        <ele>253.60000610352</ele>
        <time>2016-05-08T07:38:23.000Z</time>
      </trkpt>
      <trkpt lat="48.87569" lon="0.33939">
        <ele>253.80000305176</ele>
        <time>2016-05-08T07:38:26.000Z</time>
      </trkpt>
      <trkpt lat="48.8757" lon="0.33931">
        <ele>253.80000305176</ele>
        <time>2016-05-08T07:38:30.000Z</time>
      </trkpt>
      <trkpt lat="48.8757" lon="0.33928">
        <ele>253.80000305176</ele>
        <time>2016-05-08T07:38:32.000Z</time>
      </trkpt>
      <trkpt lat="48.87571" lon="0.3392">
        <ele>254</ele>
        <time>2016-05-08T07:38:36.000Z</time>
      </trkpt>
      <trkpt lat="48.8757" lon="0.3391">
        <ele>254</ele>
        <time>2016-05-08T07:38:42.000Z</time>
      </trkpt>
      <trkpt lat="48.8757" lon="0.33904">
        <ele>254.19999694824</ele>
        <time>2016-05-08T07:38:45.000Z</time>
      </trkpt>
      <trkpt lat="48.8757" lon="0.33895">
        <ele>254.19999694824</ele>
        <time>2016-05-08T07:38:49.000Z</time>
      </trkpt>
      <trkpt lat="48.87569" lon="0.33882">
        <ele>254.39999389648</ele>
        <time>2016-05-08T07:38:56.000Z</time>
      </trkpt>
      <trkpt lat="48.87568" lon="0.33878">
        <ele>254.60000610352</ele>
        <time>2016-05-08T07:38:58.000Z</time>
      </trkpt>
      <trkpt lat="48.87569" lon="0.33872">
        <ele>254.60000610352</ele>
        <time>2016-05-08T07:39:01.000Z</time>
      </trkpt>
      <trkpt lat="48.8757" lon="0.33865">
        <ele>254.80000305176</ele>
        <time>2016-05-08T07:39:05.000Z</time>
      </trkpt>
      <trkpt lat="48.8757" lon="0.33858">
        <ele>255</ele>
        <time>2016-05-08T07:39:09.000Z</time>
      </trkpt>
      <trkpt lat="48.8757" lon="0.33855">
        <ele>255</ele>
        <time>2016-05-08T07:39:10.000Z</time>
      </trkpt>
      <trkpt lat="48.8757" lon="0.33851">
        <ele>255.19999694824</ele>
        <time>2016-05-08T07:39:12.000Z</time>
      </trkpt>
      <trkpt lat="48.8757" lon="0.33846">
        <ele>255.19999694824</ele>
        <time>2016-05-08T07:39:15.000Z</time>
      </trkpt>
      <trkpt lat="48.8757" lon="0.33845">
        <ele>255.39999389648</ele>
        <time>2016-05-08T07:39:16.000Z</time>
      </trkpt>
      <trkpt lat="48.8757" lon="0.33835">
        <ele>255.60000610352</ele>
        <time>2016-05-08T07:39:20.000Z</time>
      </trkpt>
      <trkpt lat="48.8757" lon="0.33827">
        <ele>256</ele>
        <time>2016-05-08T07:39:24.000Z</time>
      </trkpt>
      <trkpt lat="48.87571" lon="0.33824">
        <ele>256</ele>
        <time>2016-05-08T07:39:26.000Z</time>
      </trkpt>
      <trkpt lat="48.87571" lon="0.33815">
        <ele>256.39999389648</ele>
        <time>2016-05-08T07:39:30.000Z</time>
      </trkpt>
      <trkpt lat="48.87571" lon="0.33805">
        <ele>256.79998779297</ele>
        <time>2016-05-08T07:39:36.000Z</time>
      </trkpt>
      <trkpt lat="48.87572" lon="0.33799">
        <ele>257</ele>
        <time>2016-05-08T07:39:39.000Z</time>
      </trkpt>
      <trkpt lat="48.87572" lon="0.33796">
        <ele>257</ele>
        <time>2016-05-08T07:39:41.000Z</time>
      </trkpt>
      <trkpt lat="48.87573" lon="0.33788">
        <ele>257.20001220703</ele>
        <time>2016-05-08T07:39:46.000Z</time>
      </trkpt>
      <trkpt lat="48.87573" lon="0.33785">
        <ele>257.20001220703</ele>
        <time>2016-05-08T07:39:48.000Z</time>
      </trkpt>
      <trkpt lat="48.87575" lon="0.33776">
        <ele>257.20001220703</ele>
        <time>2016-05-08T07:39:53.000Z</time>
      </trkpt>
      <trkpt lat="48.87577" lon="0.33765">
        <ele>257.39999389648</ele>
        <time>2016-05-08T07:39:59.000Z</time>
      </trkpt>
      <trkpt lat="48.87578" lon="0.33759">
        <ele>257.60000610352</ele>
        <time>2016-05-08T07:40:02.000Z</time>
      </trkpt>
      <trkpt lat="48.87578" lon="0.33755">
        <ele>257.60000610352</ele>
        <time>2016-05-08T07:40:05.000Z</time>
      </trkpt>
      <trkpt lat="48.8758" lon="0.33743">
        <ele>258</ele>
        <time>2016-05-08T07:40:12.000Z</time>
      </trkpt>
      <trkpt lat="48.87582" lon="0.33732">
        <ele>258.20001220703</ele>
        <time>2016-05-08T07:40:19.000Z</time>
      </trkpt>
      <trkpt lat="48.87584" lon="0.33719">
        <ele>258.60000610352</ele>
        <time>2016-05-08T07:40:26.000Z</time>
      </trkpt>
      <trkpt lat="48.87586" lon="0.33708">
        <ele>258.79998779297</ele>
        <time>2016-05-08T07:40:33.000Z</time>
      </trkpt>
      <trkpt lat="48.87588" lon="0.33694">
        <ele>259</ele>
        <time>2016-05-08T07:40:41.000Z</time>
      </trkpt>
      <trkpt lat="48.87589" lon="0.33682">
        <ele>259</ele>
        <time>2016-05-08T07:40:48.000Z</time>
      </trkpt>
      <trkpt lat="48.87591" lon="0.3367">
        <ele>259</ele>
        <time>2016-05-08T07:40:55.000Z</time>
      </trkpt>
      <trkpt lat="48.87591" lon="0.33668">
        <ele>259</ele>
        <time>2016-05-08T07:40:56.000Z</time>
      </trkpt>
      <trkpt lat="48.87592" lon="0.33661">
        <ele>259</ele>
        <time>2016-05-08T07:41:00.000Z</time>
      </trkpt>
      <trkpt lat="48.87592" lon="0.33658">
        <ele>259</ele>
        <time>2016-05-08T07:41:02.000Z</time>
      </trkpt>
      <trkpt lat="48.87593" lon="0.3365">
        <ele>259</ele>
        <time>2016-05-08T07:41:06.000Z</time>
      </trkpt>
      <trkpt lat="48.87593" lon="0.33643">
        <ele>259</ele>
        <time>2016-05-08T07:41:12.000Z</time>
      </trkpt>
      <trkpt lat="48.87593" lon="0.33641">
        <ele>259</ele>
        <time>2016-05-08T07:41:13.000Z</time>
      </trkpt>
      <trkpt lat="48.87592" lon="0.33638">
        <ele>259</ele>
        <time>2016-05-08T07:41:15.000Z</time>
      </trkpt>
      <trkpt lat="48.87594" lon="0.33628">
        <ele>259</ele>
        <time>2016-05-08T07:41:21.000Z</time>
      </trkpt>
      <trkpt lat="48.87596" lon="0.33616">
        <ele>258.79998779297</ele>
        <time>2016-05-08T07:41:28.000Z</time>
      </trkpt>
      <trkpt lat="48.87597" lon="0.33608">
        <ele>258.79998779297</ele>
        <time>2016-05-08T07:41:33.000Z</time>
      </trkpt>
      <trkpt lat="48.87597" lon="0.33605">
        <ele>258.79998779297</ele>
        <time>2016-05-08T07:41:35.000Z</time>
      </trkpt>
      <trkpt lat="48.87598" lon="0.33602">
        <ele>259</ele>
        <time>2016-05-08T07:41:38.000Z</time>
      </trkpt>
      <trkpt lat="48.87603" lon="0.33575">
        <ele>259</ele>
        <time>2016-05-08T07:42:01.000Z</time>
      </trkpt>
      <trkpt lat="48.87603" lon="0.33573">
        <ele>259</ele>
        <time>2016-05-08T07:42:02.000Z</time>
      </trkpt>
      <trkpt lat="48.87605" lon="0.33563">
        <ele>259</ele>
        <time>2016-05-08T07:42:08.000Z</time>
      </trkpt>
      <trkpt lat="48.87606" lon="0.33554">
        <ele>259</ele>
        <time>2016-05-08T07:42:13.000Z</time>
      </trkpt>
      <trkpt lat="48.87607" lon="0.33549">
        <ele>259</ele>
        <time>2016-05-08T07:42:16.000Z</time>
      </trkpt>
      <trkpt lat="48.87608" lon="0.33546">
        <ele>259</ele>
        <time>2016-05-08T07:42:18.000Z</time>
      </trkpt>
      <trkpt lat="48.87608" lon="0.33543">
        <ele>259</ele>
        <time>2016-05-08T07:42:20.000Z</time>
      </trkpt>
      <trkpt lat="48.8761" lon="0.3353">
        <ele>258.79998779297</ele>
        <time>2016-05-08T07:42:28.000Z</time>
      </trkpt>
      <trkpt lat="48.8761" lon="0.33527">
        <ele>258.79998779297</ele>
        <time>2016-05-08T07:42:30.000Z</time>
      </trkpt>
      <trkpt lat="48.8761" lon="0.33523">
        <ele>258.79998779297</ele>
        <time>2016-05-08T07:42:33.000Z</time>
      </trkpt>
      <trkpt lat="48.87612" lon="0.33517">
        <ele>258.60000610352</ele>
        <time>2016-05-08T07:42:38.000Z</time>
      </trkpt>
      <trkpt lat="48.87612" lon="0.33516">
        <ele>258.60000610352</ele>
        <time>2016-05-08T07:42:39.000Z</time>
      </trkpt>
      <trkpt lat="48.87613" lon="0.33514">
        <ele>258.60000610352</ele>
        <time>2016-05-08T07:42:41.000Z</time>
      </trkpt>
      <trkpt lat="48.87613" lon="0.33511">
        <ele>258.60000610352</ele>
        <time>2016-05-08T07:42:43.000Z</time>
      </trkpt>
      <trkpt lat="48.87614" lon="0.33507">
        <ele>258.60000610352</ele>
        <time>2016-05-08T07:42:46.000Z</time>
      </trkpt>
      <trkpt lat="48.87615" lon="0.33503">
        <ele>258.39999389648</ele>
        <time>2016-05-08T07:42:49.000Z</time>
      </trkpt>
      <trkpt lat="48.87617" lon="0.3349">
        <ele>258.39999389648</ele>
        <time>2016-05-08T07:42:57.000Z</time>
      </trkpt>
      <trkpt lat="48.87618" lon="0.33485">
        <ele>258.20001220703</ele>
        <time>2016-05-08T07:43:00.000Z</time>
      </trkpt>
      <trkpt lat="48.87619" lon="0.33484">
        <ele>258.20001220703</ele>
        <time>2016-05-08T07:43:02.000Z</time>
      </trkpt>
      <trkpt lat="48.87624" lon="0.33433">
        <ele>258</ele>
        <time>2016-05-08T07:43:33.000Z</time>
      </trkpt>
      <trkpt lat="48.87625" lon="0.33422">
        <ele>258</ele>
        <time>2016-05-08T07:43:39.000Z</time>
      </trkpt>
      <trkpt lat="48.87625" lon="0.3342">
        <ele>258</ele>
        <time>2016-05-08T07:43:42.000Z</time>
      </trkpt>
      <trkpt lat="48.87644" lon="0.33283">
        <ele>256.39999389648</ele>
        <time>2016-05-08T07:45:26.000Z</time>
      </trkpt>
      <trkpt lat="48.87645" lon="0.33281">
        <ele>256.39999389648</ele>
        <time>2016-05-08T07:45:27.000Z</time>
      </trkpt>
      <trkpt lat="48.87645" lon="0.33275">
        <ele>256.20001220703</ele>
        <time>2016-05-08T07:45:30.000Z</time>
      </trkpt>
      <trkpt lat="48.87646" lon="0.33272">
        <ele>256.20001220703</ele>
        <time>2016-05-08T07:45:33.000Z</time>
      </trkpt>
      <trkpt lat="48.87647" lon="0.3326">
        <ele>256</ele>
        <time>2016-05-08T07:45:39.000Z</time>
      </trkpt>
      <trkpt lat="48.87647" lon="0.33258">
        <ele>256</ele>
        <time>2016-05-08T07:45:40.000Z</time>
      </trkpt>
      <trkpt lat="48.87648" lon="0.33256">
        <ele>256</ele>
        <time>2016-05-08T07:45:41.000Z</time>
      </trkpt>
      <trkpt lat="48.87648" lon="0.33249">
        <ele>256</ele>
        <time>2016-05-08T07:45:45.000Z</time>
      </trkpt>
      <trkpt lat="48.87649" lon="0.33245">
        <ele>255.80000305176</ele>
        <time>2016-05-08T07:45:47.000Z</time>
      </trkpt>
      <trkpt lat="48.8765" lon="0.33239">
        <ele>255.80000305176</ele>
        <time>2016-05-08T07:45:50.000Z</time>
      </trkpt>
      <trkpt lat="48.8765" lon="0.33235">
        <ele>255.80000305176</ele>
        <time>2016-05-08T07:45:52.000Z</time>
      </trkpt>
      <trkpt lat="48.87649" lon="0.3323">
        <ele>255.60000610352</ele>
        <time>2016-05-08T07:45:55.000Z</time>
      </trkpt>
      <trkpt lat="48.87651" lon="0.33225">
        <ele>255.60000610352</ele>
        <time>2016-05-08T07:45:58.000Z</time>
      </trkpt>
      <trkpt lat="48.87657" lon="0.33221">
        <ele>255.39999389648</ele>
        <time>2016-05-08T07:46:03.000Z</time>
      </trkpt>
      <trkpt lat="48.87658" lon="0.33221">
        <ele>255.39999389648</ele>
        <time>2016-05-08T07:46:04.000Z</time>
      </trkpt>
      <trkpt lat="48.87659" lon="0.33221">
        <ele>255.39999389648</ele>
        <time>2016-05-08T07:46:05.000Z</time>
      </trkpt>
      <trkpt lat="48.87663" lon="0.33222">
        <ele>255.39999389648</ele>
        <time>2016-05-08T07:46:08.000Z</time>
      </trkpt>
      <trkpt lat="48.87665" lon="0.33222">
        <ele>255.39999389648</ele>
        <time>2016-05-08T07:46:10.000Z</time>
      </trkpt>
      <trkpt lat="48.87669" lon="0.33222">
        <ele>255.39999389648</ele>
        <time>2016-05-08T07:46:13.000Z</time>
      </trkpt>
      <trkpt lat="48.87671" lon="0.33223">
        <ele>255.39999389648</ele>
        <time>2016-05-08T07:46:16.000Z</time>
      </trkpt>
      <trkpt lat="48.87674" lon="0.33222">
        <ele>255.19999694824</ele>
        <time>2016-05-08T07:46:18.000Z</time>
      </trkpt>
      <trkpt lat="48.87678" lon="0.33222">
        <ele>255.19999694824</ele>
        <time>2016-05-08T07:46:22.000Z</time>
      </trkpt>
      <trkpt lat="48.8768" lon="0.33223">
        <ele>255.19999694824</ele>
        <time>2016-05-08T07:46:24.000Z</time>
      </trkpt>
      <trkpt lat="48.87688" lon="0.33224">
        <ele>255.19999694824</ele>
        <time>2016-05-08T07:46:31.000Z</time>
      </trkpt>
      <trkpt lat="48.87692" lon="0.33226">
        <ele>255.19999694824</ele>
        <time>2016-05-08T07:46:35.000Z</time>
      </trkpt>
      <trkpt lat="48.87692" lon="0.33226">
        <ele>255.19999694824</ele>
        <time>2016-05-08T07:46:36.000Z</time>
      </trkpt>
      <trkpt lat="48.87693" lon="0.33226">
        <ele>255.19999694824</ele>
        <time>2016-05-08T07:46:37.000Z</time>
      </trkpt>
      <trkpt lat="48.87728" lon="0.33237">
        <ele>255</ele>
        <time>2016-05-08T07:47:44.000Z</time>
      </trkpt>
      <trkpt lat="48.87732" lon="0.33238">
        <ele>255</ele>
        <time>2016-05-08T07:47:47.000Z</time>
      </trkpt>
      <trkpt lat="48.87732" lon="0.33238">
        <ele>255</ele>
        <time>2016-05-08T07:47:48.000Z</time>
      </trkpt>
      <trkpt lat="48.87737" lon="0.3324">
        <ele>255</ele>
        <time>2016-05-08T07:47:53.000Z</time>
      </trkpt>
      <trkpt lat="48.87744" lon="0.33244">
        <ele>255</ele>
        <time>2016-05-08T07:47:59.000Z</time>
      </trkpt>
      <trkpt lat="48.87744" lon="0.33245">
        <ele>255.19999694824</ele>
        <time>2016-05-08T07:48:01.000Z</time>
      </trkpt>
      <trkpt lat="48.8778" lon="0.33261">
        <ele>255</ele>
        <time>2016-05-08T07:48:36.000Z</time>
      </trkpt>
      <trkpt lat="48.87782" lon="0.33262">
        <ele>255</ele>
        <time>2016-05-08T07:48:37.000Z</time>
      </trkpt>
      <trkpt lat="48.87785" lon="0.33264">
        <ele>255</ele>
        <time>2016-05-08T07:48:40.000Z</time>
      </trkpt>
      <trkpt lat="48.87788" lon="0.33265">
        <ele>255</ele>
        <time>2016-05-08T07:48:43.000Z</time>
      </trkpt>
      <trkpt lat="48.8779" lon="0.33266">
        <ele>255</ele>
        <time>2016-05-08T07:48:45.000Z</time>
      </trkpt>
      <trkpt lat="48.87795" lon="0.33268">
        <ele>255</ele>
        <time>2016-05-08T07:48:49.000Z</time>
      </trkpt>
      <trkpt lat="48.87804" lon="0.33272">
        <ele>255</ele>
        <time>2016-05-08T07:48:57.000Z</time>
      </trkpt>
      <trkpt lat="48.87813" lon="0.33277">
        <ele>255</ele>
        <time>2016-05-08T07:49:07.000Z</time>
      </trkpt>
      <trkpt lat="48.8788" lon="0.33299">
        <ele>254.60000610352</ele>
        <time>2016-05-08T07:50:27.000Z</time>
      </trkpt>
      <trkpt lat="48.87884" lon="0.33299">
        <ele>254.60000610352</ele>
        <time>2016-05-08T07:50:30.000Z</time>
      </trkpt>
      <trkpt lat="48.87892" lon="0.333">
        <ele>254.60000610352</ele>
        <time>2016-05-08T07:50:38.000Z</time>
      </trkpt>
      <trkpt lat="48.87896" lon="0.33301">
        <ele>254.39999389648</ele>
        <time>2016-05-08T07:50:41.000Z</time>
      </trkpt>
      <trkpt lat="48.87899" lon="0.33302">
        <ele>254.39999389648</ele>
        <time>2016-05-08T07:50:44.000Z</time>
      </trkpt>
      <trkpt lat="48.87901" lon="0.33302">
        <ele>254.39999389648</ele>
        <time>2016-05-08T07:50:46.000Z</time>
      </trkpt>
      <trkpt lat="48.87907" lon="0.33305">
        <ele>254.39999389648</ele>
        <time>2016-05-08T07:50:52.000Z</time>
      </trkpt>
      <trkpt lat="48.8791" lon="0.33306">
        <ele>254.19999694824</ele>
        <time>2016-05-08T07:50:55.000Z</time>
      </trkpt>
      <trkpt lat="48.87909" lon="0.33305">
        <ele>254.19999694824</ele>
        <time>2016-05-08T07:50:57.000Z</time>
      </trkpt>
      <trkpt lat="48.87909" lon="0.33305">
        <ele>254.19999694824</ele>
        <time>2016-05-08T07:50:59.000Z</time>
      </trkpt>
      <trkpt lat="48.8793" lon="0.33262">
        <ele>254</ele>
        <time>2016-05-08T07:51:53.000Z</time>
      </trkpt>
      <trkpt lat="48.87931" lon="0.33255">
        <ele>254</ele>
        <time>2016-05-08T07:51:57.000Z</time>
      </trkpt>
      <trkpt lat="48.87931" lon="0.33253">
        <ele>254</ele>
        <time>2016-05-08T07:51:58.000Z</time>
      </trkpt>
      <trkpt lat="48.87932" lon="0.33248">
        <ele>254</ele>
        <time>2016-05-08T07:52:01.000Z</time>
      </trkpt>
      <trkpt lat="48.87934" lon="0.33238">
        <ele>254</ele>
        <time>2016-05-08T07:52:06.000Z</time>
      </trkpt>
      <trkpt lat="48.87935" lon="0.3323">
        <ele>254</ele>
        <time>2016-05-08T07:52:11.000Z</time>
      </trkpt>
      <trkpt lat="48.87938" lon="0.33216">
        <ele>254</ele>
        <time>2016-05-08T07:52:19.000Z</time>
      </trkpt>
      <trkpt lat="48.87941" lon="0.33198">
        <ele>253.60000610352</ele>
        <time>2016-05-08T07:52:29.000Z</time>
      </trkpt>
      <trkpt lat="48.87944" lon="0.3318">
        <ele>253</ele>
        <time>2016-05-08T07:52:39.000Z</time>
      </trkpt>
      <trkpt lat="48.87947" lon="0.33161">
        <ele>252.60000610352</ele>
        <time>2016-05-08T07:52:50.000Z</time>
      </trkpt>
      <trkpt lat="48.87947" lon="0.33157">
        <ele>252.39999389648</ele>
        <time>2016-05-08T07:52:52.000Z</time>
      </trkpt>
      <trkpt lat="48.87948" lon="0.33151">
        <ele>252.19999694824</ele>
        <time>2016-05-08T07:52:55.000Z</time>
      </trkpt>
      <trkpt lat="48.87948" lon="0.33149">
        <ele>252.19999694824</ele>
        <time>2016-05-08T07:52:56.000Z</time>
      </trkpt>
      <trkpt lat="48.8795" lon="0.33135">
        <ele>252</ele>
        <time>2016-05-08T07:53:04.000Z</time>
      </trkpt>
      <trkpt lat="48.87952" lon="0.33124">
        <ele>251.80000305176</ele>
        <time>2016-05-08T07:53:11.000Z</time>
      </trkpt>
      <trkpt lat="48.87955" lon="0.33108">
        <ele>251.80000305176</ele>
        <time>2016-05-08T07:53:20.000Z</time>
      </trkpt>
      <trkpt lat="48.87956" lon="0.33094">
        <ele>251.80000305176</ele>
        <time>2016-05-08T07:53:27.000Z</time>
      </trkpt>
      <trkpt lat="48.87957" lon="0.33092">
        <ele>251.80000305176</ele>
        <time>2016-05-08T07:53:30.000Z</time>
      </trkpt>
      <trkpt lat="48.87958" lon="0.33092">
        <ele>251.80000305176</ele>
        <time>2016-05-08T07:53:32.000Z</time>
      </trkpt>
      <trkpt lat="48.8797" lon="0.32938">
        <ele>251.39999389648</ele>
        <time>2016-05-08T07:55:13.000Z</time>
      </trkpt>
      <trkpt lat="48.87964" lon="0.32932">
        <ele>251.39999389648</ele>
        <time>2016-05-08T07:55:19.000Z</time>
      </trkpt>
      <trkpt lat="48.87962" lon="0.3293">
        <ele>251.39999389648</ele>
        <time>2016-05-08T07:55:21.000Z</time>
      </trkpt>
      <trkpt lat="48.87959" lon="0.32928">
        <ele>251.39999389648</ele>
        <time>2016-05-08T07:55:24.000Z</time>
      </trkpt>
      <trkpt lat="48.87957" lon="0.32926">
        <ele>251.39999389648</ele>
        <time>2016-05-08T07:55:26.000Z</time>
      </trkpt>
      <trkpt lat="48.87951" lon="0.3292">
        <ele>251.39999389648</ele>
        <time>2016-05-08T07:55:33.000Z</time>
      </trkpt>
      <trkpt lat="48.87922" lon="0.32891">
        <ele>251.39999389648</ele>
        <time>2016-05-08T07:57:15.000Z</time>
      </trkpt>
      <trkpt lat="48.87918" lon="0.32887">
        <ele>251.39999389648</ele>
        <time>2016-05-08T07:57:19.000Z</time>
      </trkpt>
      <trkpt lat="48.87909" lon="0.32878">
        <ele>251.39999389648</ele>
        <time>2016-05-08T07:57:28.000Z</time>
      </trkpt>
      <trkpt lat="48.879" lon="0.32869">
        <ele>251.39999389648</ele>
        <time>2016-05-08T07:57:37.000Z</time>
      </trkpt>
      <trkpt lat="48.87891" lon="0.32861">
        <ele>251.39999389648</ele>
        <time>2016-05-08T07:57:46.000Z</time>
      </trkpt>
      <trkpt lat="48.8788" lon="0.32852">
        <ele>251.39999389648</ele>
        <time>2016-05-08T07:57:56.000Z</time>
      </trkpt>
      <trkpt lat="48.87874" lon="0.32847">
        <ele>251.39999389648</ele>
        <time>2016-05-08T07:58:02.000Z</time>
      </trkpt>
      <trkpt lat="48.87873" lon="0.32846">
        <ele>251.39999389648</ele>
        <time>2016-05-08T07:58:03.000Z</time>
      </trkpt>
      <trkpt lat="48.8787" lon="0.32844">
        <ele>251.39999389648</ele>
        <time>2016-05-08T07:58:06.000Z</time>
      </trkpt>
      <trkpt lat="48.87867" lon="0.32841">
        <ele>251.39999389648</ele>
        <time>2016-05-08T07:58:09.000Z</time>
      </trkpt>
      <trkpt lat="48.87856" lon="0.32833">
        <ele>251.39999389648</ele>
        <time>2016-05-08T07:58:19.000Z</time>
      </trkpt>
      <trkpt lat="48.87849" lon="0.32827">
        <ele>251.39999389648</ele>
        <time>2016-05-08T07:58:26.000Z</time>
      </trkpt>
      <trkpt lat="48.8784" lon="0.32817">
        <ele>251.19999694824</ele>
        <time>2016-05-08T07:58:35.000Z</time>
      </trkpt>
      <trkpt lat="48.87832" lon="0.32808">
        <ele>251.19999694824</ele>
        <time>2016-05-08T07:58:44.000Z</time>
      </trkpt>
      <trkpt lat="48.87824" lon="0.32801">
        <ele>251</ele>
        <time>2016-05-08T07:58:52.000Z</time>
      </trkpt>
      <trkpt lat="48.87817" lon="0.32794">
        <ele>251</ele>
        <time>2016-05-08T07:58:59.000Z</time>
      </trkpt>
      <trkpt lat="48.87806" lon="0.32782">
        <ele>251</ele>
        <time>2016-05-08T07:59:10.000Z</time>
      </trkpt>
      <trkpt lat="48.878" lon="0.32776">
        <ele>251</ele>
        <time>2016-05-08T07:59:17.000Z</time>
      </trkpt>
      <trkpt lat="48.87793" lon="0.32769">
        <ele>251</ele>
        <time>2016-05-08T07:59:24.000Z</time>
      </trkpt>
      <trkpt lat="48.87785" lon="0.32761">
        <ele>251</ele>
        <time>2016-05-08T07:59:33.000Z</time>
      </trkpt>
      <trkpt lat="48.87784" lon="0.32761">
        <ele>251</ele>
        <time>2016-05-08T07:59:35.000Z</time>
      </trkpt>
      <trkpt lat="48.87573" lon="0.32669">
        <ele>252.80000305176</ele>
        <time>2016-05-08T08:03:20.000Z</time>
      </trkpt>
      <trkpt lat="48.87571" lon="0.32669">
        <ele>252.60000610352</ele>
        <time>2016-05-08T08:03:21.000Z</time>
      </trkpt>
      <trkpt lat="48.8756" lon="0.32663">
        <ele>252.60000610352</ele>
        <time>2016-05-08T08:03:29.000Z</time>
      </trkpt>
      <trkpt lat="48.87556" lon="0.32662">
        <ele>252.39999389648</ele>
        <time>2016-05-08T08:03:32.000Z</time>
      </trkpt>
      <trkpt lat="48.87553" lon="0.32661">
        <ele>252.39999389648</ele>
        <time>2016-05-08T08:03:35.000Z</time>
      </trkpt>
      <trkpt lat="48.87552" lon="0.3266">
        <ele>252.39999389648</ele>
        <time>2016-05-08T08:03:36.000Z</time>
      </trkpt>
      <trkpt lat="48.87544" lon="0.32658">
        <ele>252.39999389648</ele>
        <time>2016-05-08T08:03:42.000Z</time>
      </trkpt>
      <trkpt lat="48.87543" lon="0.32658">
        <ele>252.39999389648</ele>
        <time>2016-05-08T08:03:43.000Z</time>
      </trkpt>
      <trkpt lat="48.87537" lon="0.32659">
        <ele>252.39999389648</ele>
        <time>2016-05-08T08:03:48.000Z</time>
      </trkpt>
      <trkpt lat="48.87535" lon="0.3266">
        <ele>252.39999389648</ele>
        <time>2016-05-08T08:03:50.000Z</time>
      </trkpt>
      <trkpt lat="48.87531" lon="0.32661">
        <ele>252.39999389648</ele>
        <time>2016-05-08T08:03:54.000Z</time>
      </trkpt>
      <trkpt lat="48.87525" lon="0.32661">
        <ele>252.39999389648</ele>
        <time>2016-05-08T08:03:59.000Z</time>
      </trkpt>
      <trkpt lat="48.87523" lon="0.32662">
        <ele>252.39999389648</ele>
        <time>2016-05-08T08:04:01.000Z</time>
      </trkpt>
      <trkpt lat="48.87521" lon="0.32662">
        <ele>252.39999389648</ele>
        <time>2016-05-08T08:04:04.000Z</time>
      </trkpt>
      <trkpt lat="48.8752" lon="0.32662">
        <ele>252.39999389648</ele>
        <time>2016-05-08T08:04:06.000Z</time>
      </trkpt>
      <trkpt lat="48.87472" lon="0.32673">
        <ele>251.80000305176</ele>
        <time>2016-05-08T08:05:42.000Z</time>
      </trkpt>
      <trkpt lat="48.87468" lon="0.32674">
        <ele>251.80000305176</ele>
        <time>2016-05-08T08:05:46.000Z</time>
      </trkpt>
      <trkpt lat="48.87461" lon="0.32675">
        <ele>251.80000305176</ele>
        <time>2016-05-08T08:05:52.000Z</time>
      </trkpt>
      <trkpt lat="48.87454" lon="0.32674">
        <ele>251.80000305176</ele>
        <time>2016-05-08T08:05:58.000Z</time>
      </trkpt>
      <trkpt lat="48.87449" lon="0.32673">
        <ele>251.60000610352</ele>
        <time>2016-05-08T08:06:02.000Z</time>
      </trkpt>
      <trkpt lat="48.87445" lon="0.32672">
        <ele>251.60000610352</ele>
        <time>2016-05-08T08:06:07.000Z</time>
      </trkpt>
      <trkpt lat="48.87438" lon="0.3267">
        <ele>251.39999389648</ele>
        <time>2016-05-08T08:06:13.000Z</time>
      </trkpt>
      <trkpt lat="48.87434" lon="0.32669">
        <ele>251.39999389648</ele>
        <time>2016-05-08T08:06:17.000Z</time>
      </trkpt>
      <trkpt lat="48.87433" lon="0.32669">
        <ele>251.39999389648</ele>
        <time>2016-05-08T08:06:18.000Z</time>
      </trkpt>
      <trkpt lat="48.87432" lon="0.32668">
        <ele>251.39999389648</ele>
        <time>2016-05-08T08:06:19.000Z</time>
      </trkpt>
      <trkpt lat="48.87427" lon="0.32666">
        <ele>251.39999389648</ele>
        <time>2016-05-08T08:06:23.000Z</time>
      </trkpt>
      <trkpt lat="48.87424" lon="0.32666">
        <ele>251.39999389648</ele>
        <time>2016-05-08T08:06:26.000Z</time>
      </trkpt>
      <trkpt lat="48.87421" lon="0.32665">
        <ele>251.39999389648</ele>
        <time>2016-05-08T08:06:29.000Z</time>
      </trkpt>
      <trkpt lat="48.87416" lon="0.32664">
        <ele>251.39999389648</ele>
        <time>2016-05-08T08:06:33.000Z</time>
      </trkpt>
      <trkpt lat="48.87413" lon="0.32664">
        <ele>251.39999389648</ele>
        <time>2016-05-08T08:06:36.000Z</time>
      </trkpt>
      <trkpt lat="48.87408" lon="0.32663">
        <ele>251.39999389648</ele>
        <time>2016-05-08T08:06:41.000Z</time>
      </trkpt>
      <trkpt lat="48.87408" lon="0.32662">
        <ele>251.39999389648</ele>
        <time>2016-05-08T08:06:42.000Z</time>
      </trkpt>
      <trkpt lat="48.87404" lon="0.32662">
        <ele>251.39999389648</ele>
        <time>2016-05-08T08:06:45.000Z</time>
      </trkpt>
      <trkpt lat="48.87403" lon="0.32662">
        <ele>251.39999389648</ele>
        <time>2016-05-08T08:06:47.000Z</time>
      </trkpt>
      <trkpt lat="48.87399" lon="0.32662">
        <ele>251.39999389648</ele>
        <time>2016-05-08T08:06:50.000Z</time>
      </trkpt>
      <trkpt lat="48.87394" lon="0.32662">
        <ele>251.39999389648</ele>
        <time>2016-05-08T08:06:54.000Z</time>
      </trkpt>
      <trkpt lat="48.87388" lon="0.32662">
        <ele>251.39999389648</ele>
        <time>2016-05-08T08:07:00.000Z</time>
      </trkpt>
      <trkpt lat="48.87382" lon="0.32661">
        <ele>251.39999389648</ele>
        <time>2016-05-08T08:07:05.000Z</time>
      </trkpt>
      <trkpt lat="48.8738" lon="0.32661">
        <ele>251.39999389648</ele>
        <time>2016-05-08T08:07:08.000Z</time>
      </trkpt>
      <trkpt lat="48.87378" lon="0.32661">
        <ele>251.39999389648</ele>
        <time>2016-05-08T08:07:10.000Z</time>
      </trkpt>
      <trkpt lat="48.87377" lon="0.32662">
        <ele>251.39999389648</ele>
        <time>2016-05-08T08:07:11.000Z</time>
      </trkpt>
      <trkpt lat="48.87371" lon="0.32664">
        <ele>251.60000610352</ele>
        <time>2016-05-08T08:07:17.000Z</time>
      </trkpt>
      <trkpt lat="48.87369" lon="0.32664">
        <ele>251.60000610352</ele>
        <time>2016-05-08T08:07:19.000Z</time>
      </trkpt>
      <trkpt lat="48.87365" lon="0.32665">
        <ele>251.80000305176</ele>
        <time>2016-05-08T08:07:23.000Z</time>
      </trkpt>
      <trkpt lat="48.87361" lon="0.32665">
        <ele>251.80000305176</ele>
        <time>2016-05-08T08:07:26.000Z</time>
      </trkpt>
      <trkpt lat="48.87358" lon="0.32666">
        <ele>251.80000305176</ele>
        <time>2016-05-08T08:07:29.000Z</time>
      </trkpt>
      <trkpt lat="48.87354" lon="0.32666">
        <ele>252</ele>
        <time>2016-05-08T08:07:34.000Z</time>
      </trkpt>
      <trkpt lat="48.87352" lon="0.32666">
        <ele>252</ele>
        <time>2016-05-08T08:07:35.000Z</time>
      </trkpt>
      <trkpt lat="48.8735" lon="0.32667">
        <ele>252</ele>
        <time>2016-05-08T08:07:37.000Z</time>
      </trkpt>
      <trkpt lat="48.87346" lon="0.3267">
        <ele>252.19999694824</ele>
        <time>2016-05-08T08:07:42.000Z</time>
      </trkpt>
      <trkpt lat="48.8734" lon="0.32672">
        <ele>252.39999389648</ele>
        <time>2016-05-08T08:07:48.000Z</time>
      </trkpt>
      <trkpt lat="48.87336" lon="0.32674">
        <ele>252.60000610352</ele>
        <time>2016-05-08T08:07:53.000Z</time>
      </trkpt>
      <trkpt lat="48.87332" lon="0.32675">
        <ele>252.60000610352</ele>
        <time>2016-05-08T08:07:57.000Z</time>
      </trkpt>
      <trkpt lat="48.87326" lon="0.32676">
        <ele>252.80000305176</ele>
        <time>2016-05-08T08:08:04.000Z</time>
      </trkpt>
      <trkpt lat="48.87323" lon="0.32676">
        <ele>253</ele>
        <time>2016-05-08T08:08:07.000Z</time>
      </trkpt>
      <trkpt lat="48.87318" lon="0.32678">
        <ele>253</ele>
        <time>2016-05-08T08:08:10.000Z</time>
      </trkpt>
      <trkpt lat="48.87317" lon="0.32678">
        <ele>253</ele>
        <time>2016-05-08T08:08:11.000Z</time>
      </trkpt>
      <trkpt lat="48.87309" lon="0.32681">
        <ele>253.19999694824</ele>
        <time>2016-05-08T08:08:17.000Z</time>
      </trkpt>
      <trkpt lat="48.87305" lon="0.32683">
        <ele>253.19999694824</ele>
        <time>2016-05-08T08:08:20.000Z</time>
      </trkpt>
      <trkpt lat="48.873" lon="0.32684">
        <ele>253.39999389648</ele>
        <time>2016-05-08T08:08:24.000Z</time>
      </trkpt>
      <trkpt lat="48.87291" lon="0.32684">
        <ele>253.39999389648</ele>
        <time>2016-05-08T08:08:31.000Z</time>
      </trkpt>
      <trkpt lat="48.87282" lon="0.32683">
        <ele>253.60000610352</ele>
        <time>2016-05-08T08:08:39.000Z</time>
      </trkpt>
      <trkpt lat="48.87278" lon="0.32683">
        <ele>253.60000610352</ele>
        <time>2016-05-08T08:08:43.000Z</time>
      </trkpt>
      <trkpt lat="48.8727" lon="0.32682">
        <ele>253.60000610352</ele>
        <time>2016-05-08T08:08:51.000Z</time>
      </trkpt>
      <trkpt lat="48.87267" lon="0.32683">
        <ele>253.60000610352</ele>
        <time>2016-05-08T08:08:54.000Z</time>
      </trkpt>
      <trkpt lat="48.87265" lon="0.32683">
        <ele>253.80000305176</ele>
        <time>2016-05-08T08:08:56.000Z</time>
      </trkpt>
      <trkpt lat="48.87263" lon="0.32683">
        <ele>253.80000305176</ele>
        <time>2016-05-08T08:08:58.000Z</time>
      </trkpt>
      <trkpt lat="48.87259" lon="0.32684">
        <ele>253.80000305176</ele>
        <time>2016-05-08T08:09:02.000Z</time>
      </trkpt>
      <trkpt lat="48.87255" lon="0.32684">
        <ele>253.80000305176</ele>
        <time>2016-05-08T08:09:05.000Z</time>
      </trkpt>
      <trkpt lat="48.87251" lon="0.32683">
        <ele>254</ele>
        <time>2016-05-08T08:09:09.000Z</time>
      </trkpt>
      <trkpt lat="48.87243" lon="0.32684">
        <ele>254</ele>
        <time>2016-05-08T08:09:16.000Z</time>
      </trkpt>
      <trkpt lat="48.87234" lon="0.32686">
        <ele>254.19999694824</ele>
        <time>2016-05-08T08:09:23.000Z</time>
      </trkpt>
      <trkpt lat="48.87229" lon="0.32686">
        <ele>254.19999694824</ele>
        <time>2016-05-08T08:09:28.000Z</time>
      </trkpt>
      <trkpt lat="48.87221" lon="0.32686">
        <ele>254.19999694824</ele>
        <time>2016-05-08T08:09:34.000Z</time>
      </trkpt>
      <trkpt lat="48.8722" lon="0.32686">
        <ele>254.39999389648</ele>
        <time>2016-05-08T08:09:35.000Z</time>
      </trkpt>
      <trkpt lat="48.87212" lon="0.32686">
        <ele>254.39999389648</ele>
        <time>2016-05-08T08:09:41.000Z</time>
      </trkpt>
      <trkpt lat="48.87212" lon="0.32686">
        <ele>254.39999389648</ele>
        <time>2016-05-08T08:09:42.000Z</time>
      </trkpt>
      <trkpt lat="48.87207" lon="0.32685">
        <ele>254.39999389648</ele>
        <time>2016-05-08T08:09:46.000Z</time>
      </trkpt>
      <trkpt lat="48.872" lon="0.32683">
        <ele>254.60000610352</ele>
        <time>2016-05-08T08:09:52.000Z</time>
      </trkpt>
      <trkpt lat="48.87194" lon="0.32682">
        <ele>254.60000610352</ele>
        <time>2016-05-08T08:09:58.000Z</time>
      </trkpt>
      <trkpt lat="48.87192" lon="0.32681">
        <ele>254.60000610352</ele>
        <time>2016-05-08T08:10:03.000Z</time>
      </trkpt>
      <trkpt lat="48.8712" lon="0.32427">
        <ele>253.80000305176</ele>
        <time>2016-05-08T08:15:30.000Z</time>
      </trkpt>
      <trkpt lat="48.8712" lon="0.32425">
        <ele>253.80000305176</ele>
        <time>2016-05-08T08:15:31.000Z</time>
      </trkpt>
      <trkpt lat="48.87117" lon="0.32416">
        <ele>253.80000305176</ele>
        <time>2016-05-08T08:15:36.000Z</time>
      </trkpt>
      <trkpt lat="48.87116" lon="0.32411">
        <ele>253.80000305176</ele>
        <time>2016-05-08T08:15:39.000Z</time>
      </trkpt>
      <trkpt lat="48.87112" lon="0.32395">
        <ele>254</ele>
        <time>2016-05-08T08:15:49.000Z</time>
      </trkpt>
      <trkpt lat="48.87109" lon="0.32385">
        <ele>254</ele>
        <time>2016-05-08T08:15:55.000Z</time>
      </trkpt>
      <trkpt lat="48.87102" lon="0.32372">
        <ele>254</ele>
        <time>2016-05-08T08:16:05.000Z</time>
      </trkpt>
      <trkpt lat="48.87097" lon="0.32363">
        <ele>254.19999694824</ele>
        <time>2016-05-08T08:16:12.000Z</time>
      </trkpt>
      <trkpt lat="48.87093" lon="0.32359">
        <ele>254.39999389648</ele>
        <time>2016-05-08T08:16:16.000Z</time>
      </trkpt>
      <trkpt lat="48.8709" lon="0.32357">
        <ele>254.39999389648</ele>
        <time>2016-05-08T08:16:19.000Z</time>
      </trkpt>
      <trkpt lat="48.87086" lon="0.3235">
        <ele>254.39999389648</ele>
        <time>2016-05-08T08:16:26.000Z</time>
      </trkpt>
      <trkpt lat="48.87085" lon="0.32349">
        <ele>254.60000610352</ele>
        <time>2016-05-08T08:16:27.000Z</time>
      </trkpt>
      <trkpt lat="48.87084" lon="0.32349">
        <ele>254.60000610352</ele>
        <time>2016-05-08T08:16:29.000Z</time>
      </trkpt>
      <trkpt lat="48.87082" lon="0.3235">
        <ele>254.60000610352</ele>
        <time>2016-05-08T08:16:33.000Z</time>
      </trkpt>
      <trkpt lat="48.87082" lon="0.3235">
        <ele>254.60000610352</ele>
        <time>2016-05-08T08:16:34.000Z</time>
      </trkpt>
      <trkpt lat="48.8703" lon="0.32265">
        <ele>255</ele>
        <time>2016-05-08T08:20:45.000Z</time>
      </trkpt>
      <trkpt lat="48.87029" lon="0.32262">
        <ele>255</ele>
        <time>2016-05-08T08:20:47.000Z</time>
      </trkpt>
      <trkpt lat="48.87024" lon="0.32244">
        <ele>254.60000610352</ele>
        <time>2016-05-08T08:20:58.000Z</time>
      </trkpt>
      <trkpt lat="48.87021" lon="0.32234">
        <ele>254.60000610352</ele>
        <time>2016-05-08T08:21:06.000Z</time>
      </trkpt>
      <trkpt lat="48.86976" lon="0.32219">
        <ele>255.19999694824</ele>
        <time>2016-05-08T08:21:57.000Z</time>
      </trkpt>
      <trkpt lat="48.86969" lon="0.32218">
        <ele>255.39999389648</ele>
        <time>2016-05-08T08:22:04.000Z</time>
      </trkpt>
      <trkpt lat="48.86965" lon="0.32217">
        <ele>255.39999389648</ele>
        <time>2016-05-08T08:22:09.000Z</time>
      </trkpt>
      <trkpt lat="48.86962" lon="0.32172">
        <ele>255</ele>
        <time>2016-05-08T08:22:54.000Z</time>
      </trkpt>
      <trkpt lat="48.86964" lon="0.32156">
        <ele>254.80000305176</ele>
        <time>2016-05-08T08:23:03.000Z</time>
      </trkpt>
      <trkpt lat="48.86965" lon="0.32139">
        <ele>254.39999389648</ele>
        <time>2016-05-08T08:23:12.000Z</time>
      </trkpt>
      <trkpt lat="48.86968" lon="0.32123">
        <ele>254.39999389648</ele>
        <time>2016-05-08T08:23:21.000Z</time>
      </trkpt>
      <trkpt lat="48.86968" lon="0.32113">
        <ele>254.60000610352</ele>
        <time>2016-05-08T08:23:27.000Z</time>
      </trkpt>
      <trkpt lat="48.86968" lon="0.3211">
        <ele>254.60000610352</ele>
        <time>2016-05-08T08:23:29.000Z</time>
      </trkpt>
      <trkpt lat="48.86968" lon="0.32108">
        <ele>254.60000610352</ele>
        <time>2016-05-08T08:23:31.000Z</time>
      </trkpt>
      <trkpt lat="48.86968" lon="0.32108">
        <ele>254.60000610352</ele>
        <time>2016-05-08T08:23:32.000Z</time>
      </trkpt>
      <trkpt lat="48.86968" lon="0.32022">
        <ele>255</ele>
        <time>2016-05-08T08:25:15.000Z</time>
      </trkpt>
      <trkpt lat="48.86968" lon="0.32021">
        <ele>255</ele>
        <time>2016-05-08T08:25:16.000Z</time>
      </trkpt>
      <trkpt lat="48.86968" lon="0.32017">
        <ele>255</ele>
        <time>2016-05-08T08:25:19.000Z</time>
      </trkpt>
      <trkpt lat="48.86968" lon="0.32014">
        <ele>255</ele>
        <time>2016-05-08T08:25:21.000Z</time>
      </trkpt>
      <trkpt lat="48.86969" lon="0.32008">
        <ele>255</ele>
        <time>2016-05-08T08:25:24.000Z</time>
      </trkpt>
      <trkpt lat="48.86968" lon="0.32004">
        <ele>255</ele>
        <time>2016-05-08T08:25:26.000Z</time>
      </trkpt>
      <trkpt lat="48.86968" lon="0.32001">
        <ele>255</ele>
        <time>2016-05-08T08:25:28.000Z</time>
      </trkpt>
      <trkpt lat="48.86969" lon="0.31996">
        <ele>255</ele>
        <time>2016-05-08T08:25:31.000Z</time>
      </trkpt>
      <trkpt lat="48.86969" lon="0.31989">
        <ele>254.80000305176</ele>
        <time>2016-05-08T08:25:36.000Z</time>
      </trkpt>
      <trkpt lat="48.86969" lon="0.31986">
        <ele>254.80000305176</ele>
        <time>2016-05-08T08:25:38.000Z</time>
      </trkpt>
      <trkpt lat="48.86968" lon="0.31982">
        <ele>254.80000305176</ele>
        <time>2016-05-08T08:25:40.000Z</time>
      </trkpt>
      <trkpt lat="48.86968" lon="0.31978">
        <ele>254.80000305176</ele>
        <time>2016-05-08T08:25:42.000Z</time>
      </trkpt>
      <trkpt lat="48.86967" lon="0.31969">
        <ele>254.80000305176</ele>
        <time>2016-05-08T08:25:47.000Z</time>
      </trkpt>
      <trkpt lat="48.86967" lon="0.31968">
        <ele>254.80000305176</ele>
        <time>2016-05-08T08:25:48.000Z</time>
      </trkpt>
      <trkpt lat="48.86967" lon="0.31966">
        <ele>254.60000610352</ele>
        <time>2016-05-08T08:25:49.000Z</time>
      </trkpt>
      <trkpt lat="48.86968" lon="0.31961">
        <ele>254.39999389648</ele>
        <time>2016-05-08T08:25:52.000Z</time>
      </trkpt>
      <trkpt lat="48.86969" lon="0.3196">
        <ele>254.39999389648</ele>
        <time>2016-05-08T08:25:53.000Z</time>
      </trkpt>
      <trkpt lat="48.86968" lon="0.31959">
        <ele>254.19999694824</ele>
        <time>2016-05-08T08:25:54.000Z</time>
      </trkpt>
      <trkpt lat="48.86968" lon="0.31958">
        <ele>254.19999694824</ele>
        <time>2016-05-08T08:25:55.000Z</time>
      </trkpt>
      <trkpt lat="48.86966" lon="0.3195">
        <ele>253.80000305176</ele>
        <time>2016-05-08T08:26:01.000Z</time>
      </trkpt>
      <trkpt lat="48.86963" lon="0.31946">
        <ele>253.60000610352</ele>
        <time>2016-05-08T08:26:05.000Z</time>
      </trkpt>
      <trkpt lat="48.86962" lon="0.31946">
        <ele>253.60000610352</ele>
        <time>2016-05-08T08:26:06.000Z</time>
      </trkpt>
      <trkpt lat="48.86962" lon="0.31944">
        <ele>253.60000610352</ele>
        <time>2016-05-08T08:26:07.000Z</time>
      </trkpt>
      <trkpt lat="48.86957" lon="0.3194">
        <ele>253.39999389648</ele>
        <time>2016-05-08T08:26:12.000Z</time>
      </trkpt>
      <trkpt lat="48.86953" lon="0.31935">
        <ele>253.19999694824</ele>
        <time>2016-05-08T08:26:17.000Z</time>
      </trkpt>
      <trkpt lat="48.86952" lon="0.31934">
        <ele>253.19999694824</ele>
        <time>2016-05-08T08:26:18.000Z</time>
      </trkpt>
      <trkpt lat="48.86948" lon="0.31928">
        <ele>253</ele>
        <time>2016-05-08T08:26:25.000Z</time>
      </trkpt>
      <trkpt lat="48.86944" lon="0.31924">
        <ele>253</ele>
        <time>2016-05-08T08:26:29.000Z</time>
      </trkpt>
      <trkpt lat="48.86942" lon="0.31922">
        <ele>252.80000305176</ele>
        <time>2016-05-08T08:26:31.000Z</time>
      </trkpt>
      <trkpt lat="48.86941" lon="0.31921">
        <ele>252.80000305176</ele>
        <time>2016-05-08T08:26:32.000Z</time>
      </trkpt>
      <trkpt lat="48.86938" lon="0.31919">
        <ele>252.80000305176</ele>
        <time>2016-05-08T08:26:36.000Z</time>
      </trkpt>
      <trkpt lat="48.86937" lon="0.31919">
        <ele>252.80000305176</ele>
        <time>2016-05-08T08:26:37.000Z</time>
      </trkpt>
      <trkpt lat="48.86929" lon="0.31913">
        <ele>252</ele>
        <time>2016-05-08T08:26:45.000Z</time>
      </trkpt>
      <trkpt lat="48.86928" lon="0.31912">
        <ele>252</ele>
        <time>2016-05-08T08:26:46.000Z</time>
      </trkpt>
      <trkpt lat="48.86921" lon="0.31902">
        <ele>251.19999694824</ele>
        <time>2016-05-08T08:26:55.000Z</time>
      </trkpt>
      <trkpt lat="48.86919" lon="0.31899">
        <ele>250.80000305176</ele>
        <time>2016-05-08T08:26:58.000Z</time>
      </trkpt>
      <trkpt lat="48.86917" lon="0.31898">
        <ele>250.80000305176</ele>
        <time>2016-05-08T08:27:01.000Z</time>
      </trkpt>
      <trkpt lat="48.86917" lon="0.31897">
        <ele>250.60000610352</ele>
        <time>2016-05-08T08:27:02.000Z</time>
      </trkpt>
      <trkpt lat="48.86915" lon="0.31894">
        <ele>250.39999389648</ele>
        <time>2016-05-08T08:27:06.000Z</time>
      </trkpt>
      <trkpt lat="48.86914" lon="0.31889">
        <ele>250</ele>
        <time>2016-05-08T08:27:12.000Z</time>
      </trkpt>
      <trkpt lat="48.86914" lon="0.31885">
        <ele>249.80000305176</ele>
        <time>2016-05-08T08:27:17.000Z</time>
      </trkpt>
      <trkpt lat="48.86901" lon="0.31825">
        <ele>248.39999389648</ele>
        <time>2016-05-08T08:28:13.000Z</time>
      </trkpt>
      <trkpt lat="48.86901" lon="0.31823">
        <ele>248.39999389648</ele>
        <time>2016-05-08T08:28:14.000Z</time>
      </trkpt>
      <trkpt lat="48.869" lon="0.31817">
        <ele>248</ele>
        <time>2016-05-08T08:28:18.000Z</time>
      </trkpt>
      <trkpt lat="48.86899" lon="0.31809">
        <ele>247.60000610352</ele>
        <time>2016-05-08T08:28:24.000Z</time>
      </trkpt>
      <trkpt lat="48.86898" lon="0.31808">
        <ele>247.60000610352</ele>
        <time>2016-05-08T08:28:25.000Z</time>
      </trkpt>
      <trkpt lat="48.86896" lon="0.31798">
        <ele>247.19999694824</ele>
        <time>2016-05-08T08:28:32.000Z</time>
      </trkpt>
      <trkpt lat="48.86896" lon="0.31793">
        <ele>247.19999694824</ele>
        <time>2016-05-08T08:28:35.000Z</time>
      </trkpt>
      <trkpt lat="48.86895" lon="0.3179">
        <ele>247.39999389648</ele>
        <time>2016-05-08T08:28:38.000Z</time>
      </trkpt>
      <trkpt lat="48.86895" lon="0.31789">
        <ele>247.39999389648</ele>
        <time>2016-05-08T08:28:40.000Z</time>
      </trkpt>
      <trkpt lat="48.86864" lon="0.3165">
        <ele>251.39999389648</ele>
        <time>2016-05-08T08:30:24.000Z</time>
      </trkpt>
      <trkpt lat="48.86863" lon="0.31649">
        <ele>251.39999389648</ele>
        <time>2016-05-08T08:30:25.000Z</time>
      </trkpt>
      <trkpt lat="48.86861" lon="0.3164">
        <ele>251.60000610352</ele>
        <time>2016-05-08T08:30:31.000Z</time>
      </trkpt>
      <trkpt lat="48.86861" lon="0.31639">
        <ele>251.60000610352</ele>
        <time>2016-05-08T08:30:32.000Z</time>
      </trkpt>
      <trkpt lat="48.8686" lon="0.31637">
        <ele>251.80000305176</ele>
        <time>2016-05-08T08:30:34.000Z</time>
      </trkpt>
      <trkpt lat="48.8686" lon="0.31634">
        <ele>251.80000305176</ele>
        <time>2016-05-08T08:30:36.000Z</time>
      </trkpt>
      <trkpt lat="48.86859" lon="0.31629">
        <ele>251.80000305176</ele>
        <time>2016-05-08T08:30:40.000Z</time>
      </trkpt>
      <trkpt lat="48.86858" lon="0.3162">
        <ele>252</ele>
        <time>2016-05-08T08:30:45.000Z</time>
      </trkpt>
      <trkpt lat="48.86857" lon="0.31614">
        <ele>252.19999694824</ele>
        <time>2016-05-08T08:30:48.000Z</time>
      </trkpt>
      <trkpt lat="48.86856" lon="0.31607">
        <ele>252.19999694824</ele>
        <time>2016-05-08T08:30:52.000Z</time>
      </trkpt>
      <trkpt lat="48.86853" lon="0.31597">
        <ele>252.39999389648</ele>
        <time>2016-05-08T08:30:58.000Z</time>
      </trkpt>
      <trkpt lat="48.86849" lon="0.31584">
        <ele>252.80000305176</ele>
        <time>2016-05-08T08:31:06.000Z</time>
      </trkpt>
      <trkpt lat="48.86849" lon="0.31578">
        <ele>252.80000305176</ele>
        <time>2016-05-08T08:31:12.000Z</time>
      </trkpt>
      <trkpt lat="48.86818" lon="0.31448">
        <ele>253.39999389648</ele>
        <time>2016-05-08T08:34:51.000Z</time>
      </trkpt>
      <trkpt lat="48.86816" lon="0.31441">
        <ele>253.39999389648</ele>
        <time>2016-05-08T08:34:55.000Z</time>
      </trkpt>
      <trkpt lat="48.86815" lon="0.31434">
        <ele>253.39999389648</ele>
        <time>2016-05-08T08:34:59.000Z</time>
      </trkpt>
      <trkpt lat="48.86814" lon="0.3143">
        <ele>253.60000610352</ele>
        <time>2016-05-08T08:35:02.000Z</time>
      </trkpt>
      <trkpt lat="48.86813" lon="0.31423">
        <ele>253.60000610352</ele>
        <time>2016-05-08T08:35:06.000Z</time>
      </trkpt>
      <trkpt lat="48.86812" lon="0.31421">
        <ele>253.60000610352</ele>
        <time>2016-05-08T08:35:08.000Z</time>
      </trkpt>
      <trkpt lat="48.8681" lon="0.3141">
        <ele>253.60000610352</ele>
        <time>2016-05-08T08:35:13.000Z</time>
      </trkpt>
      <trkpt lat="48.86809" lon="0.31407">
        <ele>253.60000610352</ele>
        <time>2016-05-08T08:35:15.000Z</time>
      </trkpt>
      <trkpt lat="48.86809" lon="0.31406">
        <ele>253.60000610352</ele>
        <time>2016-05-08T08:35:16.000Z</time>
      </trkpt>
      <trkpt lat="48.86808" lon="0.31401">
        <ele>253.60000610352</ele>
        <time>2016-05-08T08:35:18.000Z</time>
      </trkpt>
      <trkpt lat="48.86804" lon="0.31396">
        <ele>253.60000610352</ele>
        <time>2016-05-08T08:35:21.000Z</time>
      </trkpt>
      <trkpt lat="48.86803" lon="0.31393">
        <ele>253.60000610352</ele>
        <time>2016-05-08T08:35:23.000Z</time>
      </trkpt>
      <trkpt lat="48.868" lon="0.31386">
        <ele>253.60000610352</ele>
        <time>2016-05-08T08:35:27.000Z</time>
      </trkpt>
      <trkpt lat="48.86799" lon="0.31384">
        <ele>253.60000610352</ele>
        <time>2016-05-08T08:35:28.000Z</time>
      </trkpt>
      <trkpt lat="48.86799" lon="0.31381">
        <ele>253.60000610352</ele>
        <time>2016-05-08T08:35:30.000Z</time>
      </trkpt>
      <trkpt lat="48.86797" lon="0.31375">
        <ele>253.60000610352</ele>
        <time>2016-05-08T08:35:34.000Z</time>
      </trkpt>
      <trkpt lat="48.86797" lon="0.31374">
        <ele>253.60000610352</ele>
        <time>2016-05-08T08:35:35.000Z</time>
      </trkpt>
      <trkpt lat="48.86794" lon="0.3136">
        <ele>253.39999389648</ele>
        <time>2016-05-08T08:35:43.000Z</time>
      </trkpt>
      <trkpt lat="48.86792" lon="0.31353">
        <ele>253.39999389648</ele>
        <time>2016-05-08T08:35:47.000Z</time>
      </trkpt>
      <trkpt lat="48.86792" lon="0.3135">
        <ele>253.39999389648</ele>
        <time>2016-05-08T08:35:49.000Z</time>
      </trkpt>
      <trkpt lat="48.8679" lon="0.31341">
        <ele>253.39999389648</ele>
        <time>2016-05-08T08:35:54.000Z</time>
      </trkpt>
      <trkpt lat="48.86789" lon="0.31338">
        <ele>253.19999694824</ele>
        <time>2016-05-08T08:35:56.000Z</time>
      </trkpt>
      <trkpt lat="48.86788" lon="0.31331">
        <ele>253.19999694824</ele>
        <time>2016-05-08T08:36:00.000Z</time>
      </trkpt>
      <trkpt lat="48.86786" lon="0.31326">
        <ele>253.19999694824</ele>
        <time>2016-05-08T08:36:03.000Z</time>
      </trkpt>
      <trkpt lat="48.86786" lon="0.31321">
        <ele>253.19999694824</ele>
        <time>2016-05-08T08:36:06.000Z</time>
      </trkpt>
      <trkpt lat="48.86785" lon="0.31317">
        <ele>253.19999694824</ele>
        <time>2016-05-08T08:36:08.000Z</time>
      </trkpt>
      <trkpt lat="48.86783" lon="0.31313">
        <ele>253</ele>
        <time>2016-05-08T08:36:11.000Z</time>
      </trkpt>
      <trkpt lat="48.86782" lon="0.31308">
        <ele>253</ele>
        <time>2016-05-08T08:36:14.000Z</time>
      </trkpt>
      <trkpt lat="48.86782" lon="0.31303">
        <ele>253</ele>
        <time>2016-05-08T08:36:17.000Z</time>
      </trkpt>
      <trkpt lat="48.86781" lon="0.31301">
        <ele>253</ele>
        <time>2016-05-08T08:36:18.000Z</time>
      </trkpt>
      <trkpt lat="48.86778" lon="0.31289">
        <ele>253</ele>
        <time>2016-05-08T08:36:25.000Z</time>
      </trkpt>
      <trkpt lat="48.86777" lon="0.31285">
        <ele>252.80000305176</ele>
        <time>2016-05-08T08:36:31.000Z</time>
      </trkpt>
      <trkpt lat="48.86837" lon="0.31058">
        <ele>250.80000305176</ele>
        <time>2016-05-08T08:51:29.000Z</time>
      </trkpt>
      <trkpt lat="48.86838" lon="0.31056">
        <ele>250.80000305176</ele>
        <time>2016-05-08T08:51:30.000Z</time>
      </trkpt>
      <trkpt lat="48.86839" lon="0.31051">
        <ele>251</ele>
        <time>2016-05-08T08:51:33.000Z</time>
      </trkpt>
      <trkpt lat="48.86841" lon="0.31044">
        <ele>251</ele>
        <time>2016-05-08T08:51:37.000Z</time>
      </trkpt>
      <trkpt lat="48.86841" lon="0.31043">
        <ele>251</ele>
        <time>2016-05-08T08:51:38.000Z</time>
      </trkpt>
      <trkpt lat="48.86843" lon="0.31035">
        <ele>250.80000305176</ele>
        <time>2016-05-08T08:51:43.000Z</time>
      </trkpt>
      <trkpt lat="48.86844" lon="0.31033">
        <ele>250.80000305176</ele>
        <time>2016-05-08T08:51:44.000Z</time>
      </trkpt>
      <trkpt lat="48.86845" lon="0.31028">
        <ele>250.80000305176</ele>
        <time>2016-05-08T08:51:48.000Z</time>
      </trkpt>
      <trkpt lat="48.86847" lon="0.31025">
        <ele>250.80000305176</ele>
        <time>2016-05-08T08:51:50.000Z</time>
      </trkpt>
      <trkpt lat="48.86848" lon="0.31018">
        <ele>251</ele>
        <time>2016-05-08T08:51:54.000Z</time>
      </trkpt>
      <trkpt lat="48.86849" lon="0.31015">
        <ele>251</ele>
        <time>2016-05-08T08:51:56.000Z</time>
      </trkpt>
      <trkpt lat="48.86851" lon="0.31009">
        <ele>251</ele>
        <time>2016-05-08T08:52:00.000Z</time>
      </trkpt>
      <trkpt lat="48.86851" lon="0.31005">
        <ele>251</ele>
        <time>2016-05-08T08:52:03.000Z</time>
      </trkpt>
      <trkpt lat="48.86854" lon="0.30997">
        <ele>251</ele>
        <time>2016-05-08T08:52:07.000Z</time>
      </trkpt>
      <trkpt lat="48.86854" lon="0.30996">
        <ele>251</ele>
        <time>2016-05-08T08:52:08.000Z</time>
      </trkpt>
      <trkpt lat="48.86858" lon="0.3098">
        <ele>251</ele>
        <time>2016-05-08T08:52:16.000Z</time>
      </trkpt>
      <trkpt lat="48.86861" lon="0.30966">
        <ele>250.80000305176</ele>
        <time>2016-05-08T08:52:24.000Z</time>
      </trkpt>
      <trkpt lat="48.86862" lon="0.30965">
        <ele>250.80000305176</ele>
        <time>2016-05-08T08:52:25.000Z</time>
      </trkpt>
      <trkpt lat="48.86865" lon="0.30956">
        <ele>250.60000610352</ele>
        <time>2016-05-08T08:52:30.000Z</time>
      </trkpt>
      <trkpt lat="48.86866" lon="0.30953">
        <ele>250.39999389648</ele>
        <time>2016-05-08T08:52:32.000Z</time>
      </trkpt>
      <trkpt lat="48.86868" lon="0.30943">
        <ele>250</ele>
        <time>2016-05-08T08:52:38.000Z</time>
      </trkpt>
      <trkpt lat="48.86869" lon="0.3094">
        <ele>250</ele>
        <time>2016-05-08T08:52:40.000Z</time>
      </trkpt>
      <trkpt lat="48.8687" lon="0.30934">
        <ele>249.80000305176</ele>
        <time>2016-05-08T08:52:43.000Z</time>
      </trkpt>
      <trkpt lat="48.86873" lon="0.30922">
        <ele>249.39999389648</ele>
        <time>2016-05-08T08:52:50.000Z</time>
      </trkpt>
      <trkpt lat="48.86876" lon="0.30909">
        <ele>249</ele>
        <time>2016-05-08T08:52:57.000Z</time>
      </trkpt>
      <trkpt lat="48.86881" lon="0.30896">
        <ele>248.80000305176</ele>
        <time>2016-05-08T08:53:06.000Z</time>
      </trkpt>
      <trkpt lat="48.86886" lon="0.30882">
        <ele>248.60000610352</ele>
        <time>2016-05-08T08:53:14.000Z</time>
      </trkpt>
      <trkpt lat="48.86886" lon="0.3088">
        <ele>248.60000610352</ele>
        <time>2016-05-08T08:53:15.000Z</time>
      </trkpt>
      <trkpt lat="48.86888" lon="0.30875">
        <ele>248.60000610352</ele>
        <time>2016-05-08T08:53:18.000Z</time>
      </trkpt>
      <trkpt lat="48.86888" lon="0.30873">
        <ele>248.39999389648</ele>
        <time>2016-05-08T08:53:19.000Z</time>
      </trkpt>
      <trkpt lat="48.8689" lon="0.30869">
        <ele>248.39999389648</ele>
        <time>2016-05-08T08:53:22.000Z</time>
      </trkpt>
      <trkpt lat="48.86893" lon="0.30862">
        <ele>248.19999694824</ele>
        <time>2016-05-08T08:53:27.000Z</time>
      </trkpt>
      <trkpt lat="48.86897" lon="0.3085">
        <ele>247.80000305176</ele>
        <time>2016-05-08T08:53:34.000Z</time>
      </trkpt>
      <trkpt lat="48.86901" lon="0.30836">
        <ele>247.60000610352</ele>
        <time>2016-05-08T08:53:42.000Z</time>
      </trkpt>
      <trkpt lat="48.86904" lon="0.30826">
        <ele>247.60000610352</ele>
        <time>2016-05-08T08:53:48.000Z</time>
      </trkpt>
      <trkpt lat="48.86905" lon="0.30824">
        <ele>247.60000610352</ele>
        <time>2016-05-08T08:53:49.000Z</time>
      </trkpt>
      <trkpt lat="48.86908" lon="0.30814">
        <ele>247.60000610352</ele>
        <time>2016-05-08T08:53:55.000Z</time>
      </trkpt>
      <trkpt lat="48.86908" lon="0.30812">
        <ele>247.60000610352</ele>
        <time>2016-05-08T08:53:56.000Z</time>
      </trkpt>
      <trkpt lat="48.86912" lon="0.30797">
        <ele>247.60000610352</ele>
        <time>2016-05-08T08:54:05.000Z</time>
      </trkpt>
      <trkpt lat="48.86917" lon="0.30781">
        <ele>248</ele>
        <time>2016-05-08T08:54:14.000Z</time>
      </trkpt>
      <trkpt lat="48.86922" lon="0.30766">
        <ele>248</ele>
        <time>2016-05-08T08:54:23.000Z</time>
      </trkpt>
      <trkpt lat="48.86928" lon="0.30746">
        <ele>248</ele>
        <time>2016-05-08T08:54:34.000Z</time>
      </trkpt>
      <trkpt lat="48.86933" lon="0.30732">
        <ele>248</ele>
        <time>2016-05-08T08:54:44.000Z</time>
      </trkpt>
      <trkpt lat="48.86937" lon="0.30718">
        <ele>248</ele>
        <time>2016-05-08T08:54:52.000Z</time>
      </trkpt>
      <trkpt lat="48.86942" lon="0.30703">
        <ele>247.80000305176</ele>
        <time>2016-05-08T08:55:01.000Z</time>
      </trkpt>
      <trkpt lat="48.86947" lon="0.30688">
        <ele>247.60000610352</ele>
        <time>2016-05-08T08:55:10.000Z</time>
      </trkpt>
      <trkpt lat="48.86947" lon="0.30687">
        <ele>247.60000610352</ele>
        <time>2016-05-08T08:55:13.000Z</time>
      </trkpt>
      <trkpt lat="48.86958" lon="0.3065">
        <ele>246.80000305176</ele>
        <time>2016-05-08T08:55:41.000Z</time>
      </trkpt>
      <trkpt lat="48.86959" lon="0.30648">
        <ele>246.80000305176</ele>
        <time>2016-05-08T08:55:42.000Z</time>
      </trkpt>
      <trkpt lat="48.86961" lon="0.30641">
        <ele>246.80000305176</ele>
        <time>2016-05-08T08:55:46.000Z</time>
      </trkpt>
      <trkpt lat="48.86962" lon="0.30635">
        <ele>246.80000305176</ele>
        <time>2016-05-08T08:55:50.000Z</time>
      </trkpt>
      <trkpt lat="48.86967" lon="0.30621">
        <ele>246.39999389648</ele>
        <time>2016-05-08T08:56:00.000Z</time>
      </trkpt>
      <trkpt lat="48.86968" lon="0.30613">
        <ele>246.19999694824</ele>
        <time>2016-05-08T08:56:05.000Z</time>
      </trkpt>
      <trkpt lat="48.86969" lon="0.30611">
        <ele>246.19999694824</ele>
        <time>2016-05-08T08:56:07.000Z</time>
      </trkpt>
      <trkpt lat="48.86971" lon="0.30604">
        <ele>246</ele>
        <time>2016-05-08T08:56:11.000Z</time>
      </trkpt>
      <trkpt lat="48.86972" lon="0.30603">
        <ele>246</ele>
        <time>2016-05-08T08:56:12.000Z</time>
      </trkpt>
      <trkpt lat="48.86973" lon="0.30598">
        <ele>245.80000305176</ele>
        <time>2016-05-08T08:56:16.000Z</time>
      </trkpt>
      <trkpt lat="48.86981" lon="0.30535">
        <ele>245</ele>
        <time>2016-05-08T08:57:05.000Z</time>
      </trkpt>
      <trkpt lat="48.86981" lon="0.30533">
        <ele>245</ele>
        <time>2016-05-08T08:57:06.000Z</time>
      </trkpt>
      <trkpt lat="48.86982" lon="0.3052">
        <ele>245</ele>
        <time>2016-05-08T08:57:14.000Z</time>
      </trkpt>
      <trkpt lat="48.86982" lon="0.30512">
        <ele>245</ele>
        <time>2016-05-08T08:57:20.000Z</time>
      </trkpt>
      <trkpt lat="48.86982" lon="0.30505">
        <ele>245</ele>
        <time>2016-05-08T08:57:24.000Z</time>
      </trkpt>
      <trkpt lat="48.86982" lon="0.305">
        <ele>244.80000305176</ele>
        <time>2016-05-08T08:57:27.000Z</time>
      </trkpt>
      <trkpt lat="48.86982" lon="0.3049">
        <ele>244.60000610352</ele>
        <time>2016-05-08T08:57:32.000Z</time>
      </trkpt>
      <trkpt lat="48.86982" lon="0.30489">
        <ele>244.60000610352</ele>
        <time>2016-05-08T08:57:33.000Z</time>
      </trkpt>
      <trkpt lat="48.86981" lon="0.3048">
        <ele>244.39999389648</ele>
        <time>2016-05-08T08:57:38.000Z</time>
      </trkpt>
      <trkpt lat="48.86981" lon="0.30476">
        <ele>244.39999389648</ele>
        <time>2016-05-08T08:57:40.000Z</time>
      </trkpt>
      <trkpt lat="48.86981" lon="0.3047">
        <ele>244.19999694824</ele>
        <time>2016-05-08T08:57:44.000Z</time>
      </trkpt>
      <trkpt lat="48.86981" lon="0.30462">
        <ele>244</ele>
        <time>2016-05-08T08:57:48.000Z</time>
      </trkpt>
      <trkpt lat="48.8698" lon="0.30453">
        <ele>244</ele>
        <time>2016-05-08T08:57:54.000Z</time>
      </trkpt>
      <trkpt lat="48.86981" lon="0.3045">
        <ele>244</ele>
        <time>2016-05-08T08:57:56.000Z</time>
      </trkpt>
      <trkpt lat="48.86981" lon="0.30448">
        <ele>244</ele>
        <time>2016-05-08T08:57:58.000Z</time>
      </trkpt>
      <trkpt lat="48.86981" lon="0.30444">
        <ele>244</ele>
        <time>2016-05-08T08:58:01.000Z</time>
      </trkpt>
      <trkpt lat="48.86981" lon="0.30433">
        <ele>244</ele>
        <time>2016-05-08T08:58:07.000Z</time>
      </trkpt>
      <trkpt lat="48.86981" lon="0.3043">
        <ele>244</ele>
        <time>2016-05-08T08:58:09.000Z</time>
      </trkpt>
      <trkpt lat="48.86981" lon="0.30425">
        <ele>244</ele>
        <time>2016-05-08T08:58:12.000Z</time>
      </trkpt>
      <trkpt lat="48.86981" lon="0.30423">
        <ele>244</ele>
        <time>2016-05-08T08:58:13.000Z</time>
      </trkpt>
      <trkpt lat="48.86981" lon="0.30415">
        <ele>244</ele>
        <time>2016-05-08T08:58:18.000Z</time>
      </trkpt>
      <trkpt lat="48.86981" lon="0.30404">
        <ele>243.80000305176</ele>
        <time>2016-05-08T08:58:25.000Z</time>
      </trkpt>
      <trkpt lat="48.8698" lon="0.30397">
        <ele>243.80000305176</ele>
        <time>2016-05-08T08:58:29.000Z</time>
      </trkpt>
      <trkpt lat="48.8698" lon="0.30385">
        <ele>243.60000610352</ele>
        <time>2016-05-08T08:58:36.000Z</time>
      </trkpt>
      <trkpt lat="48.86979" lon="0.30379">
        <ele>243.60000610352</ele>
        <time>2016-05-08T08:58:40.000Z</time>
      </trkpt>
      <trkpt lat="48.8698" lon="0.30376">
        <ele>243.60000610352</ele>
        <time>2016-05-08T08:58:42.000Z</time>
      </trkpt>
      <trkpt lat="48.8698" lon="0.30364">
        <ele>244</ele>
        <time>2016-05-08T08:58:49.000Z</time>
      </trkpt>
      <trkpt lat="48.86982" lon="0.30361">
        <ele>244</ele>
        <time>2016-05-08T08:58:51.000Z</time>
      </trkpt>
      <trkpt lat="48.86982" lon="0.30357">
        <ele>244</ele>
        <time>2016-05-08T08:58:53.000Z</time>
      </trkpt>
      <trkpt lat="48.86981" lon="0.30343">
        <ele>244.39999389648</ele>
        <time>2016-05-08T08:59:00.000Z</time>
      </trkpt>
      <trkpt lat="48.8698" lon="0.30332">
        <ele>244.60000610352</ele>
        <time>2016-05-08T08:59:06.000Z</time>
      </trkpt>
      <trkpt lat="48.86979" lon="0.3033">
        <ele>244.60000610352</ele>
        <time>2016-05-08T08:59:07.000Z</time>
      </trkpt>
      <trkpt lat="48.86979" lon="0.30322">
        <ele>244.60000610352</ele>
        <time>2016-05-08T08:59:13.000Z</time>
      </trkpt>
      <trkpt lat="48.86979" lon="0.30321">
        <ele>244.60000610352</ele>
        <time>2016-05-08T08:59:15.000Z</time>
      </trkpt>
      <trkpt lat="48.86985" lon="0.30236">
        <ele>244.39999389648</ele>
        <time>2016-05-08T09:00:10.000Z</time>
      </trkpt>
      <trkpt lat="48.86985" lon="0.30232">
        <ele>244.39999389648</ele>
        <time>2016-05-08T09:00:12.000Z</time>
      </trkpt>
      <trkpt lat="48.86987" lon="0.30213">
        <ele>244.80000305176</ele>
        <time>2016-05-08T09:00:22.000Z</time>
      </trkpt>
      <trkpt lat="48.86988" lon="0.30198">
        <ele>244.80000305176</ele>
        <time>2016-05-08T09:00:30.000Z</time>
      </trkpt>
      <trkpt lat="48.86992" lon="0.30182">
        <ele>244.80000305176</ele>
        <time>2016-05-08T09:00:39.000Z</time>
      </trkpt>
      <trkpt lat="48.86996" lon="0.30165">
        <ele>244.60000610352</ele>
        <time>2016-05-08T09:00:49.000Z</time>
      </trkpt>
      <trkpt lat="48.86998" lon="0.30157">
        <ele>244.60000610352</ele>
        <time>2016-05-08T09:00:54.000Z</time>
      </trkpt>
      <trkpt lat="48.86998" lon="0.30152">
        <ele>244.60000610352</ele>
        <time>2016-05-08T09:00:57.000Z</time>
      </trkpt>
      <trkpt lat="48.86999" lon="0.30143">
        <ele>244.60000610352</ele>
        <time>2016-05-08T09:01:02.000Z</time>
      </trkpt>
      <trkpt lat="48.87" lon="0.30142">
        <ele>244.60000610352</ele>
        <time>2016-05-08T09:01:03.000Z</time>
      </trkpt>
      <trkpt lat="48.87" lon="0.3014">
        <ele>244.60000610352</ele>
        <time>2016-05-08T09:01:04.000Z</time>
      </trkpt>
      <trkpt lat="48.87" lon="0.3014">
        <ele>244.60000610352</ele>
        <time>2016-05-08T09:01:06.000Z</time>
      </trkpt>
      <trkpt lat="48.87091" lon="0.29873">
        <ele>237</ele>
        <time>2016-05-08T09:13:57.000Z</time>
      </trkpt>
      <trkpt lat="48.87091" lon="0.29871">
        <ele>236.80000305176</ele>
        <time>2016-05-08T09:13:58.000Z</time>
      </trkpt>
      <trkpt lat="48.87095" lon="0.29861">
        <ele>236.60000610352</ele>
        <time>2016-05-08T09:14:04.000Z</time>
      </trkpt>
      <trkpt lat="48.87096" lon="0.2986">
        <ele>236.60000610352</ele>
        <time>2016-05-08T09:14:05.000Z</time>
      </trkpt>
      <trkpt lat="48.87101" lon="0.2985">
        <ele>236.39999389648</ele>
        <time>2016-05-08T09:14:11.000Z</time>
      </trkpt>
      <trkpt lat="48.87104" lon="0.29842">
        <ele>236.19999694824</ele>
        <time>2016-05-08T09:14:17.000Z</time>
      </trkpt>
      <trkpt lat="48.87108" lon="0.29834">
        <ele>235.80000305176</ele>
        <time>2016-05-08T09:14:22.000Z</time>
      </trkpt>
      <trkpt lat="48.87113" lon="0.29825">
        <ele>235.60000610352</ele>
        <time>2016-05-08T09:14:28.000Z</time>
      </trkpt>
      <trkpt lat="48.87118" lon="0.29814">
        <ele>235.19999694824</ele>
        <time>2016-05-08T09:14:35.000Z</time>
      </trkpt>
      <trkpt lat="48.87125" lon="0.29801">
        <ele>234.80000305176</ele>
        <time>2016-05-08T09:14:44.000Z</time>
      </trkpt>
      <trkpt lat="48.87133" lon="0.29787">
        <ele>234.60000610352</ele>
        <time>2016-05-08T09:14:54.000Z</time>
      </trkpt>
      <trkpt lat="48.87139" lon="0.29777">
        <ele>234.39999389648</ele>
        <time>2016-05-08T09:15:03.000Z</time>
      </trkpt>
      <trkpt lat="48.87141" lon="0.29774">
        <ele>234.39999389648</ele>
        <time>2016-05-08T09:15:07.000Z</time>
      </trkpt>
      <trkpt lat="48.8712" lon="0.29649">
        <ele>234</ele>
        <time>2016-05-08T09:17:03.000Z</time>
      </trkpt>
      <trkpt lat="48.87119" lon="0.29648">
        <ele>234</ele>
        <time>2016-05-08T09:17:04.000Z</time>
      </trkpt>
      <trkpt lat="48.87117" lon="0.29635">
        <ele>234</ele>
        <time>2016-05-08T09:17:11.000Z</time>
      </trkpt>
      <trkpt lat="48.87116" lon="0.29633">
        <ele>234</ele>
        <time>2016-05-08T09:17:13.000Z</time>
      </trkpt>
      <trkpt lat="48.87116" lon="0.29629">
        <ele>234.19999694824</ele>
        <time>2016-05-08T09:17:15.000Z</time>
      </trkpt>
      <trkpt lat="48.87114" lon="0.29621">
        <ele>234</ele>
        <time>2016-05-08T09:17:20.000Z</time>
      </trkpt>
      <trkpt lat="48.87113" lon="0.29616">
        <ele>234</ele>
        <time>2016-05-08T09:17:25.000Z</time>
      </trkpt>
      <trkpt lat="48.8709" lon="0.29546">
        <ele>232.39999389648</ele>
        <time>2016-05-08T09:18:22.000Z</time>
      </trkpt>
      <trkpt lat="48.87086" lon="0.29536">
        <ele>231.19999694824</ele>
        <time>2016-05-08T09:18:29.000Z</time>
      </trkpt>
      <trkpt lat="48.87081" lon="0.29522">
        <ele>229.80000305176</ele>
        <time>2016-05-08T09:18:37.000Z</time>
      </trkpt>
      <trkpt lat="48.87077" lon="0.29511">
        <ele>229</ele>
        <time>2016-05-08T09:18:44.000Z</time>
      </trkpt>
      <trkpt lat="48.87072" lon="0.29501">
        <ele>228.19999694824</ele>
        <time>2016-05-08T09:18:52.000Z</time>
      </trkpt>
      <trkpt lat="48.87069" lon="0.29494">
        <ele>227.80000305176</ele>
        <time>2016-05-08T09:18:57.000Z</time>
      </trkpt>
      <trkpt lat="48.87065" lon="0.29479">
        <ele>227</ele>
        <time>2016-05-08T09:19:06.000Z</time>
      </trkpt>
      <trkpt lat="48.8706" lon="0.29463">
        <ele>226</ele>
        <time>2016-05-08T09:19:16.000Z</time>
      </trkpt>
      <trkpt lat="48.87059" lon="0.2946">
        <ele>225.60000610352</ele>
        <time>2016-05-08T09:19:19.000Z</time>
      </trkpt>
      <trkpt lat="48.87058" lon="0.2946">
        <ele>225.60000610352</ele>
        <time>2016-05-08T09:19:21.000Z</time>
      </trkpt>
      <trkpt lat="48.87036" lon="0.29403">
        <ele>219.80000305176</ele>
        <time>2016-05-08T09:20:14.000Z</time>
      </trkpt>
      <trkpt lat="48.87032" lon="0.29394">
        <ele>218.80000305176</ele>
        <time>2016-05-08T09:20:20.000Z</time>
      </trkpt>
      <trkpt lat="48.87028" lon="0.29388">
        <ele>218</ele>
        <time>2016-05-08T09:20:25.000Z</time>
      </trkpt>
      <trkpt lat="48.87025" lon="0.2938">
        <ele>217.19999694824</ele>
        <time>2016-05-08T09:20:30.000Z</time>
      </trkpt>
      <trkpt lat="48.87023" lon="0.29376">
        <ele>216.80000305176</ele>
        <time>2016-05-08T09:20:33.000Z</time>
      </trkpt>
      <trkpt lat="48.87022" lon="0.29373">
        <ele>216.19999694824</ele>
        <time>2016-05-08T09:20:35.000Z</time>
      </trkpt>
      <trkpt lat="48.87019" lon="0.29366">
        <ele>215.19999694824</ele>
        <time>2016-05-08T09:20:40.000Z</time>
      </trkpt>
      <trkpt lat="48.87019" lon="0.29363">
        <ele>215</ele>
        <time>2016-05-08T09:20:43.000Z</time>
      </trkpt>
      <trkpt lat="48.87019" lon="0.29362">
        <ele>214.80000305176</ele>
        <time>2016-05-08T09:20:44.000Z</time>
      </trkpt>
      <trkpt lat="48.87018" lon="0.29359">
        <ele>214.39999389648</ele>
        <time>2016-05-08T09:20:46.000Z</time>
      </trkpt>
      <trkpt lat="48.87014" lon="0.29349">
        <ele>212.80000305176</ele>
        <time>2016-05-08T09:20:54.000Z</time>
      </trkpt>
      <trkpt lat="48.87011" lon="0.29344">
        <ele>212</ele>
        <time>2016-05-08T09:20:59.000Z</time>
      </trkpt>
      <trkpt lat="48.87011" lon="0.29343">
        <ele>211.80000305176</ele>
        <time>2016-05-08T09:21:01.000Z</time>
      </trkpt>
      <trkpt lat="48.86985" lon="0.29239">
        <ele>197.39999389648</ele>
        <time>2016-05-08T09:22:21.000Z</time>
      </trkpt>
      <trkpt lat="48.86985" lon="0.29231">
        <ele>196.80000305176</ele>
        <time>2016-05-08T09:22:24.000Z</time>
      </trkpt>
      <trkpt lat="48.86986" lon="0.29228">
        <ele>196.80000305176</ele>
        <time>2016-05-08T09:22:25.000Z</time>
      </trkpt>
      <trkpt lat="48.86985" lon="0.29221">
        <ele>196.19999694824</ele>
        <time>2016-05-08T09:22:28.000Z</time>
      </trkpt>
      <trkpt lat="48.86986" lon="0.29218">
        <ele>196</ele>
        <time>2016-05-08T09:22:30.000Z</time>
      </trkpt>
      <trkpt lat="48.86987" lon="0.2921">
        <ele>195.60000610352</ele>
        <time>2016-05-08T09:22:34.000Z</time>
      </trkpt>
      <trkpt lat="48.86987" lon="0.29204">
        <ele>195.39999389648</ele>
        <time>2016-05-08T09:22:37.000Z</time>
      </trkpt>
      <trkpt lat="48.86986" lon="0.29201">
        <ele>195</ele>
        <time>2016-05-08T09:22:39.000Z</time>
      </trkpt>
      <trkpt lat="48.86987" lon="0.29196">
        <ele>194.60000610352</ele>
        <time>2016-05-08T09:22:42.000Z</time>
      </trkpt>
      <trkpt lat="48.86988" lon="0.29191">
        <ele>194.39999389648</ele>
        <time>2016-05-08T09:22:45.000Z</time>
      </trkpt>
      <trkpt lat="48.86987" lon="0.2918">
        <ele>193.39999389648</ele>
        <time>2016-05-08T09:22:52.000Z</time>
      </trkpt>
      <trkpt lat="48.86988" lon="0.29177">
        <ele>193.19999694824</ele>
        <time>2016-05-08T09:22:56.000Z</time>
      </trkpt>
      <trkpt lat="48.8698" lon="0.29083">
        <ele>186</ele>
        <time>2016-05-08T09:24:08.000Z</time>
      </trkpt>
      <trkpt lat="48.86979" lon="0.29078">
        <ele>185.60000610352</ele>
        <time>2016-05-08T09:24:11.000Z</time>
      </trkpt>
      <trkpt lat="48.86979" lon="0.29074">
        <ele>185.19999694824</ele>
        <time>2016-05-08T09:24:13.000Z</time>
      </trkpt>
      <trkpt lat="48.86978" lon="0.2906">
        <ele>184.19999694824</ele>
        <time>2016-05-08T09:24:20.000Z</time>
      </trkpt>
      <trkpt lat="48.86978" lon="0.29058">
        <ele>184</ele>
        <time>2016-05-08T09:24:21.000Z</time>
      </trkpt>
      <trkpt lat="48.86977" lon="0.29044">
        <ele>183.19999694824</ele>
        <time>2016-05-08T09:24:28.000Z</time>
      </trkpt>
      <trkpt lat="48.86976" lon="0.29032">
        <ele>183</ele>
        <time>2016-05-08T09:24:34.000Z</time>
      </trkpt>
      <trkpt lat="48.86976" lon="0.29028">
        <ele>183</ele>
        <time>2016-05-08T09:24:36.000Z</time>
      </trkpt>
      <trkpt lat="48.86972" lon="0.29019">
        <ele>182.19999694824</ele>
        <time>2016-05-08T09:24:42.000Z</time>
      </trkpt>
      <trkpt lat="48.86972" lon="0.29016">
        <ele>182.19999694824</ele>
        <time>2016-05-08T09:24:44.000Z</time>
      </trkpt>
      <trkpt lat="48.86972" lon="0.2901">
        <ele>182.19999694824</ele>
        <time>2016-05-08T09:24:48.000Z</time>
      </trkpt>
      <trkpt lat="48.86973" lon="0.29004">
        <ele>182.39999389648</ele>
        <time>2016-05-08T09:24:52.000Z</time>
      </trkpt>
      <trkpt lat="48.86972" lon="0.29003">
        <ele>182.39999389648</ele>
        <time>2016-05-08T09:24:53.000Z</time>
      </trkpt>
      <trkpt lat="48.86973" lon="0.28998">
        <ele>182.60000610352</ele>
        <time>2016-05-08T09:24:56.000Z</time>
      </trkpt>
      <trkpt lat="48.86972" lon="0.28997">
        <ele>182.39999389648</ele>
        <time>2016-05-08T09:24:57.000Z</time>
      </trkpt>
      <trkpt lat="48.86971" lon="0.28993">
        <ele>182</ele>
        <time>2016-05-08T09:25:01.000Z</time>
      </trkpt>
      <trkpt lat="48.86971" lon="0.28994">
        <ele>182</ele>
        <time>2016-05-08T09:25:02.000Z</time>
      </trkpt>
      <trkpt lat="48.86943" lon="0.28894">
        <ele>175.60000610352</ele>
        <time>2016-05-08T09:26:40.000Z</time>
      </trkpt>
      <trkpt lat="48.86941" lon="0.28893">
        <ele>175.39999389648</ele>
        <time>2016-05-08T09:26:42.000Z</time>
      </trkpt>
      <trkpt lat="48.8694" lon="0.28893">
        <ele>175.19999694824</ele>
        <time>2016-05-08T09:26:44.000Z</time>
      </trkpt>
      <trkpt lat="48.86937" lon="0.28893">
        <ele>175.19999694824</ele>
        <time>2016-05-08T09:26:46.000Z</time>
      </trkpt>
      <trkpt lat="48.86935" lon="0.28891">
        <ele>175.39999389648</ele>
        <time>2016-05-08T09:26:48.000Z</time>
      </trkpt>
      <trkpt lat="48.86934" lon="0.2889">
        <ele>175.39999389648</ele>
        <time>2016-05-08T09:26:49.000Z</time>
      </trkpt>
      <trkpt lat="48.86929" lon="0.28891">
        <ele>175.39999389648</ele>
        <time>2016-05-08T09:26:53.000Z</time>
      </trkpt>
      <trkpt lat="48.86928" lon="0.28891">
        <ele>175.60000610352</ele>
        <time>2016-05-08T09:26:55.000Z</time>
      </trkpt>
      <trkpt lat="48.86925" lon="0.28891">
        <ele>175.60000610352</ele>
        <time>2016-05-08T09:26:57.000Z</time>
      </trkpt>
      <trkpt lat="48.86919" lon="0.28891">
        <ele>175.80000305176</ele>
        <time>2016-05-08T09:27:02.000Z</time>
      </trkpt>
      <trkpt lat="48.86912" lon="0.28887">
        <ele>176</ele>
        <time>2016-05-08T09:27:08.000Z</time>
      </trkpt>
      <trkpt lat="48.86907" lon="0.28882">
        <ele>176.19999694824</ele>
        <time>2016-05-08T09:27:13.000Z</time>
      </trkpt>
      <trkpt lat="48.86906" lon="0.28881">
        <ele>176.19999694824</ele>
        <time>2016-05-08T09:27:15.000Z</time>
      </trkpt>
      <trkpt lat="48.86906" lon="0.28882">
        <ele>176.19999694824</ele>
        <time>2016-05-08T09:27:16.000Z</time>
      </trkpt>
      <trkpt lat="48.86874" lon="0.28641">
        <ele>172.39999389648</ele>
        <time>2016-05-08T09:31:42.000Z</time>
      </trkpt>
      <trkpt lat="48.86874" lon="0.28638">
        <ele>172.19999694824</ele>
        <time>2016-05-08T09:31:44.000Z</time>
      </trkpt>
      <trkpt lat="48.86874" lon="0.28635">
        <ele>172.19999694824</ele>
        <time>2016-05-08T09:31:46.000Z</time>
      </trkpt>
      <trkpt lat="48.86873" lon="0.28623">
        <ele>172</ele>
        <time>2016-05-08T09:31:52.000Z</time>
      </trkpt>
      <trkpt lat="48.86872" lon="0.28612">
        <ele>171.80000305176</ele>
        <time>2016-05-08T09:31:57.000Z</time>
      </trkpt>
      <trkpt lat="48.86872" lon="0.2861">
        <ele>171.80000305176</ele>
        <time>2016-05-08T09:31:58.000Z</time>
      </trkpt>
      <trkpt lat="48.8687" lon="0.28603">
        <ele>171.80000305176</ele>
        <time>2016-05-08T09:32:02.000Z</time>
      </trkpt>
      <trkpt lat="48.86869" lon="0.28593">
        <ele>171.80000305176</ele>
        <time>2016-05-08T09:32:07.000Z</time>
      </trkpt>
      <trkpt lat="48.86868" lon="0.28586">
        <ele>171.80000305176</ele>
        <time>2016-05-08T09:32:11.000Z</time>
      </trkpt>
      <trkpt lat="48.86868" lon="0.28579">
        <ele>171.60000610352</ele>
        <time>2016-05-08T09:32:14.000Z</time>
      </trkpt>
      <trkpt lat="48.86867" lon="0.28562">
        <ele>171.60000610352</ele>
        <time>2016-05-08T09:32:23.000Z</time>
      </trkpt>
      <trkpt lat="48.86866" lon="0.28549">
        <ele>171.39999389648</ele>
        <time>2016-05-08T09:32:31.000Z</time>
      </trkpt>
      <trkpt lat="48.86864" lon="0.28538">
        <ele>171.39999389648</ele>
        <time>2016-05-08T09:32:38.000Z</time>
      </trkpt>
      <trkpt lat="48.86862" lon="0.28528">
        <ele>171.39999389648</ele>
        <time>2016-05-08T09:32:44.000Z</time>
      </trkpt>
      <trkpt lat="48.86861" lon="0.28525">
        <ele>171.39999389648</ele>
        <time>2016-05-08T09:32:46.000Z</time>
      </trkpt>
      <trkpt lat="48.8686" lon="0.2852">
        <ele>171.39999389648</ele>
        <time>2016-05-08T09:32:49.000Z</time>
      </trkpt>
      <trkpt lat="48.86856" lon="0.28511">
        <ele>171.60000610352</ele>
        <time>2016-05-08T09:32:54.000Z</time>
      </trkpt>
      <trkpt lat="48.86856" lon="0.28509">
        <ele>171.60000610352</ele>
        <time>2016-05-08T09:32:55.000Z</time>
      </trkpt>
      <trkpt lat="48.86854" lon="0.28501">
        <ele>171.60000610352</ele>
        <time>2016-05-08T09:33:00.000Z</time>
      </trkpt>
      <trkpt lat="48.86852" lon="0.28495">
        <ele>171.60000610352</ele>
        <time>2016-05-08T09:33:04.000Z</time>
      </trkpt>
      <trkpt lat="48.8685" lon="0.28491">
        <ele>171.60000610352</ele>
        <time>2016-05-08T09:33:07.000Z</time>
      </trkpt>
      <trkpt lat="48.86846" lon="0.28477">
        <ele>171.60000610352</ele>
        <time>2016-05-08T09:33:16.000Z</time>
      </trkpt>
      <trkpt lat="48.86844" lon="0.2847">
        <ele>171.60000610352</ele>
        <time>2016-05-08T09:33:21.000Z</time>
      </trkpt>
      <trkpt lat="48.86841" lon="0.28459">
        <ele>171.60000610352</ele>
        <time>2016-05-08T09:33:28.000Z</time>
      </trkpt>
      <trkpt lat="48.86837" lon="0.28446">
        <ele>171.19999694824</ele>
        <time>2016-05-08T09:33:36.000Z</time>
      </trkpt>
      <trkpt lat="48.86833" lon="0.28431">
        <ele>171.19999694824</ele>
        <time>2016-05-08T09:33:45.000Z</time>
      </trkpt>
      <trkpt lat="48.86829" lon="0.28418">
        <ele>171.19999694824</ele>
        <time>2016-05-08T09:33:53.000Z</time>
      </trkpt>
      <trkpt lat="48.86826" lon="0.28406">
        <ele>171</ele>
        <time>2016-05-08T09:34:00.000Z</time>
      </trkpt>
      <trkpt lat="48.86823" lon="0.28391">
        <ele>171</ele>
        <time>2016-05-08T09:34:10.000Z</time>
      </trkpt>
      <trkpt lat="48.86821" lon="0.28377">
        <ele>170.60000610352</ele>
        <time>2016-05-08T09:34:19.000Z</time>
      </trkpt>
      <trkpt lat="48.86821" lon="0.28369">
        <ele>170.39999389648</ele>
        <time>2016-05-08T09:34:24.000Z</time>
      </trkpt>
      <trkpt lat="48.8682" lon="0.28366">
        <ele>170.19999694824</ele>
        <time>2016-05-08T09:34:26.000Z</time>
      </trkpt>
      <trkpt lat="48.8682" lon="0.2836">
        <ele>170</ele>
        <time>2016-05-08T09:34:32.000Z</time>
      </trkpt>
      <trkpt lat="48.86807" lon="0.28285">
        <ele>168.19999694824</ele>
        <time>2016-05-08T09:35:36.000Z</time>
      </trkpt>
      <trkpt lat="48.86809" lon="0.28277">
        <ele>168</ele>
        <time>2016-05-08T09:35:41.000Z</time>
      </trkpt>
      <trkpt lat="48.8681" lon="0.28274">
        <ele>168</ele>
        <time>2016-05-08T09:35:43.000Z</time>
      </trkpt>
      <trkpt lat="48.86815" lon="0.2826">
        <ele>167.60000610352</ele>
        <time>2016-05-08T09:35:51.000Z</time>
      </trkpt>
      <trkpt lat="48.86817" lon="0.2825">
        <ele>167.39999389648</ele>
        <time>2016-05-08T09:35:57.000Z</time>
      </trkpt>
      <trkpt lat="48.86821" lon="0.28236">
        <ele>167.19999694824</ele>
        <time>2016-05-08T09:36:06.000Z</time>
      </trkpt>
      <trkpt lat="48.86826" lon="0.28221">
        <ele>166.80000305176</ele>
        <time>2016-05-08T09:36:15.000Z</time>
      </trkpt>
      <trkpt lat="48.86831" lon="0.28204">
        <ele>166.39999389648</ele>
        <time>2016-05-08T09:36:25.000Z</time>
      </trkpt>
      <trkpt lat="48.86836" lon="0.28187">
        <ele>165.80000305176</ele>
        <time>2016-05-08T09:36:35.000Z</time>
      </trkpt>
      <trkpt lat="48.8684" lon="0.28177">
        <ele>165.60000610352</ele>
        <time>2016-05-08T09:36:41.000Z</time>
      </trkpt>
      <trkpt lat="48.86843" lon="0.28167">
        <ele>165.19999694824</ele>
        <time>2016-05-08T09:36:48.000Z</time>
      </trkpt>
      <trkpt lat="48.86849" lon="0.28153">
        <ele>164.80000305176</ele>
        <time>2016-05-08T09:36:57.000Z</time>
      </trkpt>
      <trkpt lat="48.86849" lon="0.28153">
        <ele>164.80000305176</ele>
        <time>2016-05-08T09:37:00.000Z</time>
      </trkpt>
      <trkpt lat="48.86868" lon="0.28099">
        <ele>162</ele>
        <time>2016-05-08T09:37:37.000Z</time>
      </trkpt>
      <trkpt lat="48.86868" lon="0.28097">
        <ele>162</ele>
        <time>2016-05-08T09:37:38.000Z</time>
      </trkpt>
      <trkpt lat="48.86875" lon="0.28078">
        <ele>160.80000305176</ele>
        <time>2016-05-08T09:37:50.000Z</time>
      </trkpt>
      <trkpt lat="48.86877" lon="0.28073">
        <ele>160.60000610352</ele>
        <time>2016-05-08T09:37:56.000Z</time>
      </trkpt>
      <trkpt lat="48.86892" lon="0.28037">
        <ele>159.19999694824</ele>
        <time>2016-05-08T09:39:01.000Z</time>
      </trkpt>
      <trkpt lat="48.86892" lon="0.28035">
        <ele>159.19999694824</ele>
        <time>2016-05-08T09:39:02.000Z</time>
      </trkpt>
      <trkpt lat="48.86893" lon="0.28033">
        <ele>159</ele>
        <time>2016-05-08T09:39:04.000Z</time>
      </trkpt>
      <trkpt lat="48.86895" lon="0.28027">
        <ele>158.80000305176</ele>
        <time>2016-05-08T09:39:07.000Z</time>
      </trkpt>
      <trkpt lat="48.86895" lon="0.28025">
        <ele>158.80000305176</ele>
        <time>2016-05-08T09:39:08.000Z</time>
      </trkpt>
      <trkpt lat="48.86898" lon="0.28015">
        <ele>158.39999389648</ele>
        <time>2016-05-08T09:39:14.000Z</time>
      </trkpt>
      <trkpt lat="48.86903" lon="0.28002">
        <ele>157.80000305176</ele>
        <time>2016-05-08T09:39:22.000Z</time>
      </trkpt>
      <trkpt lat="48.86908" lon="0.27986">
        <ele>157.19999694824</ele>
        <time>2016-05-08T09:39:32.000Z</time>
      </trkpt>
      <trkpt lat="48.86914" lon="0.27967">
        <ele>156.39999389648</ele>
        <time>2016-05-08T09:39:43.000Z</time>
      </trkpt>
      <trkpt lat="48.86918" lon="0.27952">
        <ele>156</ele>
        <time>2016-05-08T09:39:52.000Z</time>
      </trkpt>
      <trkpt lat="48.86918" lon="0.27948">
        <ele>156</ele>
        <time>2016-05-08T09:39:56.000Z</time>
      </trkpt>
      <trkpt lat="48.86952" lon="0.27778">
        <ele>151.80000305176</ele>
        <time>2016-05-08T09:43:33.000Z</time>
      </trkpt>
      <trkpt lat="48.86952" lon="0.27777">
        <ele>151.80000305176</ele>
        <time>2016-05-08T09:43:34.000Z</time>
      </trkpt>
      <trkpt lat="48.86961" lon="0.27768">
        <ele>151.60000610352</ele>
        <time>2016-05-08T09:43:43.000Z</time>
      </trkpt>
      <trkpt lat="48.86961" lon="0.27767">
        <ele>151.60000610352</ele>
        <time>2016-05-08T09:43:44.000Z</time>
      </trkpt>
      <trkpt lat="48.86968" lon="0.2776">
        <ele>151.60000610352</ele>
        <time>2016-05-08T09:43:51.000Z</time>
      </trkpt>
      <trkpt lat="48.8697" lon="0.27759">
        <ele>151.60000610352</ele>
        <time>2016-05-08T09:43:52.000Z</time>
      </trkpt>
      <trkpt lat="48.86973" lon="0.27756">
        <ele>151.60000610352</ele>
        <time>2016-05-08T09:43:55.000Z</time>
      </trkpt>
      <trkpt lat="48.86978" lon="0.27751">
        <ele>151.39999389648</ele>
        <time>2016-05-08T09:44:00.000Z</time>
      </trkpt>
      <trkpt lat="48.86986" lon="0.27743">
        <ele>151.60000610352</ele>
        <time>2016-05-08T09:44:08.000Z</time>
      </trkpt>
      <trkpt lat="48.86993" lon="0.27737">
        <ele>151.60000610352</ele>
        <time>2016-05-08T09:44:15.000Z</time>
      </trkpt>
      <trkpt lat="48.86999" lon="0.2773">
        <ele>151.80000305176</ele>
        <time>2016-05-08T09:44:21.000Z</time>
      </trkpt>
      <trkpt lat="48.87001" lon="0.27728">
        <ele>151.80000305176</ele>
        <time>2016-05-08T09:44:23.000Z</time>
      </trkpt>
      <trkpt lat="48.87007" lon="0.27722">
        <ele>151.80000305176</ele>
        <time>2016-05-08T09:44:28.000Z</time>
      </trkpt>
      <trkpt lat="48.8701" lon="0.2772">
        <ele>151.80000305176</ele>
        <time>2016-05-08T09:44:30.000Z</time>
      </trkpt>
      <trkpt lat="48.87012" lon="0.27718">
        <ele>151.80000305176</ele>
        <time>2016-05-08T09:44:32.000Z</time>
      </trkpt>
      <trkpt lat="48.8702" lon="0.27711">
        <ele>152</ele>
        <time>2016-05-08T09:44:39.000Z</time>
      </trkpt>
      <trkpt lat="48.87029" lon="0.27704">
        <ele>151.80000305176</ele>
        <time>2016-05-08T09:44:48.000Z</time>
      </trkpt>
      <trkpt lat="48.87036" lon="0.27696">
        <ele>151.60000610352</ele>
        <time>2016-05-08T09:44:55.000Z</time>
      </trkpt>
      <trkpt lat="48.87042" lon="0.2769">
        <ele>151.39999389648</ele>
        <time>2016-05-08T09:45:01.000Z</time>
      </trkpt>
      <trkpt lat="48.8705" lon="0.2768">
        <ele>151.19999694824</ele>
        <time>2016-05-08T09:45:10.000Z</time>
      </trkpt>
      <trkpt lat="48.87056" lon="0.27673">
        <ele>151.19999694824</ele>
        <time>2016-05-08T09:45:16.000Z</time>
      </trkpt>
      <trkpt lat="48.87063" lon="0.27663">
        <ele>151</ele>
        <time>2016-05-08T09:45:24.000Z</time>
      </trkpt>
      <trkpt lat="48.87072" lon="0.27651">
        <ele>151.39999389648</ele>
        <time>2016-05-08T09:45:34.000Z</time>
      </trkpt>
      <trkpt lat="48.87078" lon="0.27645">
        <ele>151.39999389648</ele>
        <time>2016-05-08T09:45:40.000Z</time>
      </trkpt>
      <trkpt lat="48.87084" lon="0.27639">
        <ele>151.60000610352</ele>
        <time>2016-05-08T09:45:47.000Z</time>
      </trkpt>
      <trkpt lat="48.87092" lon="0.2763">
        <ele>151.80000305176</ele>
        <time>2016-05-08T09:45:55.000Z</time>
      </trkpt>
      <trkpt lat="48.871" lon="0.27618">
        <ele>152.19999694824</ele>
        <time>2016-05-08T09:46:04.000Z</time>
      </trkpt>
      <trkpt lat="48.87102" lon="0.27615">
        <ele>152.19999694824</ele>
        <time>2016-05-08T09:46:07.000Z</time>
      </trkpt>
      <trkpt lat="48.87108" lon="0.27607">
        <ele>152.60000610352</ele>
        <time>2016-05-08T09:46:14.000Z</time>
      </trkpt>
      <trkpt lat="48.8711" lon="0.27605">
        <ele>152.60000610352</ele>
        <time>2016-05-08T09:46:16.000Z</time>
      </trkpt>
      <trkpt lat="48.87116" lon="0.276">
        <ele>152.60000610352</ele>
        <time>2016-05-08T09:46:21.000Z</time>
      </trkpt>
      <trkpt lat="48.87123" lon="0.27591">
        <ele>152.80000305176</ele>
        <time>2016-05-08T09:46:28.000Z</time>
      </trkpt>
      <trkpt lat="48.8713" lon="0.2758">
        <ele>153</ele>
        <time>2016-05-08T09:46:36.000Z</time>
      </trkpt>
      <trkpt lat="48.87139" lon="0.27568">
        <ele>153.39999389648</ele>
        <time>2016-05-08T09:46:45.000Z</time>
      </trkpt>
      <trkpt lat="48.8714" lon="0.27568">
        <ele>153.60000610352</ele>
        <time>2016-05-08T09:46:48.000Z</time>
      </trkpt>
      <trkpt lat="48.87471" lon="0.2711">
        <ele>192.39999389648</ele>
        <time>2016-05-08T09:55:11.000Z</time>
      </trkpt>
      <trkpt lat="48.87472" lon="0.27109">
        <ele>192.39999389648</ele>
        <time>2016-05-08T09:55:12.000Z</time>
      </trkpt>
      <trkpt lat="48.87478" lon="0.27106">
        <ele>192.80000305176</ele>
        <time>2016-05-08T09:55:18.000Z</time>
      </trkpt>
      <trkpt lat="48.87478" lon="0.27105">
        <ele>192.80000305176</ele>
        <time>2016-05-08T09:55:19.000Z</time>
      </trkpt>
      <trkpt lat="48.87584" lon="0.27087">
        <ele>200.80000305176</ele>
        <time>2016-05-08T09:57:19.000Z</time>
      </trkpt>
      <trkpt lat="48.87588" lon="0.27088">
        <ele>201</ele>
        <time>2016-05-08T09:57:22.000Z</time>
      </trkpt>
      <trkpt lat="48.8759" lon="0.27088">
        <ele>201.19999694824</ele>
        <time>2016-05-08T09:57:23.000Z</time>
      </trkpt>
      <trkpt lat="48.87599" lon="0.27087">
        <ele>202</ele>
        <time>2016-05-08T09:57:30.000Z</time>
      </trkpt>
      <trkpt lat="48.87608" lon="0.27087">
        <ele>202.80000305176</ele>
        <time>2016-05-08T09:57:37.000Z</time>
      </trkpt>
      <trkpt lat="48.87616" lon="0.27086">
        <ele>203.60000610352</ele>
        <time>2016-05-08T09:57:44.000Z</time>
      </trkpt>
      <trkpt lat="48.87618" lon="0.27085">
        <ele>203.80000305176</ele>
        <time>2016-05-08T09:57:47.000Z</time>
      </trkpt>
      <trkpt lat="48.87622" lon="0.27085">
        <ele>204.19999694824</ele>
        <time>2016-05-08T09:57:50.000Z</time>
      </trkpt>
      <trkpt lat="48.87626" lon="0.27085">
        <ele>204.19999694824</ele>
        <time>2016-05-08T09:57:55.000Z</time>
      </trkpt>
      <trkpt lat="48.87699" lon="0.26897">
        <ele>232.60000610352</ele>
        <time>2016-05-08T10:03:50.000Z</time>
      </trkpt>
      <trkpt lat="48.87693" lon="0.26886">
        <ele>233.39999389648</ele>
        <time>2016-05-08T10:03:57.000Z</time>
      </trkpt>
      <trkpt lat="48.87691" lon="0.26883">
        <ele>233.80000305176</ele>
        <time>2016-05-08T10:04:00.000Z</time>
      </trkpt>
      <trkpt lat="48.87687" lon="0.26878">
        <ele>234</ele>
        <time>2016-05-08T10:04:03.000Z</time>
      </trkpt>
      <trkpt lat="48.87686" lon="0.26875">
        <ele>234</ele>
        <time>2016-05-08T10:04:05.000Z</time>
      </trkpt>
      <trkpt lat="48.87684" lon="0.26872">
        <ele>234</ele>
        <time>2016-05-08T10:04:07.000Z</time>
      </trkpt>
      <trkpt lat="48.87682" lon="0.26868">
        <ele>234</ele>
        <time>2016-05-08T10:04:10.000Z</time>
      </trkpt>
      <trkpt lat="48.87678" lon="0.26858">
        <ele>233.80000305176</ele>
        <time>2016-05-08T10:04:16.000Z</time>
      </trkpt>
      <trkpt lat="48.87675" lon="0.26853">
        <ele>233.80000305176</ele>
        <time>2016-05-08T10:04:20.000Z</time>
      </trkpt>
      <trkpt lat="48.87675" lon="0.26852">
        <ele>233.80000305176</ele>
        <time>2016-05-08T10:04:21.000Z</time>
      </trkpt>
      <trkpt lat="48.87671" lon="0.26843">
        <ele>233.60000610352</ele>
        <time>2016-05-08T10:04:28.000Z</time>
      </trkpt>
      <trkpt lat="48.87669" lon="0.26839">
        <ele>233.60000610352</ele>
        <time>2016-05-08T10:04:31.000Z</time>
      </trkpt>
      <trkpt lat="48.87666" lon="0.26831">
        <ele>233.39999389648</ele>
        <time>2016-05-08T10:04:35.000Z</time>
      </trkpt>
      <trkpt lat="48.87662" lon="0.26822">
        <ele>233.19999694824</ele>
        <time>2016-05-08T10:04:41.000Z</time>
      </trkpt>
      <trkpt lat="48.87654" lon="0.2681">
        <ele>233.19999694824</ele>
        <time>2016-05-08T10:04:49.000Z</time>
      </trkpt>
      <trkpt lat="48.87648" lon="0.268">
        <ele>233.19999694824</ele>
        <time>2016-05-08T10:04:56.000Z</time>
      </trkpt>
      <trkpt lat="48.87642" lon="0.26791">
        <ele>233.19999694824</ele>
        <time>2016-05-08T10:05:03.000Z</time>
      </trkpt>
      <trkpt lat="48.87642" lon="0.26788">
        <ele>233</ele>
        <time>2016-05-08T10:05:05.000Z</time>
      </trkpt>
      <trkpt lat="48.87642" lon="0.26785">
        <ele>233</ele>
        <time>2016-05-08T10:05:07.000Z</time>
      </trkpt>
      <trkpt lat="48.87637" lon="0.26779">
        <ele>233.19999694824</ele>
        <time>2016-05-08T10:05:13.000Z</time>
      </trkpt>
      <trkpt lat="48.87636" lon="0.26778">
        <ele>233.19999694824</ele>
        <time>2016-05-08T10:05:15.000Z</time>
      </trkpt>
      <trkpt lat="48.87591" lon="0.26453">
        <ele>234.60000610352</ele>
        <time>2016-05-08T10:09:26.000Z</time>
      </trkpt>
      <trkpt lat="48.87591" lon="0.26452">
        <ele>234.60000610352</ele>
        <time>2016-05-08T10:09:27.000Z</time>
      </trkpt>
      <trkpt lat="48.87594" lon="0.26439">
        <ele>234.39999389648</ele>
        <time>2016-05-08T10:09:35.000Z</time>
      </trkpt>
      <trkpt lat="48.87596" lon="0.26427">
        <ele>234.39999389648</ele>
        <time>2016-05-08T10:09:43.000Z</time>
      </trkpt>
      <trkpt lat="48.87598" lon="0.26422">
        <ele>234.39999389648</ele>
        <time>2016-05-08T10:09:48.000Z</time>
      </trkpt>
      <trkpt lat="48.87596" lon="0.26166">
        <ele>237.19999694824</ele>
        <time>2016-05-08T10:13:13.000Z</time>
      </trkpt>
      <trkpt lat="48.87597" lon="0.26164">
        <ele>237.19999694824</ele>
        <time>2016-05-08T10:13:14.000Z</time>
      </trkpt>
      <trkpt lat="48.87602" lon="0.26155">
        <ele>237.19999694824</ele>
        <time>2016-05-08T10:13:21.000Z</time>
      </trkpt>
      <trkpt lat="48.87608" lon="0.26146">
        <ele>237</ele>
        <time>2016-05-08T10:13:29.000Z</time>
      </trkpt>
      <trkpt lat="48.87615" lon="0.26139">
        <ele>237</ele>
        <time>2016-05-08T10:13:36.000Z</time>
      </trkpt>
      <trkpt lat="48.87622" lon="0.26133">
        <ele>236.80000305176</ele>
        <time>2016-05-08T10:13:43.000Z</time>
      </trkpt>
      <trkpt lat="48.8763" lon="0.26127">
        <ele>236.80000305176</ele>
        <time>2016-05-08T10:13:51.000Z</time>
      </trkpt>
      <trkpt lat="48.87636" lon="0.26115">
        <ele>236.80000305176</ele>
        <time>2016-05-08T10:14:00.000Z</time>
      </trkpt>
      <trkpt lat="48.87638" lon="0.26102">
        <ele>237</ele>
        <time>2016-05-08T10:14:08.000Z</time>
      </trkpt>
      <trkpt lat="48.87636" lon="0.26089">
        <ele>237.19999694824</ele>
        <time>2016-05-08T10:14:16.000Z</time>
      </trkpt>
      <trkpt lat="48.87634" lon="0.26075">
        <ele>237.39999389648</ele>
        <time>2016-05-08T10:14:24.000Z</time>
      </trkpt>
      <trkpt lat="48.87631" lon="0.26064">
        <ele>237.39999389648</ele>
        <time>2016-05-08T10:14:31.000Z</time>
      </trkpt>
      <trkpt lat="48.87629" lon="0.26055">
        <ele>237.60000610352</ele>
        <time>2016-05-08T10:14:37.000Z</time>
      </trkpt>
      <trkpt lat="48.87628" lon="0.26053">
        <ele>237.60000610352</ele>
        <time>2016-05-08T10:14:38.000Z</time>
      </trkpt>
      <trkpt lat="48.87626" lon="0.26043">
        <ele>237.80000305176</ele>
        <time>2016-05-08T10:14:45.000Z</time>
      </trkpt>
      <trkpt lat="48.87621" lon="0.26027">
        <ele>237.80000305176</ele>
        <time>2016-05-08T10:14:55.000Z</time>
      </trkpt>
      <trkpt lat="48.87618" lon="0.26014">
        <ele>237.80000305176</ele>
        <time>2016-05-08T10:15:03.000Z</time>
      </trkpt>
      <trkpt lat="48.87617" lon="0.2601">
        <ele>237.80000305176</ele>
        <time>2016-05-08T10:15:06.000Z</time>
      </trkpt>
      <trkpt lat="48.87616" lon="0.26004">
        <ele>237.80000305176</ele>
        <time>2016-05-08T10:15:10.000Z</time>
      </trkpt>
      <trkpt lat="48.87616" lon="0.26002">
        <ele>237.80000305176</ele>
        <time>2016-05-08T10:15:11.000Z</time>
      </trkpt>
      <trkpt lat="48.87616" lon="0.25994">
        <ele>237.80000305176</ele>
        <time>2016-05-08T10:15:16.000Z</time>
      </trkpt>
      <trkpt lat="48.87618" lon="0.25977">
        <ele>237.80000305176</ele>
        <time>2016-05-08T10:15:26.000Z</time>
      </trkpt>
      <trkpt lat="48.87624" lon="0.25962">
        <ele>238</ele>
        <time>2016-05-08T10:15:36.000Z</time>
      </trkpt>
      <trkpt lat="48.8763" lon="0.25951">
        <ele>238</ele>
        <time>2016-05-08T10:15:44.000Z</time>
      </trkpt>
      <trkpt lat="48.8763" lon="0.2595">
        <ele>238</ele>
        <time>2016-05-08T10:15:45.000Z</time>
      </trkpt>
      <trkpt lat="48.87634" lon="0.25942">
        <ele>238</ele>
        <time>2016-05-08T10:15:51.000Z</time>
      </trkpt>
      <trkpt lat="48.87638" lon="0.25935">
        <ele>238</ele>
        <time>2016-05-08T10:15:57.000Z</time>
      </trkpt>
      <trkpt lat="48.87643" lon="0.25928">
        <ele>238</ele>
        <time>2016-05-08T10:16:02.000Z</time>
      </trkpt>
      <trkpt lat="48.87643" lon="0.25926">
        <ele>238</ele>
        <time>2016-05-08T10:16:03.000Z</time>
      </trkpt>
      <trkpt lat="48.87648" lon="0.25917">
        <ele>238</ele>
        <time>2016-05-08T10:16:09.000Z</time>
      </trkpt>
      <trkpt lat="48.87653" lon="0.25905">
        <ele>238</ele>
        <time>2016-05-08T10:16:17.000Z</time>
      </trkpt>
      <trkpt lat="48.87658" lon="0.2589">
        <ele>238</ele>
        <time>2016-05-08T10:16:26.000Z</time>
      </trkpt>
      <trkpt lat="48.8766" lon="0.25884">
        <ele>238</ele>
        <time>2016-05-08T10:16:30.000Z</time>
      </trkpt>
      <trkpt lat="48.87661" lon="0.25881">
        <ele>238</ele>
        <time>2016-05-08T10:16:32.000Z</time>
      </trkpt>
      <trkpt lat="48.87663" lon="0.2587">
        <ele>238.19999694824</ele>
        <time>2016-05-08T10:16:39.000Z</time>
      </trkpt>
      <trkpt lat="48.87664" lon="0.25859">
        <ele>238.19999694824</ele>
        <time>2016-05-08T10:16:46.000Z</time>
      </trkpt>
      <trkpt lat="48.87666" lon="0.25842">
        <ele>238.39999389648</ele>
        <time>2016-05-08T10:16:56.000Z</time>
      </trkpt>
      <trkpt lat="48.87668" lon="0.25829">
        <ele>238.60000610352</ele>
        <time>2016-05-08T10:17:04.000Z</time>
      </trkpt>
      <trkpt lat="48.8767" lon="0.25813">
        <ele>238.80000305176</ele>
        <time>2016-05-08T10:17:13.000Z</time>
      </trkpt>
      <trkpt lat="48.87671" lon="0.25793">
        <ele>239</ele>
        <time>2016-05-08T10:17:24.000Z</time>
      </trkpt>
      <trkpt lat="48.87672" lon="0.25774">
        <ele>239.19999694824</ele>
        <time>2016-05-08T10:17:35.000Z</time>
      </trkpt>
      <trkpt lat="48.87673" lon="0.25757">
        <ele>239.19999694824</ele>
        <time>2016-05-08T10:17:45.000Z</time>
      </trkpt>
      <trkpt lat="48.87674" lon="0.25754">
        <ele>239.19999694824</ele>
        <time>2016-05-08T10:17:48.000Z</time>
      </trkpt>
      <trkpt lat="48.87674" lon="0.25753">
        <ele>239.19999694824</ele>
        <time>2016-05-08T10:17:49.000Z</time>
      </trkpt>
      <trkpt lat="48.87781" lon="0.25469">
        <ele>238</ele>
        <time>2016-05-08T10:21:51.000Z</time>
      </trkpt>
      <trkpt lat="48.87781" lon="0.25467">
        <ele>238</ele>
        <time>2016-05-08T10:21:52.000Z</time>
      </trkpt>
      <trkpt lat="48.87782" lon="0.25464">
        <ele>238</ele>
        <time>2016-05-08T10:21:54.000Z</time>
      </trkpt>
      <trkpt lat="48.87785" lon="0.25457">
        <ele>238</ele>
        <time>2016-05-08T10:21:59.000Z</time>
      </trkpt>
      <trkpt lat="48.87786" lon="0.25456">
        <ele>238</ele>
        <time>2016-05-08T10:22:00.000Z</time>
      </trkpt>
      <trkpt lat="48.87788" lon="0.25451">
        <ele>237.80000305176</ele>
        <time>2016-05-08T10:22:04.000Z</time>
      </trkpt>
      <trkpt lat="48.87791" lon="0.2544">
        <ele>237.80000305176</ele>
        <time>2016-05-08T10:22:11.000Z</time>
      </trkpt>
      <trkpt lat="48.87792" lon="0.25435">
        <ele>237.60000610352</ele>
        <time>2016-05-08T10:22:15.000Z</time>
      </trkpt>
      <trkpt lat="48.87792" lon="0.25432">
        <ele>237.60000610352</ele>
        <time>2016-05-08T10:22:17.000Z</time>
      </trkpt>
      <trkpt lat="48.87792" lon="0.25427">
        <ele>237.60000610352</ele>
        <time>2016-05-08T10:22:20.000Z</time>
      </trkpt>
      <trkpt lat="48.87793" lon="0.25421">
        <ele>237.60000610352</ele>
        <time>2016-05-08T10:22:24.000Z</time>
      </trkpt>
      <trkpt lat="48.87794" lon="0.2542">
        <ele>237.39999389648</ele>
        <time>2016-05-08T10:22:25.000Z</time>
      </trkpt>
      <trkpt lat="48.87796" lon="0.25407">
        <ele>237.39999389648</ele>
        <time>2016-05-08T10:22:32.000Z</time>
      </trkpt>
      <trkpt lat="48.87797" lon="0.2539">
        <ele>237.19999694824</ele>
        <time>2016-05-08T10:22:41.000Z</time>
      </trkpt>
      <trkpt lat="48.87797" lon="0.25385">
        <ele>237</ele>
        <time>2016-05-08T10:22:44.000Z</time>
      </trkpt>
      <trkpt lat="48.87797" lon="0.25382">
        <ele>237</ele>
        <time>2016-05-08T10:22:46.000Z</time>
      </trkpt>
      <trkpt lat="48.87797" lon="0.25374">
        <ele>237</ele>
        <time>2016-05-08T10:22:51.000Z</time>
      </trkpt>
      <trkpt lat="48.87797" lon="0.25372">
        <ele>237</ele>
        <time>2016-05-08T10:22:52.000Z</time>
      </trkpt>
      <trkpt lat="48.87797" lon="0.25361">
        <ele>237</ele>
        <time>2016-05-08T10:22:58.000Z</time>
      </trkpt>
      <trkpt lat="48.87797" lon="0.25359">
        <ele>237</ele>
        <time>2016-05-08T10:22:59.000Z</time>
      </trkpt>
      <trkpt lat="48.87797" lon="0.25348">
        <ele>237</ele>
        <time>2016-05-08T10:23:05.000Z</time>
      </trkpt>
      <trkpt lat="48.87797" lon="0.25347">
        <ele>237</ele>
        <time>2016-05-08T10:23:06.000Z</time>
      </trkpt>
      <trkpt lat="48.87796" lon="0.2534">
        <ele>237</ele>
        <time>2016-05-08T10:23:10.000Z</time>
      </trkpt>
      <trkpt lat="48.87797" lon="0.25333">
        <ele>237</ele>
        <time>2016-05-08T10:23:14.000Z</time>
      </trkpt>
      <trkpt lat="48.87797" lon="0.25329">
        <ele>237</ele>
        <time>2016-05-08T10:23:16.000Z</time>
      </trkpt>
      <trkpt lat="48.87797" lon="0.2532">
        <ele>237</ele>
        <time>2016-05-08T10:23:22.000Z</time>
      </trkpt>
      <trkpt lat="48.87798" lon="0.25312">
        <ele>237</ele>
        <time>2016-05-08T10:23:26.000Z</time>
      </trkpt>
      <trkpt lat="48.87798" lon="0.25303">
        <ele>237.19999694824</ele>
        <time>2016-05-08T10:23:32.000Z</time>
      </trkpt>
      <trkpt lat="48.87798" lon="0.25297">
        <ele>237.19999694824</ele>
        <time>2016-05-08T10:23:37.000Z</time>
      </trkpt>
      <trkpt lat="48.87798" lon="0.2529">
        <ele>237.19999694824</ele>
        <time>2016-05-08T10:23:42.000Z</time>
      </trkpt>
      <trkpt lat="48.87798" lon="0.25288">
        <ele>237.19999694824</ele>
        <time>2016-05-08T10:23:43.000Z</time>
      </trkpt>
      <trkpt lat="48.87797" lon="0.25281">
        <ele>237.19999694824</ele>
        <time>2016-05-08T10:23:49.000Z</time>
      </trkpt>
      <trkpt lat="48.87797" lon="0.25278">
        <ele>237.19999694824</ele>
        <time>2016-05-08T10:23:51.000Z</time>
      </trkpt>
      <trkpt lat="48.87797" lon="0.25274">
        <ele>237.19999694824</ele>
        <time>2016-05-08T10:23:54.000Z</time>
      </trkpt>
      <trkpt lat="48.87797" lon="0.25273">
        <ele>237.19999694824</ele>
        <time>2016-05-08T10:23:55.000Z</time>
      </trkpt>
      <trkpt lat="48.87797" lon="0.25271">
        <ele>237.19999694824</ele>
        <time>2016-05-08T10:23:56.000Z</time>
      </trkpt>
      <trkpt lat="48.87796" lon="0.25262">
        <ele>237.19999694824</ele>
        <time>2016-05-08T10:24:01.000Z</time>
      </trkpt>
      <trkpt lat="48.87797" lon="0.2526">
        <ele>237.19999694824</ele>
        <time>2016-05-08T10:24:02.000Z</time>
      </trkpt>
      <trkpt lat="48.87796" lon="0.25253">
        <ele>237.19999694824</ele>
        <time>2016-05-08T10:24:06.000Z</time>
      </trkpt>
      <trkpt lat="48.87796" lon="0.25248">
        <ele>237.19999694824</ele>
        <time>2016-05-08T10:24:09.000Z</time>
      </trkpt>
      <trkpt lat="48.87795" lon="0.2524">
        <ele>237.19999694824</ele>
        <time>2016-05-08T10:24:14.000Z</time>
      </trkpt>
      <trkpt lat="48.87793" lon="0.25226">
        <ele>237.19999694824</ele>
        <time>2016-05-08T10:24:22.000Z</time>
      </trkpt>
      <trkpt lat="48.87793" lon="0.25215">
        <ele>237</ele>
        <time>2016-05-08T10:24:28.000Z</time>
      </trkpt>
      <trkpt lat="48.87793" lon="0.25212">
        <ele>237</ele>
        <time>2016-05-08T10:24:30.000Z</time>
      </trkpt>
      <trkpt lat="48.87793" lon="0.25209">
        <ele>237</ele>
        <time>2016-05-08T10:24:32.000Z</time>
      </trkpt>
      <trkpt lat="48.87793" lon="0.25197">
        <ele>237</ele>
        <time>2016-05-08T10:24:39.000Z</time>
      </trkpt>
      <trkpt lat="48.87793" lon="0.25184">
        <ele>237</ele>
        <time>2016-05-08T10:24:46.000Z</time>
      </trkpt>
      <trkpt lat="48.87793" lon="0.25171">
        <ele>237</ele>
        <time>2016-05-08T10:24:54.000Z</time>
      </trkpt>
      <trkpt lat="48.87793" lon="0.25164">
        <ele>237</ele>
        <time>2016-05-08T10:24:59.000Z</time>
      </trkpt>
      <trkpt lat="48.87792" lon="0.25158">
        <ele>237</ele>
        <time>2016-05-08T10:25:03.000Z</time>
      </trkpt>
      <trkpt lat="48.87793" lon="0.25149">
        <ele>237</ele>
        <time>2016-05-08T10:25:09.000Z</time>
      </trkpt>
      <trkpt lat="48.87792" lon="0.25147">
        <ele>237</ele>
        <time>2016-05-08T10:25:10.000Z</time>
      </trkpt>
      <trkpt lat="48.87791" lon="0.25143">
        <ele>237</ele>
        <time>2016-05-08T10:25:12.000Z</time>
      </trkpt>
      <trkpt lat="48.87791" lon="0.25137">
        <ele>237</ele>
        <time>2016-05-08T10:25:15.000Z</time>
      </trkpt>
      <trkpt lat="48.87791" lon="0.25135">
        <ele>237</ele>
        <time>2016-05-08T10:25:17.000Z</time>
      </trkpt>
      <trkpt lat="48.87791" lon="0.25128">
        <ele>237</ele>
        <time>2016-05-08T10:25:21.000Z</time>
      </trkpt>
      <trkpt lat="48.8779" lon="0.25119">
        <ele>237</ele>
        <time>2016-05-08T10:25:25.000Z</time>
      </trkpt>
      <trkpt lat="48.8779" lon="0.25118">
        <ele>237</ele>
        <time>2016-05-08T10:25:26.000Z</time>
      </trkpt>
      <trkpt lat="48.8779" lon="0.25116">
        <ele>237</ele>
        <time>2016-05-08T10:25:27.000Z</time>
      </trkpt>
      <trkpt lat="48.87789" lon="0.25111">
        <ele>237</ele>
        <time>2016-05-08T10:25:31.000Z</time>
      </trkpt>
      <trkpt lat="48.87789" lon="0.25109">
        <ele>237</ele>
        <time>2016-05-08T10:25:32.000Z</time>
      </trkpt>
      <trkpt lat="48.8779" lon="0.25108">
        <ele>237</ele>
        <time>2016-05-08T10:25:33.000Z</time>
      </trkpt>
      <trkpt lat="48.8779" lon="0.25099">
        <ele>237</ele>
        <time>2016-05-08T10:25:38.000Z</time>
      </trkpt>
      <trkpt lat="48.87789" lon="0.2509">
        <ele>237</ele>
        <time>2016-05-08T10:25:43.000Z</time>
      </trkpt>
      <trkpt lat="48.87788" lon="0.25088">
        <ele>237</ele>
        <time>2016-05-08T10:25:44.000Z</time>
      </trkpt>
      <trkpt lat="48.87788" lon="0.25082">
        <ele>237</ele>
        <time>2016-05-08T10:25:47.000Z</time>
      </trkpt>
      <trkpt lat="48.87787" lon="0.2508">
        <ele>237</ele>
        <time>2016-05-08T10:25:48.000Z</time>
      </trkpt>
      <trkpt lat="48.87787" lon="0.25075">
        <ele>237</ele>
        <time>2016-05-08T10:25:52.000Z</time>
      </trkpt>
      <trkpt lat="48.87787" lon="0.25075">
        <ele>237</ele>
        <time>2016-05-08T10:25:53.000Z</time>
      </trkpt>
      <trkpt lat="48.87743" lon="0.24612">
        <ele>231.60000610352</ele>
        <time>2016-05-08T10:32:58.000Z</time>
      </trkpt>
      <trkpt lat="48.87745" lon="0.24605">
        <ele>231.19999694824</ele>
        <time>2016-05-08T10:33:02.000Z</time>
      </trkpt>
      <trkpt lat="48.87746" lon="0.24602">
        <ele>231</ele>
        <time>2016-05-08T10:33:04.000Z</time>
      </trkpt>
      <trkpt lat="48.87748" lon="0.24593">
        <ele>230.80000305176</ele>
        <time>2016-05-08T10:33:09.000Z</time>
      </trkpt>
      <trkpt lat="48.8775" lon="0.24583">
        <ele>230.60000610352</ele>
        <time>2016-05-08T10:33:15.000Z</time>
      </trkpt>
      <trkpt lat="48.87751" lon="0.24581">
        <ele>230.60000610352</ele>
        <time>2016-05-08T10:33:16.000Z</time>
      </trkpt>
      <trkpt lat="48.87755" lon="0.24567">
        <ele>230.39999389648</ele>
        <time>2016-05-08T10:33:25.000Z</time>
      </trkpt>
      <trkpt lat="48.87756" lon="0.24565">
        <ele>230.39999389648</ele>
        <time>2016-05-08T10:33:27.000Z</time>
      </trkpt>
      <trkpt lat="48.87756" lon="0.24558">
        <ele>230.19999694824</ele>
        <time>2016-05-08T10:33:31.000Z</time>
      </trkpt>
      <trkpt lat="48.87756" lon="0.24557">
        <ele>230.19999694824</ele>
        <time>2016-05-08T10:33:32.000Z</time>
      </trkpt>
      <trkpt lat="48.87756" lon="0.24556">
        <ele>230.19999694824</ele>
        <time>2016-05-08T10:33:33.000Z</time>
      </trkpt>
      <trkpt lat="48.87757" lon="0.24551">
        <ele>230</ele>
        <time>2016-05-08T10:33:37.000Z</time>
      </trkpt>
      <trkpt lat="48.87757" lon="0.24549">
        <ele>230</ele>
        <time>2016-05-08T10:33:40.000Z</time>
      </trkpt>
      <trkpt lat="48.87758" lon="0.24545">
        <ele>229.80000305176</ele>
        <time>2016-05-08T10:33:42.000Z</time>
      </trkpt>
      <trkpt lat="48.87757" lon="0.24539">
        <ele>229.19999694824</ele>
        <time>2016-05-08T10:33:46.000Z</time>
      </trkpt>
      <trkpt lat="48.87759" lon="0.24529">
        <ele>228.60000610352</ele>
        <time>2016-05-08T10:33:52.000Z</time>
      </trkpt>
      <trkpt lat="48.87759" lon="0.24526">
        <ele>228.39999389648</ele>
        <time>2016-05-08T10:33:53.000Z</time>
      </trkpt>
      <trkpt lat="48.87759" lon="0.24519">
        <ele>228.39999389648</ele>
        <time>2016-05-08T10:33:57.000Z</time>
      </trkpt>
      <trkpt lat="48.87759" lon="0.24518">
        <ele>228.39999389648</ele>
        <time>2016-05-08T10:33:58.000Z</time>
      </trkpt>
      <trkpt lat="48.8776" lon="0.24513">
        <ele>228.39999389648</ele>
        <time>2016-05-08T10:34:03.000Z</time>
      </trkpt>
      <trkpt lat="48.87764" lon="0.24403">
        <ele>226</ele>
        <time>2016-05-08T10:35:46.000Z</time>
      </trkpt>
      <trkpt lat="48.87763" lon="0.24402">
        <ele>226</ele>
        <time>2016-05-08T10:35:47.000Z</time>
      </trkpt>
      <trkpt lat="48.87764" lon="0.24395">
        <ele>226</ele>
        <time>2016-05-08T10:35:51.000Z</time>
      </trkpt>
      <trkpt lat="48.87764" lon="0.24391">
        <ele>225.80000305176</ele>
        <time>2016-05-08T10:35:53.000Z</time>
      </trkpt>
      <trkpt lat="48.87763" lon="0.24386">
        <ele>225.80000305176</ele>
        <time>2016-05-08T10:35:56.000Z</time>
      </trkpt>
      <trkpt lat="48.87763" lon="0.24378">
        <ele>225.60000610352</ele>
        <time>2016-05-08T10:36:01.000Z</time>
      </trkpt>
      <trkpt lat="48.87763" lon="0.24373">
        <ele>225.39999389648</ele>
        <time>2016-05-08T10:36:05.000Z</time>
      </trkpt>
      <trkpt lat="48.87764" lon="0.2437">
        <ele>225.39999389648</ele>
        <time>2016-05-08T10:36:07.000Z</time>
      </trkpt>
      <trkpt lat="48.87764" lon="0.24366">
        <ele>225.60000610352</ele>
        <time>2016-05-08T10:36:09.000Z</time>
      </trkpt>
      <trkpt lat="48.87764" lon="0.24359">
        <ele>225.19999694824</ele>
        <time>2016-05-08T10:36:13.000Z</time>
      </trkpt>
      <trkpt lat="48.87763" lon="0.24345">
        <ele>224.80000305176</ele>
        <time>2016-05-08T10:36:20.000Z</time>
      </trkpt>
      <trkpt lat="48.87763" lon="0.24333">
        <ele>224.39999389648</ele>
        <time>2016-05-08T10:36:27.000Z</time>
      </trkpt>
      <trkpt lat="48.87763" lon="0.24329">
        <ele>224.19999694824</ele>
        <time>2016-05-08T10:36:29.000Z</time>
      </trkpt>
      <trkpt lat="48.87763" lon="0.24324">
        <ele>224</ele>
        <time>2016-05-08T10:36:33.000Z</time>
      </trkpt>
      <trkpt lat="48.87762" lon="0.24318">
        <ele>223.60000610352</ele>
        <time>2016-05-08T10:36:38.000Z</time>
      </trkpt>
      <trkpt lat="48.87761" lon="0.24316">
        <ele>223.39999389648</ele>
        <time>2016-05-08T10:36:39.000Z</time>
      </trkpt>
      <trkpt lat="48.87759" lon="0.24304">
        <ele>222.60000610352</ele>
        <time>2016-05-08T10:36:46.000Z</time>
      </trkpt>
      <trkpt lat="48.87758" lon="0.24294">
        <ele>222.19999694824</ele>
        <time>2016-05-08T10:36:52.000Z</time>
      </trkpt>
      <trkpt lat="48.87757" lon="0.24292">
        <ele>222</ele>
        <time>2016-05-08T10:36:53.000Z</time>
      </trkpt>
      <trkpt lat="48.87756" lon="0.24289">
        <ele>222</ele>
        <time>2016-05-08T10:36:55.000Z</time>
      </trkpt>
      <trkpt lat="48.87755" lon="0.24285">
        <ele>221.60000610352</ele>
        <time>2016-05-08T10:36:58.000Z</time>
      </trkpt>
      <trkpt lat="48.87752" lon="0.24275">
        <ele>221</ele>
        <time>2016-05-08T10:37:05.000Z</time>
      </trkpt>
      <trkpt lat="48.87752" lon="0.24274">
        <ele>221</ele>
        <time>2016-05-08T10:37:06.000Z</time>
      </trkpt>
      <trkpt lat="48.87751" lon="0.24273">
        <ele>220.80000305176</ele>
        <time>2016-05-08T10:37:07.000Z</time>
      </trkpt>
      <trkpt lat="48.87749" lon="0.24266">
        <ele>220.19999694824</ele>
        <time>2016-05-08T10:37:11.000Z</time>
      </trkpt>
      <trkpt lat="48.87745" lon="0.24256">
        <ele>219</ele>
        <time>2016-05-08T10:37:17.000Z</time>
      </trkpt>
      <trkpt lat="48.87741" lon="0.24248">
        <ele>218.19999694824</ele>
        <time>2016-05-08T10:37:23.000Z</time>
      </trkpt>
      <trkpt lat="48.8774" lon="0.24245">
        <ele>217.80000305176</ele>
        <time>2016-05-08T10:37:25.000Z</time>
      </trkpt>
      <trkpt lat="48.87739" lon="0.24241">
        <ele>217.60000610352</ele>
        <time>2016-05-08T10:37:28.000Z</time>
      </trkpt>
      <trkpt lat="48.87739" lon="0.2424">
        <ele>217.60000610352</ele>
        <time>2016-05-08T10:37:29.000Z</time>
      </trkpt>
      <trkpt lat="48.87737" lon="0.24236">
        <ele>217.19999694824</ele>
        <time>2016-05-08T10:37:33.000Z</time>
      </trkpt>
      <trkpt lat="48.87736" lon="0.24234">
        <ele>216.80000305176</ele>
        <time>2016-05-08T10:37:34.000Z</time>
      </trkpt>
      <trkpt lat="48.87735" lon="0.24231">
        <ele>216.60000610352</ele>
        <time>2016-05-08T10:37:36.000Z</time>
      </trkpt>
      <trkpt lat="48.87732" lon="0.24222">
        <ele>215.80000305176</ele>
        <time>2016-05-08T10:37:40.000Z</time>
      </trkpt>
      <trkpt lat="48.8773" lon="0.24216">
        <ele>215.19999694824</ele>
        <time>2016-05-08T10:37:44.000Z</time>
      </trkpt>
      <trkpt lat="48.87728" lon="0.2421">
        <ele>214.60000610352</ele>
        <time>2016-05-08T10:37:48.000Z</time>
      </trkpt>
      <trkpt lat="48.87725" lon="0.24203">
        <ele>213.80000305176</ele>
        <time>2016-05-08T10:37:51.000Z</time>
      </trkpt>
      <trkpt lat="48.87724" lon="0.24197">
        <ele>213.60000610352</ele>
        <time>2016-05-08T10:37:54.000Z</time>
      </trkpt>
      <trkpt lat="48.87721" lon="0.24181">
        <ele>212.39999389648</ele>
        <time>2016-05-08T10:38:00.000Z</time>
      </trkpt>
      <trkpt lat="48.87722" lon="0.24177">
        <ele>212.60000610352</ele>
        <time>2016-05-08T10:38:03.000Z</time>
      </trkpt>
      <trkpt lat="48.87723" lon="0.2417">
        <ele>212.60000610352</ele>
        <time>2016-05-08T10:38:08.000Z</time>
      </trkpt>
      <trkpt lat="48.87722" lon="0.24161">
        <ele>212.19999694824</ele>
        <time>2016-05-08T10:38:14.000Z</time>
      </trkpt>
      <trkpt lat="48.8772" lon="0.24152">
        <ele>211.19999694824</ele>
        <time>2016-05-08T10:38:18.000Z</time>
      </trkpt>
      <trkpt lat="48.8772" lon="0.2415">
        <ele>211.19999694824</ele>
        <time>2016-05-08T10:38:19.000Z</time>
      </trkpt>
      <trkpt lat="48.87719" lon="0.24147">
        <ele>211</ele>
        <time>2016-05-08T10:38:20.000Z</time>
      </trkpt>
      <trkpt lat="48.87719" lon="0.2414">
        <ele>210.60000610352</ele>
        <time>2016-05-08T10:38:24.000Z</time>
      </trkpt>
      <trkpt lat="48.87718" lon="0.24132">
        <ele>209.80000305176</ele>
        <time>2016-05-08T10:38:29.000Z</time>
      </trkpt>
      <trkpt lat="48.87717" lon="0.24129">
        <ele>209.60000610352</ele>
        <time>2016-05-08T10:38:31.000Z</time>
      </trkpt>
      <trkpt lat="48.87718" lon="0.24127">
        <ele>209.60000610352</ele>
        <time>2016-05-08T10:38:32.000Z</time>
      </trkpt>
      <trkpt lat="48.87719" lon="0.24124">
        <ele>209.80000305176</ele>
        <time>2016-05-08T10:38:36.000Z</time>
      </trkpt>
      <trkpt lat="48.87698" lon="0.24022">
        <ele>202.60000610352</ele>
        <time>2016-05-08T10:43:23.000Z</time>
      </trkpt>
      <trkpt lat="48.87695" lon="0.24018">
        <ele>201.80000305176</ele>
        <time>2016-05-08T10:43:27.000Z</time>
      </trkpt>
      <trkpt lat="48.8769" lon="0.24012">
        <ele>200.80000305176</ele>
        <time>2016-05-08T10:43:33.000Z</time>
      </trkpt>
      <trkpt lat="48.87689" lon="0.24011">
        <ele>200.60000610352</ele>
        <time>2016-05-08T10:43:35.000Z</time>
      </trkpt>
      <trkpt lat="48.87687" lon="0.24008">
        <ele>199.80000305176</ele>
        <time>2016-05-08T10:43:38.000Z</time>
      </trkpt>
      <trkpt lat="48.8768" lon="0.23999">
        <ele>198</ele>
        <time>2016-05-08T10:43:45.000Z</time>
      </trkpt>
      <trkpt lat="48.8768" lon="0.23999">
        <ele>198</ele>
        <time>2016-05-08T10:43:46.000Z</time>
      </trkpt>
      <trkpt lat="48.87676" lon="0.23994">
        <ele>196.80000305176</ele>
        <time>2016-05-08T10:43:50.000Z</time>
      </trkpt>
      <trkpt lat="48.87669" lon="0.23985">
        <ele>194.60000610352</ele>
        <time>2016-05-08T10:43:58.000Z</time>
      </trkpt>
      <trkpt lat="48.87669" lon="0.23984">
        <ele>194.39999389648</ele>
        <time>2016-05-08T10:44:01.000Z</time>
      </trkpt>
      <trkpt lat="48.87661" lon="0.23966">
        <ele>192</ele>
        <time>2016-05-08T10:44:15.000Z</time>
      </trkpt>
      <trkpt lat="48.87661" lon="0.23964">
        <ele>191.80000305176</ele>
        <time>2016-05-08T10:44:16.000Z</time>
      </trkpt>
      <trkpt lat="48.87655" lon="0.23945">
        <ele>190.39999389648</ele>
        <time>2016-05-08T10:44:25.000Z</time>
      </trkpt>
      <trkpt lat="48.87649" lon="0.23927">
        <ele>188.80000305176</ele>
        <time>2016-05-08T10:44:34.000Z</time>
      </trkpt>
      <trkpt lat="48.87646" lon="0.23916">
        <ele>188</ele>
        <time>2016-05-08T10:44:40.000Z</time>
      </trkpt>
      <trkpt lat="48.87647" lon="0.23903">
        <ele>187.19999694824</ele>
        <time>2016-05-08T10:44:47.000Z</time>
      </trkpt>
      <trkpt lat="48.87649" lon="0.23898">
        <ele>187.39999389648</ele>
        <time>2016-05-08T10:44:50.000Z</time>
      </trkpt>
      <trkpt lat="48.87651" lon="0.23894">
        <ele>187.60000610352</ele>
        <time>2016-05-08T10:44:53.000Z</time>
      </trkpt>
      <trkpt lat="48.87656" lon="0.23884">
        <ele>187.80000305176</ele>
        <time>2016-05-08T10:45:00.000Z</time>
      </trkpt>
      <trkpt lat="48.87661" lon="0.23875">
        <ele>188.39999389648</ele>
        <time>2016-05-08T10:45:06.000Z</time>
      </trkpt>
      <trkpt lat="48.87667" lon="0.23866">
        <ele>189.60000610352</ele>
        <time>2016-05-08T10:45:13.000Z</time>
      </trkpt>
      <trkpt lat="48.87673" lon="0.23857">
        <ele>190.19999694824</ele>
        <time>2016-05-08T10:45:19.000Z</time>
      </trkpt>
      <trkpt lat="48.87677" lon="0.23838">
        <ele>189.60000610352</ele>
        <time>2016-05-08T10:45:27.000Z</time>
      </trkpt>
      <trkpt lat="48.87681" lon="0.23821">
        <ele>189.19999694824</ele>
        <time>2016-05-08T10:45:34.000Z</time>
      </trkpt>
      <trkpt lat="48.87686" lon="0.23803">
        <ele>189</ele>
        <time>2016-05-08T10:45:42.000Z</time>
      </trkpt>
      <trkpt lat="48.87692" lon="0.23791">
        <ele>188.39999389648</ele>
        <time>2016-05-08T10:45:50.000Z</time>
      </trkpt>
      <trkpt lat="48.87691" lon="0.2379">
        <ele>188.39999389648</ele>
        <time>2016-05-08T10:45:51.000Z</time>
      </trkpt>
      <trkpt lat="48.87718" lon="0.2372">
        <ele>179.80000305176</ele>
        <time>2016-05-08T10:48:49.000Z</time>
      </trkpt>
      <trkpt lat="48.8772" lon="0.23713">
        <ele>179</ele>
        <time>2016-05-08T10:48:53.000Z</time>
      </trkpt>
      <trkpt lat="48.87726" lon="0.237">
        <ele>177.80000305176</ele>
        <time>2016-05-08T10:49:02.000Z</time>
      </trkpt>
      <trkpt lat="48.87731" lon="0.23679">
        <ele>176</ele>
        <time>2016-05-08T10:49:12.000Z</time>
      </trkpt>
      <trkpt lat="48.87733" lon="0.23667">
        <ele>175.39999389648</ele>
        <time>2016-05-08T10:49:18.000Z</time>
      </trkpt>
      <trkpt lat="48.87734" lon="0.23653">
        <ele>175.19999694824</ele>
        <time>2016-05-08T10:49:26.000Z</time>
      </trkpt>
      <trkpt lat="48.87736" lon="0.23637">
        <ele>174.80000305176</ele>
        <time>2016-05-08T10:49:34.000Z</time>
      </trkpt>
      <trkpt lat="48.87735" lon="0.23624">
        <ele>174.39999389648</ele>
        <time>2016-05-08T10:49:41.000Z</time>
      </trkpt>
      <trkpt lat="48.87733" lon="0.23607">
        <ele>173.60000610352</ele>
        <time>2016-05-08T10:49:49.000Z</time>
      </trkpt>
      <trkpt lat="48.87728" lon="0.23593">
        <ele>173</ele>
        <time>2016-05-08T10:49:56.000Z</time>
      </trkpt>
      <trkpt lat="48.87721" lon="0.23579">
        <ele>172.60000610352</ele>
        <time>2016-05-08T10:50:03.000Z</time>
      </trkpt>
      <trkpt lat="48.87715" lon="0.23566">
        <ele>172.19999694824</ele>
        <time>2016-05-08T10:50:11.000Z</time>
      </trkpt>
      <trkpt lat="48.87711" lon="0.23554">
        <ele>172</ele>
        <time>2016-05-08T10:50:18.000Z</time>
      </trkpt>
      <trkpt lat="48.87706" lon="0.23539">
        <ele>171.60000610352</ele>
        <time>2016-05-08T10:50:26.000Z</time>
      </trkpt>
      <trkpt lat="48.877" lon="0.23527">
        <ele>170.60000610352</ele>
        <time>2016-05-08T10:50:35.000Z</time>
      </trkpt>
      <trkpt lat="48.87695" lon="0.23516">
        <ele>169.80000305176</ele>
        <time>2016-05-08T10:50:42.000Z</time>
      </trkpt>
      <trkpt lat="48.8769" lon="0.23502">
        <ele>168.80000305176</ele>
        <time>2016-05-08T10:50:49.000Z</time>
      </trkpt>
      <trkpt lat="48.87685" lon="0.23491">
        <ele>167.80000305176</ele>
        <time>2016-05-08T10:50:56.000Z</time>
      </trkpt>
      <trkpt lat="48.87679" lon="0.23479">
        <ele>166.19999694824</ele>
        <time>2016-05-08T10:51:04.000Z</time>
      </trkpt>
      <trkpt lat="48.87673" lon="0.23468">
        <ele>165</ele>
        <time>2016-05-08T10:51:11.000Z</time>
      </trkpt>
      <trkpt lat="48.87666" lon="0.23458">
        <ele>163.60000610352</ele>
        <time>2016-05-08T10:51:18.000Z</time>
      </trkpt>
      <trkpt lat="48.87664" lon="0.23453">
        <ele>163</ele>
        <time>2016-05-08T10:51:21.000Z</time>
      </trkpt>
      <trkpt lat="48.87661" lon="0.23448">
        <ele>162.39999389648</ele>
        <time>2016-05-08T10:51:24.000Z</time>
      </trkpt>
      <trkpt lat="48.8766" lon="0.23447">
        <ele>162.19999694824</ele>
        <time>2016-05-08T10:51:25.000Z</time>
      </trkpt>
      <trkpt lat="48.87651" lon="0.2343">
        <ele>160</ele>
        <time>2016-05-08T10:51:34.000Z</time>
      </trkpt>
      <trkpt lat="48.87645" lon="0.23418">
        <ele>158.60000610352</ele>
        <time>2016-05-08T10:51:41.000Z</time>
      </trkpt>
      <trkpt lat="48.8764" lon="0.23406">
        <ele>157.19999694824</ele>
        <time>2016-05-08T10:51:49.000Z</time>
      </trkpt>
      <trkpt lat="48.87632" lon="0.23398">
        <ele>155.80000305176</ele>
        <time>2016-05-08T10:51:56.000Z</time>
      </trkpt>
      <trkpt lat="48.87616" lon="0.23393">
        <ele>154</ele>
        <time>2016-05-08T10:52:07.000Z</time>
      </trkpt>
      <trkpt lat="48.87606" lon="0.2339">
        <ele>152.80000305176</ele>
        <time>2016-05-08T10:52:14.000Z</time>
      </trkpt>
      <trkpt lat="48.87598" lon="0.23389">
        <ele>152.39999389648</ele>
        <time>2016-05-08T10:52:21.000Z</time>
      </trkpt>
      <trkpt lat="48.87596" lon="0.23394">
        <ele>152.60000610352</ele>
        <time>2016-05-08T10:52:26.000Z</time>
      </trkpt>
      <trkpt lat="48.87595" lon="0.23377">
        <ele>151.19999694824</ele>
        <time>2016-05-08T10:53:09.000Z</time>
      </trkpt>
      <trkpt lat="48.87596" lon="0.23358">
        <ele>150.80000305176</ele>
        <time>2016-05-08T10:53:18.000Z</time>
      </trkpt>
      <trkpt lat="48.87595" lon="0.23339">
        <ele>150.19999694824</ele>
        <time>2016-05-08T10:53:28.000Z</time>
      </trkpt>
      <trkpt lat="48.87595" lon="0.23318">
        <ele>149.80000305176</ele>
        <time>2016-05-08T10:53:38.000Z</time>
      </trkpt>
      <trkpt lat="48.87594" lon="0.23298">
        <ele>149.19999694824</ele>
        <time>2016-05-08T10:53:48.000Z</time>
      </trkpt>
      <trkpt lat="48.87594" lon="0.23273">
        <ele>149.19999694824</ele>
        <time>2016-05-08T10:54:01.000Z</time>
      </trkpt>
      <trkpt lat="48.87595" lon="0.23257">
        <ele>149.60000610352</ele>
        <time>2016-05-08T10:54:10.000Z</time>
      </trkpt>
      <trkpt lat="48.87596" lon="0.23234">
        <ele>149.80000305176</ele>
        <time>2016-05-08T10:54:21.000Z</time>
      </trkpt>
      <trkpt lat="48.87597" lon="0.2321">
        <ele>150.19999694824</ele>
        <time>2016-05-08T10:54:32.000Z</time>
      </trkpt>
      <trkpt lat="48.87598" lon="0.23189">
        <ele>150.19999694824</ele>
        <time>2016-05-08T10:54:42.000Z</time>
      </trkpt>
      <trkpt lat="48.87599" lon="0.23174">
        <ele>150.39999389648</ele>
        <time>2016-05-08T10:54:51.000Z</time>
      </trkpt>
      <trkpt lat="48.876" lon="0.23159">
        <ele>150.39999389648</ele>
        <time>2016-05-08T10:55:02.000Z</time>
      </trkpt>
      <trkpt lat="48.87604" lon="0.23133">
        <ele>150.80000305176</ele>
        <time>2016-05-08T10:55:15.000Z</time>
      </trkpt>
      <trkpt lat="48.87607" lon="0.23113">
        <ele>150.80000305176</ele>
        <time>2016-05-08T10:55:24.000Z</time>
      </trkpt>
      <trkpt lat="48.87611" lon="0.23088">
        <ele>151.19999694824</ele>
        <time>2016-05-08T10:55:36.000Z</time>
      </trkpt>
      <trkpt lat="48.87615" lon="0.23062">
        <ele>151.60000610352</ele>
        <time>2016-05-08T10:55:48.000Z</time>
      </trkpt>
      <trkpt lat="48.87618" lon="0.23045">
        <ele>151.60000610352</ele>
        <time>2016-05-08T10:55:56.000Z</time>
      </trkpt>
      <trkpt lat="48.87621" lon="0.23026">
        <ele>151.19999694824</ele>
        <time>2016-05-08T10:56:05.000Z</time>
      </trkpt>
      <trkpt lat="48.87626" lon="0.23006">
        <ele>150.80000305176</ele>
        <time>2016-05-08T10:56:15.000Z</time>
      </trkpt>
      <trkpt lat="48.87631" lon="0.2298">
        <ele>150.39999389648</ele>
        <time>2016-05-08T10:56:27.000Z</time>
      </trkpt>
      <trkpt lat="48.87633" lon="0.22967">
        <ele>150.39999389648</ele>
        <time>2016-05-08T10:56:33.000Z</time>
      </trkpt>
      <trkpt lat="48.87638" lon="0.22949">
        <ele>150.60000610352</ele>
        <time>2016-05-08T10:56:42.000Z</time>
      </trkpt>
      <trkpt lat="48.87645" lon="0.22923">
        <ele>151</ele>
        <time>2016-05-08T10:56:54.000Z</time>
      </trkpt>
      <trkpt lat="48.87652" lon="0.22902">
        <ele>150.60000610352</ele>
        <time>2016-05-08T10:57:05.000Z</time>
      </trkpt>
      <trkpt lat="48.87657" lon="0.22887">
        <ele>150</ele>
        <time>2016-05-08T10:57:13.000Z</time>
      </trkpt>
      <trkpt lat="48.87658" lon="0.22885">
        <ele>150</ele>
        <time>2016-05-08T10:57:14.000Z</time>
      </trkpt>
      <trkpt lat="48.87666" lon="0.22867">
        <ele>150</ele>
        <time>2016-05-08T10:57:24.000Z</time>
      </trkpt>
      <trkpt lat="48.87673" lon="0.22848">
        <ele>150</ele>
        <time>2016-05-08T10:57:34.000Z</time>
      </trkpt>
      <trkpt lat="48.87679" lon="0.22835">
        <ele>150.19999694824</ele>
        <time>2016-05-08T10:57:41.000Z</time>
      </trkpt>
      <trkpt lat="48.87687" lon="0.2282">
        <ele>150.60000610352</ele>
        <time>2016-05-08T10:57:50.000Z</time>
      </trkpt>
      <trkpt lat="48.87693" lon="0.22809">
        <ele>151</ele>
        <time>2016-05-08T10:57:57.000Z</time>
      </trkpt>
      <trkpt lat="48.877" lon="0.228">
        <ele>151.19999694824</ele>
        <time>2016-05-08T10:58:03.000Z</time>
      </trkpt>
      <trkpt lat="48.87701" lon="0.22798">
        <ele>151.19999694824</ele>
        <time>2016-05-08T10:58:04.000Z</time>
      </trkpt>
      <trkpt lat="48.87713" lon="0.22783">
        <ele>152</ele>
        <time>2016-05-08T10:58:15.000Z</time>
      </trkpt>
      <trkpt lat="48.87727" lon="0.22768">
        <ele>153</ele>
        <time>2016-05-08T10:58:27.000Z</time>
      </trkpt>
      <trkpt lat="48.87741" lon="0.22754">
        <ele>153.39999389648</ele>
        <time>2016-05-08T10:58:38.000Z</time>
      </trkpt>
      <trkpt lat="48.87753" lon="0.22741">
        <ele>153.19999694824</ele>
        <time>2016-05-08T10:58:48.000Z</time>
      </trkpt>
      <trkpt lat="48.87764" lon="0.22729">
        <ele>152.80000305176</ele>
        <time>2016-05-08T10:58:57.000Z</time>
      </trkpt>
      <trkpt lat="48.87774" lon="0.22718">
        <ele>152.39999389648</ele>
        <time>2016-05-08T10:59:05.000Z</time>
      </trkpt>
      <trkpt lat="48.87785" lon="0.22707">
        <ele>152.19999694824</ele>
        <time>2016-05-08T10:59:15.000Z</time>
      </trkpt>
      <trkpt lat="48.87785" lon="0.22707">
        <ele>152.19999694824</ele>
        <time>2016-05-08T10:59:17.000Z</time>
      </trkpt>
      <trkpt lat="48.87776" lon="0.22675">
        <ele>150</ele>
        <time>2016-05-08T11:00:07.000Z</time>
      </trkpt>
      <trkpt lat="48.87775" lon="0.22674">
        <ele>149.80000305176</ele>
        <time>2016-05-08T11:00:08.000Z</time>
      </trkpt>
      <trkpt lat="48.87769" lon="0.22663">
        <ele>149</ele>
        <time>2016-05-08T11:00:15.000Z</time>
      </trkpt>
      <trkpt lat="48.8776" lon="0.22647">
        <ele>147.60000610352</ele>
        <time>2016-05-08T11:00:26.000Z</time>
      </trkpt>
      <trkpt lat="48.87751" lon="0.22628">
        <ele>146.19999694824</ele>
        <time>2016-05-08T11:00:38.000Z</time>
      </trkpt>
      <trkpt lat="48.87743" lon="0.22613">
        <ele>145.19999694824</ele>
        <time>2016-05-08T11:00:48.000Z</time>
      </trkpt>
      <trkpt lat="48.87738" lon="0.226">
        <ele>144.39999389648</ele>
        <time>2016-05-08T11:00:56.000Z</time>
      </trkpt>
      <trkpt lat="48.87732" lon="0.22589">
        <ele>143.60000610352</ele>
        <time>2016-05-08T11:01:02.000Z</time>
      </trkpt>
      <trkpt lat="48.87725" lon="0.22578">
        <ele>142.80000305176</ele>
        <time>2016-05-08T11:01:08.000Z</time>
      </trkpt>
      <trkpt lat="48.87721" lon="0.22569">
        <ele>142</ele>
        <time>2016-05-08T11:01:13.000Z</time>
      </trkpt>
      <trkpt lat="48.8772" lon="0.22567">
        <ele>142</ele>
        <time>2016-05-08T11:01:14.000Z</time>
      </trkpt>
      <trkpt lat="48.87712" lon="0.22548">
        <ele>140.39999389648</ele>
        <time>2016-05-08T11:01:24.000Z</time>
      </trkpt>
      <trkpt lat="48.87704" lon="0.22534">
        <ele>139.60000610352</ele>
        <time>2016-05-08T11:01:33.000Z</time>
      </trkpt>
      <trkpt lat="48.87697" lon="0.22514">
        <ele>138.60000610352</ele>
        <time>2016-05-08T11:01:44.000Z</time>
      </trkpt>
      <trkpt lat="48.87694" lon="0.22503">
        <ele>138</ele>
        <time>2016-05-08T11:01:49.000Z</time>
      </trkpt>
      <trkpt lat="48.8769" lon="0.22485">
        <ele>137.19999694824</ele>
        <time>2016-05-08T11:01:58.000Z</time>
      </trkpt>
      <trkpt lat="48.87686" lon="0.22468">
        <ele>136</ele>
        <time>2016-05-08T11:02:06.000Z</time>
      </trkpt>
      <trkpt lat="48.87682" lon="0.22448">
        <ele>135.19999694824</ele>
        <time>2016-05-08T11:02:15.000Z</time>
      </trkpt>
      <trkpt lat="48.87675" lon="0.2242">
        <ele>134</ele>
        <time>2016-05-08T11:02:28.000Z</time>
      </trkpt>
      <trkpt lat="48.87671" lon="0.22401">
        <ele>133.19999694824</ele>
        <time>2016-05-08T11:02:37.000Z</time>
      </trkpt>
      <trkpt lat="48.87664" lon="0.22373">
        <ele>132</ele>
        <time>2016-05-08T11:02:50.000Z</time>
      </trkpt>
      <trkpt lat="48.87658" lon="0.22346">
        <ele>131</ele>
        <time>2016-05-08T11:03:03.000Z</time>
      </trkpt>
      <trkpt lat="48.87652" lon="0.2232">
        <ele>130</ele>
        <time>2016-05-08T11:03:16.000Z</time>
      </trkpt>
      <trkpt lat="48.87647" lon="0.22296">
        <ele>129</ele>
        <time>2016-05-08T11:03:27.000Z</time>
      </trkpt>
      <trkpt lat="48.87641" lon="0.22275">
        <ele>128.39999389648</ele>
        <time>2016-05-08T11:03:37.000Z</time>
      </trkpt>
      <trkpt lat="48.87635" lon="0.22249">
        <ele>127.59999847412</ele>
        <time>2016-05-08T11:03:49.000Z</time>
      </trkpt>
      <trkpt lat="48.87627" lon="0.22218">
        <ele>126.40000152588</ele>
        <time>2016-05-08T11:04:04.000Z</time>
      </trkpt>
      <trkpt lat="48.87625" lon="0.22201">
        <ele>126</ele>
        <time>2016-05-08T11:04:12.000Z</time>
      </trkpt>
      <trkpt lat="48.87623" lon="0.22176">
        <ele>125.80000305176</ele>
        <time>2016-05-08T11:04:23.000Z</time>
      </trkpt>
      <trkpt lat="48.87622" lon="0.22159">
        <ele>125.59999847412</ele>
        <time>2016-05-08T11:04:31.000Z</time>
      </trkpt>
      <trkpt lat="48.87622" lon="0.22141">
        <ele>125.19999694824</ele>
        <time>2016-05-08T11:04:39.000Z</time>
      </trkpt>
      <trkpt lat="48.87622" lon="0.22132">
        <ele>125</ele>
        <time>2016-05-08T11:04:44.000Z</time>
      </trkpt>
      <trkpt lat="48.87622" lon="0.22127">
        <ele>124.80000305176</ele>
        <time>2016-05-08T11:04:46.000Z</time>
      </trkpt>
      <trkpt lat="48.87622" lon="0.22122">
        <ele>124.80000305176</ele>
        <time>2016-05-08T11:04:48.000Z</time>
      </trkpt>
      <trkpt lat="48.8762" lon="0.22112">
        <ele>124.59999847412</ele>
        <time>2016-05-08T11:04:54.000Z</time>
      </trkpt>
      <trkpt lat="48.8762" lon="0.22112">
        <ele>124.59999847412</ele>
        <time>2016-05-08T11:04:55.000Z</time>
      </trkpt>
      <trkpt lat="48.8762" lon="0.22096">
        <ele>124.40000152588</ele>
        <time>2016-05-08T11:05:20.000Z</time>
      </trkpt>
      <trkpt lat="48.8762" lon="0.22092">
        <ele>124.40000152588</ele>
        <time>2016-05-08T11:05:22.000Z</time>
      </trkpt>
      <trkpt lat="48.8762" lon="0.22075">
        <ele>124.19999694824</ele>
        <time>2016-05-08T11:05:30.000Z</time>
      </trkpt>
      <trkpt lat="48.8762" lon="0.22055">
        <ele>124</ele>
        <time>2016-05-08T11:05:39.000Z</time>
      </trkpt>
      <trkpt lat="48.8762" lon="0.22043">
        <ele>124.19999694824</ele>
        <time>2016-05-08T11:05:44.000Z</time>
      </trkpt>
      <trkpt lat="48.8762" lon="0.22028">
        <ele>124.59999847412</ele>
        <time>2016-05-08T11:05:51.000Z</time>
      </trkpt>
      <trkpt lat="48.87621" lon="0.22004">
        <ele>125.19999694824</ele>
        <time>2016-05-08T11:06:02.000Z</time>
      </trkpt>
      <trkpt lat="48.8762" lon="0.21988">
        <ele>125.59999847412</ele>
        <time>2016-05-08T11:06:10.000Z</time>
      </trkpt>
      <trkpt lat="48.87618" lon="0.2197">
        <ele>126</ele>
        <time>2016-05-08T11:06:19.000Z</time>
      </trkpt>
      <trkpt lat="48.87623" lon="0.21949">
        <ele>126.40000152588</ele>
        <time>2016-05-08T11:06:29.000Z</time>
      </trkpt>
      <trkpt lat="48.8763" lon="0.21935">
        <ele>126.59999847412</ele>
        <time>2016-05-08T11:06:37.000Z</time>
      </trkpt>
      <trkpt lat="48.87644" lon="0.21922">
        <ele>127</ele>
        <time>2016-05-08T11:06:48.000Z</time>
      </trkpt>
      <trkpt lat="48.87652" lon="0.21914">
        <ele>127.19999694824</ele>
        <time>2016-05-08T11:06:55.000Z</time>
      </trkpt>
      <trkpt lat="48.87667" lon="0.21904">
        <ele>127.80000305176</ele>
        <time>2016-05-08T11:07:06.000Z</time>
      </trkpt>
      <trkpt lat="48.87679" lon="0.21893">
        <ele>128.39999389648</ele>
        <time>2016-05-08T11:07:16.000Z</time>
      </trkpt>
      <trkpt lat="48.87692" lon="0.2188">
        <ele>129</ele>
        <time>2016-05-08T11:07:27.000Z</time>
      </trkpt>
      <trkpt lat="48.87704" lon="0.21861">
        <ele>129.39999389648</ele>
        <time>2016-05-08T11:07:39.000Z</time>
      </trkpt>
      <trkpt lat="48.87714" lon="0.21839">
        <ele>130</ele>
        <time>2016-05-08T11:07:52.000Z</time>
      </trkpt>
      <trkpt lat="48.8772" lon="0.21825">
        <ele>130.39999389648</ele>
        <time>2016-05-08T11:08:00.000Z</time>
      </trkpt>
      <trkpt lat="48.87729" lon="0.21801">
        <ele>132</ele>
        <time>2016-05-08T11:08:13.000Z</time>
      </trkpt>
      <trkpt lat="48.87738" lon="0.21773">
        <ele>133.19999694824</ele>
        <time>2016-05-08T11:08:28.000Z</time>
      </trkpt>
      <trkpt lat="48.87746" lon="0.2175">
        <ele>135</ele>
        <time>2016-05-08T11:08:40.000Z</time>
      </trkpt>
      <trkpt lat="48.87751" lon="0.2173">
        <ele>136.80000305176</ele>
        <time>2016-05-08T11:08:50.000Z</time>
      </trkpt>
      <trkpt lat="48.87752" lon="0.21716">
        <ele>138</ele>
        <time>2016-05-08T11:08:57.000Z</time>
      </trkpt>
      <trkpt lat="48.87752" lon="0.21711">
        <ele>138.19999694824</ele>
        <time>2016-05-08T11:08:59.000Z</time>
      </trkpt>
      <trkpt lat="48.87753" lon="0.21703">
        <ele>139</ele>
        <time>2016-05-08T11:09:03.000Z</time>
      </trkpt>
      <trkpt lat="48.87753" lon="0.21691">
        <ele>140</ele>
        <time>2016-05-08T11:09:10.000Z</time>
      </trkpt>
      <trkpt lat="48.87753" lon="0.2167">
        <ele>141.80000305176</ele>
        <time>2016-05-08T11:09:20.000Z</time>
      </trkpt>
      <trkpt lat="48.87752" lon="0.21656">
        <ele>143.19999694824</ele>
        <time>2016-05-08T11:09:26.000Z</time>
      </trkpt>
      <trkpt lat="48.87753" lon="0.21644">
        <ele>144.39999389648</ele>
        <time>2016-05-08T11:09:33.000Z</time>
      </trkpt>
      <trkpt lat="48.87754" lon="0.21628">
        <ele>146</ele>
        <time>2016-05-08T11:09:41.000Z</time>
      </trkpt>
      <trkpt lat="48.87752" lon="0.21622">
        <ele>146.39999389648</ele>
        <time>2016-05-08T11:09:44.000Z</time>
      </trkpt>
      <trkpt lat="48.87752" lon="0.21618">
        <ele>146.80000305176</ele>
        <time>2016-05-08T11:09:46.000Z</time>
      </trkpt>
      <trkpt lat="48.8775" lon="0.21603">
        <ele>148</ele>
        <time>2016-05-08T11:09:54.000Z</time>
      </trkpt>
      <trkpt lat="48.87749" lon="0.21593">
        <ele>149</ele>
        <time>2016-05-08T11:10:00.000Z</time>
      </trkpt>
      <trkpt lat="48.8775" lon="0.2159">
        <ele>149.39999389648</ele>
        <time>2016-05-08T11:10:02.000Z</time>
      </trkpt>
      <trkpt lat="48.87752" lon="0.21581">
        <ele>150.60000610352</ele>
        <time>2016-05-08T11:10:07.000Z</time>
      </trkpt>
      <trkpt lat="48.87753" lon="0.21567">
        <ele>152.39999389648</ele>
        <time>2016-05-08T11:10:14.000Z</time>
      </trkpt>
      <trkpt lat="48.87753" lon="0.2156">
        <ele>153</ele>
        <time>2016-05-08T11:10:19.000Z</time>
      </trkpt>
      <trkpt lat="48.87753" lon="0.21558">
        <ele>153.19999694824</ele>
        <time>2016-05-08T11:10:20.000Z</time>
      </trkpt>
      <trkpt lat="48.87751" lon="0.21552">
        <ele>153.80000305176</ele>
        <time>2016-05-08T11:10:23.000Z</time>
      </trkpt>
      <trkpt lat="48.87751" lon="0.21545">
        <ele>154.39999389648</ele>
        <time>2016-05-08T11:10:26.000Z</time>
      </trkpt>
      <trkpt lat="48.8775" lon="0.21533">
        <ele>155.39999389648</ele>
        <time>2016-05-08T11:10:32.000Z</time>
      </trkpt>
      <trkpt lat="48.8775" lon="0.21531">
        <ele>155.60000610352</ele>
        <time>2016-05-08T11:10:33.000Z</time>
      </trkpt>
      <trkpt lat="48.87749" lon="0.21521">
        <ele>156.60000610352</ele>
        <time>2016-05-08T11:10:39.000Z</time>
      </trkpt>
      <trkpt lat="48.87748" lon="0.21511">
        <ele>157.19999694824</ele>
        <time>2016-05-08T11:10:44.000Z</time>
      </trkpt>
      <trkpt lat="48.87746" lon="0.21498">
        <ele>158</ele>
        <time>2016-05-08T11:10:51.000Z</time>
      </trkpt>
      <trkpt lat="48.87746" lon="0.21496">
        <ele>158.19999694824</ele>
        <time>2016-05-08T11:10:52.000Z</time>
      </trkpt>
      <trkpt lat="48.87744" lon="0.21487">
        <ele>158.80000305176</ele>
        <time>2016-05-08T11:10:57.000Z</time>
      </trkpt>
      <trkpt lat="48.87744" lon="0.21479">
        <ele>159.39999389648</ele>
        <time>2016-05-08T11:11:01.000Z</time>
      </trkpt>
      <trkpt lat="48.87744" lon="0.21472">
        <ele>160</ele>
        <time>2016-05-08T11:11:04.000Z</time>
      </trkpt>
      <trkpt lat="48.87743" lon="0.21462">
        <ele>160.60000610352</ele>
        <time>2016-05-08T11:11:10.000Z</time>
      </trkpt>
      <trkpt lat="48.87742" lon="0.21449">
        <ele>161.60000610352</ele>
        <time>2016-05-08T11:11:16.000Z</time>
      </trkpt>
      <trkpt lat="48.87742" lon="0.21436">
        <ele>162.80000305176</ele>
        <time>2016-05-08T11:11:22.000Z</time>
      </trkpt>
      <trkpt lat="48.87743" lon="0.21426">
        <ele>163.80000305176</ele>
        <time>2016-05-08T11:11:27.000Z</time>
      </trkpt>
      <trkpt lat="48.87743" lon="0.2142">
        <ele>164.19999694824</ele>
        <time>2016-05-08T11:11:29.000Z</time>
      </trkpt>
      <trkpt lat="48.87744" lon="0.21409">
        <ele>165</ele>
        <time>2016-05-08T11:11:33.000Z</time>
      </trkpt>
      <trkpt lat="48.87745" lon="0.21403">
        <ele>165.60000610352</ele>
        <time>2016-05-08T11:11:37.000Z</time>
      </trkpt>
      <trkpt lat="48.87745" lon="0.21401">
        <ele>165.80000305176</ele>
        <time>2016-05-08T11:11:38.000Z</time>
      </trkpt>
      <trkpt lat="48.87746" lon="0.21387">
        <ele>166.80000305176</ele>
        <time>2016-05-08T11:11:44.000Z</time>
      </trkpt>
      <trkpt lat="48.87745" lon="0.21373">
        <ele>167.80000305176</ele>
        <time>2016-05-08T11:11:51.000Z</time>
      </trkpt>
      <trkpt lat="48.87745" lon="0.2137">
        <ele>168.19999694824</ele>
        <time>2016-05-08T11:11:53.000Z</time>
      </trkpt>
      <trkpt lat="48.87746" lon="0.21364">
        <ele>169</ele>
        <time>2016-05-08T11:11:56.000Z</time>
      </trkpt>
      <trkpt lat="48.87746" lon="0.21353">
        <ele>170.19999694824</ele>
        <time>2016-05-08T11:12:01.000Z</time>
      </trkpt>
      <trkpt lat="48.87746" lon="0.2134">
        <ele>172</ele>
        <time>2016-05-08T11:12:07.000Z</time>
      </trkpt>
      <trkpt lat="48.87747" lon="0.21324">
        <ele>174</ele>
        <time>2016-05-08T11:12:14.000Z</time>
      </trkpt>
      <trkpt lat="48.87746" lon="0.21315">
        <ele>175.19999694824</ele>
        <time>2016-05-08T11:12:18.000Z</time>
      </trkpt>
      <trkpt lat="48.87746" lon="0.2131">
        <ele>175.80000305176</ele>
        <time>2016-05-08T11:12:20.000Z</time>
      </trkpt>
      <trkpt lat="48.87744" lon="0.21294">
        <ele>177.80000305176</ele>
        <time>2016-05-08T11:12:26.000Z</time>
      </trkpt>
      <trkpt lat="48.87743" lon="0.21281">
        <ele>178.80000305176</ele>
        <time>2016-05-08T11:12:32.000Z</time>
      </trkpt>
      <trkpt lat="48.8774" lon="0.21264">
        <ele>180</ele>
        <time>2016-05-08T11:12:39.000Z</time>
      </trkpt>
      <trkpt lat="48.87739" lon="0.21249">
        <ele>181</ele>
        <time>2016-05-08T11:12:46.000Z</time>
      </trkpt>
      <trkpt lat="48.87739" lon="0.21242">
        <ele>181.60000610352</ele>
        <time>2016-05-08T11:12:50.000Z</time>
      </trkpt>
      <trkpt lat="48.87739" lon="0.21238">
        <ele>181.80000305176</ele>
        <time>2016-05-08T11:12:52.000Z</time>
      </trkpt>
      <trkpt lat="48.87739" lon="0.21233">
        <ele>182.19999694824</ele>
        <time>2016-05-08T11:12:54.000Z</time>
      </trkpt>
      <trkpt lat="48.8774" lon="0.2122">
        <ele>183.19999694824</ele>
        <time>2016-05-08T11:12:59.000Z</time>
      </trkpt>
      <trkpt lat="48.8774" lon="0.21218">
        <ele>183.39999389648</ele>
        <time>2016-05-08T11:13:00.000Z</time>
      </trkpt>
      <trkpt lat="48.87739" lon="0.21204">
        <ele>184.60000610352</ele>
        <time>2016-05-08T11:13:05.000Z</time>
      </trkpt>
      <trkpt lat="48.87739" lon="0.21193">
        <ele>185.60000610352</ele>
        <time>2016-05-08T11:13:07.000Z</time>
      </trkpt>
      <trkpt lat="48.87737" lon="0.21176">
        <ele>187</ele>
        <time>2016-05-08T11:13:10.000Z</time>
      </trkpt>
      <trkpt lat="48.87733" lon="0.21157">
        <ele>187.80000305176</ele>
        <time>2016-05-08T11:13:15.000Z</time>
      </trkpt>
      <trkpt lat="48.87731" lon="0.21151">
        <ele>188.19999694824</ele>
        <time>2016-05-08T11:13:19.000Z</time>
      </trkpt>
      <trkpt lat="48.87729" lon="0.21146">
        <ele>188.39999389648</ele>
        <time>2016-05-08T11:13:21.000Z</time>
      </trkpt>
      <trkpt lat="48.87724" lon="0.21135">
        <ele>188.60000610352</ele>
        <time>2016-05-08T11:13:28.000Z</time>
      </trkpt>
      <trkpt lat="48.87718" lon="0.21123">
        <ele>189.19999694824</ele>
        <time>2016-05-08T11:13:35.000Z</time>
      </trkpt>
      <trkpt lat="48.87713" lon="0.21107">
        <ele>190.39999389648</ele>
        <time>2016-05-08T11:13:44.000Z</time>
      </trkpt>
      <trkpt lat="48.87709" lon="0.21096">
        <ele>191.39999389648</ele>
        <time>2016-05-08T11:13:51.000Z</time>
      </trkpt>
      <trkpt lat="48.87707" lon="0.21086">
        <ele>192</ele>
        <time>2016-05-08T11:13:56.000Z</time>
      </trkpt>
      <trkpt lat="48.87705" lon="0.2108">
        <ele>192.60000610352</ele>
        <time>2016-05-08T11:13:59.000Z</time>
      </trkpt>
      <trkpt lat="48.87705" lon="0.21077">
        <ele>192.80000305176</ele>
        <time>2016-05-08T11:14:01.000Z</time>
      </trkpt>
      <trkpt lat="48.87704" lon="0.21072">
        <ele>193.19999694824</ele>
        <time>2016-05-08T11:14:04.000Z</time>
      </trkpt>
      <trkpt lat="48.87703" lon="0.21068">
        <ele>193.60000610352</ele>
        <time>2016-05-08T11:14:06.000Z</time>
      </trkpt>
      <trkpt lat="48.87699" lon="0.21052">
        <ele>194.80000305176</ele>
        <time>2016-05-08T11:14:13.000Z</time>
      </trkpt>
      <trkpt lat="48.87693" lon="0.21044">
        <ele>195</ele>
        <time>2016-05-08T11:14:19.000Z</time>
      </trkpt>
      <trkpt lat="48.87687" lon="0.21033">
        <ele>195.60000610352</ele>
        <time>2016-05-08T11:14:26.000Z</time>
      </trkpt>
      <trkpt lat="48.8768" lon="0.21022">
        <ele>196.19999694824</ele>
        <time>2016-05-08T11:14:33.000Z</time>
      </trkpt>
      <trkpt lat="48.87674" lon="0.21015">
        <ele>196.39999389648</ele>
        <time>2016-05-08T11:14:39.000Z</time>
      </trkpt>
      <trkpt lat="48.87667" lon="0.21004">
        <ele>197</ele>
        <time>2016-05-08T11:14:47.000Z</time>
      </trkpt>
      <trkpt lat="48.87666" lon="0.21004">
        <ele>197</ele>
        <time>2016-05-08T11:14:48.000Z</time>
      </trkpt>
      <trkpt lat="48.87663" lon="0.20999">
        <ele>197.19999694824</ele>
        <time>2016-05-08T11:14:51.000Z</time>
      </trkpt>
      <trkpt lat="48.87659" lon="0.20992">
        <ele>197.39999389648</ele>
        <time>2016-05-08T11:14:57.000Z</time>
      </trkpt>
      <trkpt lat="48.8765" lon="0.20978">
        <ele>198</ele>
        <time>2016-05-08T11:15:07.000Z</time>
      </trkpt>
      <trkpt lat="48.87644" lon="0.20966">
        <ele>198.60000610352</ele>
        <time>2016-05-08T11:15:15.000Z</time>
      </trkpt>
      <trkpt lat="48.87638" lon="0.20957">
        <ele>199.39999389648</ele>
        <time>2016-05-08T11:15:21.000Z</time>
      </trkpt>
      <trkpt lat="48.87632" lon="0.20949">
        <ele>200</ele>
        <time>2016-05-08T11:15:27.000Z</time>
      </trkpt>
      <trkpt lat="48.87625" lon="0.2094">
        <ele>200.80000305176</ele>
        <time>2016-05-08T11:15:34.000Z</time>
      </trkpt>
      <trkpt lat="48.87618" lon="0.2093">
        <ele>201.60000610352</ele>
        <time>2016-05-08T11:15:41.000Z</time>
      </trkpt>
      <trkpt lat="48.87612" lon="0.20919">
        <ele>202.80000305176</ele>
        <time>2016-05-08T11:15:49.000Z</time>
      </trkpt>
      <trkpt lat="48.87607" lon="0.20908">
        <ele>203.80000305176</ele>
        <time>2016-05-08T11:15:55.000Z</time>
      </trkpt>
      <trkpt lat="48.87604" lon="0.20902">
        <ele>204.19999694824</ele>
        <time>2016-05-08T11:15:58.000Z</time>
      </trkpt>
      <trkpt lat="48.87601" lon="0.20896">
        <ele>204.80000305176</ele>
        <time>2016-05-08T11:16:01.000Z</time>
      </trkpt>
      <trkpt lat="48.87595" lon="0.20882">
        <ele>206</ele>
        <time>2016-05-08T11:16:09.000Z</time>
      </trkpt>
      <trkpt lat="48.87588" lon="0.20864">
        <ele>207.60000610352</ele>
        <time>2016-05-08T11:16:19.000Z</time>
      </trkpt>
      <trkpt lat="48.87582" lon="0.20849">
        <ele>208.60000610352</ele>
        <time>2016-05-08T11:16:27.000Z</time>
      </trkpt>
      <trkpt lat="48.87578" lon="0.2084">
        <ele>209</ele>
        <time>2016-05-08T11:16:32.000Z</time>
      </trkpt>
      <trkpt lat="48.8757" lon="0.20821">
        <ele>210</ele>
        <time>2016-05-08T11:16:42.000Z</time>
      </trkpt>
      <trkpt lat="48.87564" lon="0.2081">
        <ele>210.39999389648</ele>
        <time>2016-05-08T11:16:49.000Z</time>
      </trkpt>
      <trkpt lat="48.87558" lon="0.20798">
        <ele>211</ele>
        <time>2016-05-08T11:16:56.000Z</time>
      </trkpt>
      <trkpt lat="48.87548" lon="0.20779">
        <ele>212</ele>
        <time>2016-05-08T11:17:06.000Z</time>
      </trkpt>
      <trkpt lat="48.87544" lon="0.20773">
        <ele>212.19999694824</ele>
        <time>2016-05-08T11:17:10.000Z</time>
      </trkpt>
      <trkpt lat="48.87543" lon="0.20771">
        <ele>212.39999389648</ele>
        <time>2016-05-08T11:17:12.000Z</time>
      </trkpt>
      <trkpt lat="48.87538" lon="0.2076">
        <ele>212.80000305176</ele>
        <time>2016-05-08T11:17:18.000Z</time>
      </trkpt>
      <trkpt lat="48.87535" lon="0.20755">
        <ele>213.19999694824</ele>
        <time>2016-05-08T11:17:21.000Z</time>
      </trkpt>
      <trkpt lat="48.87527" lon="0.2074">
        <ele>213.80000305176</ele>
        <time>2016-05-08T11:17:30.000Z</time>
      </trkpt>
      <trkpt lat="48.87525" lon="0.20739">
        <ele>214</ele>
        <time>2016-05-08T11:17:32.000Z</time>
      </trkpt>
      <trkpt lat="48.87521" lon="0.20733">
        <ele>214</ele>
        <time>2016-05-08T11:17:36.000Z</time>
      </trkpt>
      <trkpt lat="48.87512" lon="0.20719">
        <ele>213.80000305176</ele>
        <time>2016-05-08T11:17:45.000Z</time>
      </trkpt>
      <trkpt lat="48.87503" lon="0.20708">
        <ele>213.80000305176</ele>
        <time>2016-05-08T11:17:53.000Z</time>
      </trkpt>
      <trkpt lat="48.87495" lon="0.20693">
        <ele>214.19999694824</ele>
        <time>2016-05-08T11:18:02.000Z</time>
      </trkpt>
      <trkpt lat="48.87483" lon="0.20674">
        <ele>214.80000305176</ele>
        <time>2016-05-08T11:18:14.000Z</time>
      </trkpt>
      <trkpt lat="48.87472" lon="0.20655">
        <ele>215</ele>
        <time>2016-05-08T11:18:26.000Z</time>
      </trkpt>
      <trkpt lat="48.87465" lon="0.20637">
        <ele>215.19999694824</ele>
        <time>2016-05-08T11:18:33.000Z</time>
      </trkpt>
      <trkpt lat="48.8746" lon="0.20625">
        <ele>215.19999694824</ele>
        <time>2016-05-08T11:18:38.000Z</time>
      </trkpt>
      <trkpt lat="48.87456" lon="0.20616">
        <ele>215.39999389648</ele>
        <time>2016-05-08T11:18:43.000Z</time>
      </trkpt>
      <trkpt lat="48.87453" lon="0.20607">
        <ele>215.39999389648</ele>
        <time>2016-05-08T11:18:48.000Z</time>
      </trkpt>
      <trkpt lat="48.87447" lon="0.20585">
        <ele>215.60000610352</ele>
        <time>2016-05-08T11:18:59.000Z</time>
      </trkpt>
      <trkpt lat="48.87443" lon="0.20568">
        <ele>215.80000305176</ele>
        <time>2016-05-08T11:19:08.000Z</time>
      </trkpt>
      <trkpt lat="48.87437" lon="0.20549">
        <ele>215.60000610352</ele>
        <time>2016-05-08T11:19:20.000Z</time>
      </trkpt>
      <trkpt lat="48.87437" lon="0.20549">
        <ele>215.60000610352</ele>
        <time>2016-05-08T11:19:21.000Z</time>
      </trkpt>
      <trkpt lat="48.8743" lon="0.20518">
        <ele>215.60000610352</ele>
        <time>2016-05-08T11:20:00.000Z</time>
      </trkpt>
      <trkpt lat="48.87428" lon="0.20512">
        <ele>215.60000610352</ele>
        <time>2016-05-08T11:20:03.000Z</time>
      </trkpt>
      <trkpt lat="48.87426" lon="0.20498">
        <ele>215.80000305176</ele>
        <time>2016-05-08T11:20:12.000Z</time>
      </trkpt>
      <trkpt lat="48.87425" lon="0.20479">
        <ele>216.19999694824</ele>
        <time>2016-05-08T11:20:22.000Z</time>
      </trkpt>
      <trkpt lat="48.87425" lon="0.20461">
        <ele>216.60000610352</ele>
        <time>2016-05-08T11:20:31.000Z</time>
      </trkpt>
      <trkpt lat="48.87425" lon="0.2045">
        <ele>217.39999389648</ele>
        <time>2016-05-08T11:20:37.000Z</time>
      </trkpt>
      <trkpt lat="48.87424" lon="0.20447">
        <ele>217.60000610352</ele>
        <time>2016-05-08T11:20:39.000Z</time>
      </trkpt>
      <trkpt lat="48.87422" lon="0.20442">
        <ele>217.60000610352</ele>
        <time>2016-05-08T11:20:42.000Z</time>
      </trkpt>
      <trkpt lat="48.87421" lon="0.20428">
        <ele>217.80000305176</ele>
        <time>2016-05-08T11:20:49.000Z</time>
      </trkpt>
      <trkpt lat="48.8742" lon="0.20403">
        <ele>218</ele>
        <time>2016-05-08T11:21:01.000Z</time>
      </trkpt>
      <trkpt lat="48.87418" lon="0.20384">
        <ele>218.19999694824</ele>
        <time>2016-05-08T11:21:11.000Z</time>
      </trkpt>
      <trkpt lat="48.87417" lon="0.20368">
        <ele>218.60000610352</ele>
        <time>2016-05-08T11:21:19.000Z</time>
      </trkpt>
      <trkpt lat="48.87417" lon="0.20351">
        <ele>219.19999694824</ele>
        <time>2016-05-08T11:21:28.000Z</time>
      </trkpt>
      <trkpt lat="48.87416" lon="0.20334">
        <ele>219.39999389648</ele>
        <time>2016-05-08T11:21:37.000Z</time>
      </trkpt>
      <trkpt lat="48.87415" lon="0.20316">
        <ele>220</ele>
        <time>2016-05-08T11:21:47.000Z</time>
      </trkpt>
      <trkpt lat="48.87414" lon="0.2029">
        <ele>220.60000610352</ele>
        <time>2016-05-08T11:22:00.000Z</time>
      </trkpt>
      <trkpt lat="48.87413" lon="0.20273">
        <ele>221.19999694824</ele>
        <time>2016-05-08T11:22:11.000Z</time>
      </trkpt>
      <trkpt lat="48.87413" lon="0.20271">
        <ele>221.19999694824</ele>
        <time>2016-05-08T11:22:12.000Z</time>
      </trkpt>
      <trkpt lat="48.87413" lon="0.20251">
        <ele>222</ele>
        <time>2016-05-08T11:22:23.000Z</time>
      </trkpt>
      <trkpt lat="48.87416" lon="0.20236">
        <ele>222.60000610352</ele>
        <time>2016-05-08T11:22:34.000Z</time>
      </trkpt>
      <trkpt lat="48.87413" lon="0.20222">
        <ele>223</ele>
        <time>2016-05-08T11:22:43.000Z</time>
      </trkpt>
      <trkpt lat="48.87412" lon="0.20222">
        <ele>223</ele>
        <time>2016-05-08T11:22:44.000Z</time>
      </trkpt>
      <trkpt lat="48.87412" lon="0.20221">
        <ele>223</ele>
        <time>2016-05-08T11:22:46.000Z</time>
      </trkpt>
      <trkpt lat="48.87415" lon="0.20184">
        <ele>225.80000305176</ele>
        <time>2016-05-08T11:23:27.000Z</time>
      </trkpt>
      <trkpt lat="48.87414" lon="0.20175">
        <ele>226.80000305176</ele>
        <time>2016-05-08T11:23:32.000Z</time>
      </trkpt>
      <trkpt lat="48.87413" lon="0.20157">
        <ele>228.60000610352</ele>
        <time>2016-05-08T11:23:41.000Z</time>
      </trkpt>
      <trkpt lat="48.87411" lon="0.20145">
        <ele>229.80000305176</ele>
        <time>2016-05-08T11:23:47.000Z</time>
      </trkpt>
      <trkpt lat="48.87409" lon="0.20131">
        <ele>231.19999694824</ele>
        <time>2016-05-08T11:23:55.000Z</time>
      </trkpt>
      <trkpt lat="48.8741" lon="0.20127">
        <ele>231.80000305176</ele>
        <time>2016-05-08T11:23:57.000Z</time>
      </trkpt>
      <trkpt lat="48.87408" lon="0.20122">
        <ele>232.39999389648</ele>
        <time>2016-05-08T11:24:00.000Z</time>
      </trkpt>
      <trkpt lat="48.87408" lon="0.2012">
        <ele>232.60000610352</ele>
        <time>2016-05-08T11:24:01.000Z</time>
      </trkpt>
      <trkpt lat="48.87408" lon="0.20115">
        <ele>233.19999694824</ele>
        <time>2016-05-08T11:24:04.000Z</time>
      </trkpt>
      <trkpt lat="48.87408" lon="0.20108">
        <ele>234.19999694824</ele>
        <time>2016-05-08T11:24:07.000Z</time>
      </trkpt>
      <trkpt lat="48.87409" lon="0.20103">
        <ele>234.80000305176</ele>
        <time>2016-05-08T11:24:10.000Z</time>
      </trkpt>
      <trkpt lat="48.87411" lon="0.20102">
        <ele>235</ele>
        <time>2016-05-08T11:24:12.000Z</time>
      </trkpt>
      <trkpt lat="48.87412" lon="0.20102">
        <ele>235.19999694824</ele>
        <time>2016-05-08T11:24:13.000Z</time>
      </trkpt>
      <trkpt lat="48.87414" lon="0.20103">
        <ele>235</ele>
        <time>2016-05-08T11:24:16.000Z</time>
      </trkpt>
      <trkpt lat="48.87416" lon="0.20104">
        <ele>235.19999694824</ele>
        <time>2016-05-08T11:24:18.000Z</time>
      </trkpt>
      <trkpt lat="48.87418" lon="0.20105">
        <ele>235</ele>
        <time>2016-05-08T11:24:21.000Z</time>
      </trkpt>
      <trkpt lat="48.87423" lon="0.20107">
        <ele>234.80000305176</ele>
        <time>2016-05-08T11:24:25.000Z</time>
      </trkpt>
      <trkpt lat="48.87423" lon="0.20108">
        <ele>234.80000305176</ele>
        <time>2016-05-08T11:24:26.000Z</time>
      </trkpt>
      <trkpt lat="48.87425" lon="0.20109">
        <ele>234.80000305176</ele>
        <time>2016-05-08T11:24:27.000Z</time>
      </trkpt>
      <trkpt lat="48.8743" lon="0.2011">
        <ele>234.60000610352</ele>
        <time>2016-05-08T11:24:31.000Z</time>
      </trkpt>
      <trkpt lat="48.87431" lon="0.20111">
        <ele>234.60000610352</ele>
        <time>2016-05-08T11:24:32.000Z</time>
      </trkpt>
      <trkpt lat="48.87433" lon="0.20112">
        <ele>234.39999389648</ele>
        <time>2016-05-08T11:24:34.000Z</time>
      </trkpt>
      <trkpt lat="48.87437" lon="0.20113">
        <ele>234.39999389648</ele>
        <time>2016-05-08T11:24:37.000Z</time>
      </trkpt>
      <trkpt lat="48.87441" lon="0.20114">
        <ele>234.19999694824</ele>
        <time>2016-05-08T11:24:40.000Z</time>
      </trkpt>
      <trkpt lat="48.87447" lon="0.20117">
        <ele>233.39999389648</ele>
        <time>2016-05-08T11:24:44.000Z</time>
      </trkpt>
      <trkpt lat="48.87449" lon="0.20119">
        <ele>233</ele>
        <time>2016-05-08T11:24:46.000Z</time>
      </trkpt>
      <trkpt lat="48.87454" lon="0.20119">
        <ele>232.39999389648</ele>
        <time>2016-05-08T11:24:49.000Z</time>
      </trkpt>
      <trkpt lat="48.87456" lon="0.20119">
        <ele>232.39999389648</ele>
        <time>2016-05-08T11:24:50.000Z</time>
      </trkpt>
      <trkpt lat="48.87458" lon="0.20118">
        <ele>232.19999694824</ele>
        <time>2016-05-08T11:24:52.000Z</time>
      </trkpt>
      <trkpt lat="48.87459" lon="0.20116">
        <ele>232.39999389648</ele>
        <time>2016-05-08T11:24:54.000Z</time>
      </trkpt>
      <trkpt lat="48.8746" lon="0.20114">
        <ele>232.60000610352</ele>
        <time>2016-05-08T11:24:56.000Z</time>
      </trkpt>
      <trkpt lat="48.8746" lon="0.20109">
        <ele>233</ele>
        <time>2016-05-08T11:24:59.000Z</time>
      </trkpt>
      <trkpt lat="48.87459" lon="0.20107">
        <ele>233.19999694824</ele>
        <time>2016-05-08T11:25:01.000Z</time>
      </trkpt>
      <trkpt lat="48.87456" lon="0.20102">
        <ele>234</ele>
        <time>2016-05-08T11:25:05.000Z</time>
      </trkpt>
      <trkpt lat="48.87453" lon="0.20099">
        <ele>234.39999389648</ele>
        <time>2016-05-08T11:25:08.000Z</time>
      </trkpt>
      <trkpt lat="48.87453" lon="0.20096">
        <ele>234.80000305176</ele>
        <time>2016-05-08T11:25:10.000Z</time>
      </trkpt>
      <trkpt lat="48.8745" lon="0.2008">
        <ele>236.60000610352</ele>
        <time>2016-05-08T11:25:18.000Z</time>
      </trkpt>
      <trkpt lat="48.8745" lon="0.20078">
        <ele>236.80000305176</ele>
        <time>2016-05-08T11:25:19.000Z</time>
      </trkpt>
      <trkpt lat="48.8745" lon="0.20073">
        <ele>237.39999389648</ele>
        <time>2016-05-08T11:25:22.000Z</time>
      </trkpt>
      <trkpt lat="48.87449" lon="0.20071">
        <ele>237.60000610352</ele>
        <time>2016-05-08T11:25:23.000Z</time>
      </trkpt>
      <trkpt lat="48.87449" lon="0.20067">
        <ele>238</ele>
        <time>2016-05-08T11:25:26.000Z</time>
      </trkpt>
      <trkpt lat="48.87447" lon="0.20058">
        <ele>239</ele>
        <time>2016-05-08T11:25:31.000Z</time>
      </trkpt>
      <trkpt lat="48.87441" lon="0.20044">
        <ele>241</ele>
        <time>2016-05-08T11:25:40.000Z</time>
      </trkpt>
      <trkpt lat="48.8744" lon="0.2004">
        <ele>241.19999694824</ele>
        <time>2016-05-08T11:25:42.000Z</time>
      </trkpt>
      <trkpt lat="48.87437" lon="0.20031">
        <ele>241.39999389648</ele>
        <time>2016-05-08T11:25:47.000Z</time>
      </trkpt>
      <trkpt lat="48.87436" lon="0.20029">
        <ele>241.39999389648</ele>
        <time>2016-05-08T11:25:48.000Z</time>
      </trkpt>
      <trkpt lat="48.87433" lon="0.20017">
        <ele>241.60000610352</ele>
        <time>2016-05-08T11:25:53.000Z</time>
      </trkpt>
      <trkpt lat="48.87432" lon="0.20015">
        <ele>241.80000305176</ele>
        <time>2016-05-08T11:25:54.000Z</time>
      </trkpt>
      <trkpt lat="48.8743" lon="0.20006">
        <ele>242</ele>
        <time>2016-05-08T11:25:58.000Z</time>
      </trkpt>
      <trkpt lat="48.87425" lon="0.19991">
        <ele>242.39999389648</ele>
        <time>2016-05-08T11:26:07.000Z</time>
      </trkpt>
      <trkpt lat="48.87425" lon="0.19989">
        <ele>242.39999389648</ele>
        <time>2016-05-08T11:26:08.000Z</time>
      </trkpt>
      <trkpt lat="48.87421" lon="0.19984">
        <ele>242.39999389648</ele>
        <time>2016-05-08T11:26:12.000Z</time>
      </trkpt>
      <trkpt lat="48.87413" lon="0.19969">
        <ele>242.80000305176</ele>
        <time>2016-05-08T11:26:20.000Z</time>
      </trkpt>
      <trkpt lat="48.87408" lon="0.19956">
        <ele>243</ele>
        <time>2016-05-08T11:26:28.000Z</time>
      </trkpt>
      <trkpt lat="48.87405" lon="0.19945">
        <ele>243</ele>
        <time>2016-05-08T11:26:34.000Z</time>
      </trkpt>
      <trkpt lat="48.87404" lon="0.1994">
        <ele>243</ele>
        <time>2016-05-08T11:26:37.000Z</time>
      </trkpt>
      <trkpt lat="48.87402" lon="0.19934">
        <ele>243</ele>
        <time>2016-05-08T11:26:40.000Z</time>
      </trkpt>
      <trkpt lat="48.87401" lon="0.19924">
        <ele>243</ele>
        <time>2016-05-08T11:26:45.000Z</time>
      </trkpt>
      <trkpt lat="48.87398" lon="0.19911">
        <ele>243.19999694824</ele>
        <time>2016-05-08T11:26:51.000Z</time>
      </trkpt>
      <trkpt lat="48.87396" lon="0.19897">
        <ele>243.19999694824</ele>
        <time>2016-05-08T11:26:58.000Z</time>
      </trkpt>
      <trkpt lat="48.87392" lon="0.19882">
        <ele>243.39999389648</ele>
        <time>2016-05-08T11:27:08.000Z</time>
      </trkpt>
      <trkpt lat="48.87391" lon="0.19879">
        <ele>243.39999389648</ele>
        <time>2016-05-08T11:27:10.000Z</time>
      </trkpt>
      <trkpt lat="48.8739" lon="0.19873">
        <ele>243.39999389648</ele>
        <time>2016-05-08T11:27:13.000Z</time>
      </trkpt>
      <trkpt lat="48.8739" lon="0.1987">
        <ele>243.60000610352</ele>
        <time>2016-05-08T11:27:15.000Z</time>
      </trkpt>
      <trkpt lat="48.87389" lon="0.19868">
        <ele>243.60000610352</ele>
        <time>2016-05-08T11:27:16.000Z</time>
      </trkpt>
      <trkpt lat="48.87387" lon="0.19856">
        <ele>243.60000610352</ele>
        <time>2016-05-08T11:27:21.000Z</time>
      </trkpt>
      <trkpt lat="48.87384" lon="0.19844">
        <ele>243.80000305176</ele>
        <time>2016-05-08T11:27:25.000Z</time>
      </trkpt>
      <trkpt lat="48.87383" lon="0.19838">
        <ele>243.80000305176</ele>
        <time>2016-05-08T11:27:28.000Z</time>
      </trkpt>
      <trkpt lat="48.87379" lon="0.19825">
        <ele>244</ele>
        <time>2016-05-08T11:27:34.000Z</time>
      </trkpt>
      <trkpt lat="48.87377" lon="0.19812">
        <ele>244</ele>
        <time>2016-05-08T11:27:41.000Z</time>
      </trkpt>
      <trkpt lat="48.87376" lon="0.19808">
        <ele>244</ele>
        <time>2016-05-08T11:27:43.000Z</time>
      </trkpt>
      <trkpt lat="48.87374" lon="0.19799">
        <ele>244</ele>
        <time>2016-05-08T11:27:47.000Z</time>
      </trkpt>
      <trkpt lat="48.8737" lon="0.19784">
        <ele>243.80000305176</ele>
        <time>2016-05-08T11:27:55.000Z</time>
      </trkpt>
      <trkpt lat="48.87366" lon="0.19768">
        <ele>243.60000610352</ele>
        <time>2016-05-08T11:28:02.000Z</time>
      </trkpt>
      <trkpt lat="48.87361" lon="0.19748">
        <ele>243.39999389648</ele>
        <time>2016-05-08T11:28:12.000Z</time>
      </trkpt>
      <trkpt lat="48.87356" lon="0.19725">
        <ele>243.19999694824</ele>
        <time>2016-05-08T11:28:22.000Z</time>
      </trkpt>
      <trkpt lat="48.87351" lon="0.19706">
        <ele>243.19999694824</ele>
        <time>2016-05-08T11:28:30.000Z</time>
      </trkpt>
      <trkpt lat="48.87343" lon="0.1968">
        <ele>242.39999389648</ele>
        <time>2016-05-08T11:28:43.000Z</time>
      </trkpt>
      <trkpt lat="48.87337" lon="0.19658">
        <ele>241.60000610352</ele>
        <time>2016-05-08T11:28:54.000Z</time>
      </trkpt>
      <trkpt lat="48.87332" lon="0.19641">
        <ele>241</ele>
        <time>2016-05-08T11:29:04.000Z</time>
      </trkpt>
      <trkpt lat="48.87328" lon="0.19627">
        <ele>240.60000610352</ele>
        <time>2016-05-08T11:29:12.000Z</time>
      </trkpt>
      <trkpt lat="48.87324" lon="0.19607">
        <ele>240.60000610352</ele>
        <time>2016-05-08T11:29:22.000Z</time>
      </trkpt>
      <trkpt lat="48.87319" lon="0.1959">
        <ele>240.60000610352</ele>
        <time>2016-05-08T11:29:31.000Z</time>
      </trkpt>
      <trkpt lat="48.87313" lon="0.1957">
        <ele>240.39999389648</ele>
        <time>2016-05-08T11:29:41.000Z</time>
      </trkpt>
      <trkpt lat="48.87306" lon="0.19545">
        <ele>240</ele>
        <time>2016-05-08T11:29:53.000Z</time>
      </trkpt>
      <trkpt lat="48.873" lon="0.19523">
        <ele>240.80000305176</ele>
        <time>2016-05-08T11:30:04.000Z</time>
      </trkpt>
      <trkpt lat="48.87294" lon="0.19499">
        <ele>241.60000610352</ele>
        <time>2016-05-08T11:30:15.000Z</time>
      </trkpt>
      <trkpt lat="48.8729" lon="0.19483">
        <ele>242</ele>
        <time>2016-05-08T11:30:23.000Z</time>
      </trkpt>
      <trkpt lat="48.87287" lon="0.19468">
        <ele>242.19999694824</ele>
        <time>2016-05-08T11:30:30.000Z</time>
      </trkpt>
      <trkpt lat="48.87281" lon="0.19456">
        <ele>243</ele>
        <time>2016-05-08T11:30:38.000Z</time>
      </trkpt>
      <trkpt lat="48.87274" lon="0.19432">
        <ele>244.19999694824</ele>
        <time>2016-05-08T11:30:50.000Z</time>
      </trkpt>
      <trkpt lat="48.87274" lon="0.19418">
        <ele>244.39999389648</ele>
        <time>2016-05-08T11:30:58.000Z</time>
      </trkpt>
      <trkpt lat="48.87277" lon="0.19412">
        <ele>244</ele>
        <time>2016-05-08T11:31:02.000Z</time>
      </trkpt>
      <trkpt lat="48.87281" lon="0.19409">
        <ele>243.60000610352</ele>
        <time>2016-05-08T11:31:06.000Z</time>
      </trkpt>
      <trkpt lat="48.87293" lon="0.19402">
        <ele>242</ele>
        <time>2016-05-08T11:31:16.000Z</time>
      </trkpt>
      <trkpt lat="48.87304" lon="0.19393">
        <ele>240.80000305176</ele>
        <time>2016-05-08T11:31:25.000Z</time>
      </trkpt>
      <trkpt lat="48.87315" lon="0.19383">
        <ele>239.80000305176</ele>
        <time>2016-05-08T11:31:34.000Z</time>
      </trkpt>
      <trkpt lat="48.87325" lon="0.1937">
        <ele>238.60000610352</ele>
        <time>2016-05-08T11:31:43.000Z</time>
      </trkpt>
      <trkpt lat="48.87336" lon="0.19352">
        <ele>237.39999389648</ele>
        <time>2016-05-08T11:31:54.000Z</time>
      </trkpt>
      <trkpt lat="48.87344" lon="0.19333">
        <ele>237.19999694824</ele>
        <time>2016-05-08T11:32:04.000Z</time>
      </trkpt>
      <trkpt lat="48.87352" lon="0.19314">
        <ele>236.80000305176</ele>
        <time>2016-05-08T11:32:14.000Z</time>
      </trkpt>
      <trkpt lat="48.87359" lon="0.19295">
        <ele>236.80000305176</ele>
        <time>2016-05-08T11:32:23.000Z</time>
      </trkpt>
      <trkpt lat="48.87366" lon="0.1927">
        <ele>236.39999389648</ele>
        <time>2016-05-08T11:32:35.000Z</time>
      </trkpt>
      <trkpt lat="48.87375" lon="0.19243">
        <ele>236</ele>
        <time>2016-05-08T11:32:49.000Z</time>
      </trkpt>
      <trkpt lat="48.87384" lon="0.19218">
        <ele>236.19999694824</ele>
        <time>2016-05-08T11:33:02.000Z</time>
      </trkpt>
      <trkpt lat="48.87394" lon="0.19188">
        <ele>236</ele>
        <time>2016-05-08T11:33:18.000Z</time>
      </trkpt>
      <trkpt lat="48.874" lon="0.19168">
        <ele>236</ele>
        <time>2016-05-08T11:33:29.000Z</time>
      </trkpt>
      <trkpt lat="48.87406" lon="0.19144">
        <ele>236.60000610352</ele>
        <time>2016-05-08T11:33:41.000Z</time>
      </trkpt>
      <trkpt lat="48.87409" lon="0.19121">
        <ele>237.19999694824</ele>
        <time>2016-05-08T11:33:52.000Z</time>
      </trkpt>
      <trkpt lat="48.87411" lon="0.191">
        <ele>237.39999389648</ele>
        <time>2016-05-08T11:34:02.000Z</time>
      </trkpt>
      <trkpt lat="48.87413" lon="0.19078">
        <ele>237.80000305176</ele>
        <time>2016-05-08T11:34:12.000Z</time>
      </trkpt>
      <trkpt lat="48.87415" lon="0.19052">
        <ele>238.39999389648</ele>
        <time>2016-05-08T11:34:24.000Z</time>
      </trkpt>
      <trkpt lat="48.87416" lon="0.19038">
        <ele>238.80000305176</ele>
        <time>2016-05-08T11:34:31.000Z</time>
      </trkpt>
      <trkpt lat="48.87419" lon="0.19019">
        <ele>239</ele>
        <time>2016-05-08T11:34:40.000Z</time>
      </trkpt>
      <trkpt lat="48.87426" lon="0.19009">
        <ele>239</ele>
        <time>2016-05-08T11:34:46.000Z</time>
      </trkpt>
      <trkpt lat="48.87436" lon="0.19006">
        <ele>238.60000610352</ele>
        <time>2016-05-08T11:34:53.000Z</time>
      </trkpt>
      <trkpt lat="48.87448" lon="0.1901">
        <ele>238</ele>
        <time>2016-05-08T11:35:02.000Z</time>
      </trkpt>
      <trkpt lat="48.87459" lon="0.19012">
        <ele>237.19999694824</ele>
        <time>2016-05-08T11:35:10.000Z</time>
      </trkpt>
      <trkpt lat="48.87471" lon="0.19015">
        <ele>236.39999389648</ele>
        <time>2016-05-08T11:35:18.000Z</time>
      </trkpt>
      <trkpt lat="48.87482" lon="0.19018">
        <ele>235.80000305176</ele>
        <time>2016-05-08T11:35:26.000Z</time>
      </trkpt>
      <trkpt lat="48.87492" lon="0.19017">
        <ele>235.19999694824</ele>
        <time>2016-05-08T11:35:33.000Z</time>
      </trkpt>
      <trkpt lat="48.87504" lon="0.19018">
        <ele>234.60000610352</ele>
        <time>2016-05-08T11:35:41.000Z</time>
      </trkpt>
      <trkpt lat="48.87515" lon="0.19025">
        <ele>233.80000305176</ele>
        <time>2016-05-08T11:35:49.000Z</time>
      </trkpt>
      <trkpt lat="48.87526" lon="0.19033">
        <ele>233.19999694824</ele>
        <time>2016-05-08T11:35:57.000Z</time>
      </trkpt>
      <trkpt lat="48.87536" lon="0.19039">
        <ele>233</ele>
        <time>2016-05-08T11:36:04.000Z</time>
      </trkpt>
      <trkpt lat="48.87549" lon="0.19045">
        <ele>232.60000610352</ele>
        <time>2016-05-08T11:36:13.000Z</time>
      </trkpt>
      <trkpt lat="48.87568" lon="0.19051">
        <ele>232.60000610352</ele>
        <time>2016-05-08T11:36:26.000Z</time>
      </trkpt>
      <trkpt lat="48.87586" lon="0.19058">
        <ele>232.60000610352</ele>
        <time>2016-05-08T11:36:36.000Z</time>
      </trkpt>
      <trkpt lat="48.876" lon="0.19063">
        <ele>232.80000305176</ele>
        <time>2016-05-08T11:36:42.000Z</time>
      </trkpt>
      <trkpt lat="48.87608" lon="0.19066">
        <ele>232.80000305176</ele>
        <time>2016-05-08T11:36:48.000Z</time>
      </trkpt>
      <trkpt lat="48.87616" lon="0.19069">
        <ele>232.60000610352</ele>
        <time>2016-05-08T11:36:54.000Z</time>
      </trkpt>
      <trkpt lat="48.87629" lon="0.19074">
        <ele>232.19999694824</ele>
        <time>2016-05-08T11:37:02.000Z</time>
      </trkpt>
      <trkpt lat="48.87642" lon="0.19078">
        <ele>232</ele>
        <time>2016-05-08T11:37:10.000Z</time>
      </trkpt>
      <trkpt lat="48.87656" lon="0.19084">
        <ele>231.80000305176</ele>
        <time>2016-05-08T11:37:19.000Z</time>
      </trkpt>
      <trkpt lat="48.87671" lon="0.19089">
        <ele>231.80000305176</ele>
        <time>2016-05-08T11:37:29.000Z</time>
      </trkpt>
      <trkpt lat="48.87679" lon="0.19093">
        <ele>231.80000305176</ele>
        <time>2016-05-08T11:37:35.000Z</time>
      </trkpt>
      <trkpt lat="48.87688" lon="0.19096">
        <ele>231.60000610352</ele>
        <time>2016-05-08T11:37:42.000Z</time>
      </trkpt>
      <trkpt lat="48.87701" lon="0.19101">
        <ele>231.19999694824</ele>
        <time>2016-05-08T11:37:51.000Z</time>
      </trkpt>
      <trkpt lat="48.87716" lon="0.19106">
        <ele>230.80000305176</ele>
        <time>2016-05-08T11:38:01.000Z</time>
      </trkpt>
      <trkpt lat="48.87725" lon="0.19109">
        <ele>230.39999389648</ele>
        <time>2016-05-08T11:38:08.000Z</time>
      </trkpt>
      <trkpt lat="48.87738" lon="0.19114">
        <ele>230.19999694824</ele>
        <time>2016-05-08T11:38:18.000Z</time>
      </trkpt>
      <trkpt lat="48.87748" lon="0.19119">
        <ele>229.80000305176</ele>
        <time>2016-05-08T11:38:27.000Z</time>
      </trkpt>
      <trkpt lat="48.87759" lon="0.19124">
        <ele>229.39999389648</ele>
        <time>2016-05-08T11:38:36.000Z</time>
      </trkpt>
      <trkpt lat="48.87767" lon="0.19128">
        <ele>229.19999694824</ele>
        <time>2016-05-08T11:38:43.000Z</time>
      </trkpt>
      <trkpt lat="48.87776" lon="0.19132">
        <ele>228.80000305176</ele>
        <time>2016-05-08T11:38:50.000Z</time>
      </trkpt>
      <trkpt lat="48.87788" lon="0.19135">
        <ele>228.39999389648</ele>
        <time>2016-05-08T11:38:59.000Z</time>
      </trkpt>
      <trkpt lat="48.87798" lon="0.19138">
        <ele>228.19999694824</ele>
        <time>2016-05-08T11:39:06.000Z</time>
      </trkpt>
      <trkpt lat="48.87812" lon="0.19141">
        <ele>228</ele>
        <time>2016-05-08T11:39:15.000Z</time>
      </trkpt>
      <trkpt lat="48.87825" lon="0.19145">
        <ele>227.60000610352</ele>
        <time>2016-05-08T11:39:24.000Z</time>
      </trkpt>
      <trkpt lat="48.87837" lon="0.19149">
        <ele>227.19999694824</ele>
        <time>2016-05-08T11:39:32.000Z</time>
      </trkpt>
      <trkpt lat="48.8785" lon="0.19152">
        <ele>227</ele>
        <time>2016-05-08T11:39:40.000Z</time>
      </trkpt>
      <trkpt lat="48.87863" lon="0.19157">
        <ele>226.60000610352</ele>
        <time>2016-05-08T11:39:48.000Z</time>
      </trkpt>
      <trkpt lat="48.87874" lon="0.1916">
        <ele>226.19999694824</ele>
        <time>2016-05-08T11:39:55.000Z</time>
      </trkpt>
      <trkpt lat="48.87889" lon="0.19164">
        <ele>225.80000305176</ele>
        <time>2016-05-08T11:40:05.000Z</time>
      </trkpt>
      <trkpt lat="48.87894" lon="0.19163">
        <ele>225.80000305176</ele>
        <time>2016-05-08T11:40:09.000Z</time>
      </trkpt>
      <trkpt lat="48.87895" lon="0.19162">
        <ele>225.80000305176</ele>
        <time>2016-05-08T11:40:10.000Z</time>
      </trkpt>
      <trkpt lat="48.87896" lon="0.1916">
        <ele>225.80000305176</ele>
        <time>2016-05-08T11:40:12.000Z</time>
      </trkpt>
      <trkpt lat="48.879" lon="0.1915">
        <ele>225.80000305176</ele>
        <time>2016-05-08T11:40:18.000Z</time>
      </trkpt>
      <trkpt lat="48.87903" lon="0.1914">
        <ele>226</ele>
        <time>2016-05-08T11:40:25.000Z</time>
      </trkpt>
      <trkpt lat="48.87906" lon="0.19135">
        <ele>226</ele>
        <time>2016-05-08T11:40:29.000Z</time>
      </trkpt>
      <trkpt lat="48.87907" lon="0.19128">
        <ele>226.19999694824</ele>
        <time>2016-05-08T11:40:33.000Z</time>
      </trkpt>
      <trkpt lat="48.8791" lon="0.19118">
        <ele>226</ele>
        <time>2016-05-08T11:40:39.000Z</time>
      </trkpt>
      <trkpt lat="48.8791" lon="0.19117">
        <ele>226</ele>
        <time>2016-05-08T11:40:40.000Z</time>
      </trkpt>
      <trkpt lat="48.87913" lon="0.19099">
        <ele>225.60000610352</ele>
        <time>2016-05-08T11:40:50.000Z</time>
      </trkpt>
      <trkpt lat="48.87915" lon="0.19082">
        <ele>225.80000305176</ele>
        <time>2016-05-08T11:40:58.000Z</time>
      </trkpt>
      <trkpt lat="48.87915" lon="0.19081">
        <ele>225.80000305176</ele>
        <time>2016-05-08T11:41:00.000Z</time>
      </trkpt>
      <trkpt lat="48.87916" lon="0.19072">
        <ele>226</ele>
        <time>2016-05-08T11:41:07.000Z</time>
      </trkpt>
      <trkpt lat="48.87916" lon="0.19067">
        <ele>226</ele>
        <time>2016-05-08T11:41:09.000Z</time>
      </trkpt>
      <trkpt lat="48.87918" lon="0.19045">
        <ele>226.19999694824</ele>
        <time>2016-05-08T11:41:18.000Z</time>
      </trkpt>
      <trkpt lat="48.87919" lon="0.19025">
        <ele>226.39999389648</ele>
        <time>2016-05-08T11:41:25.000Z</time>
      </trkpt>
      <trkpt lat="48.87919" lon="0.1901">
        <ele>226.39999389648</ele>
        <time>2016-05-08T11:41:30.000Z</time>
      </trkpt>
      <trkpt lat="48.87918" lon="0.19007">
        <ele>226.39999389648</ele>
        <time>2016-05-08T11:41:31.000Z</time>
      </trkpt>
      <trkpt lat="48.87918" lon="0.18998">
        <ele>226.19999694824</ele>
        <time>2016-05-08T11:41:36.000Z</time>
      </trkpt>
      <trkpt lat="48.87918" lon="0.18976">
        <ele>226</ele>
        <time>2016-05-08T11:41:46.000Z</time>
      </trkpt>
      <trkpt lat="48.87918" lon="0.1896">
        <ele>225.80000305176</ele>
        <time>2016-05-08T11:41:53.000Z</time>
      </trkpt>
      <trkpt lat="48.87919" lon="0.18941">
        <ele>225.39999389648</ele>
        <time>2016-05-08T11:42:01.000Z</time>
      </trkpt>
      <trkpt lat="48.8792" lon="0.18927">
        <ele>225</ele>
        <time>2016-05-08T11:42:08.000Z</time>
      </trkpt>
      <trkpt lat="48.87926" lon="0.18913">
        <ele>224</ele>
        <time>2016-05-08T11:42:15.000Z</time>
      </trkpt>
      <trkpt lat="48.87937" lon="0.18903">
        <ele>223</ele>
        <time>2016-05-08T11:42:24.000Z</time>
      </trkpt>
      <trkpt lat="48.87948" lon="0.18899">
        <ele>222.60000610352</ele>
        <time>2016-05-08T11:42:32.000Z</time>
      </trkpt>
      <trkpt lat="48.87958" lon="0.18897">
        <ele>222.39999389648</ele>
        <time>2016-05-08T11:42:38.000Z</time>
      </trkpt>
      <trkpt lat="48.87977" lon="0.18897">
        <ele>222.60000610352</ele>
        <time>2016-05-08T11:42:51.000Z</time>
      </trkpt>
      <trkpt lat="48.87985" lon="0.18897">
        <ele>222.80000305176</ele>
        <time>2016-05-08T11:42:56.000Z</time>
      </trkpt>
      <trkpt lat="48.87991" lon="0.18896">
        <ele>222.80000305176</ele>
        <time>2016-05-08T11:43:02.000Z</time>
      </trkpt>
      <trkpt lat="48.87992" lon="0.18896">
        <ele>222.80000305176</ele>
        <time>2016-05-08T11:43:03.000Z</time>
      </trkpt>
      <trkpt lat="48.87996" lon="0.18895">
        <ele>222.80000305176</ele>
        <time>2016-05-08T11:43:06.000Z</time>
      </trkpt>
      <trkpt lat="48.88003" lon="0.1889">
        <ele>223</ele>
        <time>2016-05-08T11:43:11.000Z</time>
      </trkpt>
      <trkpt lat="48.88015" lon="0.18878">
        <ele>222.80000305176</ele>
        <time>2016-05-08T11:43:19.000Z</time>
      </trkpt>
      <trkpt lat="48.88017" lon="0.18875">
        <ele>222.60000610352</ele>
        <time>2016-05-08T11:43:23.000Z</time>
      </trkpt>
      <trkpt lat="48.88022" lon="0.18869">
        <ele>222.19999694824</ele>
        <time>2016-05-08T11:43:28.000Z</time>
      </trkpt>
      <trkpt lat="48.88032" lon="0.18856">
        <ele>221</ele>
        <time>2016-05-08T11:43:38.000Z</time>
      </trkpt>
      <trkpt lat="48.88039" lon="0.18843">
        <ele>219.60000610352</ele>
        <time>2016-05-08T11:43:46.000Z</time>
      </trkpt>
      <trkpt lat="48.88043" lon="0.18834">
        <ele>218.80000305176</ele>
        <time>2016-05-08T11:43:52.000Z</time>
      </trkpt>
      <trkpt lat="48.88049" lon="0.18827">
        <ele>218.19999694824</ele>
        <time>2016-05-08T11:44:00.000Z</time>
      </trkpt>
      <trkpt lat="48.88051" lon="0.18825">
        <ele>217.80000305176</ele>
        <time>2016-05-08T11:44:02.000Z</time>
      </trkpt>
      <trkpt lat="48.88054" lon="0.18819">
        <ele>217.60000610352</ele>
        <time>2016-05-08T11:44:06.000Z</time>
      </trkpt>
      <trkpt lat="48.8806" lon="0.18807">
        <ele>217.39999389648</ele>
        <time>2016-05-08T11:44:13.000Z</time>
      </trkpt>
      <trkpt lat="48.88069" lon="0.18794">
        <ele>217</ele>
        <time>2016-05-08T11:44:22.000Z</time>
      </trkpt>
      <trkpt lat="48.88075" lon="0.18786">
        <ele>216</ele>
        <time>2016-05-08T11:44:28.000Z</time>
      </trkpt>
      <trkpt lat="48.88082" lon="0.18776">
        <ele>214.39999389648</ele>
        <time>2016-05-08T11:44:35.000Z</time>
      </trkpt>
      <trkpt lat="48.88092" lon="0.18762">
        <ele>213</ele>
        <time>2016-05-08T11:44:44.000Z</time>
      </trkpt>
      <trkpt lat="48.88101" lon="0.18748">
        <ele>211.60000610352</ele>
        <time>2016-05-08T11:44:52.000Z</time>
      </trkpt>
      <trkpt lat="48.88114" lon="0.18727">
        <ele>208.60000610352</ele>
        <time>2016-05-08T11:45:03.000Z</time>
      </trkpt>
      <trkpt lat="48.88118" lon="0.1872">
        <ele>207.39999389648</ele>
        <time>2016-05-08T11:45:07.000Z</time>
      </trkpt>
      <trkpt lat="48.88121" lon="0.18717">
        <ele>206.80000305176</ele>
        <time>2016-05-08T11:45:09.000Z</time>
      </trkpt>
      <trkpt lat="48.88126" lon="0.18709">
        <ele>205</ele>
        <time>2016-05-08T11:45:14.000Z</time>
      </trkpt>
      <trkpt lat="48.88139" lon="0.18691">
        <ele>201</ele>
        <time>2016-05-08T11:45:26.000Z</time>
      </trkpt>
      <trkpt lat="48.88147" lon="0.18678">
        <ele>198.39999389648</ele>
        <time>2016-05-08T11:45:33.000Z</time>
      </trkpt>
      <trkpt lat="48.88156" lon="0.18666">
        <ele>195.80000305176</ele>
        <time>2016-05-08T11:45:40.000Z</time>
      </trkpt>
      <trkpt lat="48.88166" lon="0.18649">
        <ele>192.80000305176</ele>
        <time>2016-05-08T11:45:50.000Z</time>
      </trkpt>
      <trkpt lat="48.88172" lon="0.18636">
        <ele>190.60000610352</ele>
        <time>2016-05-08T11:45:57.000Z</time>
      </trkpt>
      <trkpt lat="48.88175" lon="0.18623">
        <ele>188.39999389648</ele>
        <time>2016-05-08T11:46:04.000Z</time>
      </trkpt>
      <trkpt lat="48.88179" lon="0.18611">
        <ele>186.60000610352</ele>
        <time>2016-05-08T11:46:11.000Z</time>
      </trkpt>
      <trkpt lat="48.88182" lon="0.18595">
        <ele>185</ele>
        <time>2016-05-08T11:46:18.000Z</time>
      </trkpt>
      <trkpt lat="48.88182" lon="0.18593">
        <ele>184.80000305176</ele>
        <time>2016-05-08T11:46:19.000Z</time>
      </trkpt>
      <trkpt lat="48.88181" lon="0.18586">
        <ele>184.19999694824</ele>
        <time>2016-05-08T11:46:23.000Z</time>
      </trkpt>
      <trkpt lat="48.88181" lon="0.18584">
        <ele>184</ele>
        <time>2016-05-08T11:46:24.000Z</time>
      </trkpt>
      <trkpt lat="48.88184" lon="0.18569">
        <ele>182.39999389648</ele>
        <time>2016-05-08T11:46:33.000Z</time>
      </trkpt>
      <trkpt lat="48.8819" lon="0.18555">
        <ele>180.80000305176</ele>
        <time>2016-05-08T11:46:42.000Z</time>
      </trkpt>
      <trkpt lat="48.88198" lon="0.18546">
        <ele>179.39999389648</ele>
        <time>2016-05-08T11:46:50.000Z</time>
      </trkpt>
      <trkpt lat="48.88208" lon="0.1854">
        <ele>177.80000305176</ele>
        <time>2016-05-08T11:46:59.000Z</time>
      </trkpt>
      <trkpt lat="48.88219" lon="0.18542">
        <ele>177.19999694824</ele>
        <time>2016-05-08T11:47:08.000Z</time>
      </trkpt>
      <trkpt lat="48.88231" lon="0.18545">
        <ele>176.60000610352</ele>
        <time>2016-05-08T11:47:17.000Z</time>
      </trkpt>
      <trkpt lat="48.88238" lon="0.18547">
        <ele>176.19999694824</ele>
        <time>2016-05-08T11:47:23.000Z</time>
      </trkpt>
      <trkpt lat="48.88245" lon="0.18547">
        <ele>175.60000610352</ele>
        <time>2016-05-08T11:47:28.000Z</time>
      </trkpt>
      <trkpt lat="48.88247" lon="0.18546">
        <ele>175.19999694824</ele>
        <time>2016-05-08T11:47:30.000Z</time>
      </trkpt>
      <trkpt lat="48.88258" lon="0.18542">
        <ele>174</ele>
        <time>2016-05-08T11:47:38.000Z</time>
      </trkpt>
      <trkpt lat="48.88268" lon="0.18537">
        <ele>172.60000610352</ele>
        <time>2016-05-08T11:47:45.000Z</time>
      </trkpt>
      <trkpt lat="48.88279" lon="0.18529">
        <ele>170.80000305176</ele>
        <time>2016-05-08T11:47:54.000Z</time>
      </trkpt>
      <trkpt lat="48.88292" lon="0.18519">
        <ele>168.60000610352</ele>
        <time>2016-05-08T11:48:05.000Z</time>
      </trkpt>
      <trkpt lat="48.88303" lon="0.18511">
        <ele>166.60000610352</ele>
        <time>2016-05-08T11:48:14.000Z</time>
      </trkpt>
      <trkpt lat="48.88313" lon="0.18508">
        <ele>165.19999694824</ele>
        <time>2016-05-08T11:48:21.000Z</time>
      </trkpt>
      <trkpt lat="48.88325" lon="0.185">
        <ele>163.80000305176</ele>
        <time>2016-05-08T11:48:29.000Z</time>
      </trkpt>
      <trkpt lat="48.88337" lon="0.18492">
        <ele>162.60000610352</ele>
        <time>2016-05-08T11:48:38.000Z</time>
      </trkpt>
      <trkpt lat="48.88347" lon="0.18486">
        <ele>161.80000305176</ele>
        <time>2016-05-08T11:48:43.000Z</time>
      </trkpt>
      <trkpt lat="48.88356" lon="0.18479">
        <ele>160.80000305176</ele>
        <time>2016-05-08T11:48:49.000Z</time>
      </trkpt>
      <trkpt lat="48.88364" lon="0.18474">
        <ele>160.80000305176</ele>
        <time>2016-05-08T11:48:54.000Z</time>
      </trkpt>
      <trkpt lat="48.88366" lon="0.18471">
        <ele>160.80000305176</ele>
        <time>2016-05-08T11:48:56.000Z</time>
      </trkpt>
      <trkpt lat="48.88379" lon="0.18465">
        <ele>160.19999694824</ele>
        <time>2016-05-08T11:49:04.000Z</time>
      </trkpt>
      <trkpt lat="48.88389" lon="0.1846">
        <ele>160</ele>
        <time>2016-05-08T11:49:11.000Z</time>
      </trkpt>
      <trkpt lat="48.88402" lon="0.18455">
        <ele>159.60000610352</ele>
        <time>2016-05-08T11:49:19.000Z</time>
      </trkpt>
      <trkpt lat="48.88413" lon="0.1845">
        <ele>159.19999694824</ele>
        <time>2016-05-08T11:49:27.000Z</time>
      </trkpt>
      <trkpt lat="48.88421" lon="0.18445">
        <ele>159</ele>
        <time>2016-05-08T11:49:33.000Z</time>
      </trkpt>
      <trkpt lat="48.88431" lon="0.18442">
        <ele>158.60000610352</ele>
        <time>2016-05-08T11:49:41.000Z</time>
      </trkpt>
      <trkpt lat="48.88445" lon="0.18435">
        <ele>158.19999694824</ele>
        <time>2016-05-08T11:49:51.000Z</time>
      </trkpt>
      <trkpt lat="48.88457" lon="0.1843">
        <ele>158.80000305176</ele>
        <time>2016-05-08T11:50:00.000Z</time>
      </trkpt>
      <trkpt lat="48.88459" lon="0.18428">
        <ele>158.80000305176</ele>
        <time>2016-05-08T11:50:04.000Z</time>
      </trkpt>
      <trkpt lat="48.88474" lon="0.18414">
        <ele>159</ele>
        <time>2016-05-08T11:50:52.000Z</time>
      </trkpt>
      <trkpt lat="48.88476" lon="0.18413">
        <ele>159</ele>
        <time>2016-05-08T11:50:53.000Z</time>
      </trkpt>
      <trkpt lat="48.88478" lon="0.18413">
        <ele>159</ele>
        <time>2016-05-08T11:50:55.000Z</time>
      </trkpt>
      <trkpt lat="48.88484" lon="0.18414">
        <ele>159.39999389648</ele>
        <time>2016-05-08T11:51:00.000Z</time>
      </trkpt>
      <trkpt lat="48.88495" lon="0.18406">
        <ele>159</ele>
        <time>2016-05-08T11:51:09.000Z</time>
      </trkpt>
      <trkpt lat="48.88509" lon="0.18393">
        <ele>158.19999694824</ele>
        <time>2016-05-08T11:51:20.000Z</time>
      </trkpt>
      <trkpt lat="48.88521" lon="0.18385">
        <ele>157.80000305176</ele>
        <time>2016-05-08T11:51:29.000Z</time>
      </trkpt>
      <trkpt lat="48.88523" lon="0.18384">
        <ele>157.80000305176</ele>
        <time>2016-05-08T11:51:30.000Z</time>
      </trkpt>
      <trkpt lat="48.88529" lon="0.18381">
        <ele>157.60000610352</ele>
        <time>2016-05-08T11:51:35.000Z</time>
      </trkpt>
      <trkpt lat="48.8854" lon="0.18383">
        <ele>158.19999694824</ele>
        <time>2016-05-08T11:51:43.000Z</time>
      </trkpt>
      <trkpt lat="48.88554" lon="0.18382">
        <ele>158.60000610352</ele>
        <time>2016-05-08T11:51:53.000Z</time>
      </trkpt>
      <trkpt lat="48.88566" lon="0.18378">
        <ele>158.60000610352</ele>
        <time>2016-05-08T11:52:02.000Z</time>
      </trkpt>
      <trkpt lat="48.88577" lon="0.18371">
        <ele>158.39999389648</ele>
        <time>2016-05-08T11:52:11.000Z</time>
      </trkpt>
      <trkpt lat="48.88589" lon="0.18358">
        <ele>157.60000610352</ele>
        <time>2016-05-08T11:52:20.000Z</time>
      </trkpt>
      <trkpt lat="48.88601" lon="0.1834">
        <ele>155.80000305176</ele>
        <time>2016-05-08T11:52:30.000Z</time>
      </trkpt>
      <trkpt lat="48.88613" lon="0.18315">
        <ele>153.19999694824</ele>
        <time>2016-05-08T11:52:43.000Z</time>
      </trkpt>
      <trkpt lat="48.88617" lon="0.18305">
        <ele>152</ele>
        <time>2016-05-08T11:52:48.000Z</time>
      </trkpt>
      <trkpt lat="48.88619" lon="0.18298">
        <ele>151.80000305176</ele>
        <time>2016-05-08T11:52:51.000Z</time>
      </trkpt>
      <trkpt lat="48.88632" lon="0.18272">
        <ele>150.60000610352</ele>
        <time>2016-05-08T11:53:04.000Z</time>
      </trkpt>
      <trkpt lat="48.88646" lon="0.18255">
        <ele>150</ele>
        <time>2016-05-08T11:53:15.000Z</time>
      </trkpt>
      <trkpt lat="48.88662" lon="0.18242">
        <ele>149.80000305176</ele>
        <time>2016-05-08T11:53:27.000Z</time>
      </trkpt>
      <trkpt lat="48.8868" lon="0.18232">
        <ele>149.80000305176</ele>
        <time>2016-05-08T11:53:39.000Z</time>
      </trkpt>
      <trkpt lat="48.88694" lon="0.18227">
        <ele>150</ele>
        <time>2016-05-08T11:53:49.000Z</time>
      </trkpt>
      <trkpt lat="48.88707" lon="0.18223">
        <ele>150</ele>
        <time>2016-05-08T11:53:58.000Z</time>
      </trkpt>
      <trkpt lat="48.88718" lon="0.1822">
        <ele>150</ele>
        <time>2016-05-08T11:54:05.000Z</time>
      </trkpt>
      <trkpt lat="48.88719" lon="0.1822">
        <ele>150</ele>
        <time>2016-05-08T11:54:06.000Z</time>
      </trkpt>
      <trkpt lat="48.88724" lon="0.18218">
        <ele>149.80000305176</ele>
        <time>2016-05-08T11:54:09.000Z</time>
      </trkpt>
      <trkpt lat="48.88728" lon="0.18216">
        <ele>149.80000305176</ele>
        <time>2016-05-08T11:54:12.000Z</time>
      </trkpt>
      <trkpt lat="48.88734" lon="0.18213">
        <ele>149.60000610352</ele>
        <time>2016-05-08T11:54:16.000Z</time>
      </trkpt>
      <trkpt lat="48.88747" lon="0.18209">
        <ele>149.60000610352</ele>
        <time>2016-05-08T11:54:25.000Z</time>
      </trkpt>
      <trkpt lat="48.88763" lon="0.18204">
        <ele>149.39999389648</ele>
        <time>2016-05-08T11:54:36.000Z</time>
      </trkpt>
      <trkpt lat="48.88772" lon="0.18199">
        <ele>149.39999389648</ele>
        <time>2016-05-08T11:54:42.000Z</time>
      </trkpt>
      <trkpt lat="48.88774" lon="0.18198">
        <ele>149.39999389648</ele>
        <time>2016-05-08T11:54:44.000Z</time>
      </trkpt>
      <trkpt lat="48.88785" lon="0.18196">
        <ele>149.19999694824</ele>
        <time>2016-05-08T11:54:51.000Z</time>
      </trkpt>
      <trkpt lat="48.88797" lon="0.18191">
        <ele>148.80000305176</ele>
        <time>2016-05-08T11:54:57.000Z</time>
      </trkpt>
      <trkpt lat="48.8881" lon="0.18186">
        <ele>148.39999389648</ele>
        <time>2016-05-08T11:55:05.000Z</time>
      </trkpt>
      <trkpt lat="48.88829" lon="0.18178">
        <ele>147.80000305176</ele>
        <time>2016-05-08T11:55:18.000Z</time>
      </trkpt>
      <trkpt lat="48.8884" lon="0.18172">
        <ele>147.39999389648</ele>
        <time>2016-05-08T11:55:26.000Z</time>
      </trkpt>
      <trkpt lat="48.88854" lon="0.18161">
        <ele>146.60000610352</ele>
        <time>2016-05-08T11:55:36.000Z</time>
      </trkpt>
      <trkpt lat="48.88866" lon="0.18153">
        <ele>146.19999694824</ele>
        <time>2016-05-08T11:55:45.000Z</time>
      </trkpt>
      <trkpt lat="48.88876" lon="0.18145">
        <ele>145.80000305176</ele>
        <time>2016-05-08T11:55:52.000Z</time>
      </trkpt>
      <trkpt lat="48.88889" lon="0.18133">
        <ele>145</ele>
        <time>2016-05-08T11:56:03.000Z</time>
      </trkpt>
      <trkpt lat="48.88896" lon="0.1812">
        <ele>144.19999694824</ele>
        <time>2016-05-08T11:56:12.000Z</time>
      </trkpt>
      <trkpt lat="48.88898" lon="0.18108">
        <ele>143.80000305176</ele>
        <time>2016-05-08T11:56:18.000Z</time>
      </trkpt>
      <trkpt lat="48.88896" lon="0.18082">
        <ele>142.80000305176</ele>
        <time>2016-05-08T11:56:29.000Z</time>
      </trkpt>
      <trkpt lat="48.88893" lon="0.18058">
        <ele>141.39999389648</ele>
        <time>2016-05-08T11:56:39.000Z</time>
      </trkpt>
      <trkpt lat="48.88897" lon="0.18043">
        <ele>140.39999389648</ele>
        <time>2016-05-08T11:56:46.000Z</time>
      </trkpt>
      <trkpt lat="48.88902" lon="0.1803">
        <ele>140</ele>
        <time>2016-05-08T11:56:53.000Z</time>
      </trkpt>
      <trkpt lat="48.88912" lon="0.18013">
        <ele>139.19999694824</ele>
        <time>2016-05-08T11:57:03.000Z</time>
      </trkpt>
      <trkpt lat="48.88923" lon="0.17997">
        <ele>138.80000305176</ele>
        <time>2016-05-08T11:57:13.000Z</time>
      </trkpt>
      <trkpt lat="48.88931" lon="0.17986">
        <ele>138.60000610352</ele>
        <time>2016-05-08T11:57:18.000Z</time>
      </trkpt>
      <trkpt lat="48.8894" lon="0.17971">
        <ele>138</ele>
        <time>2016-05-08T11:57:27.000Z</time>
      </trkpt>
      <trkpt lat="48.88948" lon="0.17963">
        <ele>137.60000610352</ele>
        <time>2016-05-08T11:57:33.000Z</time>
      </trkpt>
      <trkpt lat="48.8896" lon="0.17955">
        <ele>137</ele>
        <time>2016-05-08T11:57:42.000Z</time>
      </trkpt>
      <trkpt lat="48.88971" lon="0.17949">
        <ele>136.39999389648</ele>
        <time>2016-05-08T11:57:49.000Z</time>
      </trkpt>
      <trkpt lat="48.88987" lon="0.17941">
        <ele>135.39999389648</ele>
        <time>2016-05-08T11:58:00.000Z</time>
      </trkpt>
      <trkpt lat="48.88998" lon="0.17934">
        <ele>134.80000305176</ele>
        <time>2016-05-08T11:58:09.000Z</time>
      </trkpt>
      <trkpt lat="48.8901" lon="0.17931">
        <ele>134.19999694824</ele>
        <time>2016-05-08T11:58:18.000Z</time>
      </trkpt>
      <trkpt lat="48.8902" lon="0.17928">
        <ele>133.80000305176</ele>
        <time>2016-05-08T11:58:25.000Z</time>
      </trkpt>
      <trkpt lat="48.89022" lon="0.17928">
        <ele>133.60000610352</ele>
        <time>2016-05-08T11:58:27.000Z</time>
      </trkpt>
      <trkpt lat="48.89026" lon="0.17928">
        <ele>133.39999389648</ele>
        <time>2016-05-08T11:58:30.000Z</time>
      </trkpt>
      <trkpt lat="48.89034" lon="0.17928">
        <ele>133</ele>
        <time>2016-05-08T11:58:35.000Z</time>
      </trkpt>
      <trkpt lat="48.89048" lon="0.17929">
        <ele>132.39999389648</ele>
        <time>2016-05-08T11:58:44.000Z</time>
      </trkpt>
      <trkpt lat="48.89064" lon="0.1793">
        <ele>131.60000610352</ele>
        <time>2016-05-08T11:58:54.000Z</time>
      </trkpt>
      <trkpt lat="48.89078" lon="0.17927">
        <ele>130.80000305176</ele>
        <time>2016-05-08T11:59:03.000Z</time>
      </trkpt>
      <trkpt lat="48.8909" lon="0.17921">
        <ele>129.80000305176</ele>
        <time>2016-05-08T11:59:11.000Z</time>
      </trkpt>
      <trkpt lat="48.89104" lon="0.17912">
        <ele>128.39999389648</ele>
        <time>2016-05-08T11:59:21.000Z</time>
      </trkpt>
      <trkpt lat="48.89118" lon="0.17899">
        <ele>127.40000152588</ele>
        <time>2016-05-08T11:59:31.000Z</time>
      </trkpt>
      <trkpt lat="48.89125" lon="0.17889">
        <ele>126.80000305176</ele>
        <time>2016-05-08T11:59:38.000Z</time>
      </trkpt>
      <trkpt lat="48.89131" lon="0.17881">
        <ele>126.19999694824</ele>
        <time>2016-05-08T11:59:45.000Z</time>
      </trkpt>
      <trkpt lat="48.89132" lon="0.1788">
        <ele>126.19999694824</ele>
        <time>2016-05-08T11:59:47.000Z</time>
      </trkpt>
      <trkpt lat="48.89144" lon="0.17865">
        <ele>125.80000305176</ele>
        <time>2016-05-08T12:00:02.000Z</time>
      </trkpt>
      <trkpt lat="48.89147" lon="0.17863">
        <ele>125.80000305176</ele>
        <time>2016-05-08T12:00:04.000Z</time>
      </trkpt>
      <trkpt lat="48.8916" lon="0.1785">
        <ele>125.40000152588</ele>
        <time>2016-05-08T12:00:15.000Z</time>
      </trkpt>
      <trkpt lat="48.89172" lon="0.17839">
        <ele>125.19999694824</ele>
        <time>2016-05-08T12:00:25.000Z</time>
      </trkpt>
      <trkpt lat="48.89181" lon="0.17833">
        <ele>124.80000305176</ele>
        <time>2016-05-08T12:00:34.000Z</time>
      </trkpt>
      <trkpt lat="48.89194" lon="0.17828">
        <ele>124.59999847412</ele>
        <time>2016-05-08T12:00:42.000Z</time>
      </trkpt>
      <trkpt lat="48.89206" lon="0.17822">
        <ele>124.59999847412</ele>
        <time>2016-05-08T12:00:51.000Z</time>
      </trkpt>
      <trkpt lat="48.8922" lon="0.17815">
        <ele>125.19999694824</ele>
        <time>2016-05-08T12:01:01.000Z</time>
      </trkpt>
      <trkpt lat="48.8923" lon="0.17808">
        <ele>126.19999694824</ele>
        <time>2016-05-08T12:01:10.000Z</time>
      </trkpt>
      <trkpt lat="48.89242" lon="0.178">
        <ele>127.19999694824</ele>
        <time>2016-05-08T12:01:18.000Z</time>
      </trkpt>
      <trkpt lat="48.89249" lon="0.17792">
        <ele>128</ele>
        <time>2016-05-08T12:01:25.000Z</time>
      </trkpt>
      <trkpt lat="48.89257" lon="0.17783">
        <ele>128.60000610352</ele>
        <time>2016-05-08T12:01:32.000Z</time>
      </trkpt>
      <trkpt lat="48.89273" lon="0.1777">
        <ele>131.39999389648</ele>
        <time>2016-05-08T12:01:44.000Z</time>
      </trkpt>
      <trkpt lat="48.89278" lon="0.17764">
        <ele>132.39999389648</ele>
        <time>2016-05-08T12:01:48.000Z</time>
      </trkpt>
      <trkpt lat="48.89279" lon="0.17763">
        <ele>132.39999389648</ele>
        <time>2016-05-08T12:01:49.000Z</time>
      </trkpt>
      <trkpt lat="48.89295" lon="0.17757">
        <ele>134.19999694824</ele>
        <time>2016-05-08T12:02:00.000Z</time>
      </trkpt>
      <trkpt lat="48.89309" lon="0.17755">
        <ele>135.39999389648</ele>
        <time>2016-05-08T12:02:11.000Z</time>
      </trkpt>
      <trkpt lat="48.89324" lon="0.17758">
        <ele>136.19999694824</ele>
        <time>2016-05-08T12:02:22.000Z</time>
      </trkpt>
      <trkpt lat="48.89333" lon="0.17766">
        <ele>136</ele>
        <time>2016-05-08T12:02:31.000Z</time>
      </trkpt>
      <trkpt lat="48.89335" lon="0.17771">
        <ele>135.80000305176</ele>
        <time>2016-05-08T12:02:34.000Z</time>
      </trkpt>
      <trkpt lat="48.89334" lon="0.17776">
        <ele>135.19999694824</ele>
        <time>2016-05-08T12:02:37.000Z</time>
      </trkpt>
      <trkpt lat="48.8933" lon="0.17777">
        <ele>134.80000305176</ele>
        <time>2016-05-08T12:02:42.000Z</time>
      </trkpt>
      <trkpt lat="48.8933" lon="0.17777">
        <ele>134.60000610352</ele>
        <time>2016-05-08T12:02:43.000Z</time>
      </trkpt>
      <trkpt lat="48.89329" lon="0.17778">
        <ele>134.60000610352</ele>
        <time>2016-05-08T12:02:44.000Z</time>
      </trkpt>
      <trkpt lat="48.89305" lon="0.17733">
        <ele>137.19999694824</ele>
        <time>2016-05-08T12:54:19.000Z</time>
      </trkpt>
      <trkpt lat="48.89301" lon="0.17734">
        <ele>136.80000305176</ele>
        <time>2016-05-08T12:54:20.000Z</time>
      </trkpt>
      <trkpt lat="48.89295" lon="0.17736">
        <ele>136.19999694824</ele>
        <time>2016-05-08T12:54:24.000Z</time>
      </trkpt>
      <trkpt lat="48.89344" lon="0.1777">
        <ele>136.39999389648</ele>
        <time>2016-05-08T13:12:35.000Z</time>
      </trkpt>
      <trkpt lat="48.89344" lon="0.17768">
        <ele>136.60000610352</ele>
        <time>2016-05-08T13:12:37.000Z</time>
      </trkpt>
      <trkpt lat="48.89344" lon="0.17765">
        <ele>137</ele>
        <time>2016-05-08T13:12:39.000Z</time>
      </trkpt>
      <trkpt lat="48.89345" lon="0.17764">
        <ele>137</ele>
        <time>2016-05-08T13:12:40.000Z</time>
      </trkpt>
      <trkpt lat="48.89346" lon="0.1776">
        <ele>137.60000610352</ele>
        <time>2016-05-08T13:12:43.000Z</time>
      </trkpt>
      <trkpt lat="48.89347" lon="0.1776">
        <ele>137.60000610352</ele>
        <time>2016-05-08T13:12:46.000Z</time>
      </trkpt>
      <trkpt lat="48.89347" lon="0.17759">
        <ele>137.60000610352</ele>
        <time>2016-05-08T13:12:47.000Z</time>
      </trkpt>
      <trkpt lat="48.89267" lon="0.16791">
        <ele>211</ele>
        <time>2016-05-08T13:27:10.000Z</time>
      </trkpt>
      <trkpt lat="48.89266" lon="0.16788">
        <ele>211</ele>
        <time>2016-05-08T13:27:12.000Z</time>
      </trkpt>
      <trkpt lat="48.89263" lon="0.16777">
        <ele>211.19999694824</ele>
        <time>2016-05-08T13:27:19.000Z</time>
      </trkpt>
      <trkpt lat="48.8926" lon="0.16766">
        <ele>211.39999389648</ele>
        <time>2016-05-08T13:27:27.000Z</time>
      </trkpt>
      <trkpt lat="48.89256" lon="0.16752">
        <ele>211.60000610352</ele>
        <time>2016-05-08T13:27:35.000Z</time>
      </trkpt>
      <trkpt lat="48.89252" lon="0.16735">
        <ele>212</ele>
        <time>2016-05-08T13:27:46.000Z</time>
      </trkpt>
      <trkpt lat="48.89251" lon="0.16731">
        <ele>212</ele>
        <time>2016-05-08T13:27:48.000Z</time>
      </trkpt>
      <trkpt lat="48.8925" lon="0.16728">
        <ele>212</ele>
        <time>2016-05-08T13:27:50.000Z</time>
      </trkpt>
      <trkpt lat="48.89249" lon="0.16726">
        <ele>212</ele>
        <time>2016-05-08T13:27:51.000Z</time>
      </trkpt>
      <trkpt lat="48.89246" lon="0.16707">
        <ele>212.39999389648</ele>
        <time>2016-05-08T13:28:03.000Z</time>
      </trkpt>
      <trkpt lat="48.89244" lon="0.16695">
        <ele>212.60000610352</ele>
        <time>2016-05-08T13:28:13.000Z</time>
      </trkpt>
      <trkpt lat="48.89194" lon="0.16142">
        <ele>223</ele>
        <time>2016-05-08T13:34:54.000Z</time>
      </trkpt>
      <trkpt lat="48.89189" lon="0.16128">
        <ele>223</ele>
        <time>2016-05-08T13:35:02.000Z</time>
      </trkpt>
      <trkpt lat="48.89183" lon="0.16119">
        <ele>223.39999389648</ele>
        <time>2016-05-08T13:35:08.000Z</time>
      </trkpt>
      <trkpt lat="48.89179" lon="0.16111">
        <ele>223.80000305176</ele>
        <time>2016-05-08T13:35:13.000Z</time>
      </trkpt>
      <trkpt lat="48.89177" lon="0.16105">
        <ele>224.19999694824</ele>
        <time>2016-05-08T13:35:16.000Z</time>
      </trkpt>
      <trkpt lat="48.89174" lon="0.16102">
        <ele>224.19999694824</ele>
        <time>2016-05-08T13:35:18.000Z</time>
      </trkpt>
      <trkpt lat="48.89173" lon="0.16098">
        <ele>224.60000610352</ele>
        <time>2016-05-08T13:35:21.000Z</time>
      </trkpt>
      <trkpt lat="48.8917" lon="0.16093">
        <ele>224.80000305176</ele>
        <time>2016-05-08T13:35:24.000Z</time>
      </trkpt>
      <trkpt lat="48.89165" lon="0.16079">
        <ele>225.80000305176</ele>
        <time>2016-05-08T13:35:33.000Z</time>
      </trkpt>
      <trkpt lat="48.8916" lon="0.16069">
        <ele>226.39999389648</ele>
        <time>2016-05-08T13:35:40.000Z</time>
      </trkpt>
      <trkpt lat="48.89155" lon="0.16058">
        <ele>227.19999694824</ele>
        <time>2016-05-08T13:35:48.000Z</time>
      </trkpt>
      <trkpt lat="48.8915" lon="0.16047">
        <ele>228</ele>
        <time>2016-05-08T13:35:57.000Z</time>
      </trkpt>
      <trkpt lat="48.89145" lon="0.16036">
        <ele>228</ele>
        <time>2016-05-08T13:36:04.000Z</time>
      </trkpt>
      <trkpt lat="48.89142" lon="0.16028">
        <ele>228</ele>
        <time>2016-05-08T13:36:11.000Z</time>
      </trkpt>
      <trkpt lat="48.89103" lon="0.15951">
        <ele>227.19999694824</ele>
        <time>2016-05-08T13:37:16.000Z</time>
      </trkpt>
      <trkpt lat="48.89101" lon="0.15946">
        <ele>227.19999694824</ele>
        <time>2016-05-08T13:37:19.000Z</time>
      </trkpt>
      <trkpt lat="48.89097" lon="0.15935">
        <ele>227.39999389648</ele>
        <time>2016-05-08T13:37:27.000Z</time>
      </trkpt>
      <trkpt lat="48.89093" lon="0.15924">
        <ele>227.60000610352</ele>
        <time>2016-05-08T13:37:34.000Z</time>
      </trkpt>
      <trkpt lat="48.89089" lon="0.1591">
        <ele>227.80000305176</ele>
        <time>2016-05-08T13:37:42.000Z</time>
      </trkpt>
      <trkpt lat="48.89085" lon="0.159">
        <ele>228</ele>
        <time>2016-05-08T13:37:49.000Z</time>
      </trkpt>
      <trkpt lat="48.89084" lon="0.15899">
        <ele>228</ele>
        <time>2016-05-08T13:37:50.000Z</time>
      </trkpt>
      <trkpt lat="48.8908" lon="0.15882">
        <ele>228.19999694824</ele>
        <time>2016-05-08T13:38:00.000Z</time>
      </trkpt>
      <trkpt lat="48.89076" lon="0.15871">
        <ele>228.39999389648</ele>
        <time>2016-05-08T13:38:07.000Z</time>
      </trkpt>
      <trkpt lat="48.89074" lon="0.15862">
        <ele>228.60000610352</ele>
        <time>2016-05-08T13:38:13.000Z</time>
      </trkpt>
      <trkpt lat="48.89062" lon="0.158">
        <ele>229.39999389648</ele>
        <time>2016-05-08T13:39:03.000Z</time>
      </trkpt>
      <trkpt lat="48.8906" lon="0.15784">
        <ele>229.60000610352</ele>
        <time>2016-05-08T13:39:12.000Z</time>
      </trkpt>
      <trkpt lat="48.8906" lon="0.1578">
        <ele>229.80000305176</ele>
        <time>2016-05-08T13:39:15.000Z</time>
      </trkpt>
      <trkpt lat="48.89059" lon="0.15776">
        <ele>229.80000305176</ele>
        <time>2016-05-08T13:39:17.000Z</time>
      </trkpt>
      <trkpt lat="48.8906" lon="0.15766">
        <ele>230.19999694824</ele>
        <time>2016-05-08T13:39:22.000Z</time>
      </trkpt>
      <trkpt lat="48.8906" lon="0.15763">
        <ele>230.19999694824</ele>
        <time>2016-05-08T13:39:24.000Z</time>
      </trkpt>
      <trkpt lat="48.89059" lon="0.1576">
        <ele>230.19999694824</ele>
        <time>2016-05-08T13:39:26.000Z</time>
      </trkpt>
      <trkpt lat="48.8906" lon="0.15753">
        <ele>230.39999389648</ele>
        <time>2016-05-08T13:39:31.000Z</time>
      </trkpt>
      <trkpt lat="48.89059" lon="0.15729">
        <ele>231</ele>
        <time>2016-05-08T13:39:45.000Z</time>
      </trkpt>
      <trkpt lat="48.89057" lon="0.15724">
        <ele>231</ele>
        <time>2016-05-08T13:39:49.000Z</time>
      </trkpt>
      <trkpt lat="48.89058" lon="0.15719">
        <ele>231.19999694824</ele>
        <time>2016-05-08T13:39:53.000Z</time>
      </trkpt>
      <trkpt lat="48.89014" lon="0.15498">
        <ele>234.39999389648</ele>
        <time>2016-05-08T13:42:12.000Z</time>
      </trkpt>
      <trkpt lat="48.89014" lon="0.15496">
        <ele>234.39999389648</ele>
        <time>2016-05-08T13:42:13.000Z</time>
      </trkpt>
      <trkpt lat="48.89013" lon="0.15491">
        <ele>234.39999389648</ele>
        <time>2016-05-08T13:42:16.000Z</time>
      </trkpt>
      <trkpt lat="48.89013" lon="0.15485">
        <ele>234.39999389648</ele>
        <time>2016-05-08T13:42:19.000Z</time>
      </trkpt>
      <trkpt lat="48.89013" lon="0.15471">
        <ele>234.60000610352</ele>
        <time>2016-05-08T13:42:28.000Z</time>
      </trkpt>
      <trkpt lat="48.89012" lon="0.15459">
        <ele>234.80000305176</ele>
        <time>2016-05-08T13:42:34.000Z</time>
      </trkpt>
      <trkpt lat="48.89012" lon="0.15457">
        <ele>234.80000305176</ele>
        <time>2016-05-08T13:42:35.000Z</time>
      </trkpt>
      <trkpt lat="48.89012" lon="0.15453">
        <ele>234.80000305176</ele>
        <time>2016-05-08T13:42:37.000Z</time>
      </trkpt>
      <trkpt lat="48.89012" lon="0.15448">
        <ele>234.80000305176</ele>
        <time>2016-05-08T13:42:40.000Z</time>
      </trkpt>
      <trkpt lat="48.89012" lon="0.15437">
        <ele>235</ele>
        <time>2016-05-08T13:42:45.000Z</time>
      </trkpt>
      <trkpt lat="48.89011" lon="0.15432">
        <ele>235</ele>
        <time>2016-05-08T13:42:48.000Z</time>
      </trkpt>
      <trkpt lat="48.89011" lon="0.15421">
        <ele>235.19999694824</ele>
        <time>2016-05-08T13:42:54.000Z</time>
      </trkpt>
      <trkpt lat="48.89011" lon="0.15419">
        <ele>235.19999694824</ele>
        <time>2016-05-08T13:42:55.000Z</time>
      </trkpt>
      <trkpt lat="48.89012" lon="0.15406">
        <ele>235.39999389648</ele>
        <time>2016-05-08T13:43:02.000Z</time>
      </trkpt>
      <trkpt lat="48.89014" lon="0.15402">
        <ele>235.39999389648</ele>
        <time>2016-05-08T13:43:04.000Z</time>
      </trkpt>
      <trkpt lat="48.89014" lon="0.15397">
        <ele>235.60000610352</ele>
        <time>2016-05-08T13:43:07.000Z</time>
      </trkpt>
      <trkpt lat="48.89013" lon="0.15389">
        <ele>235.60000610352</ele>
        <time>2016-05-08T13:43:11.000Z</time>
      </trkpt>
      <trkpt lat="48.89014" lon="0.15387">
        <ele>235.60000610352</ele>
        <time>2016-05-08T13:43:12.000Z</time>
      </trkpt>
      <trkpt lat="48.89016" lon="0.15375">
        <ele>235.80000305176</ele>
        <time>2016-05-08T13:43:19.000Z</time>
      </trkpt>
      <trkpt lat="48.89018" lon="0.15364">
        <ele>235.60000610352</ele>
        <time>2016-05-08T13:43:26.000Z</time>
      </trkpt>
      <trkpt lat="48.89018" lon="0.1536">
        <ele>235.60000610352</ele>
        <time>2016-05-08T13:43:28.000Z</time>
      </trkpt>
      <trkpt lat="48.89019" lon="0.15357">
        <ele>235.60000610352</ele>
        <time>2016-05-08T13:43:30.000Z</time>
      </trkpt>
      <trkpt lat="48.89019" lon="0.15354">
        <ele>235.60000610352</ele>
        <time>2016-05-08T13:43:32.000Z</time>
      </trkpt>
      <trkpt lat="48.8902" lon="0.15351">
        <ele>235.60000610352</ele>
        <time>2016-05-08T13:43:34.000Z</time>
      </trkpt>
      <trkpt lat="48.89019" lon="0.15346">
        <ele>235.39999389648</ele>
        <time>2016-05-08T13:43:37.000Z</time>
      </trkpt>
      <trkpt lat="48.89019" lon="0.15344">
        <ele>235.39999389648</ele>
        <time>2016-05-08T13:43:38.000Z</time>
      </trkpt>
      <trkpt lat="48.89019" lon="0.15337">
        <ele>235.39999389648</ele>
        <time>2016-05-08T13:43:42.000Z</time>
      </trkpt>
      <trkpt lat="48.89018" lon="0.15333">
        <ele>235.39999389648</ele>
        <time>2016-05-08T13:43:44.000Z</time>
      </trkpt>
      <trkpt lat="48.89018" lon="0.15324">
        <ele>235.19999694824</ele>
        <time>2016-05-08T13:43:49.000Z</time>
      </trkpt>
      <trkpt lat="48.89018" lon="0.15321">
        <ele>235.19999694824</ele>
        <time>2016-05-08T13:43:51.000Z</time>
      </trkpt>
      <trkpt lat="48.89019" lon="0.1531">
        <ele>235</ele>
        <time>2016-05-08T13:43:57.000Z</time>
      </trkpt>
      <trkpt lat="48.89019" lon="0.15308">
        <ele>235</ele>
        <time>2016-05-08T13:43:58.000Z</time>
      </trkpt>
      <trkpt lat="48.8902" lon="0.15298">
        <ele>235</ele>
        <time>2016-05-08T13:44:04.000Z</time>
      </trkpt>
      <trkpt lat="48.8902" lon="0.15296">
        <ele>234.80000305176</ele>
        <time>2016-05-08T13:44:05.000Z</time>
      </trkpt>
      <trkpt lat="48.89021" lon="0.15288">
        <ele>234.60000610352</ele>
        <time>2016-05-08T13:44:09.000Z</time>
      </trkpt>
      <trkpt lat="48.89022" lon="0.15281">
        <ele>234.60000610352</ele>
        <time>2016-05-08T13:44:13.000Z</time>
      </trkpt>
      <trkpt lat="48.89023" lon="0.15275">
        <ele>234.39999389648</ele>
        <time>2016-05-08T13:44:16.000Z</time>
      </trkpt>
      <trkpt lat="48.89025" lon="0.15263">
        <ele>234.19999694824</ele>
        <time>2016-05-08T13:44:23.000Z</time>
      </trkpt>
      <trkpt lat="48.89026" lon="0.15249">
        <ele>233.80000305176</ele>
        <time>2016-05-08T13:44:31.000Z</time>
      </trkpt>
      <trkpt lat="48.89028" lon="0.15228">
        <ele>233.19999694824</ele>
        <time>2016-05-08T13:44:42.000Z</time>
      </trkpt>
      <trkpt lat="48.89028" lon="0.15224">
        <ele>233</ele>
        <time>2016-05-08T13:44:45.000Z</time>
      </trkpt>
      <trkpt lat="48.89028" lon="0.15223">
        <ele>233</ele>
        <time>2016-05-08T13:44:47.000Z</time>
      </trkpt>
      <trkpt lat="48.89029" lon="0.15213">
        <ele>232.80000305176</ele>
        <time>2016-05-08T13:44:52.000Z</time>
      </trkpt>
      <trkpt lat="48.89029" lon="0.15202">
        <ele>232.80000305176</ele>
        <time>2016-05-08T13:44:58.000Z</time>
      </trkpt>
      <trkpt lat="48.8903" lon="0.15197">
        <ele>232.60000610352</ele>
        <time>2016-05-08T13:45:01.000Z</time>
      </trkpt>
      <trkpt lat="48.89031" lon="0.15194">
        <ele>232.60000610352</ele>
        <time>2016-05-08T13:45:03.000Z</time>
      </trkpt>
      <trkpt lat="48.89031" lon="0.15193">
        <ele>232.60000610352</ele>
        <time>2016-05-08T13:45:04.000Z</time>
      </trkpt>
      <trkpt lat="48.89032" lon="0.15185">
        <ele>232.39999389648</ele>
        <time>2016-05-08T13:45:08.000Z</time>
      </trkpt>
      <trkpt lat="48.89032" lon="0.15184">
        <ele>232.39999389648</ele>
        <time>2016-05-08T13:45:09.000Z</time>
      </trkpt>
      <trkpt lat="48.89033" lon="0.15176">
        <ele>232.39999389648</ele>
        <time>2016-05-08T13:45:13.000Z</time>
      </trkpt>
      <trkpt lat="48.89033" lon="0.15172">
        <ele>232.19999694824</ele>
        <time>2016-05-08T13:45:16.000Z</time>
      </trkpt>
      <trkpt lat="48.89034" lon="0.15167">
        <ele>232.19999694824</ele>
        <time>2016-05-08T13:45:18.000Z</time>
      </trkpt>
      <trkpt lat="48.89034" lon="0.15163">
        <ele>232.19999694824</ele>
        <time>2016-05-08T13:45:20.000Z</time>
      </trkpt>
      <trkpt lat="48.89036" lon="0.15154">
        <ele>232</ele>
        <time>2016-05-08T13:45:26.000Z</time>
      </trkpt>
      <trkpt lat="48.89036" lon="0.15152">
        <ele>232</ele>
        <time>2016-05-08T13:45:27.000Z</time>
      </trkpt>
      <trkpt lat="48.89037" lon="0.15147">
        <ele>232</ele>
        <time>2016-05-08T13:45:30.000Z</time>
      </trkpt>
      <trkpt lat="48.89038" lon="0.15142">
        <ele>231.80000305176</ele>
        <time>2016-05-08T13:45:33.000Z</time>
      </trkpt>
      <trkpt lat="48.89038" lon="0.15141">
        <ele>231.80000305176</ele>
        <time>2016-05-08T13:45:35.000Z</time>
      </trkpt>
      <trkpt lat="48.89038" lon="0.15141">
        <ele>231.80000305176</ele>
        <time>2016-05-08T13:45:36.000Z</time>
      </trkpt>
      <trkpt lat="48.89043" lon="0.15105">
        <ele>231.19999694824</ele>
        <time>2016-05-08T13:46:00.000Z</time>
      </trkpt>
      <trkpt lat="48.89046" lon="0.15096">
        <ele>231</ele>
        <time>2016-05-08T13:46:06.000Z</time>
      </trkpt>
      <trkpt lat="48.89048" lon="0.15079">
        <ele>230.60000610352</ele>
        <time>2016-05-08T13:46:15.000Z</time>
      </trkpt>
      <trkpt lat="48.89049" lon="0.15062">
        <ele>230.39999389648</ele>
        <time>2016-05-08T13:46:24.000Z</time>
      </trkpt>
      <trkpt lat="48.8905" lon="0.15046">
        <ele>230.39999389648</ele>
        <time>2016-05-08T13:46:33.000Z</time>
      </trkpt>
      <trkpt lat="48.89051" lon="0.15029">
        <ele>230.39999389648</ele>
        <time>2016-05-08T13:46:42.000Z</time>
      </trkpt>
      <trkpt lat="48.89053" lon="0.15011">
        <ele>230.39999389648</ele>
        <time>2016-05-08T13:46:52.000Z</time>
      </trkpt>
      <trkpt lat="48.89054" lon="0.14997">
        <ele>230.39999389648</ele>
        <time>2016-05-08T13:47:00.000Z</time>
      </trkpt>
      <trkpt lat="48.89055" lon="0.1498">
        <ele>230.39999389648</ele>
        <time>2016-05-08T13:47:09.000Z</time>
      </trkpt>
      <trkpt lat="48.89056" lon="0.14959">
        <ele>230.39999389648</ele>
        <time>2016-05-08T13:47:20.000Z</time>
      </trkpt>
      <trkpt lat="48.89057" lon="0.1494">
        <ele>230.60000610352</ele>
        <time>2016-05-08T13:47:31.000Z</time>
      </trkpt>
      <trkpt lat="48.89057" lon="0.14925">
        <ele>230.80000305176</ele>
        <time>2016-05-08T13:47:40.000Z</time>
      </trkpt>
      <trkpt lat="48.89058" lon="0.14909">
        <ele>231</ele>
        <time>2016-05-08T13:47:49.000Z</time>
      </trkpt>
      <trkpt lat="48.89059" lon="0.14888">
        <ele>231.19999694824</ele>
        <time>2016-05-08T13:48:01.000Z</time>
      </trkpt>
      <trkpt lat="48.89061" lon="0.14873">
        <ele>231.60000610352</ele>
        <time>2016-05-08T13:48:09.000Z</time>
      </trkpt>
      <trkpt lat="48.89064" lon="0.14861">
        <ele>231.80000305176</ele>
        <time>2016-05-08T13:48:16.000Z</time>
      </trkpt>
      <trkpt lat="48.89065" lon="0.1486">
        <ele>232</ele>
        <time>2016-05-08T13:48:17.000Z</time>
      </trkpt>
      <trkpt lat="48.89067" lon="0.14854">
        <ele>232</ele>
        <time>2016-05-08T13:48:21.000Z</time>
      </trkpt>
      <trkpt lat="48.8907" lon="0.1484">
        <ele>232.39999389648</ele>
        <time>2016-05-08T13:48:30.000Z</time>
      </trkpt>
      <trkpt lat="48.89073" lon="0.14829">
        <ele>232.60000610352</ele>
        <time>2016-05-08T13:48:37.000Z</time>
      </trkpt>
      <trkpt lat="48.89077" lon="0.14816">
        <ele>232.80000305176</ele>
        <time>2016-05-08T13:48:46.000Z</time>
      </trkpt>
      <trkpt lat="48.8908" lon="0.14802">
        <ele>233</ele>
        <time>2016-05-08T13:48:54.000Z</time>
      </trkpt>
      <trkpt lat="48.89081" lon="0.14801">
        <ele>233</ele>
        <time>2016-05-08T13:48:55.000Z</time>
      </trkpt>
      <trkpt lat="48.89082" lon="0.14799">
        <ele>233</ele>
        <time>2016-05-08T13:48:57.000Z</time>
      </trkpt>
      <trkpt lat="48.89083" lon="0.14794">
        <ele>233</ele>
        <time>2016-05-08T13:49:01.000Z</time>
      </trkpt>
      <trkpt lat="48.89084" lon="0.14789">
        <ele>233.19999694824</ele>
        <time>2016-05-08T13:49:04.000Z</time>
      </trkpt>
      <trkpt lat="48.89086" lon="0.1478">
        <ele>233.80000305176</ele>
        <time>2016-05-08T13:49:10.000Z</time>
      </trkpt>
      <trkpt lat="48.89088" lon="0.14768">
        <ele>234.19999694824</ele>
        <time>2016-05-08T13:49:16.000Z</time>
      </trkpt>
      <trkpt lat="48.89089" lon="0.14754">
        <ele>235</ele>
        <time>2016-05-08T13:49:22.000Z</time>
      </trkpt>
      <trkpt lat="48.89089" lon="0.14753">
        <ele>235</ele>
        <time>2016-05-08T13:49:24.000Z</time>
      </trkpt>
      <trkpt lat="48.89093" lon="0.14662">
        <ele>237</ele>
        <time>2016-05-08T13:57:13.000Z</time>
      </trkpt>
      <trkpt lat="48.89092" lon="0.14655">
        <ele>237</ele>
        <time>2016-05-08T13:57:17.000Z</time>
      </trkpt>
      <trkpt lat="48.89091" lon="0.14641">
        <ele>237</ele>
        <time>2016-05-08T13:57:25.000Z</time>
      </trkpt>
      <trkpt lat="48.8909" lon="0.14633">
        <ele>237</ele>
        <time>2016-05-08T13:57:30.000Z</time>
      </trkpt>
      <trkpt lat="48.89089" lon="0.14631">
        <ele>237</ele>
        <time>2016-05-08T13:57:32.000Z</time>
      </trkpt>
      <trkpt lat="48.89087" lon="0.14619">
        <ele>237.19999694824</ele>
        <time>2016-05-08T13:57:39.000Z</time>
      </trkpt>
      <trkpt lat="48.89086" lon="0.14614">
        <ele>237.39999389648</ele>
        <time>2016-05-08T13:57:42.000Z</time>
      </trkpt>
      <trkpt lat="48.89085" lon="0.14607">
        <ele>237.39999389648</ele>
        <time>2016-05-08T13:57:46.000Z</time>
      </trkpt>
      <trkpt lat="48.89082" lon="0.14596">
        <ele>237.60000610352</ele>
        <time>2016-05-08T13:57:53.000Z</time>
      </trkpt>
      <trkpt lat="48.89081" lon="0.14592">
        <ele>237.60000610352</ele>
        <time>2016-05-08T13:57:55.000Z</time>
      </trkpt>
      <trkpt lat="48.89081" lon="0.14591">
        <ele>237.60000610352</ele>
        <time>2016-05-08T13:57:56.000Z</time>
      </trkpt>
      <trkpt lat="48.8908" lon="0.14584">
        <ele>237.60000610352</ele>
        <time>2016-05-08T13:58:00.000Z</time>
      </trkpt>
      <trkpt lat="48.89078" lon="0.14573">
        <ele>237.60000610352</ele>
        <time>2016-05-08T13:58:07.000Z</time>
      </trkpt>
      <trkpt lat="48.89077" lon="0.1456">
        <ele>237.80000305176</ele>
        <time>2016-05-08T13:58:14.000Z</time>
      </trkpt>
      <trkpt lat="48.89077" lon="0.14558">
        <ele>237.80000305176</ele>
        <time>2016-05-08T13:58:15.000Z</time>
      </trkpt>
      <trkpt lat="48.89077" lon="0.14549">
        <ele>237.80000305176</ele>
        <time>2016-05-08T13:58:20.000Z</time>
      </trkpt>
      <trkpt lat="48.89076" lon="0.14546">
        <ele>237.80000305176</ele>
        <time>2016-05-08T13:58:22.000Z</time>
      </trkpt>
      <trkpt lat="48.89076" lon="0.14538">
        <ele>237.60000610352</ele>
        <time>2016-05-08T13:58:26.000Z</time>
      </trkpt>
      <trkpt lat="48.89076" lon="0.14534">
        <ele>237.39999389648</ele>
        <time>2016-05-08T13:58:28.000Z</time>
      </trkpt>
      <trkpt lat="48.89076" lon="0.1453">
        <ele>237.39999389648</ele>
        <time>2016-05-08T13:58:30.000Z</time>
      </trkpt>
      <trkpt lat="48.89076" lon="0.14529">
        <ele>237.39999389648</ele>
        <time>2016-05-08T13:58:32.000Z</time>
      </trkpt>
      <trkpt lat="48.89084" lon="0.14474">
        <ele>235.19999694824</ele>
        <time>2016-05-08T14:00:03.000Z</time>
      </trkpt>
      <trkpt lat="48.89085" lon="0.14457">
        <ele>234.39999389648</ele>
        <time>2016-05-08T14:00:13.000Z</time>
      </trkpt>
      <trkpt lat="48.89087" lon="0.14444">
        <ele>233.60000610352</ele>
        <time>2016-05-08T14:00:20.000Z</time>
      </trkpt>
      <trkpt lat="48.89088" lon="0.14429">
        <ele>233.39999389648</ele>
        <time>2016-05-08T14:00:28.000Z</time>
      </trkpt>
      <trkpt lat="48.8909" lon="0.14417">
        <ele>233.39999389648</ele>
        <time>2016-05-08T14:00:35.000Z</time>
      </trkpt>
      <trkpt lat="48.89091" lon="0.14407">
        <ele>233.39999389648</ele>
        <time>2016-05-08T14:00:41.000Z</time>
      </trkpt>
      <trkpt lat="48.89093" lon="0.14401">
        <ele>233.60000610352</ele>
        <time>2016-05-08T14:00:45.000Z</time>
      </trkpt>
      <trkpt lat="48.89094" lon="0.14398">
        <ele>233.60000610352</ele>
        <time>2016-05-08T14:00:47.000Z</time>
      </trkpt>
      <trkpt lat="48.89096" lon="0.14386">
        <ele>233.60000610352</ele>
        <time>2016-05-08T14:00:54.000Z</time>
      </trkpt>
      <trkpt lat="48.89097" lon="0.14384">
        <ele>233.60000610352</ele>
        <time>2016-05-08T14:00:55.000Z</time>
      </trkpt>
      <trkpt lat="48.89097" lon="0.14383">
        <ele>233.60000610352</ele>
        <time>2016-05-08T14:00:56.000Z</time>
      </trkpt>
      <trkpt lat="48.89099" lon="0.14374">
        <ele>233.60000610352</ele>
        <time>2016-05-08T14:01:01.000Z</time>
      </trkpt>
      <trkpt lat="48.89101" lon="0.14361">
        <ele>233.80000305176</ele>
        <time>2016-05-08T14:01:08.000Z</time>
      </trkpt>
      <trkpt lat="48.89105" lon="0.14345">
        <ele>234.19999694824</ele>
        <time>2016-05-08T14:01:17.000Z</time>
      </trkpt>
      <trkpt lat="48.89109" lon="0.14329">
        <ele>234.60000610352</ele>
        <time>2016-05-08T14:01:26.000Z</time>
      </trkpt>
      <trkpt lat="48.89111" lon="0.14311">
        <ele>234.80000305176</ele>
        <time>2016-05-08T14:01:35.000Z</time>
      </trkpt>
      <trkpt lat="48.89112" lon="0.1431">
        <ele>234.80000305176</ele>
        <time>2016-05-08T14:01:36.000Z</time>
      </trkpt>
      <trkpt lat="48.89114" lon="0.14298">
        <ele>234.80000305176</ele>
        <time>2016-05-08T14:01:42.000Z</time>
      </trkpt>
      <trkpt lat="48.89115" lon="0.14297">
        <ele>234.80000305176</ele>
        <time>2016-05-08T14:01:43.000Z</time>
      </trkpt>
      <trkpt lat="48.89119" lon="0.1428">
        <ele>234.60000610352</ele>
        <time>2016-05-08T14:01:53.000Z</time>
      </trkpt>
      <trkpt lat="48.89123" lon="0.14264">
        <ele>234</ele>
        <time>2016-05-08T14:02:02.000Z</time>
      </trkpt>
      <trkpt lat="48.89127" lon="0.14251">
        <ele>233.80000305176</ele>
        <time>2016-05-08T14:02:10.000Z</time>
      </trkpt>
      <trkpt lat="48.89132" lon="0.14236">
        <ele>233.39999389648</ele>
        <time>2016-05-08T14:02:18.000Z</time>
      </trkpt>
      <trkpt lat="48.89134" lon="0.14226">
        <ele>233.39999389648</ele>
        <time>2016-05-08T14:02:24.000Z</time>
      </trkpt>
      <trkpt lat="48.89138" lon="0.14209">
        <ele>233.80000305176</ele>
        <time>2016-05-08T14:02:33.000Z</time>
      </trkpt>
      <trkpt lat="48.89143" lon="0.14193">
        <ele>233.80000305176</ele>
        <time>2016-05-08T14:02:42.000Z</time>
      </trkpt>
      <trkpt lat="48.89146" lon="0.14182">
        <ele>234</ele>
        <time>2016-05-08T14:02:49.000Z</time>
      </trkpt>
      <trkpt lat="48.8915" lon="0.14166">
        <ele>234</ele>
        <time>2016-05-08T14:02:58.000Z</time>
      </trkpt>
      <trkpt lat="48.89154" lon="0.1415">
        <ele>234.19999694824</ele>
        <time>2016-05-08T14:03:07.000Z</time>
      </trkpt>
      <trkpt lat="48.89158" lon="0.14137">
        <ele>234.19999694824</ele>
        <time>2016-05-08T14:03:15.000Z</time>
      </trkpt>
      <trkpt lat="48.89161" lon="0.14123">
        <ele>234.39999389648</ele>
        <time>2016-05-08T14:03:23.000Z</time>
      </trkpt>
      <trkpt lat="48.89162" lon="0.14121">
        <ele>234.39999389648</ele>
        <time>2016-05-08T14:03:24.000Z</time>
      </trkpt>
      <trkpt lat="48.89166" lon="0.14105">
        <ele>234.39999389648</ele>
        <time>2016-05-08T14:03:33.000Z</time>
      </trkpt>
      <trkpt lat="48.8917" lon="0.14091">
        <ele>234.60000610352</ele>
        <time>2016-05-08T14:03:41.000Z</time>
      </trkpt>
      <trkpt lat="48.89174" lon="0.14076">
        <ele>234.60000610352</ele>
        <time>2016-05-08T14:03:50.000Z</time>
      </trkpt>
      <trkpt lat="48.89179" lon="0.14061">
        <ele>234.80000305176</ele>
        <time>2016-05-08T14:03:58.000Z</time>
      </trkpt>
      <trkpt lat="48.89183" lon="0.14046">
        <ele>234.80000305176</ele>
        <time>2016-05-08T14:04:07.000Z</time>
      </trkpt>
      <trkpt lat="48.89186" lon="0.14034">
        <ele>234.80000305176</ele>
        <time>2016-05-08T14:04:14.000Z</time>
      </trkpt>
      <trkpt lat="48.8919" lon="0.14022">
        <ele>234.39999389648</ele>
        <time>2016-05-08T14:04:22.000Z</time>
      </trkpt>
      <trkpt lat="48.89194" lon="0.14007">
        <ele>234</ele>
        <time>2016-05-08T14:04:31.000Z</time>
      </trkpt>
      <trkpt lat="48.89197" lon="0.13996">
        <ele>233.60000610352</ele>
        <time>2016-05-08T14:04:38.000Z</time>
      </trkpt>
      <trkpt lat="48.892" lon="0.13984">
        <ele>233</ele>
        <time>2016-05-08T14:04:45.000Z</time>
      </trkpt>
      <trkpt lat="48.892" lon="0.13983">
        <ele>233</ele>
        <time>2016-05-08T14:04:46.000Z</time>
      </trkpt>
      <trkpt lat="48.892" lon="0.13979">
        <ele>233</ele>
        <time>2016-05-08T14:04:49.000Z</time>
      </trkpt>
      <trkpt lat="48.892" lon="0.13977">
        <ele>232.80000305176</ele>
        <time>2016-05-08T14:04:50.000Z</time>
      </trkpt>
      <trkpt lat="48.89204" lon="0.13967">
        <ele>232.60000610352</ele>
        <time>2016-05-08T14:04:57.000Z</time>
      </trkpt>
      <trkpt lat="48.89208" lon="0.1395">
        <ele>232.39999389648</ele>
        <time>2016-05-08T14:05:06.000Z</time>
      </trkpt>
      <trkpt lat="48.89211" lon="0.1394">
        <ele>232.19999694824</ele>
        <time>2016-05-08T14:05:12.000Z</time>
      </trkpt>
      <trkpt lat="48.89215" lon="0.1393">
        <ele>232</ele>
        <time>2016-05-08T14:05:18.000Z</time>
      </trkpt>
      <trkpt lat="48.89216" lon="0.13927">
        <ele>232</ele>
        <time>2016-05-08T14:05:20.000Z</time>
      </trkpt>
      <trkpt lat="48.8922" lon="0.13915">
        <ele>231.80000305176</ele>
        <time>2016-05-08T14:05:27.000Z</time>
      </trkpt>
      <trkpt lat="48.89222" lon="0.13905">
        <ele>231.60000610352</ele>
        <time>2016-05-08T14:05:33.000Z</time>
      </trkpt>
      <trkpt lat="48.89223" lon="0.13903">
        <ele>231.60000610352</ele>
        <time>2016-05-08T14:05:34.000Z</time>
      </trkpt>
      <trkpt lat="48.89226" lon="0.13895">
        <ele>231.39999389648</ele>
        <time>2016-05-08T14:05:40.000Z</time>
      </trkpt>
      <trkpt lat="48.89227" lon="0.13887">
        <ele>231.19999694824</ele>
        <time>2016-05-08T14:05:45.000Z</time>
      </trkpt>
      <trkpt lat="48.89227" lon="0.13886">
        <ele>231.19999694824</ele>
        <time>2016-05-08T14:05:46.000Z</time>
      </trkpt>
      <trkpt lat="48.89228" lon="0.13879">
        <ele>231</ele>
        <time>2016-05-08T14:05:50.000Z</time>
      </trkpt>
      <trkpt lat="48.89229" lon="0.13878">
        <ele>231</ele>
        <time>2016-05-08T14:05:51.000Z</time>
      </trkpt>
      <trkpt lat="48.89229" lon="0.13866">
        <ele>231</ele>
        <time>2016-05-08T14:05:58.000Z</time>
      </trkpt>
      <trkpt lat="48.89229" lon="0.13851">
        <ele>231</ele>
        <time>2016-05-08T14:06:07.000Z</time>
      </trkpt>
      <trkpt lat="48.89227" lon="0.13838">
        <ele>231.19999694824</ele>
        <time>2016-05-08T14:06:15.000Z</time>
      </trkpt>
      <trkpt lat="48.89224" lon="0.13826">
        <ele>231.19999694824</ele>
        <time>2016-05-08T14:06:23.000Z</time>
      </trkpt>
      <trkpt lat="48.89221" lon="0.1381">
        <ele>231</ele>
        <time>2016-05-08T14:06:33.000Z</time>
      </trkpt>
      <trkpt lat="48.89217" lon="0.13796">
        <ele>231</ele>
        <time>2016-05-08T14:06:42.000Z</time>
      </trkpt>
      <trkpt lat="48.89213" lon="0.13784">
        <ele>231</ele>
        <time>2016-05-08T14:06:50.000Z</time>
      </trkpt>
      <trkpt lat="48.89209" lon="0.13769">
        <ele>231</ele>
        <time>2016-05-08T14:06:59.000Z</time>
      </trkpt>
      <trkpt lat="48.89204" lon="0.13755">
        <ele>231</ele>
        <time>2016-05-08T14:07:08.000Z</time>
      </trkpt>
      <trkpt lat="48.892" lon="0.13741">
        <ele>231</ele>
        <time>2016-05-08T14:07:17.000Z</time>
      </trkpt>
      <trkpt lat="48.89197" lon="0.13725">
        <ele>231</ele>
        <time>2016-05-08T14:07:27.000Z</time>
      </trkpt>
      <trkpt lat="48.89198" lon="0.13717">
        <ele>230.80000305176</ele>
        <time>2016-05-08T14:07:34.000Z</time>
      </trkpt>
      <trkpt lat="48.89258" lon="0.13667">
        <ele>227.39999389648</ele>
        <time>2016-05-08T14:09:11.000Z</time>
      </trkpt>
      <trkpt lat="48.89262" lon="0.13664">
        <ele>227.39999389648</ele>
        <time>2016-05-08T14:09:15.000Z</time>
      </trkpt>
      <trkpt lat="48.8927" lon="0.13657">
        <ele>227.39999389648</ele>
        <time>2016-05-08T14:09:22.000Z</time>
      </trkpt>
      <trkpt lat="48.89276" lon="0.13652">
        <ele>227.19999694824</ele>
        <time>2016-05-08T14:09:28.000Z</time>
      </trkpt>
      <trkpt lat="48.89286" lon="0.13642">
        <ele>226.39999389648</ele>
        <time>2016-05-08T14:09:38.000Z</time>
      </trkpt>
      <trkpt lat="48.89294" lon="0.13634">
        <ele>226.60000610352</ele>
        <time>2016-05-08T14:09:46.000Z</time>
      </trkpt>
      <trkpt lat="48.89299" lon="0.13627">
        <ele>227</ele>
        <time>2016-05-08T14:09:52.000Z</time>
      </trkpt>
      <trkpt lat="48.89306" lon="0.13622">
        <ele>226.80000305176</ele>
        <time>2016-05-08T14:09:59.000Z</time>
      </trkpt>
      <trkpt lat="48.89311" lon="0.13616">
        <ele>226.80000305176</ele>
        <time>2016-05-08T14:10:05.000Z</time>
      </trkpt>
      <trkpt lat="48.89313" lon="0.13612">
        <ele>226.60000610352</ele>
        <time>2016-05-08T14:10:10.000Z</time>
      </trkpt>
      <trkpt lat="48.89316" lon="0.13609">
        <ele>226.60000610352</ele>
        <time>2016-05-08T14:10:13.000Z</time>
      </trkpt>
      <trkpt lat="48.89319" lon="0.13605">
        <ele>226.39999389648</ele>
        <time>2016-05-08T14:10:16.000Z</time>
      </trkpt>
      <trkpt lat="48.8932" lon="0.13602">
        <ele>226.39999389648</ele>
        <time>2016-05-08T14:10:18.000Z</time>
      </trkpt>
      <trkpt lat="48.89321" lon="0.13596">
        <ele>226.19999694824</ele>
        <time>2016-05-08T14:10:22.000Z</time>
      </trkpt>
      <trkpt lat="48.89323" lon="0.13589">
        <ele>226.19999694824</ele>
        <time>2016-05-08T14:10:27.000Z</time>
      </trkpt>
      <trkpt lat="48.89323" lon="0.13587">
        <ele>226.19999694824</ele>
        <time>2016-05-08T14:10:28.000Z</time>
      </trkpt>
      <trkpt lat="48.89324" lon="0.13578">
        <ele>226.39999389648</ele>
        <time>2016-05-08T14:10:34.000Z</time>
      </trkpt>
      <trkpt lat="48.89325" lon="0.13573">
        <ele>226.60000610352</ele>
        <time>2016-05-08T14:10:37.000Z</time>
      </trkpt>
      <trkpt lat="48.89327" lon="0.13569">
        <ele>226.60000610352</ele>
        <time>2016-05-08T14:10:40.000Z</time>
      </trkpt>
      <trkpt lat="48.8933" lon="0.13558">
        <ele>226.80000305176</ele>
        <time>2016-05-08T14:10:46.000Z</time>
      </trkpt>
      <trkpt lat="48.89331" lon="0.13556">
        <ele>227</ele>
        <time>2016-05-08T14:10:47.000Z</time>
      </trkpt>
      <trkpt lat="48.89336" lon="0.13544">
        <ele>227.19999694824</ele>
        <time>2016-05-08T14:10:54.000Z</time>
      </trkpt>
      <trkpt lat="48.89345" lon="0.13534">
        <ele>226.39999389648</ele>
        <time>2016-05-08T14:11:02.000Z</time>
      </trkpt>
      <trkpt lat="48.8935" lon="0.13531">
        <ele>226.60000610352</ele>
        <time>2016-05-08T14:11:07.000Z</time>
      </trkpt>
      <trkpt lat="48.89351" lon="0.13529">
        <ele>226.80000305176</ele>
        <time>2016-05-08T14:11:09.000Z</time>
      </trkpt>
      <trkpt lat="48.89358" lon="0.13524">
        <ele>227.19999694824</ele>
        <time>2016-05-08T14:11:15.000Z</time>
      </trkpt>
      <trkpt lat="48.89366" lon="0.13519">
        <ele>227.39999389648</ele>
        <time>2016-05-08T14:11:22.000Z</time>
      </trkpt>
      <trkpt lat="48.89372" lon="0.13515">
        <ele>227.60000610352</ele>
        <time>2016-05-08T14:11:28.000Z</time>
      </trkpt>
      <trkpt lat="48.89379" lon="0.1351">
        <ele>228</ele>
        <time>2016-05-08T14:11:35.000Z</time>
      </trkpt>
      <trkpt lat="48.89382" lon="0.13507">
        <ele>228</ele>
        <time>2016-05-08T14:11:40.000Z</time>
      </trkpt>
      <trkpt lat="48.89386" lon="0.13504">
        <ele>228.19999694824</ele>
        <time>2016-05-08T14:11:45.000Z</time>
      </trkpt>
      <trkpt lat="48.89387" lon="0.13503">
        <ele>228.19999694824</ele>
        <time>2016-05-08T14:11:46.000Z</time>
      </trkpt>
      <trkpt lat="48.89391" lon="0.13499">
        <ele>228.39999389648</ele>
        <time>2016-05-08T14:11:51.000Z</time>
      </trkpt>
      <trkpt lat="48.89396" lon="0.13496">
        <ele>228.60000610352</ele>
        <time>2016-05-08T14:11:55.000Z</time>
      </trkpt>
      <trkpt lat="48.89397" lon="0.13494">
        <ele>228.80000305176</ele>
        <time>2016-05-08T14:11:57.000Z</time>
      </trkpt>
      <trkpt lat="48.89402" lon="0.1349">
        <ele>229.19999694824</ele>
        <time>2016-05-08T14:12:04.000Z</time>
      </trkpt>
      <trkpt lat="48.89403" lon="0.1349">
        <ele>229.19999694824</ele>
        <time>2016-05-08T14:12:05.000Z</time>
      </trkpt>
      <trkpt lat="48.89404" lon="0.13489">
        <ele>229.19999694824</ele>
        <time>2016-05-08T14:12:06.000Z</time>
      </trkpt>
      <trkpt lat="48.89407" lon="0.13487">
        <ele>229.39999389648</ele>
        <time>2016-05-08T14:12:09.000Z</time>
      </trkpt>
      <trkpt lat="48.89414" lon="0.13478">
        <ele>230</ele>
        <time>2016-05-08T14:12:16.000Z</time>
      </trkpt>
      <trkpt lat="48.89417" lon="0.13476">
        <ele>230.19999694824</ele>
        <time>2016-05-08T14:12:18.000Z</time>
      </trkpt>
      <trkpt lat="48.89421" lon="0.13472">
        <ele>230.39999389648</ele>
        <time>2016-05-08T14:12:22.000Z</time>
      </trkpt>
      <trkpt lat="48.89427" lon="0.13464">
        <ele>230.80000305176</ele>
        <time>2016-05-08T14:12:30.000Z</time>
      </trkpt>
      <trkpt lat="48.89428" lon="0.13463">
        <ele>230.80000305176</ele>
        <time>2016-05-08T14:12:31.000Z</time>
      </trkpt>
      <trkpt lat="48.89433" lon="0.13459">
        <ele>231</ele>
        <time>2016-05-08T14:12:35.000Z</time>
      </trkpt>
      <trkpt lat="48.89434" lon="0.13458">
        <ele>231</ele>
        <time>2016-05-08T14:12:36.000Z</time>
      </trkpt>
      <trkpt lat="48.89439" lon="0.13453">
        <ele>231.39999389648</ele>
        <time>2016-05-08T14:12:41.000Z</time>
      </trkpt>
      <trkpt lat="48.89442" lon="0.13451">
        <ele>231.80000305176</ele>
        <time>2016-05-08T14:12:44.000Z</time>
      </trkpt>
      <trkpt lat="48.89443" lon="0.1345">
        <ele>231.80000305176</ele>
        <time>2016-05-08T14:12:45.000Z</time>
      </trkpt>
      <trkpt lat="48.89447" lon="0.13443">
        <ele>232</ele>
        <time>2016-05-08T14:12:51.000Z</time>
      </trkpt>
      <trkpt lat="48.89454" lon="0.13434">
        <ele>232.19999694824</ele>
        <time>2016-05-08T14:12:59.000Z</time>
      </trkpt>
      <trkpt lat="48.8946" lon="0.13425">
        <ele>232.39999389648</ele>
        <time>2016-05-08T14:13:06.000Z</time>
      </trkpt>
      <trkpt lat="48.89461" lon="0.13424">
        <ele>232.60000610352</ele>
        <time>2016-05-08T14:13:07.000Z</time>
      </trkpt>
      <trkpt lat="48.89464" lon="0.13421">
        <ele>232.60000610352</ele>
        <time>2016-05-08T14:13:10.000Z</time>
      </trkpt>
      <trkpt lat="48.89468" lon="0.13416">
        <ele>233</ele>
        <time>2016-05-08T14:13:14.000Z</time>
      </trkpt>
      <trkpt lat="48.89475" lon="0.13407">
        <ele>233.60000610352</ele>
        <time>2016-05-08T14:13:22.000Z</time>
      </trkpt>
      <trkpt lat="48.89477" lon="0.13404">
        <ele>234</ele>
        <time>2016-05-08T14:13:25.000Z</time>
      </trkpt>
      <trkpt lat="48.8948" lon="0.13399">
        <ele>234.60000610352</ele>
        <time>2016-05-08T14:13:28.000Z</time>
      </trkpt>
      <trkpt lat="48.89484" lon="0.13392">
        <ele>235.39999389648</ele>
        <time>2016-05-08T14:13:33.000Z</time>
      </trkpt>
      <trkpt lat="48.89485" lon="0.13391">
        <ele>235.80000305176</ele>
        <time>2016-05-08T14:13:34.000Z</time>
      </trkpt>
      <trkpt lat="48.89489" lon="0.13385">
        <ele>236.60000610352</ele>
        <time>2016-05-08T14:13:39.000Z</time>
      </trkpt>
      <trkpt lat="48.89491" lon="0.13381">
        <ele>237.19999694824</ele>
        <time>2016-05-08T14:13:42.000Z</time>
      </trkpt>
      <trkpt lat="48.89494" lon="0.13378">
        <ele>237.60000610352</ele>
        <time>2016-05-08T14:13:45.000Z</time>
      </trkpt>
      <trkpt lat="48.89498" lon="0.13373">
        <ele>238.39999389648</ele>
        <time>2016-05-08T14:13:52.000Z</time>
      </trkpt>
      <trkpt lat="48.89486" lon="0.13354">
        <ele>236.19999694824</ele>
        <time>2016-05-08T14:16:51.000Z</time>
      </trkpt>
      <trkpt lat="48.8948" lon="0.13349">
        <ele>235.19999694824</ele>
        <time>2016-05-08T14:16:57.000Z</time>
      </trkpt>
      <trkpt lat="48.89472" lon="0.13344">
        <ele>233.80000305176</ele>
        <time>2016-05-08T14:17:04.000Z</time>
      </trkpt>
      <trkpt lat="48.89464" lon="0.13338">
        <ele>232.39999389648</ele>
        <time>2016-05-08T14:17:11.000Z</time>
      </trkpt>
      <trkpt lat="48.89454" lon="0.13334">
        <ele>230.60000610352</ele>
        <time>2016-05-08T14:17:20.000Z</time>
      </trkpt>
      <trkpt lat="48.89446" lon="0.13332">
        <ele>229.19999694824</ele>
        <time>2016-05-08T14:17:26.000Z</time>
      </trkpt>
      <trkpt lat="48.89443" lon="0.13329">
        <ele>228.39999389648</ele>
        <time>2016-05-08T14:17:30.000Z</time>
      </trkpt>
      <trkpt lat="48.89439" lon="0.13327">
        <ele>227.80000305176</ele>
        <time>2016-05-08T14:17:33.000Z</time>
      </trkpt>
      <trkpt lat="48.89431" lon="0.13324">
        <ele>226.19999694824</ele>
        <time>2016-05-08T14:17:40.000Z</time>
      </trkpt>
      <trkpt lat="48.89421" lon="0.13319">
        <ele>224.19999694824</ele>
        <time>2016-05-08T14:17:47.000Z</time>
      </trkpt>
      <trkpt lat="48.89411" lon="0.13315">
        <ele>222</ele>
        <time>2016-05-08T14:17:55.000Z</time>
      </trkpt>
      <trkpt lat="48.89401" lon="0.1331">
        <ele>220</ele>
        <time>2016-05-08T14:18:03.000Z</time>
      </trkpt>
      <trkpt lat="48.89394" lon="0.13306">
        <ele>218.60000610352</ele>
        <time>2016-05-08T14:18:09.000Z</time>
      </trkpt>
      <trkpt lat="48.89393" lon="0.13304">
        <ele>218.39999389648</ele>
        <time>2016-05-08T14:18:10.000Z</time>
      </trkpt>
      <trkpt lat="48.89389" lon="0.13294">
        <ele>217.60000610352</ele>
        <time>2016-05-08T14:18:16.000Z</time>
      </trkpt>
      <trkpt lat="48.89387" lon="0.13286">
        <ele>217.19999694824</ele>
        <time>2016-05-08T14:18:20.000Z</time>
      </trkpt>
      <trkpt lat="48.89386" lon="0.13277">
        <ele>217.19999694824</ele>
        <time>2016-05-08T14:18:24.000Z</time>
      </trkpt>
      <trkpt lat="48.89385" lon="0.13265">
        <ele>217</ele>
        <time>2016-05-08T14:18:30.000Z</time>
      </trkpt>
      <trkpt lat="48.89385" lon="0.13263">
        <ele>217.19999694824</ele>
        <time>2016-05-08T14:18:31.000Z</time>
      </trkpt>
      <trkpt lat="48.89386" lon="0.13254">
        <ele>217.39999389648</ele>
        <time>2016-05-08T14:18:35.000Z</time>
      </trkpt>
      <trkpt lat="48.89386" lon="0.1325">
        <ele>217.39999389648</ele>
        <time>2016-05-08T14:18:37.000Z</time>
      </trkpt>
      <trkpt lat="48.89386" lon="0.13235">
        <ele>217.60000610352</ele>
        <time>2016-05-08T14:18:45.000Z</time>
      </trkpt>
      <trkpt lat="48.89384" lon="0.1322">
        <ele>217</ele>
        <time>2016-05-08T14:18:52.000Z</time>
      </trkpt>
      <trkpt lat="48.89381" lon="0.13213">
        <ele>216.39999389648</ele>
        <time>2016-05-08T14:18:56.000Z</time>
      </trkpt>
      <trkpt lat="48.8938" lon="0.13213">
        <ele>216.19999694824</ele>
        <time>2016-05-08T14:18:58.000Z</time>
      </trkpt>
      <trkpt lat="48.89372" lon="0.13205">
        <ele>213.80000305176</ele>
        <time>2016-05-08T14:19:13.000Z</time>
      </trkpt>
      <trkpt lat="48.89368" lon="0.13203">
        <ele>212.80000305176</ele>
        <time>2016-05-08T14:19:16.000Z</time>
      </trkpt>
      <trkpt lat="48.89356" lon="0.13202">
        <ele>210.60000610352</ele>
        <time>2016-05-08T14:19:25.000Z</time>
      </trkpt>
      <trkpt lat="48.89344" lon="0.13205">
        <ele>209.39999389648</ele>
        <time>2016-05-08T14:19:33.000Z</time>
      </trkpt>
      <trkpt lat="48.89335" lon="0.13209">
        <ele>207.80000305176</ele>
        <time>2016-05-08T14:19:40.000Z</time>
      </trkpt>
      <trkpt lat="48.89326" lon="0.13213">
        <ele>206.19999694824</ele>
        <time>2016-05-08T14:19:47.000Z</time>
      </trkpt>
      <trkpt lat="48.8932" lon="0.13216">
        <ele>205</ele>
        <time>2016-05-08T14:19:52.000Z</time>
      </trkpt>
      <trkpt lat="48.8931" lon="0.13221">
        <ele>203</ele>
        <time>2016-05-08T14:19:59.000Z</time>
      </trkpt>
      <trkpt lat="48.89298" lon="0.13226">
        <ele>200.60000610352</ele>
        <time>2016-05-08T14:20:08.000Z</time>
      </trkpt>
      <trkpt lat="48.89291" lon="0.1323">
        <ele>199.19999694824</ele>
        <time>2016-05-08T14:20:14.000Z</time>
      </trkpt>
      <trkpt lat="48.89282" lon="0.13236">
        <ele>197.60000610352</ele>
        <time>2016-05-08T14:20:22.000Z</time>
      </trkpt>
      <trkpt lat="48.89272" lon="0.13246">
        <ele>196</ele>
        <time>2016-05-08T14:20:31.000Z</time>
      </trkpt>
      <trkpt lat="48.89265" lon="0.1326">
        <ele>195.80000305176</ele>
        <time>2016-05-08T14:20:39.000Z</time>
      </trkpt>
      <trkpt lat="48.8926" lon="0.13272">
        <ele>195.60000610352</ele>
        <time>2016-05-08T14:20:46.000Z</time>
      </trkpt>
      <trkpt lat="48.89256" lon="0.13278">
        <ele>195.39999389648</ele>
        <time>2016-05-08T14:20:52.000Z</time>
      </trkpt>
      <trkpt lat="48.89253" lon="0.13281">
        <ele>195</ele>
        <time>2016-05-08T14:20:56.000Z</time>
      </trkpt>
      <trkpt lat="48.89251" lon="0.1328">
        <ele>195</ele>
        <time>2016-05-08T14:20:58.000Z</time>
      </trkpt>
      <trkpt lat="48.89243" lon="0.13277">
        <ele>194.39999389648</ele>
        <time>2016-05-08T14:21:05.000Z</time>
      </trkpt>
      <trkpt lat="48.89231" lon="0.13268">
        <ele>194</ele>
        <time>2016-05-08T14:21:14.000Z</time>
      </trkpt>
      <trkpt lat="48.89226" lon="0.13261">
        <ele>193.80000305176</ele>
        <time>2016-05-08T14:21:19.000Z</time>
      </trkpt>
      <trkpt lat="48.8922" lon="0.13251">
        <ele>193.80000305176</ele>
        <time>2016-05-08T14:21:25.000Z</time>
      </trkpt>
      <trkpt lat="48.89216" lon="0.13245">
        <ele>193.60000610352</ele>
        <time>2016-05-08T14:21:31.000Z</time>
      </trkpt>
      <trkpt lat="48.89207" lon="0.13238">
        <ele>193.19999694824</ele>
        <time>2016-05-08T14:21:51.000Z</time>
      </trkpt>
      <trkpt lat="48.89204" lon="0.13233">
        <ele>193.19999694824</ele>
        <time>2016-05-08T14:21:54.000Z</time>
      </trkpt>
      <trkpt lat="48.89199" lon="0.13224">
        <ele>193.19999694824</ele>
        <time>2016-05-08T14:21:59.000Z</time>
      </trkpt>
      <trkpt lat="48.89197" lon="0.13221">
        <ele>193.19999694824</ele>
        <time>2016-05-08T14:22:01.000Z</time>
      </trkpt>
      <trkpt lat="48.89195" lon="0.13215">
        <ele>193.19999694824</ele>
        <time>2016-05-08T14:22:04.000Z</time>
      </trkpt>
      <trkpt lat="48.89193" lon="0.1321">
        <ele>193.19999694824</ele>
        <time>2016-05-08T14:22:07.000Z</time>
      </trkpt>
      <trkpt lat="48.89192" lon="0.13207">
        <ele>193.19999694824</ele>
        <time>2016-05-08T14:22:09.000Z</time>
      </trkpt>
      <trkpt lat="48.89187" lon="0.13198">
        <ele>193.39999389648</ele>
        <time>2016-05-08T14:22:14.000Z</time>
      </trkpt>
      <trkpt lat="48.89186" lon="0.13196">
        <ele>193.39999389648</ele>
        <time>2016-05-08T14:22:15.000Z</time>
      </trkpt>
      <trkpt lat="48.89184" lon="0.1319">
        <ele>193.80000305176</ele>
        <time>2016-05-08T14:22:19.000Z</time>
      </trkpt>
      <trkpt lat="48.89177" lon="0.13175">
        <ele>194.39999389648</ele>
        <time>2016-05-08T14:22:24.000Z</time>
      </trkpt>
      <trkpt lat="48.89173" lon="0.13168">
        <ele>194.80000305176</ele>
        <time>2016-05-08T14:22:27.000Z</time>
      </trkpt>
      <trkpt lat="48.89171" lon="0.13164">
        <ele>195</ele>
        <time>2016-05-08T14:22:29.000Z</time>
      </trkpt>
      <trkpt lat="48.89168" lon="0.13158">
        <ele>195.19999694824</ele>
        <time>2016-05-08T14:22:33.000Z</time>
      </trkpt>
      <trkpt lat="48.89167" lon="0.13156">
        <ele>195.19999694824</ele>
        <time>2016-05-08T14:22:34.000Z</time>
      </trkpt>
      <trkpt lat="48.89162" lon="0.13146">
        <ele>195.80000305176</ele>
        <time>2016-05-08T14:22:40.000Z</time>
      </trkpt>
      <trkpt lat="48.89157" lon="0.1314">
        <ele>196.19999694824</ele>
        <time>2016-05-08T14:22:45.000Z</time>
      </trkpt>
      <trkpt lat="48.8915" lon="0.13133">
        <ele>196.80000305176</ele>
        <time>2016-05-08T14:22:51.000Z</time>
      </trkpt>
      <trkpt lat="48.89143" lon="0.13128">
        <ele>197.39999389648</ele>
        <time>2016-05-08T14:22:57.000Z</time>
      </trkpt>
      <trkpt lat="48.8913" lon="0.13124">
        <ele>198.60000610352</ele>
        <time>2016-05-08T14:23:06.000Z</time>
      </trkpt>
      <trkpt lat="48.8912" lon="0.13125">
        <ele>199.19999694824</ele>
        <time>2016-05-08T14:23:14.000Z</time>
      </trkpt>
      <trkpt lat="48.89114" lon="0.13126">
        <ele>199.60000610352</ele>
        <time>2016-05-08T14:23:18.000Z</time>
      </trkpt>
      <trkpt lat="48.8911" lon="0.13127">
        <ele>199.80000305176</ele>
        <time>2016-05-08T14:23:21.000Z</time>
      </trkpt>
      <trkpt lat="48.89099" lon="0.13129">
        <ele>199.80000305176</ele>
        <time>2016-05-08T14:23:30.000Z</time>
      </trkpt>
      <trkpt lat="48.8909" lon="0.13131">
        <ele>199.60000610352</ele>
        <time>2016-05-08T14:23:37.000Z</time>
      </trkpt>
      <trkpt lat="48.89077" lon="0.13135">
        <ele>199.19999694824</ele>
        <time>2016-05-08T14:23:48.000Z</time>
      </trkpt>
      <trkpt lat="48.8907" lon="0.13138">
        <ele>199</ele>
        <time>2016-05-08T14:23:54.000Z</time>
      </trkpt>
      <trkpt lat="48.89061" lon="0.1314">
        <ele>198.80000305176</ele>
        <time>2016-05-08T14:24:02.000Z</time>
      </trkpt>
      <trkpt lat="48.89055" lon="0.1314">
        <ele>198.80000305176</ele>
        <time>2016-05-08T14:24:08.000Z</time>
      </trkpt>
      <trkpt lat="48.89054" lon="0.13139">
        <ele>198.80000305176</ele>
        <time>2016-05-08T14:24:09.000Z</time>
      </trkpt>
      <trkpt lat="48.89052" lon="0.13135">
        <ele>199.19999694824</ele>
        <time>2016-05-08T14:24:13.000Z</time>
      </trkpt>
      <trkpt lat="48.89051" lon="0.13133">
        <ele>199.39999389648</ele>
        <time>2016-05-08T14:24:15.000Z</time>
      </trkpt>
      <trkpt lat="48.89049" lon="0.13127">
        <ele>200</ele>
        <time>2016-05-08T14:24:19.000Z</time>
      </trkpt>
      <trkpt lat="48.89047" lon="0.13124">
        <ele>200.19999694824</ele>
        <time>2016-05-08T14:24:22.000Z</time>
      </trkpt>
      <trkpt lat="48.89044" lon="0.13119">
        <ele>200.60000610352</ele>
        <time>2016-05-08T14:24:27.000Z</time>
      </trkpt>
      <trkpt lat="48.89043" lon="0.13117">
        <ele>200.80000305176</ele>
        <time>2016-05-08T14:24:28.000Z</time>
      </trkpt>
      <trkpt lat="48.8904" lon="0.1311">
        <ele>201.39999389648</ele>
        <time>2016-05-08T14:24:34.000Z</time>
      </trkpt>
      <trkpt lat="48.89039" lon="0.13109">
        <ele>201.60000610352</ele>
        <time>2016-05-08T14:24:35.000Z</time>
      </trkpt>
      <trkpt lat="48.89034" lon="0.13097">
        <ele>202.60000610352</ele>
        <time>2016-05-08T14:24:42.000Z</time>
      </trkpt>
      <trkpt lat="48.89029" lon="0.13085">
        <ele>203.60000610352</ele>
        <time>2016-05-08T14:24:49.000Z</time>
      </trkpt>
      <trkpt lat="48.89021" lon="0.13067">
        <ele>205</ele>
        <time>2016-05-08T14:24:59.000Z</time>
      </trkpt>
      <trkpt lat="48.89016" lon="0.1306">
        <ele>205.60000610352</ele>
        <time>2016-05-08T14:25:05.000Z</time>
      </trkpt>
      <trkpt lat="48.89012" lon="0.13045">
        <ele>206.80000305176</ele>
        <time>2016-05-08T14:25:13.000Z</time>
      </trkpt>
      <trkpt lat="48.8901" lon="0.13037">
        <ele>208</ele>
        <time>2016-05-08T14:25:18.000Z</time>
      </trkpt>
      <trkpt lat="48.89009" lon="0.13034">
        <ele>208.19999694824</ele>
        <time>2016-05-08T14:25:20.000Z</time>
      </trkpt>
      <trkpt lat="48.89008" lon="0.13031">
        <ele>208.80000305176</ele>
        <time>2016-05-08T14:25:22.000Z</time>
      </trkpt>
      <trkpt lat="48.89007" lon="0.13021">
        <ele>210</ele>
        <time>2016-05-08T14:25:27.000Z</time>
      </trkpt>
      <trkpt lat="48.89007" lon="0.13016">
        <ele>210.60000610352</ele>
        <time>2016-05-08T14:25:30.000Z</time>
      </trkpt>
      <trkpt lat="48.89006" lon="0.1301">
        <ele>211.19999694824</ele>
        <time>2016-05-08T14:25:33.000Z</time>
      </trkpt>
      <trkpt lat="48.89005" lon="0.13008">
        <ele>211.60000610352</ele>
        <time>2016-05-08T14:25:34.000Z</time>
      </trkpt>
      <trkpt lat="48.89002" lon="0.12992">
        <ele>213.39999389648</ele>
        <time>2016-05-08T14:25:42.000Z</time>
      </trkpt>
      <trkpt lat="48.89" lon="0.1298">
        <ele>215</ele>
        <time>2016-05-08T14:25:49.000Z</time>
      </trkpt>
      <trkpt lat="48.88998" lon="0.12973">
        <ele>215.80000305176</ele>
        <time>2016-05-08T14:25:53.000Z</time>
      </trkpt>
      <trkpt lat="48.88997" lon="0.12968">
        <ele>216.39999389648</ele>
        <time>2016-05-08T14:25:56.000Z</time>
      </trkpt>
      <trkpt lat="48.88997" lon="0.12966">
        <ele>216.60000610352</ele>
        <time>2016-05-08T14:25:57.000Z</time>
      </trkpt>
      <trkpt lat="48.88996" lon="0.12955">
        <ele>217.80000305176</ele>
        <time>2016-05-08T14:26:03.000Z</time>
      </trkpt>
      <trkpt lat="48.88996" lon="0.12952">
        <ele>218</ele>
        <time>2016-05-08T14:26:05.000Z</time>
      </trkpt>
      <trkpt lat="48.88994" lon="0.12943">
        <ele>218.80000305176</ele>
        <time>2016-05-08T14:26:08.000Z</time>
      </trkpt>
      <trkpt lat="48.88992" lon="0.12937">
        <ele>219.39999389648</ele>
        <time>2016-05-08T14:26:12.000Z</time>
      </trkpt>
      <trkpt lat="48.88992" lon="0.12932">
        <ele>219.80000305176</ele>
        <time>2016-05-08T14:26:14.000Z</time>
      </trkpt>
      <trkpt lat="48.88989" lon="0.12921">
        <ele>220.80000305176</ele>
        <time>2016-05-08T14:26:20.000Z</time>
      </trkpt>
      <trkpt lat="48.88985" lon="0.12901">
        <ele>222.60000610352</ele>
        <time>2016-05-08T14:26:30.000Z</time>
      </trkpt>
      <trkpt lat="48.88984" lon="0.1289">
        <ele>223.80000305176</ele>
        <time>2016-05-08T14:26:36.000Z</time>
      </trkpt>
      <trkpt lat="48.88984" lon="0.12886">
        <ele>224.19999694824</ele>
        <time>2016-05-08T14:26:38.000Z</time>
      </trkpt>
      <trkpt lat="48.88984" lon="0.12879">
        <ele>224.80000305176</ele>
        <time>2016-05-08T14:26:42.000Z</time>
      </trkpt>
      <trkpt lat="48.88983" lon="0.12869">
        <ele>225.39999389648</ele>
        <time>2016-05-08T14:26:48.000Z</time>
      </trkpt>
      <trkpt lat="48.88984" lon="0.12867">
        <ele>225.60000610352</ele>
        <time>2016-05-08T14:26:49.000Z</time>
      </trkpt>
      <trkpt lat="48.88983" lon="0.12854">
        <ele>226</ele>
        <time>2016-05-08T14:26:56.000Z</time>
      </trkpt>
      <trkpt lat="48.88983" lon="0.12849">
        <ele>226.39999389648</ele>
        <time>2016-05-08T14:26:59.000Z</time>
      </trkpt>
      <trkpt lat="48.88982" lon="0.12842">
        <ele>226.60000610352</ele>
        <time>2016-05-08T14:27:03.000Z</time>
      </trkpt>
      <trkpt lat="48.88982" lon="0.12834">
        <ele>227.19999694824</ele>
        <time>2016-05-08T14:27:07.000Z</time>
      </trkpt>
      <trkpt lat="48.88983" lon="0.1283">
        <ele>227.60000610352</ele>
        <time>2016-05-08T14:27:09.000Z</time>
      </trkpt>
      <trkpt lat="48.88983" lon="0.12828">
        <ele>227.80000305176</ele>
        <time>2016-05-08T14:27:10.000Z</time>
      </trkpt>
      <trkpt lat="48.88982" lon="0.12819">
        <ele>228.80000305176</ele>
        <time>2016-05-08T14:27:15.000Z</time>
      </trkpt>
      <trkpt lat="48.88982" lon="0.12817">
        <ele>229</ele>
        <time>2016-05-08T14:27:16.000Z</time>
      </trkpt>
      <trkpt lat="48.88983" lon="0.1281">
        <ele>229.80000305176</ele>
        <time>2016-05-08T14:27:19.000Z</time>
      </trkpt>
      <trkpt lat="48.88983" lon="0.12803">
        <ele>230.60000610352</ele>
        <time>2016-05-08T14:27:23.000Z</time>
      </trkpt>
      <trkpt lat="48.88982" lon="0.12789">
        <ele>231.60000610352</ele>
        <time>2016-05-08T14:27:29.000Z</time>
      </trkpt>
      <trkpt lat="48.88981" lon="0.12784">
        <ele>231.60000610352</ele>
        <time>2016-05-08T14:27:32.000Z</time>
      </trkpt>
      <trkpt lat="48.88979" lon="0.12778">
        <ele>231.60000610352</ele>
        <time>2016-05-08T14:27:35.000Z</time>
      </trkpt>
      <trkpt lat="48.88979" lon="0.12768">
        <ele>231.60000610352</ele>
        <time>2016-05-08T14:27:41.000Z</time>
      </trkpt>
      <trkpt lat="48.8898" lon="0.12753">
        <ele>231.80000305176</ele>
        <time>2016-05-08T14:27:49.000Z</time>
      </trkpt>
      <trkpt lat="48.88981" lon="0.12737">
        <ele>232.80000305176</ele>
        <time>2016-05-08T14:27:57.000Z</time>
      </trkpt>
      <trkpt lat="48.88982" lon="0.12734">
        <ele>233.19999694824</ele>
        <time>2016-05-08T14:27:59.000Z</time>
      </trkpt>
      <trkpt lat="48.88983" lon="0.12728">
        <ele>233.60000610352</ele>
        <time>2016-05-08T14:28:03.000Z</time>
      </trkpt>
      <trkpt lat="48.88983" lon="0.1272">
        <ele>234</ele>
        <time>2016-05-08T14:28:07.000Z</time>
      </trkpt>
      <trkpt lat="48.88983" lon="0.12718">
        <ele>234.19999694824</ele>
        <time>2016-05-08T14:28:08.000Z</time>
      </trkpt>
      <trkpt lat="48.88984" lon="0.12716">
        <ele>234.39999389648</ele>
        <time>2016-05-08T14:28:09.000Z</time>
      </trkpt>
      <trkpt lat="48.88984" lon="0.1271">
        <ele>234.80000305176</ele>
        <time>2016-05-08T14:28:12.000Z</time>
      </trkpt>
      <trkpt lat="48.88986" lon="0.12699">
        <ele>234.80000305176</ele>
        <time>2016-05-08T14:28:18.000Z</time>
      </trkpt>
      <trkpt lat="48.88988" lon="0.12694">
        <ele>234.80000305176</ele>
        <time>2016-05-08T14:28:21.000Z</time>
      </trkpt>
      <trkpt lat="48.88988" lon="0.1269">
        <ele>234.60000610352</ele>
        <time>2016-05-08T14:28:23.000Z</time>
      </trkpt>
      <trkpt lat="48.88988" lon="0.12688">
        <ele>234.60000610352</ele>
        <time>2016-05-08T14:28:24.000Z</time>
      </trkpt>
      <trkpt lat="48.88989" lon="0.12681">
        <ele>234.60000610352</ele>
        <time>2016-05-08T14:28:28.000Z</time>
      </trkpt>
      <trkpt lat="48.8899" lon="0.12674">
        <ele>234.60000610352</ele>
        <time>2016-05-08T14:28:32.000Z</time>
      </trkpt>
      <trkpt lat="48.8899" lon="0.1267">
        <ele>234.60000610352</ele>
        <time>2016-05-08T14:28:34.000Z</time>
      </trkpt>
      <trkpt lat="48.88991" lon="0.12666">
        <ele>234.60000610352</ele>
        <time>2016-05-08T14:28:36.000Z</time>
      </trkpt>
      <trkpt lat="48.88994" lon="0.12658">
        <ele>234.80000305176</ele>
        <time>2016-05-08T14:28:41.000Z</time>
      </trkpt>
      <trkpt lat="48.88995" lon="0.12644">
        <ele>234.80000305176</ele>
        <time>2016-05-08T14:28:48.000Z</time>
      </trkpt>
      <trkpt lat="48.88999" lon="0.1263">
        <ele>235</ele>
        <time>2016-05-08T14:28:57.000Z</time>
      </trkpt>
      <trkpt lat="48.89" lon="0.12615">
        <ele>235</ele>
        <time>2016-05-08T14:29:05.000Z</time>
      </trkpt>
      <trkpt lat="48.89001" lon="0.12607">
        <ele>235</ele>
        <time>2016-05-08T14:29:10.000Z</time>
      </trkpt>
      <trkpt lat="48.89002" lon="0.12603">
        <ele>234.80000305176</ele>
        <time>2016-05-08T14:29:12.000Z</time>
      </trkpt>
      <trkpt lat="48.89002" lon="0.12596">
        <ele>234.80000305176</ele>
        <time>2016-05-08T14:29:15.000Z</time>
      </trkpt>
      <trkpt lat="48.89002" lon="0.12588">
        <ele>234.80000305176</ele>
        <time>2016-05-08T14:29:18.000Z</time>
      </trkpt>
      <trkpt lat="48.89004" lon="0.12578">
        <ele>234.80000305176</ele>
        <time>2016-05-08T14:29:22.000Z</time>
      </trkpt>
      <trkpt lat="48.89004" lon="0.12573">
        <ele>234.80000305176</ele>
        <time>2016-05-08T14:29:24.000Z</time>
      </trkpt>
      <trkpt lat="48.89005" lon="0.1256">
        <ele>234.80000305176</ele>
        <time>2016-05-08T14:29:29.000Z</time>
      </trkpt>
      <trkpt lat="48.89005" lon="0.12558">
        <ele>234.80000305176</ele>
        <time>2016-05-08T14:29:30.000Z</time>
      </trkpt>
      <trkpt lat="48.89006" lon="0.12546">
        <ele>234.60000610352</ele>
        <time>2016-05-08T14:29:36.000Z</time>
      </trkpt>
      <trkpt lat="48.89006" lon="0.12534">
        <ele>235</ele>
        <time>2016-05-08T14:29:41.000Z</time>
      </trkpt>
      <trkpt lat="48.89006" lon="0.12522">
        <ele>235.19999694824</ele>
        <time>2016-05-08T14:29:48.000Z</time>
      </trkpt>
      <trkpt lat="48.89007" lon="0.12513">
        <ele>235.39999389648</ele>
        <time>2016-05-08T14:29:53.000Z</time>
      </trkpt>
      <trkpt lat="48.89008" lon="0.12511">
        <ele>235.60000610352</ele>
        <time>2016-05-08T14:29:54.000Z</time>
      </trkpt>
      <trkpt lat="48.89009" lon="0.12506">
        <ele>235.80000305176</ele>
        <time>2016-05-08T14:29:57.000Z</time>
      </trkpt>
      <trkpt lat="48.89009" lon="0.12504">
        <ele>235.80000305176</ele>
        <time>2016-05-08T14:29:58.000Z</time>
      </trkpt>
      <trkpt lat="48.8901" lon="0.12499">
        <ele>236</ele>
        <time>2016-05-08T14:30:00.000Z</time>
      </trkpt>
      <trkpt lat="48.89011" lon="0.1249">
        <ele>236.19999694824</ele>
        <time>2016-05-08T14:30:04.000Z</time>
      </trkpt>
      <trkpt lat="48.89011" lon="0.12489">
        <ele>236.19999694824</ele>
        <time>2016-05-08T14:30:05.000Z</time>
      </trkpt>
      <trkpt lat="48.89012" lon="0.1248">
        <ele>236.39999389648</ele>
        <time>2016-05-08T14:30:09.000Z</time>
      </trkpt>
      <trkpt lat="48.89012" lon="0.12477">
        <ele>236.39999389648</ele>
        <time>2016-05-08T14:30:10.000Z</time>
      </trkpt>
      <trkpt lat="48.89013" lon="0.12463">
        <ele>236.80000305176</ele>
        <time>2016-05-08T14:30:16.000Z</time>
      </trkpt>
      <trkpt lat="48.89015" lon="0.1245">
        <ele>236.80000305176</ele>
        <time>2016-05-08T14:30:23.000Z</time>
      </trkpt>
      <trkpt lat="48.89015" lon="0.12446">
        <ele>236.80000305176</ele>
        <time>2016-05-08T14:30:25.000Z</time>
      </trkpt>
      <trkpt lat="48.89017" lon="0.12435">
        <ele>237</ele>
        <time>2016-05-08T14:30:31.000Z</time>
      </trkpt>
      <trkpt lat="48.89016" lon="0.12431">
        <ele>237</ele>
        <time>2016-05-08T14:30:33.000Z</time>
      </trkpt>
      <trkpt lat="48.89017" lon="0.12428">
        <ele>237.19999694824</ele>
        <time>2016-05-08T14:30:35.000Z</time>
      </trkpt>
      <trkpt lat="48.89019" lon="0.12414">
        <ele>237.39999389648</ele>
        <time>2016-05-08T14:30:42.000Z</time>
      </trkpt>
      <trkpt lat="48.8902" lon="0.12412">
        <ele>237.39999389648</ele>
        <time>2016-05-08T14:30:43.000Z</time>
      </trkpt>
      <trkpt lat="48.89021" lon="0.12404">
        <ele>237.80000305176</ele>
        <time>2016-05-08T14:30:47.000Z</time>
      </trkpt>
      <trkpt lat="48.89023" lon="0.12396">
        <ele>238</ele>
        <time>2016-05-08T14:30:51.000Z</time>
      </trkpt>
      <trkpt lat="48.89026" lon="0.12379">
        <ele>238</ele>
        <time>2016-05-08T14:30:59.000Z</time>
      </trkpt>
      <trkpt lat="48.89027" lon="0.12376">
        <ele>238</ele>
        <time>2016-05-08T14:31:01.000Z</time>
      </trkpt>
      <trkpt lat="48.89029" lon="0.1237">
        <ele>238.19999694824</ele>
        <time>2016-05-08T14:31:05.000Z</time>
      </trkpt>
      <trkpt lat="48.89029" lon="0.12369">
        <ele>238.19999694824</ele>
        <time>2016-05-08T14:31:07.000Z</time>
      </trkpt>
      <trkpt lat="48.89039" lon="0.12309">
        <ele>238.39999389648</ele>
        <time>2016-05-08T14:31:58.000Z</time>
      </trkpt>
      <trkpt lat="48.89039" lon="0.12307">
        <ele>238.39999389648</ele>
        <time>2016-05-08T14:31:59.000Z</time>
      </trkpt>
      <trkpt lat="48.89039" lon="0.12303">
        <ele>238.60000610352</ele>
        <time>2016-05-08T14:32:03.000Z</time>
      </trkpt>
      <trkpt lat="48.89044" lon="0.1223">
        <ele>240</ele>
        <time>2016-05-08T14:37:42.000Z</time>
      </trkpt>
      <trkpt lat="48.89045" lon="0.12228">
        <ele>240</ele>
        <time>2016-05-08T14:37:43.000Z</time>
      </trkpt>
      <trkpt lat="48.89046" lon="0.12215">
        <ele>240.19999694824</ele>
        <time>2016-05-08T14:37:51.000Z</time>
      </trkpt>
      <trkpt lat="48.89046" lon="0.122">
        <ele>240.60000610352</ele>
        <time>2016-05-08T14:38:00.000Z</time>
      </trkpt>
      <trkpt lat="48.89047" lon="0.12182">
        <ele>241.19999694824</ele>
        <time>2016-05-08T14:38:11.000Z</time>
      </trkpt>
      <trkpt lat="48.89048" lon="0.12169">
        <ele>241.39999389648</ele>
        <time>2016-05-08T14:38:19.000Z</time>
      </trkpt>
      <trkpt lat="48.89049" lon="0.12153">
        <ele>242</ele>
        <time>2016-05-08T14:38:28.000Z</time>
      </trkpt>
      <trkpt lat="48.89048" lon="0.12144">
        <ele>242.19999694824</ele>
        <time>2016-05-08T14:38:34.000Z</time>
      </trkpt>
      <trkpt lat="48.8905" lon="0.12137">
        <ele>242.80000305176</ele>
        <time>2016-05-08T14:38:38.000Z</time>
      </trkpt>
      <trkpt lat="48.89051" lon="0.12135">
        <ele>243</ele>
        <time>2016-05-08T14:38:40.000Z</time>
      </trkpt>
      <trkpt lat="48.89051" lon="0.12131">
        <ele>243.19999694824</ele>
        <time>2016-05-08T14:38:43.000Z</time>
      </trkpt>
      <trkpt lat="48.89051" lon="0.12126">
        <ele>243.39999389648</ele>
        <time>2016-05-08T14:38:46.000Z</time>
      </trkpt>
      <trkpt lat="48.89052" lon="0.12126">
        <ele>243.39999389648</ele>
        <time>2016-05-08T14:38:47.000Z</time>
      </trkpt>
      <trkpt lat="48.89054" lon="0.12118">
        <ele>244.19999694824</ele>
        <time>2016-05-08T14:38:53.000Z</time>
      </trkpt>
      <trkpt lat="48.89056" lon="0.12106">
        <ele>245</ele>
        <time>2016-05-08T14:38:59.000Z</time>
      </trkpt>
      <trkpt lat="48.89057" lon="0.12096">
        <ele>245.80000305176</ele>
        <time>2016-05-08T14:39:05.000Z</time>
      </trkpt>
      <trkpt lat="48.89058" lon="0.12093">
        <ele>245.80000305176</ele>
        <time>2016-05-08T14:39:06.000Z</time>
      </trkpt>
      <trkpt lat="48.89058" lon="0.12087">
        <ele>246.39999389648</ele>
        <time>2016-05-08T14:39:10.000Z</time>
      </trkpt>
      <trkpt lat="48.89059" lon="0.12075">
        <ele>247</ele>
        <time>2016-05-08T14:39:17.000Z</time>
      </trkpt>
      <trkpt lat="48.89061" lon="0.12062">
        <ele>247.60000610352</ele>
        <time>2016-05-08T14:39:25.000Z</time>
      </trkpt>
      <trkpt lat="48.89062" lon="0.12055">
        <ele>248</ele>
        <time>2016-05-08T14:39:30.000Z</time>
      </trkpt>
      <trkpt lat="48.89063" lon="0.1205">
        <ele>248.19999694824</ele>
        <time>2016-05-08T14:39:33.000Z</time>
      </trkpt>
      <trkpt lat="48.89063" lon="0.12048">
        <ele>248.19999694824</ele>
        <time>2016-05-08T14:39:34.000Z</time>
      </trkpt>
      <trkpt lat="48.89066" lon="0.12035">
        <ele>248.80000305176</ele>
        <time>2016-05-08T14:39:42.000Z</time>
      </trkpt>
      <trkpt lat="48.89068" lon="0.12017">
        <ele>249.39999389648</ele>
        <time>2016-05-08T14:39:52.000Z</time>
      </trkpt>
      <trkpt lat="48.8907" lon="0.12004">
        <ele>249.80000305176</ele>
        <time>2016-05-08T14:39:59.000Z</time>
      </trkpt>
      <trkpt lat="48.89072" lon="0.11989">
        <ele>250</ele>
        <time>2016-05-08T14:40:07.000Z</time>
      </trkpt>
      <trkpt lat="48.89073" lon="0.11985">
        <ele>250</ele>
        <time>2016-05-08T14:40:10.000Z</time>
      </trkpt>
      <trkpt lat="48.89075" lon="0.11976">
        <ele>250.19999694824</ele>
        <time>2016-05-08T14:40:14.000Z</time>
      </trkpt>
      <trkpt lat="48.89075" lon="0.11969">
        <ele>250.39999389648</ele>
        <time>2016-05-08T14:40:18.000Z</time>
      </trkpt>
      <trkpt lat="48.89076" lon="0.11966">
        <ele>250.39999389648</ele>
        <time>2016-05-08T14:40:20.000Z</time>
      </trkpt>
      <trkpt lat="48.8908" lon="0.11947">
        <ele>251.60000610352</ele>
        <time>2016-05-08T14:40:30.000Z</time>
      </trkpt>
      <trkpt lat="48.89081" lon="0.11936">
        <ele>252.60000610352</ele>
        <time>2016-05-08T14:40:38.000Z</time>
      </trkpt>
      <trkpt lat="48.89087" lon="0.1191">
        <ele>253.60000610352</ele>
        <time>2016-05-08T14:41:00.000Z</time>
      </trkpt>
      <trkpt lat="48.89088" lon="0.11906">
        <ele>253.80000305176</ele>
        <time>2016-05-08T14:41:03.000Z</time>
      </trkpt>
      <trkpt lat="48.89088" lon="0.11904">
        <ele>253.80000305176</ele>
        <time>2016-05-08T14:41:04.000Z</time>
      </trkpt>
      <trkpt lat="48.89087" lon="0.11897">
        <ele>254</ele>
        <time>2016-05-08T14:41:10.000Z</time>
      </trkpt>
      <trkpt lat="48.89084" lon="0.11886">
        <ele>254.39999389648</ele>
        <time>2016-05-08T14:41:17.000Z</time>
      </trkpt>
      <trkpt lat="48.89083" lon="0.11885">
        <ele>254.39999389648</ele>
        <time>2016-05-08T14:41:18.000Z</time>
      </trkpt>
      <trkpt lat="48.89081" lon="0.11876">
        <ele>254.80000305176</ele>
        <time>2016-05-08T14:41:24.000Z</time>
      </trkpt>
      <trkpt lat="48.89077" lon="0.11864">
        <ele>255.80000305176</ele>
        <time>2016-05-08T14:41:31.000Z</time>
      </trkpt>
      <trkpt lat="48.89076" lon="0.11863">
        <ele>255.80000305176</ele>
        <time>2016-05-08T14:41:32.000Z</time>
      </trkpt>
      <trkpt lat="48.89074" lon="0.11853">
        <ele>256.60000610352</ele>
        <time>2016-05-08T14:41:37.000Z</time>
      </trkpt>
      <trkpt lat="48.89073" lon="0.11842">
        <ele>257.39999389648</ele>
        <time>2016-05-08T14:41:43.000Z</time>
      </trkpt>
      <trkpt lat="48.89072" lon="0.11834">
        <ele>258</ele>
        <time>2016-05-08T14:41:48.000Z</time>
      </trkpt>
      <trkpt lat="48.89071" lon="0.11819">
        <ele>259</ele>
        <time>2016-05-08T14:41:56.000Z</time>
      </trkpt>
      <trkpt lat="48.89069" lon="0.11809">
        <ele>259.60000610352</ele>
        <time>2016-05-08T14:42:01.000Z</time>
      </trkpt>
      <trkpt lat="48.89069" lon="0.11804">
        <ele>259.79998779297</ele>
        <time>2016-05-08T14:42:03.000Z</time>
      </trkpt>
      <trkpt lat="48.89066" lon="0.11792">
        <ele>260.60000610352</ele>
        <time>2016-05-08T14:42:09.000Z</time>
      </trkpt>
      <trkpt lat="48.8906" lon="0.11775">
        <ele>262.20001220703</ele>
        <time>2016-05-08T14:42:18.000Z</time>
      </trkpt>
      <trkpt lat="48.89057" lon="0.11763">
        <ele>263.20001220703</ele>
        <time>2016-05-08T14:42:24.000Z</time>
      </trkpt>
      <trkpt lat="48.89054" lon="0.11746">
        <ele>264.60000610352</ele>
        <time>2016-05-08T14:42:32.000Z</time>
      </trkpt>
      <trkpt lat="48.89055" lon="0.11729">
        <ele>265.39999389648</ele>
        <time>2016-05-08T14:42:41.000Z</time>
      </trkpt>
      <trkpt lat="48.89056" lon="0.11723">
        <ele>265.60000610352</ele>
        <time>2016-05-08T14:42:46.000Z</time>
      </trkpt>
      <trkpt lat="48.8906" lon="0.11696">
        <ele>266</ele>
        <time>2016-05-08T14:43:08.000Z</time>
      </trkpt>
      <trkpt lat="48.8906" lon="0.11694">
        <ele>266.20001220703</ele>
        <time>2016-05-08T14:43:09.000Z</time>
      </trkpt>
      <trkpt lat="48.89061" lon="0.11691">
        <ele>266.20001220703</ele>
        <time>2016-05-08T14:43:11.000Z</time>
      </trkpt>
      <trkpt lat="48.89061" lon="0.11684">
        <ele>266.39999389648</ele>
        <time>2016-05-08T14:43:14.000Z</time>
      </trkpt>
      <trkpt lat="48.89062" lon="0.11674">
        <ele>266.60000610352</ele>
        <time>2016-05-08T14:43:19.000Z</time>
      </trkpt>
      <trkpt lat="48.89061" lon="0.11655">
        <ele>267.39999389648</ele>
        <time>2016-05-08T14:43:29.000Z</time>
      </trkpt>
      <trkpt lat="48.89058" lon="0.11633">
        <ele>268.79998779297</ele>
        <time>2016-05-08T14:43:40.000Z</time>
      </trkpt>
      <trkpt lat="48.89053" lon="0.11617">
        <ele>269</ele>
        <time>2016-05-08T14:43:49.000Z</time>
      </trkpt>
      <trkpt lat="48.89049" lon="0.11602">
        <ele>268.39999389648</ele>
        <time>2016-05-08T14:43:57.000Z</time>
      </trkpt>
      <trkpt lat="48.89044" lon="0.1159">
        <ele>268.20001220703</ele>
        <time>2016-05-08T14:44:04.000Z</time>
      </trkpt>
      <trkpt lat="48.89036" lon="0.11571">
        <ele>267.60000610352</ele>
        <time>2016-05-08T14:44:15.000Z</time>
      </trkpt>
      <trkpt lat="48.8903" lon="0.11553">
        <ele>267.20001220703</ele>
        <time>2016-05-08T14:44:24.000Z</time>
      </trkpt>
      <trkpt lat="48.89026" lon="0.11539">
        <ele>266.79998779297</ele>
        <time>2016-05-08T14:44:31.000Z</time>
      </trkpt>
      <trkpt lat="48.89024" lon="0.11531">
        <ele>266.79998779297</ele>
        <time>2016-05-08T14:44:36.000Z</time>
      </trkpt>
      <trkpt lat="48.89023" lon="0.1153">
        <ele>266.79998779297</ele>
        <time>2016-05-08T14:44:38.000Z</time>
      </trkpt>
      <trkpt lat="48.89021" lon="0.11529">
        <ele>267</ele>
        <time>2016-05-08T14:44:40.000Z</time>
      </trkpt>
      <trkpt lat="48.89019" lon="0.11527">
        <ele>267</ele>
        <time>2016-05-08T14:44:42.000Z</time>
      </trkpt>
      <trkpt lat="48.89017" lon="0.11525">
        <ele>267.20001220703</ele>
        <time>2016-05-08T14:44:45.000Z</time>
      </trkpt>
      <trkpt lat="48.89016" lon="0.11524">
        <ele>267.20001220703</ele>
        <time>2016-05-08T14:44:47.000Z</time>
      </trkpt>
      <trkpt lat="48.89015" lon="0.1144">
        <ele>266.60000610352</ele>
        <time>2016-05-08T14:46:28.000Z</time>
      </trkpt>
      <trkpt lat="48.89015" lon="0.11436">
        <ele>266.79998779297</ele>
        <time>2016-05-08T14:46:30.000Z</time>
      </trkpt>
      <trkpt lat="48.89018" lon="0.1142">
        <ele>267</ele>
        <time>2016-05-08T14:46:38.000Z</time>
      </trkpt>
      <trkpt lat="48.89022" lon="0.11404">
        <ele>267.39999389648</ele>
        <time>2016-05-08T14:46:47.000Z</time>
      </trkpt>
      <trkpt lat="48.89023" lon="0.114">
        <ele>267.39999389648</ele>
        <time>2016-05-08T14:46:49.000Z</time>
      </trkpt>
      <trkpt lat="48.89025" lon="0.11393">
        <ele>267.60000610352</ele>
        <time>2016-05-08T14:46:53.000Z</time>
      </trkpt>
      <trkpt lat="48.89032" lon="0.1138">
        <ele>267.79998779297</ele>
        <time>2016-05-08T14:47:02.000Z</time>
      </trkpt>
      <trkpt lat="48.89032" lon="0.11379">
        <ele>267.79998779297</ele>
        <time>2016-05-08T14:47:03.000Z</time>
      </trkpt>
      <trkpt lat="48.89034" lon="0.11371">
        <ele>267.60000610352</ele>
        <time>2016-05-08T14:47:07.000Z</time>
      </trkpt>
      <trkpt lat="48.89039" lon="0.11363">
        <ele>267.20001220703</ele>
        <time>2016-05-08T14:47:13.000Z</time>
      </trkpt>
      <trkpt lat="48.89039" lon="0.11361">
        <ele>267</ele>
        <time>2016-05-08T14:47:14.000Z</time>
      </trkpt>
      <trkpt lat="48.89043" lon="0.1135">
        <ele>266.60000610352</ele>
        <time>2016-05-08T14:47:21.000Z</time>
      </trkpt>
      <trkpt lat="48.89049" lon="0.11339">
        <ele>266</ele>
        <time>2016-05-08T14:47:29.000Z</time>
      </trkpt>
      <trkpt lat="48.89054" lon="0.11329">
        <ele>265.60000610352</ele>
        <time>2016-05-08T14:47:36.000Z</time>
      </trkpt>
      <trkpt lat="48.89059" lon="0.1132">
        <ele>265.39999389648</ele>
        <time>2016-05-08T14:47:42.000Z</time>
      </trkpt>
      <trkpt lat="48.89065" lon="0.11306">
        <ele>265.39999389648</ele>
        <time>2016-05-08T14:47:51.000Z</time>
      </trkpt>
      <trkpt lat="48.89072" lon="0.11292">
        <ele>265.60000610352</ele>
        <time>2016-05-08T14:48:00.000Z</time>
      </trkpt>
      <trkpt lat="48.89074" lon="0.11287">
        <ele>265.60000610352</ele>
        <time>2016-05-08T14:48:04.000Z</time>
      </trkpt>
      <trkpt lat="48.89076" lon="0.11285">
        <ele>265.60000610352</ele>
        <time>2016-05-08T14:48:06.000Z</time>
      </trkpt>
      <trkpt lat="48.89077" lon="0.11281">
        <ele>265.60000610352</ele>
        <time>2016-05-08T14:48:09.000Z</time>
      </trkpt>
      <trkpt lat="48.89077" lon="0.11279">
        <ele>265.39999389648</ele>
        <time>2016-05-08T14:48:12.000Z</time>
      </trkpt>
      <trkpt lat="48.89077" lon="0.11279">
        <ele>265.39999389648</ele>
        <time>2016-05-08T14:48:13.000Z</time>
      </trkpt>
      <trkpt lat="48.89095" lon="0.11237">
        <ele>265.79998779297</ele>
        <time>2016-05-08T14:48:56.000Z</time>
      </trkpt>
      <trkpt lat="48.89097" lon="0.11232">
        <ele>265.79998779297</ele>
        <time>2016-05-08T14:48:59.000Z</time>
      </trkpt>
      <trkpt lat="48.89098" lon="0.11228">
        <ele>265.79998779297</ele>
        <time>2016-05-08T14:49:04.000Z</time>
      </trkpt>
      <trkpt lat="48.89134" lon="0.11152">
        <ele>265.60000610352</ele>
        <time>2016-05-08T14:50:05.000Z</time>
      </trkpt>
      <trkpt lat="48.89135" lon="0.11151">
        <ele>265.60000610352</ele>
        <time>2016-05-08T14:50:06.000Z</time>
      </trkpt>
      <trkpt lat="48.89142" lon="0.11135">
        <ele>265.60000610352</ele>
        <time>2016-05-08T14:50:15.000Z</time>
      </trkpt>
      <trkpt lat="48.89147" lon="0.11126">
        <ele>265.60000610352</ele>
        <time>2016-05-08T14:50:21.000Z</time>
      </trkpt>
      <trkpt lat="48.89151" lon="0.11121">
        <ele>265.39999389648</ele>
        <time>2016-05-08T14:50:25.000Z</time>
      </trkpt>
      <trkpt lat="48.89154" lon="0.11117">
        <ele>265.39999389648</ele>
        <time>2016-05-08T14:50:28.000Z</time>
      </trkpt>
      <trkpt lat="48.89156" lon="0.11114">
        <ele>265.39999389648</ele>
        <time>2016-05-08T14:50:30.000Z</time>
      </trkpt>
      <trkpt lat="48.89162" lon="0.11106">
        <ele>265.39999389648</ele>
        <time>2016-05-08T14:50:36.000Z</time>
      </trkpt>
      <trkpt lat="48.8917" lon="0.11096">
        <ele>265.39999389648</ele>
        <time>2016-05-08T14:50:44.000Z</time>
      </trkpt>
      <trkpt lat="48.89176" lon="0.11089">
        <ele>265.39999389648</ele>
        <time>2016-05-08T14:50:50.000Z</time>
      </trkpt>
      <trkpt lat="48.89178" lon="0.11086">
        <ele>265.39999389648</ele>
        <time>2016-05-08T14:50:52.000Z</time>
      </trkpt>
      <trkpt lat="48.8918" lon="0.11083">
        <ele>265.60000610352</ele>
        <time>2016-05-08T14:50:55.000Z</time>
      </trkpt>
      <trkpt lat="48.89183" lon="0.1108">
        <ele>265.60000610352</ele>
        <time>2016-05-08T14:50:58.000Z</time>
      </trkpt>
      <trkpt lat="48.89189" lon="0.11069">
        <ele>265.60000610352</ele>
        <time>2016-05-08T14:51:05.000Z</time>
      </trkpt>
      <trkpt lat="48.89194" lon="0.11061">
        <ele>265.79998779297</ele>
        <time>2016-05-08T14:51:11.000Z</time>
      </trkpt>
      <trkpt lat="48.89198" lon="0.11053">
        <ele>265.79998779297</ele>
        <time>2016-05-08T14:51:16.000Z</time>
      </trkpt>
      <trkpt lat="48.892" lon="0.11051">
        <ele>265.79998779297</ele>
        <time>2016-05-08T14:51:18.000Z</time>
      </trkpt>
      <trkpt lat="48.89204" lon="0.11044">
        <ele>265.79998779297</ele>
        <time>2016-05-08T14:51:23.000Z</time>
      </trkpt>
      <trkpt lat="48.89206" lon="0.11041">
        <ele>265.79998779297</ele>
        <time>2016-05-08T14:51:25.000Z</time>
      </trkpt>
      <trkpt lat="48.89207" lon="0.1104">
        <ele>265.79998779297</ele>
        <time>2016-05-08T14:51:26.000Z</time>
      </trkpt>
      <trkpt lat="48.89211" lon="0.11034">
        <ele>265.79998779297</ele>
        <time>2016-05-08T14:51:30.000Z</time>
      </trkpt>
      <trkpt lat="48.89213" lon="0.11028">
        <ele>265.79998779297</ele>
        <time>2016-05-08T14:51:34.000Z</time>
      </trkpt>
      <trkpt lat="48.89214" lon="0.11026">
        <ele>265.79998779297</ele>
        <time>2016-05-08T14:51:35.000Z</time>
      </trkpt>
      <trkpt lat="48.89216" lon="0.11023">
        <ele>265.60000610352</ele>
        <time>2016-05-08T14:51:37.000Z</time>
      </trkpt>
      <trkpt lat="48.89218" lon="0.11017">
        <ele>265.60000610352</ele>
        <time>2016-05-08T14:51:41.000Z</time>
      </trkpt>
      <trkpt lat="48.8922" lon="0.11014">
        <ele>265.60000610352</ele>
        <time>2016-05-08T14:51:43.000Z</time>
      </trkpt>
      <trkpt lat="48.89225" lon="0.11003">
        <ele>265.60000610352</ele>
        <time>2016-05-08T14:51:50.000Z</time>
      </trkpt>
      <trkpt lat="48.89226" lon="0.11002">
        <ele>265.60000610352</ele>
        <time>2016-05-08T14:51:52.000Z</time>
      </trkpt>
      <trkpt lat="48.89226" lon="0.11001">
        <ele>265.60000610352</ele>
        <time>2016-05-08T14:51:54.000Z</time>
      </trkpt>
      <trkpt lat="48.89241" lon="0.10963">
        <ele>266</ele>
        <time>2016-05-08T14:52:32.000Z</time>
      </trkpt>
      <trkpt lat="48.89246" lon="0.1095">
        <ele>265.79998779297</ele>
        <time>2016-05-08T14:52:41.000Z</time>
      </trkpt>
      <trkpt lat="48.89247" lon="0.10947">
        <ele>265.79998779297</ele>
        <time>2016-05-08T14:52:45.000Z</time>
      </trkpt>
      <trkpt lat="48.89257" lon="0.10917">
        <ele>265.39999389648</ele>
        <time>2016-05-08T14:53:18.000Z</time>
      </trkpt>
      <trkpt lat="48.89258" lon="0.10915">
        <ele>265.39999389648</ele>
        <time>2016-05-08T14:53:19.000Z</time>
      </trkpt>
      <trkpt lat="48.89262" lon="0.10903">
        <ele>265.39999389648</ele>
        <time>2016-05-08T14:53:27.000Z</time>
      </trkpt>
      <trkpt lat="48.89263" lon="0.10898">
        <ele>265.20001220703</ele>
        <time>2016-05-08T14:53:31.000Z</time>
      </trkpt>
      <trkpt lat="48.89264" lon="0.1089">
        <ele>265.20001220703</ele>
        <time>2016-05-08T14:53:35.000Z</time>
      </trkpt>
      <trkpt lat="48.89269" lon="0.10879">
        <ele>265</ele>
        <time>2016-05-08T14:53:41.000Z</time>
      </trkpt>
      <trkpt lat="48.89273" lon="0.10869">
        <ele>265</ele>
        <time>2016-05-08T14:53:47.000Z</time>
      </trkpt>
      <trkpt lat="48.89281" lon="0.10854">
        <ele>265</ele>
        <time>2016-05-08T14:53:55.000Z</time>
      </trkpt>
      <trkpt lat="48.89288" lon="0.10839">
        <ele>265</ele>
        <time>2016-05-08T14:54:03.000Z</time>
      </trkpt>
      <trkpt lat="48.89292" lon="0.10832">
        <ele>265</ele>
        <time>2016-05-08T14:54:08.000Z</time>
      </trkpt>
      <trkpt lat="48.89294" lon="0.10831">
        <ele>265</ele>
        <time>2016-05-08T14:54:12.000Z</time>
      </trkpt>
      <trkpt lat="48.89289" lon="0.10802">
        <ele>265</ele>
        <time>2016-05-08T14:54:47.000Z</time>
      </trkpt>
      <trkpt lat="48.89285" lon="0.10797">
        <ele>264.79998779297</ele>
        <time>2016-05-08T14:54:51.000Z</time>
      </trkpt>
      <trkpt lat="48.89282" lon="0.10793">
        <ele>264.79998779297</ele>
        <time>2016-05-08T14:54:54.000Z</time>
      </trkpt>
      <trkpt lat="48.89272" lon="0.1078">
        <ele>264.79998779297</ele>
        <time>2016-05-08T14:55:04.000Z</time>
      </trkpt>
      <trkpt lat="48.89262" lon="0.10768">
        <ele>264.60000610352</ele>
        <time>2016-05-08T14:55:13.000Z</time>
      </trkpt>
      <trkpt lat="48.89253" lon="0.10755">
        <ele>264.60000610352</ele>
        <time>2016-05-08T14:55:22.000Z</time>
      </trkpt>
      <trkpt lat="48.89246" lon="0.10747">
        <ele>264.60000610352</ele>
        <time>2016-05-08T14:55:29.000Z</time>
      </trkpt>
      <trkpt lat="48.89235" lon="0.10732">
        <ele>264.39999389648</ele>
        <time>2016-05-08T14:55:40.000Z</time>
      </trkpt>
      <trkpt lat="48.89223" lon="0.10717">
        <ele>264.39999389648</ele>
        <time>2016-05-08T14:55:51.000Z</time>
      </trkpt>
      <trkpt lat="48.89214" lon="0.10705">
        <ele>264.39999389648</ele>
        <time>2016-05-08T14:55:59.000Z</time>
      </trkpt>
      <trkpt lat="48.89206" lon="0.10694">
        <ele>264.60000610352</ele>
        <time>2016-05-08T14:56:07.000Z</time>
      </trkpt>
      <trkpt lat="48.89193" lon="0.10678">
        <ele>265</ele>
        <time>2016-05-08T14:56:19.000Z</time>
      </trkpt>
      <trkpt lat="48.89185" lon="0.10669">
        <ele>265</ele>
        <time>2016-05-08T14:56:26.000Z</time>
      </trkpt>
      <trkpt lat="48.89176" lon="0.10658">
        <ele>265</ele>
        <time>2016-05-08T14:56:34.000Z</time>
      </trkpt>
      <trkpt lat="48.89167" lon="0.10646">
        <ele>265</ele>
        <time>2016-05-08T14:56:42.000Z</time>
      </trkpt>
      <trkpt lat="48.89158" lon="0.10637">
        <ele>265</ele>
        <time>2016-05-08T14:56:49.000Z</time>
      </trkpt>
      <trkpt lat="48.89152" lon="0.10627">
        <ele>265</ele>
        <time>2016-05-08T14:56:55.000Z</time>
      </trkpt>
      <trkpt lat="48.89142" lon="0.10614">
        <ele>264.79998779297</ele>
        <time>2016-05-08T14:57:04.000Z</time>
      </trkpt>
      <trkpt lat="48.89139" lon="0.10612">
        <ele>264.60000610352</ele>
        <time>2016-05-08T14:57:06.000Z</time>
      </trkpt>
      <trkpt lat="48.89137" lon="0.10609">
        <ele>264.60000610352</ele>
        <time>2016-05-08T14:57:08.000Z</time>
      </trkpt>
      <trkpt lat="48.89129" lon="0.10599">
        <ele>264.39999389648</ele>
        <time>2016-05-08T14:57:15.000Z</time>
      </trkpt>
      <trkpt lat="48.89119" lon="0.10585">
        <ele>264</ele>
        <time>2016-05-08T14:57:25.000Z</time>
      </trkpt>
      <trkpt lat="48.89109" lon="0.10572">
        <ele>263.60000610352</ele>
        <time>2016-05-08T14:57:34.000Z</time>
      </trkpt>
      <trkpt lat="48.89102" lon="0.10563">
        <ele>263.60000610352</ele>
        <time>2016-05-08T14:57:40.000Z</time>
      </trkpt>
      <trkpt lat="48.89091" lon="0.1055">
        <ele>263.39999389648</ele>
        <time>2016-05-08T14:57:50.000Z</time>
      </trkpt>
      <trkpt lat="48.89083" lon="0.10539">
        <ele>263.20001220703</ele>
        <time>2016-05-08T14:57:59.000Z</time>
      </trkpt>
      <trkpt lat="48.89079" lon="0.10535">
        <ele>263.20001220703</ele>
        <time>2016-05-08T14:58:02.000Z</time>
      </trkpt>
      <trkpt lat="48.89076" lon="0.10531">
        <ele>263.20001220703</ele>
        <time>2016-05-08T14:58:05.000Z</time>
      </trkpt>
      <trkpt lat="48.89068" lon="0.10521">
        <ele>263.20001220703</ele>
        <time>2016-05-08T14:58:12.000Z</time>
      </trkpt>
      <trkpt lat="48.89056" lon="0.10506">
        <ele>263.20001220703</ele>
        <time>2016-05-08T14:58:23.000Z</time>
      </trkpt>
      <trkpt lat="48.89044" lon="0.10492">
        <ele>263.20001220703</ele>
        <time>2016-05-08T14:58:34.000Z</time>
      </trkpt>
      <trkpt lat="48.89038" lon="0.10484">
        <ele>263.20001220703</ele>
        <time>2016-05-08T14:58:40.000Z</time>
      </trkpt>
      <trkpt lat="48.89021" lon="0.10463">
        <ele>263</ele>
        <time>2016-05-08T14:58:55.000Z</time>
      </trkpt>
      <trkpt lat="48.89008" lon="0.10446">
        <ele>263.60000610352</ele>
        <time>2016-05-08T14:59:07.000Z</time>
      </trkpt>
      <trkpt lat="48.89" lon="0.10436">
        <ele>263.79998779297</ele>
        <time>2016-05-08T14:59:14.000Z</time>
      </trkpt>
      <trkpt lat="48.88986" lon="0.10418">
        <ele>264.20001220703</ele>
        <time>2016-05-08T14:59:27.000Z</time>
      </trkpt>
      <trkpt lat="48.88974" lon="0.10404">
        <ele>264.39999389648</ele>
        <time>2016-05-08T14:59:38.000Z</time>
      </trkpt>
      <trkpt lat="48.88965" lon="0.10392">
        <ele>264.79998779297</ele>
        <time>2016-05-08T14:59:47.000Z</time>
      </trkpt>
      <trkpt lat="48.88957" lon="0.10382">
        <ele>265</ele>
        <time>2016-05-08T14:59:54.000Z</time>
      </trkpt>
      <trkpt lat="48.88951" lon="0.10373">
        <ele>265.20001220703</ele>
        <time>2016-05-08T15:00:00.000Z</time>
      </trkpt>
      <trkpt lat="48.88952" lon="0.10369">
        <ele>265.20001220703</ele>
        <time>2016-05-08T15:00:02.000Z</time>
      </trkpt>
      <trkpt lat="48.88958" lon="0.10359">
        <ele>264.60000610352</ele>
        <time>2016-05-08T15:00:08.000Z</time>
      </trkpt>
      <trkpt lat="48.88959" lon="0.10357">
        <ele>264.60000610352</ele>
        <time>2016-05-08T15:00:09.000Z</time>
      </trkpt>
      <trkpt lat="48.88963" lon="0.10353">
        <ele>264.39999389648</ele>
        <time>2016-05-08T15:00:13.000Z</time>
      </trkpt>
      <trkpt lat="48.88966" lon="0.10351">
        <ele>264</ele>
        <time>2016-05-08T15:00:16.000Z</time>
      </trkpt>
      <trkpt lat="48.88971" lon="0.10345">
        <ele>263.79998779297</ele>
        <time>2016-05-08T15:00:21.000Z</time>
      </trkpt>
      <trkpt lat="48.88972" lon="0.10343">
        <ele>263.60000610352</ele>
        <time>2016-05-08T15:00:22.000Z</time>
      </trkpt>
      <trkpt lat="48.88982" lon="0.10331">
        <ele>262.79998779297</ele>
        <time>2016-05-08T15:00:31.000Z</time>
      </trkpt>
      <trkpt lat="48.88992" lon="0.1032">
        <ele>262</ele>
        <time>2016-05-08T15:00:40.000Z</time>
      </trkpt>
      <trkpt lat="48.89" lon="0.10311">
        <ele>261.20001220703</ele>
        <time>2016-05-08T15:00:47.000Z</time>
      </trkpt>
      <trkpt lat="48.8901" lon="0.10301">
        <ele>260.20001220703</ele>
        <time>2016-05-08T15:00:56.000Z</time>
      </trkpt>
      <trkpt lat="48.89012" lon="0.10297">
        <ele>260</ele>
        <time>2016-05-08T15:00:59.000Z</time>
      </trkpt>
      <trkpt lat="48.89016" lon="0.10294">
        <ele>259.60000610352</ele>
        <time>2016-05-08T15:01:02.000Z</time>
      </trkpt>
      <trkpt lat="48.89019" lon="0.1029">
        <ele>259.20001220703</ele>
        <time>2016-05-08T15:01:05.000Z</time>
      </trkpt>
      <trkpt lat="48.89027" lon="0.10282">
        <ele>258.60000610352</ele>
        <time>2016-05-08T15:01:13.000Z</time>
      </trkpt>
      <trkpt lat="48.89037" lon="0.10272">
        <ele>257.79998779297</ele>
        <time>2016-05-08T15:01:23.000Z</time>
      </trkpt>
      <trkpt lat="48.89041" lon="0.10268">
        <ele>257.39999389648</ele>
        <time>2016-05-08T15:01:28.000Z</time>
      </trkpt>
      <trkpt lat="48.89041" lon="0.10268">
        <ele>257.39999389648</ele>
        <time>2016-05-08T15:01:29.000Z</time>
      </trkpt>
      <trkpt lat="48.89058" lon="0.10252">
        <ele>256</ele>
        <time>2016-05-08T15:01:54.000Z</time>
      </trkpt>
      <trkpt lat="48.89062" lon="0.10248">
        <ele>255.60000610352</ele>
        <time>2016-05-08T15:01:58.000Z</time>
      </trkpt>
      <trkpt lat="48.89071" lon="0.1024">
        <ele>254.80000305176</ele>
        <time>2016-05-08T15:02:07.000Z</time>
      </trkpt>
      <trkpt lat="48.89077" lon="0.1023">
        <ele>254</ele>
        <time>2016-05-08T15:02:15.000Z</time>
      </trkpt>
      <trkpt lat="48.89083" lon="0.10218">
        <ele>253.19999694824</ele>
        <time>2016-05-08T15:02:22.000Z</time>
      </trkpt>
      <trkpt lat="48.8909" lon="0.10205">
        <ele>252.19999694824</ele>
        <time>2016-05-08T15:02:30.000Z</time>
      </trkpt>
      <trkpt lat="48.89094" lon="0.10198">
        <ele>251.39999389648</ele>
        <time>2016-05-08T15:02:35.000Z</time>
      </trkpt>
      <trkpt lat="48.89097" lon="0.10193">
        <ele>251</ele>
        <time>2016-05-08T15:02:38.000Z</time>
      </trkpt>
      <trkpt lat="48.89102" lon="0.10183">
        <ele>249.80000305176</ele>
        <time>2016-05-08T15:02:45.000Z</time>
      </trkpt>
      <trkpt lat="48.89101" lon="0.10173">
        <ele>249.39999389648</ele>
        <time>2016-05-08T15:02:50.000Z</time>
      </trkpt>
      <trkpt lat="48.891" lon="0.10171">
        <ele>249.19999694824</ele>
        <time>2016-05-08T15:02:51.000Z</time>
      </trkpt>
      <trkpt lat="48.89102" lon="0.10161">
        <ele>248.60000610352</ele>
        <time>2016-05-08T15:02:56.000Z</time>
      </trkpt>
      <trkpt lat="48.89103" lon="0.10157">
        <ele>248.19999694824</ele>
        <time>2016-05-08T15:02:57.000Z</time>
      </trkpt>
      <trkpt lat="48.89103" lon="0.10151">
        <ele>247.80000305176</ele>
        <time>2016-05-08T15:03:01.000Z</time>
      </trkpt>
      <trkpt lat="48.89104" lon="0.10149">
        <ele>247.60000610352</ele>
        <time>2016-05-08T15:03:02.000Z</time>
      </trkpt>
      <trkpt lat="48.89106" lon="0.10145">
        <ele>247.19999694824</ele>
        <time>2016-05-08T15:03:05.000Z</time>
      </trkpt>
      <trkpt lat="48.8911" lon="0.1014">
        <ele>246.39999389648</ele>
        <time>2016-05-08T15:03:10.000Z</time>
      </trkpt>
      <trkpt lat="48.89111" lon="0.10138">
        <ele>246.19999694824</ele>
        <time>2016-05-08T15:03:11.000Z</time>
      </trkpt>
      <trkpt lat="48.89112" lon="0.10137">
        <ele>246</ele>
        <time>2016-05-08T15:03:12.000Z</time>
      </trkpt>
      <trkpt lat="48.89116" lon="0.10132">
        <ele>245</ele>
        <time>2016-05-08T15:03:16.000Z</time>
      </trkpt>
      <trkpt lat="48.89123" lon="0.10123">
        <ele>243.39999389648</ele>
        <time>2016-05-08T15:03:22.000Z</time>
      </trkpt>
      <trkpt lat="48.89126" lon="0.10119">
        <ele>242.80000305176</ele>
        <time>2016-05-08T15:03:25.000Z</time>
      </trkpt>
      <trkpt lat="48.8913" lon="0.10113">
        <ele>241.80000305176</ele>
        <time>2016-05-08T15:03:30.000Z</time>
      </trkpt>
      <trkpt lat="48.89139" lon="0.10104">
        <ele>240</ele>
        <time>2016-05-08T15:03:38.000Z</time>
      </trkpt>
      <trkpt lat="48.89141" lon="0.10101">
        <ele>239.39999389648</ele>
        <time>2016-05-08T15:03:41.000Z</time>
      </trkpt>
      <trkpt lat="48.89144" lon="0.10099">
        <ele>239</ele>
        <time>2016-05-08T15:03:44.000Z</time>
      </trkpt>
      <trkpt lat="48.89148" lon="0.10095">
        <ele>238.19999694824</ele>
        <time>2016-05-08T15:03:49.000Z</time>
      </trkpt>
      <trkpt lat="48.89148" lon="0.10093">
        <ele>238</ele>
        <time>2016-05-08T15:03:51.000Z</time>
      </trkpt>
      <trkpt lat="48.89149" lon="0.10091">
        <ele>237.60000610352</ele>
        <time>2016-05-08T15:03:53.000Z</time>
      </trkpt>
      <trkpt lat="48.89151" lon="0.1009">
        <ele>237.39999389648</ele>
        <time>2016-05-08T15:03:55.000Z</time>
      </trkpt>
      <trkpt lat="48.89157" lon="0.10087">
        <ele>236.39999389648</ele>
        <time>2016-05-08T15:04:00.000Z</time>
      </trkpt>
      <trkpt lat="48.89162" lon="0.1008">
        <ele>235.19999694824</ele>
        <time>2016-05-08T15:04:06.000Z</time>
      </trkpt>
      <trkpt lat="48.89164" lon="0.10078">
        <ele>234.80000305176</ele>
        <time>2016-05-08T15:04:09.000Z</time>
      </trkpt>
      <trkpt lat="48.89164" lon="0.10077">
        <ele>234.60000610352</ele>
        <time>2016-05-08T15:04:10.000Z</time>
      </trkpt>
      <trkpt lat="48.89166" lon="0.10075">
        <ele>234.39999389648</ele>
        <time>2016-05-08T15:04:11.000Z</time>
      </trkpt>
      <trkpt lat="48.89169" lon="0.10071">
        <ele>233.80000305176</ele>
        <time>2016-05-08T15:04:14.000Z</time>
      </trkpt>
      <trkpt lat="48.89172" lon="0.10064">
        <ele>232.80000305176</ele>
        <time>2016-05-08T15:04:18.000Z</time>
      </trkpt>
      <trkpt lat="48.89179" lon="0.10058">
        <ele>231.60000610352</ele>
        <time>2016-05-08T15:04:25.000Z</time>
      </trkpt>
      <trkpt lat="48.89186" lon="0.10052">
        <ele>230</ele>
        <time>2016-05-08T15:04:33.000Z</time>
      </trkpt>
      <trkpt lat="48.89191" lon="0.10048">
        <ele>229.19999694824</ele>
        <time>2016-05-08T15:04:38.000Z</time>
      </trkpt>
      <trkpt lat="48.89198" lon="0.10045">
        <ele>228.60000610352</ele>
        <time>2016-05-08T15:04:45.000Z</time>
      </trkpt>
      <trkpt lat="48.89204" lon="0.10043">
        <ele>228</ele>
        <time>2016-05-08T15:04:50.000Z</time>
      </trkpt>
      <trkpt lat="48.89205" lon="0.10043">
        <ele>227.80000305176</ele>
        <time>2016-05-08T15:04:51.000Z</time>
      </trkpt>
      <trkpt lat="48.89209" lon="0.10042">
        <ele>227.60000610352</ele>
        <time>2016-05-08T15:04:55.000Z</time>
      </trkpt>
      <trkpt lat="48.8921" lon="0.10041">
        <ele>227.39999389648</ele>
        <time>2016-05-08T15:04:56.000Z</time>
      </trkpt>
      <trkpt lat="48.89217" lon="0.10039">
        <ele>226.80000305176</ele>
        <time>2016-05-08T15:05:02.000Z</time>
      </trkpt>
      <trkpt lat="48.89222" lon="0.10037">
        <ele>226.39999389648</ele>
        <time>2016-05-08T15:05:07.000Z</time>
      </trkpt>
      <trkpt lat="48.89226" lon="0.10036">
        <ele>226</ele>
        <time>2016-05-08T15:05:12.000Z</time>
      </trkpt>
      <trkpt lat="48.89227" lon="0.10035">
        <ele>225.80000305176</ele>
        <time>2016-05-08T15:05:14.000Z</time>
      </trkpt>
      <trkpt lat="48.89229" lon="0.10034">
        <ele>225.80000305176</ele>
        <time>2016-05-08T15:05:16.000Z</time>
      </trkpt>
      <trkpt lat="48.89234" lon="0.1003">
        <ele>225.19999694824</ele>
        <time>2016-05-08T15:05:20.000Z</time>
      </trkpt>
      <trkpt lat="48.89235" lon="0.10028">
        <ele>225</ele>
        <time>2016-05-08T15:05:21.000Z</time>
      </trkpt>
      <trkpt lat="48.89238" lon="0.10026">
        <ele>224.80000305176</ele>
        <time>2016-05-08T15:05:24.000Z</time>
      </trkpt>
      <trkpt lat="48.8924" lon="0.10023">
        <ele>224.39999389648</ele>
        <time>2016-05-08T15:05:27.000Z</time>
      </trkpt>
      <trkpt lat="48.89247" lon="0.10018">
        <ele>223.60000610352</ele>
        <time>2016-05-08T15:05:33.000Z</time>
      </trkpt>
      <trkpt lat="48.89254" lon="0.10013">
        <ele>222.80000305176</ele>
        <time>2016-05-08T15:05:39.000Z</time>
      </trkpt>
      <trkpt lat="48.89262" lon="0.10007">
        <ele>221.60000610352</ele>
        <time>2016-05-08T15:05:45.000Z</time>
      </trkpt>
      <trkpt lat="48.89267" lon="0.10002">
        <ele>221</ele>
        <time>2016-05-08T15:05:49.000Z</time>
      </trkpt>
      <trkpt lat="48.8927" lon="0.10001">
        <ele>220.80000305176</ele>
        <time>2016-05-08T15:05:51.000Z</time>
      </trkpt>
      <trkpt lat="48.8928" lon="0.09998">
        <ele>219.80000305176</ele>
        <time>2016-05-08T15:05:58.000Z</time>
      </trkpt>
      <trkpt lat="48.89289" lon="0.09997">
        <ele>219</ele>
        <time>2016-05-08T15:06:05.000Z</time>
      </trkpt>
      <trkpt lat="48.89296" lon="0.09997">
        <ele>218.60000610352</ele>
        <time>2016-05-08T15:06:11.000Z</time>
      </trkpt>
      <trkpt lat="48.893" lon="0.09996">
        <ele>218.19999694824</ele>
        <time>2016-05-08T15:06:16.000Z</time>
      </trkpt>
      <trkpt lat="48.89309" lon="0.09995">
        <ele>217.60000610352</ele>
        <time>2016-05-08T15:06:22.000Z</time>
      </trkpt>
      <trkpt lat="48.89317" lon="0.09993">
        <ele>216.60000610352</ele>
        <time>2016-05-08T15:06:30.000Z</time>
      </trkpt>
      <trkpt lat="48.89325" lon="0.09991">
        <ele>215.60000610352</ele>
        <time>2016-05-08T15:06:38.000Z</time>
      </trkpt>
      <trkpt lat="48.89334" lon="0.09988">
        <ele>214.60000610352</ele>
        <time>2016-05-08T15:06:45.000Z</time>
      </trkpt>
      <trkpt lat="48.89344" lon="0.09983">
        <ele>213.19999694824</ele>
        <time>2016-05-08T15:06:53.000Z</time>
      </trkpt>
      <trkpt lat="48.89354" lon="0.09979">
        <ele>212</ele>
        <time>2016-05-08T15:07:00.000Z</time>
      </trkpt>
      <trkpt lat="48.89363" lon="0.09976">
        <ele>210.60000610352</ele>
        <time>2016-05-08T15:07:07.000Z</time>
      </trkpt>
      <trkpt lat="48.8937" lon="0.09974">
        <ele>210</ele>
        <time>2016-05-08T15:07:11.000Z</time>
      </trkpt>
      <trkpt lat="48.89372" lon="0.09974">
        <ele>209.80000305176</ele>
        <time>2016-05-08T15:07:13.000Z</time>
      </trkpt>
      <trkpt lat="48.89377" lon="0.0997">
        <ele>209.39999389648</ele>
        <time>2016-05-08T15:07:18.000Z</time>
      </trkpt>
      <trkpt lat="48.89385" lon="0.09966">
        <ele>208.80000305176</ele>
        <time>2016-05-08T15:07:23.000Z</time>
      </trkpt>
      <trkpt lat="48.89392" lon="0.09964">
        <ele>208.39999389648</ele>
        <time>2016-05-08T15:07:27.000Z</time>
      </trkpt>
      <trkpt lat="48.89401" lon="0.09963">
        <ele>208</ele>
        <time>2016-05-08T15:07:33.000Z</time>
      </trkpt>
      <trkpt lat="48.89403" lon="0.09963">
        <ele>207.80000305176</ele>
        <time>2016-05-08T15:07:34.000Z</time>
      </trkpt>
      <trkpt lat="48.8941" lon="0.09961">
        <ele>207.39999389648</ele>
        <time>2016-05-08T15:07:40.000Z</time>
      </trkpt>
      <trkpt lat="48.89413" lon="0.0996">
        <ele>207.39999389648</ele>
        <time>2016-05-08T15:07:42.000Z</time>
      </trkpt>
      <trkpt lat="48.89418" lon="0.09957">
        <ele>207</ele>
        <time>2016-05-08T15:07:47.000Z</time>
      </trkpt>
      <trkpt lat="48.89424" lon="0.09956">
        <ele>206.60000610352</ele>
        <time>2016-05-08T15:07:52.000Z</time>
      </trkpt>
      <trkpt lat="48.89428" lon="0.09956">
        <ele>206.39999389648</ele>
        <time>2016-05-08T15:07:57.000Z</time>
      </trkpt>
      <trkpt lat="48.89443" lon="0.09952">
        <ele>205.60000610352</ele>
        <time>2016-05-08T15:08:11.000Z</time>
      </trkpt>
      <trkpt lat="48.89458" lon="0.09946">
        <ele>204.19999694824</ele>
        <time>2016-05-08T15:08:22.000Z</time>
      </trkpt>
      <trkpt lat="48.89467" lon="0.09941">
        <ele>203.19999694824</ele>
        <time>2016-05-08T15:08:29.000Z</time>
      </trkpt>
      <trkpt lat="48.89476" lon="0.09936">
        <ele>202.39999389648</ele>
        <time>2016-05-08T15:08:36.000Z</time>
      </trkpt>
      <trkpt lat="48.89489" lon="0.09932">
        <ele>201.19999694824</ele>
        <time>2016-05-08T15:08:47.000Z</time>
      </trkpt>
      <trkpt lat="48.89496" lon="0.09931">
        <ele>200.60000610352</ele>
        <time>2016-05-08T15:08:56.000Z</time>
      </trkpt>
      <trkpt lat="48.89544" lon="0.09929">
        <ele>198.19999694824</ele>
        <time>2016-05-08T15:13:27.000Z</time>
      </trkpt>
      <trkpt lat="48.89548" lon="0.09929">
        <ele>198</ele>
        <time>2016-05-08T15:13:30.000Z</time>
      </trkpt>
      <trkpt lat="48.89557" lon="0.09929">
        <ele>197.19999694824</ele>
        <time>2016-05-08T15:13:37.000Z</time>
      </trkpt>
      <trkpt lat="48.89569" lon="0.0993">
        <ele>196.39999389648</ele>
        <time>2016-05-08T15:13:46.000Z</time>
      </trkpt>
      <trkpt lat="48.89581" lon="0.09932">
        <ele>195.60000610352</ele>
        <time>2016-05-08T15:13:56.000Z</time>
      </trkpt>
      <trkpt lat="48.89591" lon="0.09932">
        <ele>195</ele>
        <time>2016-05-08T15:14:03.000Z</time>
      </trkpt>
      <trkpt lat="48.896" lon="0.09933">
        <ele>194.60000610352</ele>
        <time>2016-05-08T15:14:10.000Z</time>
      </trkpt>
      <trkpt lat="48.89611" lon="0.09936">
        <ele>194</ele>
        <time>2016-05-08T15:14:18.000Z</time>
      </trkpt>
      <trkpt lat="48.8962" lon="0.09936">
        <ele>193.60000610352</ele>
        <time>2016-05-08T15:14:25.000Z</time>
      </trkpt>
      <trkpt lat="48.89625" lon="0.09936">
        <ele>193.19999694824</ele>
        <time>2016-05-08T15:14:31.000Z</time>
      </trkpt>
      <trkpt lat="48.89646" lon="0.0993">
        <ele>192.60000610352</ele>
        <time>2016-05-08T15:14:51.000Z</time>
      </trkpt>
      <trkpt lat="48.8965" lon="0.09928">
        <ele>192.39999389648</ele>
        <time>2016-05-08T15:14:55.000Z</time>
      </trkpt>
      <trkpt lat="48.89656" lon="0.09924">
        <ele>192.19999694824</ele>
        <time>2016-05-08T15:14:59.000Z</time>
      </trkpt>
      <trkpt lat="48.89667" lon="0.09919">
        <ele>191.19999694824</ele>
        <time>2016-05-08T15:15:08.000Z</time>
      </trkpt>
      <trkpt lat="48.89679" lon="0.09918">
        <ele>190</ele>
        <time>2016-05-08T15:15:17.000Z</time>
      </trkpt>
      <trkpt lat="48.89681" lon="0.09918">
        <ele>189.80000305176</ele>
        <time>2016-05-08T15:15:19.000Z</time>
      </trkpt>
      <trkpt lat="48.89684" lon="0.09919">
        <ele>189.60000610352</ele>
        <time>2016-05-08T15:15:22.000Z</time>
      </trkpt>
      <trkpt lat="48.89687" lon="0.09921">
        <ele>189.39999389648</ele>
        <time>2016-05-08T15:15:24.000Z</time>
      </trkpt>
      <trkpt lat="48.89693" lon="0.09926">
        <ele>188.80000305176</ele>
        <time>2016-05-08T15:15:30.000Z</time>
      </trkpt>
      <trkpt lat="48.89694" lon="0.09927">
        <ele>188.80000305176</ele>
        <time>2016-05-08T15:15:31.000Z</time>
      </trkpt>
      <trkpt lat="48.89697" lon="0.0993">
        <ele>188.60000610352</ele>
        <time>2016-05-08T15:15:35.000Z</time>
      </trkpt>
      <trkpt lat="48.89703" lon="0.09933">
        <ele>188.19999694824</ele>
        <time>2016-05-08T15:15:41.000Z</time>
      </trkpt>
      <trkpt lat="48.89704" lon="0.09935">
        <ele>188.19999694824</ele>
        <time>2016-05-08T15:15:42.000Z</time>
      </trkpt>
      <trkpt lat="48.89711" lon="0.0994">
        <ele>187.80000305176</ele>
        <time>2016-05-08T15:15:47.000Z</time>
      </trkpt>
      <trkpt lat="48.8972" lon="0.09949">
        <ele>187.19999694824</ele>
        <time>2016-05-08T15:15:54.000Z</time>
      </trkpt>
      <trkpt lat="48.89726" lon="0.09957">
        <ele>186.80000305176</ele>
        <time>2016-05-08T15:16:00.000Z</time>
      </trkpt>
      <trkpt lat="48.89731" lon="0.09967">
        <ele>186.80000305176</ele>
        <time>2016-05-08T15:16:06.000Z</time>
      </trkpt>
      <trkpt lat="48.89736" lon="0.09976">
        <ele>186.60000610352</ele>
        <time>2016-05-08T15:16:12.000Z</time>
      </trkpt>
      <trkpt lat="48.8974" lon="0.09983">
        <ele>186.60000610352</ele>
        <time>2016-05-08T15:16:17.000Z</time>
      </trkpt>
      <trkpt lat="48.89744" lon="0.0999">
        <ele>186.39999389648</ele>
        <time>2016-05-08T15:16:24.000Z</time>
      </trkpt>
      <trkpt lat="48.89803" lon="0.09653">
        <ele>192.60000610352</ele>
        <time>2016-05-08T15:24:37.000Z</time>
      </trkpt>
      <trkpt lat="48.89803" lon="0.09648">
        <ele>192.60000610352</ele>
        <time>2016-05-08T15:24:40.000Z</time>
      </trkpt>
      <trkpt lat="48.89804" lon="0.09645">
        <ele>192.60000610352</ele>
        <time>2016-05-08T15:24:43.000Z</time>
      </trkpt>
      <trkpt lat="48.89805" lon="0.09618">
        <ele>193</ele>
        <time>2016-05-08T15:24:59.000Z</time>
      </trkpt>
      <trkpt lat="48.89806" lon="0.09605">
        <ele>193</ele>
        <time>2016-05-08T15:25:07.000Z</time>
      </trkpt>
      <trkpt lat="48.89806" lon="0.09597">
        <ele>193.19999694824</ele>
        <time>2016-05-08T15:25:12.000Z</time>
      </trkpt>
      <trkpt lat="48.89806" lon="0.09595">
        <ele>193.19999694824</ele>
        <time>2016-05-08T15:25:13.000Z</time>
      </trkpt>
      <trkpt lat="48.89807" lon="0.09595">
        <ele>193.19999694824</ele>
        <time>2016-05-08T15:25:15.000Z</time>
      </trkpt>
      <trkpt lat="48.89809" lon="0.09569">
        <ele>193.19999694824</ele>
        <time>2016-05-08T15:25:30.000Z</time>
      </trkpt>
      <trkpt lat="48.89809" lon="0.09568">
        <ele>193.19999694824</ele>
        <time>2016-05-08T15:25:31.000Z</time>
      </trkpt>
      <trkpt lat="48.8981" lon="0.09556">
        <ele>193.19999694824</ele>
        <time>2016-05-08T15:25:38.000Z</time>
      </trkpt>
      <trkpt lat="48.89811" lon="0.09555">
        <ele>193.19999694824</ele>
        <time>2016-05-08T15:25:39.000Z</time>
      </trkpt>
      <trkpt lat="48.89812" lon="0.09549">
        <ele>193.19999694824</ele>
        <time>2016-05-08T15:25:43.000Z</time>
      </trkpt>
      <trkpt lat="48.89813" lon="0.09541">
        <ele>193.19999694824</ele>
        <time>2016-05-08T15:25:48.000Z</time>
      </trkpt>
      <trkpt lat="48.89813" lon="0.0954">
        <ele>193</ele>
        <time>2016-05-08T15:25:49.000Z</time>
      </trkpt>
      <trkpt lat="48.89814" lon="0.0953">
        <ele>193</ele>
        <time>2016-05-08T15:25:54.000Z</time>
      </trkpt>
      <trkpt lat="48.89816" lon="0.09523">
        <ele>193</ele>
        <time>2016-05-08T15:25:59.000Z</time>
      </trkpt>
      <trkpt lat="48.89816" lon="0.0952">
        <ele>193</ele>
        <time>2016-05-08T15:26:00.000Z</time>
      </trkpt>
      <trkpt lat="48.89816" lon="0.09517">
        <ele>193</ele>
        <time>2016-05-08T15:26:03.000Z</time>
      </trkpt>
      <trkpt lat="48.89817" lon="0.0951">
        <ele>192.80000305176</ele>
        <time>2016-05-08T15:26:07.000Z</time>
      </trkpt>
      <trkpt lat="48.89818" lon="0.09499">
        <ele>192.80000305176</ele>
        <time>2016-05-08T15:26:12.000Z</time>
      </trkpt>
      <trkpt lat="48.89817" lon="0.09493">
        <ele>192.60000610352</ele>
        <time>2016-05-08T15:26:16.000Z</time>
      </trkpt>
      <trkpt lat="48.89819" lon="0.09485">
        <ele>192.39999389648</ele>
        <time>2016-05-08T15:26:21.000Z</time>
      </trkpt>
      <trkpt lat="48.8982" lon="0.0948">
        <ele>192.19999694824</ele>
        <time>2016-05-08T15:26:24.000Z</time>
      </trkpt>
      <trkpt lat="48.8982" lon="0.09474">
        <ele>192</ele>
        <time>2016-05-08T15:26:28.000Z</time>
      </trkpt>
      <trkpt lat="48.89821" lon="0.09465">
        <ele>191.60000610352</ele>
        <time>2016-05-08T15:26:34.000Z</time>
      </trkpt>
      <trkpt lat="48.89823" lon="0.09457">
        <ele>191.39999389648</ele>
        <time>2016-05-08T15:26:38.000Z</time>
      </trkpt>
      <trkpt lat="48.89824" lon="0.09449">
        <ele>191.19999694824</ele>
        <time>2016-05-08T15:26:44.000Z</time>
      </trkpt>
      <trkpt lat="48.89827" lon="0.09443">
        <ele>191</ele>
        <time>2016-05-08T15:26:48.000Z</time>
      </trkpt>
      <trkpt lat="48.89828" lon="0.09438">
        <ele>190.80000305176</ele>
        <time>2016-05-08T15:26:51.000Z</time>
      </trkpt>
      <trkpt lat="48.89829" lon="0.09433">
        <ele>190.80000305176</ele>
        <time>2016-05-08T15:26:54.000Z</time>
      </trkpt>
      <trkpt lat="48.8983" lon="0.09424">
        <ele>190.19999694824</ele>
        <time>2016-05-08T15:27:00.000Z</time>
      </trkpt>
      <trkpt lat="48.8983" lon="0.09424">
        <ele>190.19999694824</ele>
        <time>2016-05-08T15:27:01.000Z</time>
      </trkpt>
      <trkpt lat="48.89833" lon="0.09415">
        <ele>189.39999389648</ele>
        <time>2016-05-08T15:27:07.000Z</time>
      </trkpt>
      <trkpt lat="48.89835" lon="0.09409">
        <ele>188.80000305176</ele>
        <time>2016-05-08T15:27:11.000Z</time>
      </trkpt>
      <trkpt lat="48.89836" lon="0.09406">
        <ele>188.60000610352</ele>
        <time>2016-05-08T15:27:13.000Z</time>
      </trkpt>
      <trkpt lat="48.89837" lon="0.09399">
        <ele>188.19999694824</ele>
        <time>2016-05-08T15:27:17.000Z</time>
      </trkpt>
      <trkpt lat="48.89838" lon="0.09392">
        <ele>187.80000305176</ele>
        <time>2016-05-08T15:27:22.000Z</time>
      </trkpt>
      <trkpt lat="48.89841" lon="0.09381">
        <ele>186.80000305176</ele>
        <time>2016-05-08T15:27:29.000Z</time>
      </trkpt>
      <trkpt lat="48.89845" lon="0.09368">
        <ele>185.60000610352</ele>
        <time>2016-05-08T15:27:37.000Z</time>
      </trkpt>
      <trkpt lat="48.89848" lon="0.09351">
        <ele>185</ele>
        <time>2016-05-08T15:27:46.000Z</time>
      </trkpt>
      <trkpt lat="48.89851" lon="0.09339">
        <ele>184.39999389648</ele>
        <time>2016-05-08T15:27:53.000Z</time>
      </trkpt>
      <trkpt lat="48.89853" lon="0.0933">
        <ele>184.19999694824</ele>
        <time>2016-05-08T15:27:59.000Z</time>
      </trkpt>
      <trkpt lat="48.89853" lon="0.09328">
        <ele>184</ele>
        <time>2016-05-08T15:28:00.000Z</time>
      </trkpt>
      <trkpt lat="48.89859" lon="0.09315">
        <ele>183.39999389648</ele>
        <time>2016-05-08T15:28:09.000Z</time>
      </trkpt>
      <trkpt lat="48.89864" lon="0.09302">
        <ele>182.80000305176</ele>
        <time>2016-05-08T15:28:17.000Z</time>
      </trkpt>
      <trkpt lat="48.89866" lon="0.09295">
        <ele>182.39999389648</ele>
        <time>2016-05-08T15:28:22.000Z</time>
      </trkpt>
      <trkpt lat="48.89866" lon="0.09292">
        <ele>182.39999389648</ele>
        <time>2016-05-08T15:28:23.000Z</time>
      </trkpt>
      <trkpt lat="48.89868" lon="0.09286">
        <ele>182.19999694824</ele>
        <time>2016-05-08T15:28:27.000Z</time>
      </trkpt>
      <trkpt lat="48.89869" lon="0.09285">
        <ele>182</ele>
        <time>2016-05-08T15:28:28.000Z</time>
      </trkpt>
      <trkpt lat="48.89868" lon="0.09277">
        <ele>182</ele>
        <time>2016-05-08T15:28:33.000Z</time>
      </trkpt>
      <trkpt lat="48.89869" lon="0.09274">
        <ele>181.80000305176</ele>
        <time>2016-05-08T15:28:34.000Z</time>
      </trkpt>
      <trkpt lat="48.8987" lon="0.09269">
        <ele>181.60000610352</ele>
        <time>2016-05-08T15:28:38.000Z</time>
      </trkpt>
      <trkpt lat="48.8987" lon="0.09265">
        <ele>181.60000610352</ele>
        <time>2016-05-08T15:28:40.000Z</time>
      </trkpt>
      <trkpt lat="48.8987" lon="0.09262">
        <ele>181.39999389648</ele>
        <time>2016-05-08T15:28:42.000Z</time>
      </trkpt>
      <trkpt lat="48.8987" lon="0.09259">
        <ele>181.39999389648</ele>
        <time>2016-05-08T15:28:43.000Z</time>
      </trkpt>
      <trkpt lat="48.89869" lon="0.09255">
        <ele>181.39999389648</ele>
        <time>2016-05-08T15:28:45.000Z</time>
      </trkpt>
      <trkpt lat="48.8987" lon="0.09241">
        <ele>181</ele>
        <time>2016-05-08T15:28:53.000Z</time>
      </trkpt>
      <trkpt lat="48.8987" lon="0.09239">
        <ele>180.80000305176</ele>
        <time>2016-05-08T15:28:57.000Z</time>
      </trkpt>
      <trkpt lat="48.89976" lon="0.09006">
        <ele>183.80000305176</ele>
        <time>2016-05-08T15:35:01.000Z</time>
      </trkpt>
      <trkpt lat="48.89977" lon="0.09005">
        <ele>184</ele>
        <time>2016-05-08T15:35:02.000Z</time>
      </trkpt>
      <trkpt lat="48.89983" lon="0.08994">
        <ele>184.19999694824</ele>
        <time>2016-05-08T15:35:10.000Z</time>
      </trkpt>
      <trkpt lat="48.89985" lon="0.08989">
        <ele>184.19999694824</ele>
        <time>2016-05-08T15:35:13.000Z</time>
      </trkpt>
      <trkpt lat="48.89988" lon="0.08982">
        <ele>184.39999389648</ele>
        <time>2016-05-08T15:35:18.000Z</time>
      </trkpt>
      <trkpt lat="48.8999" lon="0.08978">
        <ele>184.60000610352</ele>
        <time>2016-05-08T15:35:21.000Z</time>
      </trkpt>
      <trkpt lat="48.89991" lon="0.08975">
        <ele>184.60000610352</ele>
        <time>2016-05-08T15:35:24.000Z</time>
      </trkpt>
      <trkpt lat="48.89992" lon="0.08974">
        <ele>184.60000610352</ele>
        <time>2016-05-08T15:35:25.000Z</time>
      </trkpt>
      <trkpt lat="48.89992" lon="0.0897">
        <ele>184.80000305176</ele>
        <time>2016-05-08T15:35:27.000Z</time>
      </trkpt>
      <trkpt lat="48.89995" lon="0.08965">
        <ele>184.80000305176</ele>
        <time>2016-05-08T15:35:31.000Z</time>
      </trkpt>
      <trkpt lat="48.89997" lon="0.08956">
        <ele>185.19999694824</ele>
        <time>2016-05-08T15:35:37.000Z</time>
      </trkpt>
      <trkpt lat="48.9" lon="0.08947">
        <ele>185.39999389648</ele>
        <time>2016-05-08T15:35:43.000Z</time>
      </trkpt>
      <trkpt lat="48.90001" lon="0.08944">
        <ele>185.60000610352</ele>
        <time>2016-05-08T15:35:46.000Z</time>
      </trkpt>
      <trkpt lat="48.90002" lon="0.08943">
        <ele>185.60000610352</ele>
        <time>2016-05-08T15:35:48.000Z</time>
      </trkpt>
      <trkpt lat="48.90006" lon="0.08932">
        <ele>185.80000305176</ele>
        <time>2016-05-08T15:35:54.000Z</time>
      </trkpt>
      <trkpt lat="48.9001" lon="0.08924">
        <ele>186</ele>
        <time>2016-05-08T15:36:00.000Z</time>
      </trkpt>
      <trkpt lat="48.90011" lon="0.08923">
        <ele>186</ele>
        <time>2016-05-08T15:36:01.000Z</time>
      </trkpt>
      <trkpt lat="48.90014" lon="0.08916">
        <ele>186.19999694824</ele>
        <time>2016-05-08T15:36:06.000Z</time>
      </trkpt>
      <trkpt lat="48.90016" lon="0.08911">
        <ele>186.19999694824</ele>
        <time>2016-05-08T15:36:10.000Z</time>
      </trkpt>
      <trkpt lat="48.90017" lon="0.08906">
        <ele>186.39999389648</ele>
        <time>2016-05-08T15:36:14.000Z</time>
      </trkpt>
      <trkpt lat="48.90021" lon="0.08898">
        <ele>186.60000610352</ele>
        <time>2016-05-08T15:36:21.000Z</time>
      </trkpt>
      <trkpt lat="48.90022" lon="0.08886">
        <ele>186.80000305176</ele>
        <time>2016-05-08T15:36:29.000Z</time>
      </trkpt>
      <trkpt lat="48.9002" lon="0.08876">
        <ele>187</ele>
        <time>2016-05-08T15:36:37.000Z</time>
      </trkpt>
      <trkpt lat="48.90018" lon="0.08873">
        <ele>187</ele>
        <time>2016-05-08T15:36:42.000Z</time>
      </trkpt>
    </trkseg>
  </trk>
</gpx>